<?xml version="1.0" encoding="UTF-8" standalone="no" ?>
<gpx xmlns="http://www.topografix.com/GPX/1/1" xmlns:xsi="http://www.w3.org/2001/XMLSchema-instance" xsi:schemaLocation="http://www.topografix.com/GPX/1/1 http://www.topografix.com/GPX/1/1/gpx.xsd" version="1.1" creator="VisuGPX - https://www.visugpx.com">
  <metadata>
    <name>Ronde des Rochers 2015</name>
    <desc><![CDATA[Ronde des Rochers 2015, le Sidobre]]></desc>
  </metadata>
  <trk>
    <name><![CDATA[Ronde Des Rochers 2015]]></name>
    <desc><![CDATA[]]></desc>
    <trkseg>
      <trkpt lat="43.65957" lon="2.34685">
        <ele>546.8</ele>
        <time>2015-11-11T12:10:00.781Z</time>
      </trkpt>
      <trkpt lat="43.65965" lon="2.3468">
        <ele>508.9</ele>
        <time>2015-11-11T12:10:26.685Z</time>
      </trkpt>
      <trkpt lat="43.65965" lon="2.3468">
        <ele>508</ele>
        <time>2015-11-11T12:10:27.670Z</time>
      </trkpt>
      <trkpt lat="43.65971" lon="2.34678">
        <ele>498.4</ele>
        <time>2015-11-11T12:15:59.680Z</time>
      </trkpt>
      <trkpt lat="43.65964" lon="2.34686">
        <ele>489.8</ele>
        <time>2015-11-11T12:16:00.662Z</time>
      </trkpt>
      <trkpt lat="43.65963" lon="2.34686">
        <ele>489.8</ele>
        <time>2015-11-11T12:16:02.701Z</time>
      </trkpt>
      <trkpt lat="43.65962" lon="2.34687">
        <ele>489.9</ele>
        <time>2015-11-11T12:16:03.662Z</time>
      </trkpt>
      <trkpt lat="43.65956" lon="2.34696">
        <ele>489.8</ele>
        <time>2015-11-11T12:16:13.708Z</time>
      </trkpt>
      <trkpt lat="43.65956" lon="2.34697">
        <ele>489.9</ele>
        <time>2015-11-11T12:16:14.684Z</time>
      </trkpt>
      <trkpt lat="43.65959" lon="2.34708">
        <ele>491.4</ele>
        <time>2015-11-11T12:21:00.103Z</time>
      </trkpt>
      <trkpt lat="43.65959" lon="2.3471">
        <ele>491.2</ele>
        <time>2015-11-11T12:21:00.654Z</time>
      </trkpt>
      <trkpt lat="43.6596" lon="2.34722">
        <ele>490</ele>
        <time>2015-11-11T12:21:06.711Z</time>
      </trkpt>
      <trkpt lat="43.65961" lon="2.34723">
        <ele>489.8</ele>
        <time>2015-11-11T12:21:07.662Z</time>
      </trkpt>
      <trkpt lat="43.65967" lon="2.34732">
        <ele>489.6</ele>
        <time>2015-11-11T12:21:13.680Z</time>
      </trkpt>
      <trkpt lat="43.65968" lon="2.34733">
        <ele>489.6</ele>
        <time>2015-11-11T12:21:14.654Z</time>
      </trkpt>
      <trkpt lat="43.65976" lon="2.34737">
        <ele>489.9</ele>
        <time>2015-11-11T12:21:18.687Z</time>
      </trkpt>
      <trkpt lat="43.65978" lon="2.34738">
        <ele>490</ele>
        <time>2015-11-11T12:21:19.661Z</time>
      </trkpt>
      <trkpt lat="43.65986" lon="2.34741">
        <ele>489.9</ele>
        <time>2015-11-11T12:21:22.688Z</time>
      </trkpt>
      <trkpt lat="43.65988" lon="2.34741">
        <ele>490</ele>
        <time>2015-11-11T12:21:23.653Z</time>
      </trkpt>
      <trkpt lat="43.65996" lon="2.34744">
        <ele>487.3</ele>
        <time>2015-11-11T12:21:27.678Z</time>
      </trkpt>
      <trkpt lat="43.65999" lon="2.34745">
        <ele>486.4</ele>
        <time>2015-11-11T12:21:28.657Z</time>
      </trkpt>
      <trkpt lat="43.66005" lon="2.34745">
        <ele>486.4</ele>
        <time>2015-11-11T12:21:30.718Z</time>
      </trkpt>
      <trkpt lat="43.66008" lon="2.34745">
        <ele>487</ele>
        <time>2015-11-11T12:21:31.661Z</time>
      </trkpt>
      <trkpt lat="43.66017" lon="2.34745">
        <ele>486.9</ele>
        <time>2015-11-11T12:21:34.703Z</time>
      </trkpt>
      <trkpt lat="43.66019" lon="2.34745">
        <ele>487.3</ele>
        <time>2015-11-11T12:21:35.661Z</time>
      </trkpt>
      <trkpt lat="43.66026" lon="2.34743">
        <ele>487.6</ele>
        <time>2015-11-11T12:21:38.694Z</time>
      </trkpt>
      <trkpt lat="43.66029" lon="2.34743">
        <ele>487.6</ele>
        <time>2015-11-11T12:21:39.654Z</time>
      </trkpt>
      <trkpt lat="43.66036" lon="2.3474">
        <ele>489.8</ele>
        <time>2015-11-11T12:21:42.680Z</time>
      </trkpt>
      <trkpt lat="43.66038" lon="2.3474">
        <ele>490.2</ele>
        <time>2015-11-11T12:21:43.663Z</time>
      </trkpt>
      <trkpt lat="43.66046" lon="2.3474">
        <ele>491.7</ele>
        <time>2015-11-11T12:21:48.038Z</time>
      </trkpt>
      <trkpt lat="43.66048" lon="2.34739">
        <ele>492.5</ele>
        <time>2015-11-11T12:21:48.653Z</time>
      </trkpt>
      <trkpt lat="43.66057" lon="2.34737">
        <ele>495.5</ele>
        <time>2015-11-11T12:21:52.703Z</time>
      </trkpt>
      <trkpt lat="43.66058" lon="2.34736">
        <ele>496.2</ele>
        <time>2015-11-11T12:21:53.661Z</time>
      </trkpt>
      <trkpt lat="43.66065" lon="2.34733">
        <ele>497</ele>
        <time>2015-11-11T12:21:57.685Z</time>
      </trkpt>
      <trkpt lat="43.66067" lon="2.34732">
        <ele>497</ele>
        <time>2015-11-11T12:21:58.657Z</time>
      </trkpt>
      <trkpt lat="43.66074" lon="2.34725">
        <ele>497.6</ele>
        <time>2015-11-11T12:22:02.693Z</time>
      </trkpt>
      <trkpt lat="43.66076" lon="2.34724">
        <ele>497.7</ele>
        <time>2015-11-11T12:22:03.653Z</time>
      </trkpt>
      <trkpt lat="43.66082" lon="2.3472">
        <ele>499.5</ele>
        <time>2015-11-11T12:22:06.714Z</time>
      </trkpt>
      <trkpt lat="43.66084" lon="2.34718">
        <ele>500.2</ele>
        <time>2015-11-11T12:22:07.661Z</time>
      </trkpt>
      <trkpt lat="43.66093" lon="2.34721">
        <ele>498.4</ele>
        <time>2015-11-11T12:22:11.701Z</time>
      </trkpt>
      <trkpt lat="43.66094" lon="2.34724">
        <ele>498.2</ele>
        <time>2015-11-11T12:22:12.663Z</time>
      </trkpt>
      <trkpt lat="43.66091" lon="2.34735">
        <ele>496.4</ele>
        <time>2015-11-11T12:22:16.679Z</time>
      </trkpt>
      <trkpt lat="43.6609" lon="2.34737">
        <ele>496.3</ele>
        <time>2015-11-11T12:22:17.654Z</time>
      </trkpt>
      <trkpt lat="43.66085" lon="2.34745">
        <ele>497</ele>
        <time>2015-11-11T12:22:21.701Z</time>
      </trkpt>
      <trkpt lat="43.66084" lon="2.34747">
        <ele>497.6</ele>
        <time>2015-11-11T12:22:22.675Z</time>
      </trkpt>
      <trkpt lat="43.6608" lon="2.34757">
        <ele>498.7</ele>
        <time>2015-11-11T12:22:26.676Z</time>
      </trkpt>
      <trkpt lat="43.66079" lon="2.34759">
        <ele>499.1</ele>
        <time>2015-11-11T12:22:27.653Z</time>
      </trkpt>
      <trkpt lat="43.66076" lon="2.34768">
        <ele>500.9</ele>
        <time>2015-11-11T12:22:31.700Z</time>
      </trkpt>
      <trkpt lat="43.66075" lon="2.34771">
        <ele>501.1</ele>
        <time>2015-11-11T12:22:32.661Z</time>
      </trkpt>
      <trkpt lat="43.6607" lon="2.34781">
        <ele>502.1</ele>
        <time>2015-11-11T12:22:36.700Z</time>
      </trkpt>
      <trkpt lat="43.66069" lon="2.34783">
        <ele>502.1</ele>
        <time>2015-11-11T12:22:37.661Z</time>
      </trkpt>
      <trkpt lat="43.66065" lon="2.34791">
        <ele>503.2</ele>
        <time>2015-11-11T12:22:41.678Z</time>
      </trkpt>
      <trkpt lat="43.66063" lon="2.34793">
        <ele>503.5</ele>
        <time>2015-11-11T12:22:42.652Z</time>
      </trkpt>
      <trkpt lat="43.66059" lon="2.34801">
        <ele>503.9</ele>
        <time>2015-11-11T12:22:46.714Z</time>
      </trkpt>
      <trkpt lat="43.66058" lon="2.34803">
        <ele>503.8</ele>
        <time>2015-11-11T12:22:47.661Z</time>
      </trkpt>
      <trkpt lat="43.66052" lon="2.34811">
        <ele>504.2</ele>
        <time>2015-11-11T12:22:51.670Z</time>
      </trkpt>
      <trkpt lat="43.66051" lon="2.34813">
        <ele>504.3</ele>
        <time>2015-11-11T12:22:52.655Z</time>
      </trkpt>
      <trkpt lat="43.66047" lon="2.34823">
        <ele>505.9</ele>
        <time>2015-11-11T12:22:57.679Z</time>
      </trkpt>
      <trkpt lat="43.66046" lon="2.34825">
        <ele>506.1</ele>
        <time>2015-11-11T12:22:58.656Z</time>
      </trkpt>
      <trkpt lat="43.66041" lon="2.34833">
        <ele>507.2</ele>
        <time>2015-11-11T12:23:02.716Z</time>
      </trkpt>
      <trkpt lat="43.6604" lon="2.34835">
        <ele>507.4</ele>
        <time>2015-11-11T12:23:03.662Z</time>
      </trkpt>
      <trkpt lat="43.66035" lon="2.34844">
        <ele>507.6</ele>
        <time>2015-11-11T12:23:06.716Z</time>
      </trkpt>
      <trkpt lat="43.66034" lon="2.34847">
        <ele>507.7</ele>
        <time>2015-11-11T12:23:07.661Z</time>
      </trkpt>
      <trkpt lat="43.66028" lon="2.34854">
        <ele>508.4</ele>
        <time>2015-11-11T12:23:11.783Z</time>
      </trkpt>
      <trkpt lat="43.66026" lon="2.34856">
        <ele>508.7</ele>
        <time>2015-11-11T12:23:12.655Z</time>
      </trkpt>
      <trkpt lat="43.66022" lon="2.34864">
        <ele>509.7</ele>
        <time>2015-11-11T12:23:15.678Z</time>
      </trkpt>
      <trkpt lat="43.66021" lon="2.34866">
        <ele>510.1</ele>
        <time>2015-11-11T12:23:16.660Z</time>
      </trkpt>
      <trkpt lat="43.66017" lon="2.34875">
        <ele>511.3</ele>
        <time>2015-11-11T12:23:20.714Z</time>
      </trkpt>
      <trkpt lat="43.66016" lon="2.34877">
        <ele>511.6</ele>
        <time>2015-11-11T12:23:21.677Z</time>
      </trkpt>
      <trkpt lat="43.66011" lon="2.34885">
        <ele>513.1</ele>
        <time>2015-11-11T12:23:24.683Z</time>
      </trkpt>
      <trkpt lat="43.6601" lon="2.34887">
        <ele>513.4</ele>
        <time>2015-11-11T12:23:25.655Z</time>
      </trkpt>
      <trkpt lat="43.66006" lon="2.34898">
        <ele>515</ele>
        <time>2015-11-11T12:23:30.701Z</time>
      </trkpt>
      <trkpt lat="43.66005" lon="2.349">
        <ele>515.3</ele>
        <time>2015-11-11T12:23:31.661Z</time>
      </trkpt>
      <trkpt lat="43.66001" lon="2.34909">
        <ele>516.6</ele>
        <time>2015-11-11T12:23:36.686Z</time>
      </trkpt>
      <trkpt lat="43.66001" lon="2.34911">
        <ele>516.9</ele>
        <time>2015-11-11T12:23:37.653Z</time>
      </trkpt>
      <trkpt lat="43.65996" lon="2.3492">
        <ele>518.1</ele>
        <time>2015-11-11T12:23:42.694Z</time>
      </trkpt>
      <trkpt lat="43.65996" lon="2.34922">
        <ele>518.2</ele>
        <time>2015-11-11T12:23:43.683Z</time>
      </trkpt>
      <trkpt lat="43.65991" lon="2.34932">
        <ele>519</ele>
        <time>2015-11-11T12:23:48.684Z</time>
      </trkpt>
      <trkpt lat="43.6599" lon="2.34934">
        <ele>519.2</ele>
        <time>2015-11-11T12:23:49.654Z</time>
      </trkpt>
      <trkpt lat="43.65985" lon="2.34943">
        <ele>520.7</ele>
        <time>2015-11-11T12:23:54.733Z</time>
      </trkpt>
      <trkpt lat="43.65984" lon="2.34945">
        <ele>520.9</ele>
        <time>2015-11-11T12:23:55.661Z</time>
      </trkpt>
      <trkpt lat="43.6598" lon="2.34955">
        <ele>522.6</ele>
        <time>2015-11-11T12:24:01.077Z</time>
      </trkpt>
      <trkpt lat="43.65979" lon="2.34956">
        <ele>522.7</ele>
        <time>2015-11-11T12:24:01.653Z</time>
      </trkpt>
      <trkpt lat="43.65975" lon="2.34966">
        <ele>523.8</ele>
        <time>2015-11-11T12:24:07.701Z</time>
      </trkpt>
      <trkpt lat="43.65975" lon="2.34968">
        <ele>524</ele>
        <time>2015-11-11T12:24:08.673Z</time>
      </trkpt>
      <trkpt lat="43.6597" lon="2.34977">
        <ele>525.1</ele>
        <time>2015-11-11T12:24:14.708Z</time>
      </trkpt>
      <trkpt lat="43.65969" lon="2.34979">
        <ele>525.4</ele>
        <time>2015-11-11T12:24:15.662Z</time>
      </trkpt>
      <trkpt lat="43.65966" lon="2.34989">
        <ele>526</ele>
        <time>2015-11-11T12:24:20.705Z</time>
      </trkpt>
      <trkpt lat="43.65966" lon="2.34991">
        <ele>525.9</ele>
        <time>2015-11-11T12:24:21.663Z</time>
      </trkpt>
      <trkpt lat="43.65964" lon="2.35001">
        <ele>525.8</ele>
        <time>2015-11-11T12:24:25.677Z</time>
      </trkpt>
      <trkpt lat="43.65964" lon="2.35003">
        <ele>525.9</ele>
        <time>2015-11-11T12:24:26.653Z</time>
      </trkpt>
      <trkpt lat="43.65962" lon="2.35015">
        <ele>525.7</ele>
        <time>2015-11-11T12:24:30.713Z</time>
      </trkpt>
      <trkpt lat="43.65962" lon="2.35018">
        <ele>525.4</ele>
        <time>2015-11-11T12:24:31.660Z</time>
      </trkpt>
      <trkpt lat="43.65962" lon="2.35028">
        <ele>525.5</ele>
        <time>2015-11-11T12:24:34.740Z</time>
      </trkpt>
      <trkpt lat="43.65961" lon="2.35033">
        <ele>525.4</ele>
        <time>2015-11-11T12:24:35.661Z</time>
      </trkpt>
      <trkpt lat="43.6596" lon="2.35043">
        <ele>525.3</ele>
        <time>2015-11-11T12:24:38.691Z</time>
      </trkpt>
      <trkpt lat="43.6596" lon="2.35047">
        <ele>525</ele>
        <time>2015-11-11T12:24:39.653Z</time>
      </trkpt>
      <trkpt lat="43.65959" lon="2.35056">
        <ele>525.4</ele>
        <time>2015-11-11T12:24:42.714Z</time>
      </trkpt>
      <trkpt lat="43.65959" lon="2.3506">
        <ele>525.4</ele>
        <time>2015-11-11T12:24:43.661Z</time>
      </trkpt>
      <trkpt lat="43.65958" lon="2.35069">
        <ele>526.8</ele>
        <time>2015-11-11T12:24:46.727Z</time>
      </trkpt>
      <trkpt lat="43.65959" lon="2.35072">
        <ele>527.4</ele>
        <time>2015-11-11T12:24:48.088Z</time>
      </trkpt>
      <trkpt lat="43.6596" lon="2.35084">
        <ele>528.4</ele>
        <time>2015-11-11T12:24:51.686Z</time>
      </trkpt>
      <trkpt lat="43.6596" lon="2.35087">
        <ele>528.7</ele>
        <time>2015-11-11T12:24:52.658Z</time>
      </trkpt>
      <trkpt lat="43.6596" lon="2.35099">
        <ele>529.4</ele>
        <time>2015-11-11T12:24:56.867Z</time>
      </trkpt>
      <trkpt lat="43.6596" lon="2.35102">
        <ele>529.9</ele>
        <time>2015-11-11T12:24:57.661Z</time>
      </trkpt>
      <trkpt lat="43.6596" lon="2.35113">
        <ele>530.3</ele>
        <time>2015-11-11T12:25:01.679Z</time>
      </trkpt>
      <trkpt lat="43.6596" lon="2.35116">
        <ele>530.4</ele>
        <time>2015-11-11T12:25:02.657Z</time>
      </trkpt>
      <trkpt lat="43.6596" lon="2.35126">
        <ele>530.6</ele>
        <time>2015-11-11T12:25:05.701Z</time>
      </trkpt>
      <trkpt lat="43.6596" lon="2.35129">
        <ele>530.8</ele>
        <time>2015-11-11T12:25:06.679Z</time>
      </trkpt>
      <trkpt lat="43.6596" lon="2.35138">
        <ele>532</ele>
        <time>2015-11-11T12:25:09.701Z</time>
      </trkpt>
      <trkpt lat="43.6596" lon="2.35141">
        <ele>532.2</ele>
        <time>2015-11-11T12:25:10.675Z</time>
      </trkpt>
      <trkpt lat="43.6596" lon="2.35151">
        <ele>533.5</ele>
        <time>2015-11-11T12:25:13.898Z</time>
      </trkpt>
      <trkpt lat="43.6596" lon="2.35154">
        <ele>533.5</ele>
        <time>2015-11-11T12:25:14.654Z</time>
      </trkpt>
      <trkpt lat="43.6596" lon="2.35165">
        <ele>533.9</ele>
        <time>2015-11-11T12:25:17.679Z</time>
      </trkpt>
      <trkpt lat="43.6596" lon="2.35168">
        <ele>533.9</ele>
        <time>2015-11-11T12:25:18.655Z</time>
      </trkpt>
      <trkpt lat="43.65959" lon="2.35179">
        <ele>533.8</ele>
        <time>2015-11-11T12:25:21.704Z</time>
      </trkpt>
      <trkpt lat="43.65959" lon="2.35183">
        <ele>533.2</ele>
        <time>2015-11-11T12:25:22.681Z</time>
      </trkpt>
      <trkpt lat="43.65958" lon="2.35194">
        <ele>533.6</ele>
        <time>2015-11-11T12:25:25.676Z</time>
      </trkpt>
      <trkpt lat="43.65958" lon="2.35197">
        <ele>533.1</ele>
        <time>2015-11-11T12:25:26.655Z</time>
      </trkpt>
      <trkpt lat="43.65957" lon="2.35208">
        <ele>532.5</ele>
        <time>2015-11-11T12:25:29.680Z</time>
      </trkpt>
      <trkpt lat="43.65956" lon="2.35212">
        <ele>532.1</ele>
        <time>2015-11-11T12:25:30.661Z</time>
      </trkpt>
      <trkpt lat="43.65956" lon="2.35221">
        <ele>532.5</ele>
        <time>2015-11-11T12:25:32.837Z</time>
      </trkpt>
      <trkpt lat="43.65956" lon="2.35225">
        <ele>532.3</ele>
        <time>2015-11-11T12:25:33.678Z</time>
      </trkpt>
      <trkpt lat="43.65956" lon="2.35234">
        <ele>531.3</ele>
        <time>2015-11-11T12:25:35.700Z</time>
      </trkpt>
      <trkpt lat="43.65956" lon="2.35238">
        <ele>530.9</ele>
        <time>2015-11-11T12:25:36.653Z</time>
      </trkpt>
      <trkpt lat="43.65956" lon="2.35247">
        <ele>530.2</ele>
        <time>2015-11-11T12:25:38.688Z</time>
      </trkpt>
      <trkpt lat="43.65957" lon="2.35251">
        <ele>530.3</ele>
        <time>2015-11-11T12:25:39.653Z</time>
      </trkpt>
      <trkpt lat="43.65959" lon="2.3526">
        <ele>531.1</ele>
        <time>2015-11-11T12:25:41.679Z</time>
      </trkpt>
      <trkpt lat="43.6596" lon="2.35264">
        <ele>531.1</ele>
        <time>2015-11-11T12:25:42.652Z</time>
      </trkpt>
      <trkpt lat="43.65961" lon="2.35273">
        <ele>531</ele>
        <time>2015-11-11T12:25:44.733Z</time>
      </trkpt>
      <trkpt lat="43.65961" lon="2.35277">
        <ele>531.1</ele>
        <time>2015-11-11T12:25:45.661Z</time>
      </trkpt>
      <trkpt lat="43.65961" lon="2.35288">
        <ele>530.3</ele>
        <time>2015-11-11T12:25:48.728Z</time>
      </trkpt>
      <trkpt lat="43.65962" lon="2.35292">
        <ele>530.5</ele>
        <time>2015-11-11T12:25:49.653Z</time>
      </trkpt>
      <trkpt lat="43.65962" lon="2.35301">
        <ele>530.7</ele>
        <time>2015-11-11T12:25:51.681Z</time>
      </trkpt>
      <trkpt lat="43.65963" lon="2.35305">
        <ele>530.8</ele>
        <time>2015-11-11T12:25:52.654Z</time>
      </trkpt>
      <trkpt lat="43.65962" lon="2.35317">
        <ele>529.8</ele>
        <time>2015-11-11T12:25:55.701Z</time>
      </trkpt>
      <trkpt lat="43.6596" lon="2.35319">
        <ele>530.2</ele>
        <time>2015-11-11T12:25:56.675Z</time>
      </trkpt>
      <trkpt lat="43.65953" lon="2.35313">
        <ele>530.2</ele>
        <time>2015-11-11T12:25:59.722Z</time>
      </trkpt>
      <trkpt lat="43.65952" lon="2.35308">
        <ele>530.3</ele>
        <time>2015-11-11T12:26:00.673Z</time>
      </trkpt>
      <trkpt lat="43.65951" lon="2.35298">
        <ele>529.9</ele>
        <time>2015-11-11T12:26:02.677Z</time>
      </trkpt>
      <trkpt lat="43.6595" lon="2.35293">
        <ele>529.6</ele>
        <time>2015-11-11T12:26:03.653Z</time>
      </trkpt>
      <trkpt lat="43.65946" lon="2.35282">
        <ele>528.8</ele>
        <time>2015-11-11T12:26:05.679Z</time>
      </trkpt>
      <trkpt lat="43.65944" lon="2.35276">
        <ele>528.6</ele>
        <time>2015-11-11T12:26:06.653Z</time>
      </trkpt>
      <trkpt lat="43.65943" lon="2.3527">
        <ele>528.1</ele>
        <time>2015-11-11T12:26:07.678Z</time>
      </trkpt>
      <trkpt lat="43.65941" lon="2.35263">
        <ele>528</ele>
        <time>2015-11-11T12:26:08.674Z</time>
      </trkpt>
      <trkpt lat="43.65939" lon="2.35256">
        <ele>527.8</ele>
        <time>2015-11-11T12:26:09.734Z</time>
      </trkpt>
      <trkpt lat="43.65938" lon="2.35248">
        <ele>527.6</ele>
        <time>2015-11-11T12:26:10.675Z</time>
      </trkpt>
      <trkpt lat="43.65936" lon="2.3524">
        <ele>527.4</ele>
        <time>2015-11-11T12:26:11.718Z</time>
      </trkpt>
      <trkpt lat="43.65934" lon="2.35232">
        <ele>527.1</ele>
        <time>2015-11-11T12:26:12.688Z</time>
      </trkpt>
      <trkpt lat="43.65932" lon="2.35225">
        <ele>526.9</ele>
        <time>2015-11-11T12:26:13.677Z</time>
      </trkpt>
      <trkpt lat="43.6593" lon="2.35218">
        <ele>526.7</ele>
        <time>2015-11-11T12:26:14.653Z</time>
      </trkpt>
      <trkpt lat="43.65927" lon="2.35212">
        <ele>526.3</ele>
        <time>2015-11-11T12:26:15.678Z</time>
      </trkpt>
      <trkpt lat="43.65925" lon="2.35204">
        <ele>526</ele>
        <time>2015-11-11T12:26:16.662Z</time>
      </trkpt>
      <trkpt lat="43.65922" lon="2.35195">
        <ele>525.7</ele>
        <time>2015-11-11T12:26:17.679Z</time>
      </trkpt>
      <trkpt lat="43.65918" lon="2.35188">
        <ele>525.9</ele>
        <time>2015-11-11T12:26:18.653Z</time>
      </trkpt>
      <trkpt lat="43.65914" lon="2.3518">
        <ele>526.1</ele>
        <time>2015-11-11T12:26:19.682Z</time>
      </trkpt>
      <trkpt lat="43.65911" lon="2.35172">
        <ele>526.2</ele>
        <time>2015-11-11T12:26:20.675Z</time>
      </trkpt>
      <trkpt lat="43.65908" lon="2.35162">
        <ele>526.1</ele>
        <time>2015-11-11T12:26:22.057Z</time>
      </trkpt>
      <trkpt lat="43.65906" lon="2.3515">
        <ele>525.7</ele>
        <time>2015-11-11T12:26:22.655Z</time>
      </trkpt>
      <trkpt lat="43.65903" lon="2.35139">
        <ele>525.4</ele>
        <time>2015-11-11T12:26:23.680Z</time>
      </trkpt>
      <trkpt lat="43.65901" lon="2.35126">
        <ele>525.1</ele>
        <time>2015-11-11T12:26:24.652Z</time>
      </trkpt>
      <trkpt lat="43.65901" lon="2.35126">
        <ele>525.1</ele>
        <time>2015-11-11T12:26:24.691Z</time>
      </trkpt>
      <trkpt lat="43.65899" lon="2.35114">
        <ele>524.8</ele>
        <time>2015-11-11T12:26:25.651Z</time>
      </trkpt>
      <trkpt lat="43.65899" lon="2.35114">
        <ele>524.8</ele>
        <time>2015-11-11T12:26:25.695Z</time>
      </trkpt>
      <trkpt lat="43.65897" lon="2.35102">
        <ele>524.6</ele>
        <time>2015-11-11T12:26:26.656Z</time>
      </trkpt>
      <trkpt lat="43.65895" lon="2.3509">
        <ele>524.4</ele>
        <time>2015-11-11T12:26:27.678Z</time>
      </trkpt>
      <trkpt lat="43.65893" lon="2.35077">
        <ele>524.2</ele>
        <time>2015-11-11T12:26:28.657Z</time>
      </trkpt>
      <trkpt lat="43.65893" lon="2.35077">
        <ele>524.2</ele>
        <time>2015-11-11T12:26:28.692Z</time>
      </trkpt>
      <trkpt lat="43.65891" lon="2.35064">
        <ele>523.8</ele>
        <time>2015-11-11T12:26:29.661Z</time>
      </trkpt>
      <trkpt lat="43.65889" lon="2.35052">
        <ele>523.4</ele>
        <time>2015-11-11T12:26:30.730Z</time>
      </trkpt>
      <trkpt lat="43.65887" lon="2.3504">
        <ele>523.1</ele>
        <time>2015-11-11T12:26:31.661Z</time>
      </trkpt>
      <trkpt lat="43.65886" lon="2.35028">
        <ele>523</ele>
        <time>2015-11-11T12:26:32.961Z</time>
      </trkpt>
      <trkpt lat="43.65885" lon="2.35016">
        <ele>522.9</ele>
        <time>2015-11-11T12:26:33.653Z</time>
      </trkpt>
      <trkpt lat="43.65885" lon="2.35016">
        <ele>522.9</ele>
        <time>2015-11-11T12:26:33.685Z</time>
      </trkpt>
      <trkpt lat="43.65883" lon="2.35003">
        <ele>522.8</ele>
        <time>2015-11-11T12:26:34.654Z</time>
      </trkpt>
      <trkpt lat="43.65882" lon="2.34991">
        <ele>522.7</ele>
        <time>2015-11-11T12:26:35.680Z</time>
      </trkpt>
      <trkpt lat="43.65881" lon="2.3498">
        <ele>522.7</ele>
        <time>2015-11-11T12:26:36.655Z</time>
      </trkpt>
      <trkpt lat="43.6588" lon="2.34969">
        <ele>522.7</ele>
        <time>2015-11-11T12:26:37.680Z</time>
      </trkpt>
      <trkpt lat="43.65878" lon="2.34958">
        <ele>522.7</ele>
        <time>2015-11-11T12:26:38.653Z</time>
      </trkpt>
      <trkpt lat="43.65877" lon="2.34948">
        <ele>522.6</ele>
        <time>2015-11-11T12:26:39.701Z</time>
      </trkpt>
      <trkpt lat="43.65876" lon="2.34939">
        <ele>522.6</ele>
        <time>2015-11-11T12:26:40.675Z</time>
      </trkpt>
      <trkpt lat="43.65875" lon="2.3493">
        <ele>522.9</ele>
        <time>2015-11-11T12:26:41.691Z</time>
      </trkpt>
      <trkpt lat="43.65874" lon="2.34921">
        <ele>522.9</ele>
        <time>2015-11-11T12:26:42.654Z</time>
      </trkpt>
      <trkpt lat="43.65872" lon="2.34911">
        <ele>523</ele>
        <time>2015-11-11T12:26:43.680Z</time>
      </trkpt>
      <trkpt lat="43.6587" lon="2.34901">
        <ele>523</ele>
        <time>2015-11-11T12:26:44.655Z</time>
      </trkpt>
      <trkpt lat="43.65869" lon="2.34891">
        <ele>523.1</ele>
        <time>2015-11-11T12:26:45.681Z</time>
      </trkpt>
      <trkpt lat="43.65868" lon="2.34882">
        <ele>522.9</ele>
        <time>2015-11-11T12:26:46.675Z</time>
      </trkpt>
      <trkpt lat="43.65867" lon="2.34872">
        <ele>522.8</ele>
        <time>2015-11-11T12:26:47.700Z</time>
      </trkpt>
      <trkpt lat="43.65867" lon="2.34863">
        <ele>522.7</ele>
        <time>2015-11-11T12:26:48.673Z</time>
      </trkpt>
      <trkpt lat="43.65866" lon="2.34853">
        <ele>522.6</ele>
        <time>2015-11-11T12:26:49.768Z</time>
      </trkpt>
      <trkpt lat="43.65865" lon="2.34844">
        <ele>522.6</ele>
        <time>2015-11-11T12:26:50.652Z</time>
      </trkpt>
      <trkpt lat="43.65864" lon="2.34835">
        <ele>522.3</ele>
        <time>2015-11-11T12:26:51.681Z</time>
      </trkpt>
      <trkpt lat="43.65862" lon="2.34825">
        <ele>521.9</ele>
        <time>2015-11-11T12:26:52.654Z</time>
      </trkpt>
      <trkpt lat="43.65861" lon="2.34815">
        <ele>521.5</ele>
        <time>2015-11-11T12:26:53.680Z</time>
      </trkpt>
      <trkpt lat="43.6586" lon="2.34805">
        <ele>521.1</ele>
        <time>2015-11-11T12:26:54.655Z</time>
      </trkpt>
      <trkpt lat="43.65859" lon="2.34796">
        <ele>520.5</ele>
        <time>2015-11-11T12:26:56.043Z</time>
      </trkpt>
      <trkpt lat="43.65857" lon="2.34787">
        <ele>520.2</ele>
        <time>2015-11-11T12:26:56.672Z</time>
      </trkpt>
      <trkpt lat="43.65856" lon="2.34778">
        <ele>519.9</ele>
        <time>2015-11-11T12:26:57.716Z</time>
      </trkpt>
      <trkpt lat="43.65854" lon="2.34769">
        <ele>519.5</ele>
        <time>2015-11-11T12:26:58.675Z</time>
      </trkpt>
      <trkpt lat="43.65852" lon="2.34759">
        <ele>519.2</ele>
        <time>2015-11-11T12:26:59.701Z</time>
      </trkpt>
      <trkpt lat="43.65849" lon="2.34749">
        <ele>519</ele>
        <time>2015-11-11T12:27:00.673Z</time>
      </trkpt>
      <trkpt lat="43.65847" lon="2.34739">
        <ele>518.6</ele>
        <time>2015-11-11T12:27:01.701Z</time>
      </trkpt>
      <trkpt lat="43.65844" lon="2.34728">
        <ele>518.4</ele>
        <time>2015-11-11T12:27:02.673Z</time>
      </trkpt>
      <trkpt lat="43.65841" lon="2.34718">
        <ele>518.1</ele>
        <time>2015-11-11T12:27:03.680Z</time>
      </trkpt>
      <trkpt lat="43.65838" lon="2.34708">
        <ele>517.8</ele>
        <time>2015-11-11T12:27:04.652Z</time>
      </trkpt>
      <trkpt lat="43.65835" lon="2.34699">
        <ele>517.6</ele>
        <time>2015-11-11T12:27:05.680Z</time>
      </trkpt>
      <trkpt lat="43.65831" lon="2.3469">
        <ele>517.3</ele>
        <time>2015-11-11T12:27:06.652Z</time>
      </trkpt>
      <trkpt lat="43.65828" lon="2.34682">
        <ele>516.9</ele>
        <time>2015-11-11T12:27:07.679Z</time>
      </trkpt>
      <trkpt lat="43.65825" lon="2.34675">
        <ele>516.6</ele>
        <time>2015-11-11T12:27:08.655Z</time>
      </trkpt>
      <trkpt lat="43.65821" lon="2.34668">
        <ele>516.3</ele>
        <time>2015-11-11T12:27:09.680Z</time>
      </trkpt>
      <trkpt lat="43.65818" lon="2.34662">
        <ele>516</ele>
        <time>2015-11-11T12:27:10.676Z</time>
      </trkpt>
      <trkpt lat="43.65816" lon="2.34655">
        <ele>515.8</ele>
        <time>2015-11-11T12:27:11.700Z</time>
      </trkpt>
      <trkpt lat="43.65814" lon="2.34647">
        <ele>515.5</ele>
        <time>2015-11-11T12:27:12.673Z</time>
      </trkpt>
      <trkpt lat="43.65814" lon="2.34638">
        <ele>515.1</ele>
        <time>2015-11-11T12:27:13.717Z</time>
      </trkpt>
      <trkpt lat="43.65812" lon="2.34629">
        <ele>514.8</ele>
        <time>2015-11-11T12:27:14.673Z</time>
      </trkpt>
      <trkpt lat="43.65811" lon="2.3462">
        <ele>514.4</ele>
        <time>2015-11-11T12:27:15.700Z</time>
      </trkpt>
      <trkpt lat="43.65811" lon="2.3461">
        <ele>513.7</ele>
        <time>2015-11-11T12:27:16.675Z</time>
      </trkpt>
      <trkpt lat="43.65812" lon="2.346">
        <ele>512.7</ele>
        <time>2015-11-11T12:27:17.672Z</time>
      </trkpt>
      <trkpt lat="43.65813" lon="2.3459">
        <ele>511.7</ele>
        <time>2015-11-11T12:27:18.652Z</time>
      </trkpt>
      <trkpt lat="43.65813" lon="2.3458">
        <ele>511</ele>
        <time>2015-11-11T12:27:19.673Z</time>
      </trkpt>
      <trkpt lat="43.65813" lon="2.3457">
        <ele>510</ele>
        <time>2015-11-11T12:27:20.650Z</time>
      </trkpt>
      <trkpt lat="43.65814" lon="2.34559">
        <ele>509.3</ele>
        <time>2015-11-11T12:27:21.673Z</time>
      </trkpt>
      <trkpt lat="43.65815" lon="2.34549">
        <ele>508.7</ele>
        <time>2015-11-11T12:27:22.654Z</time>
      </trkpt>
      <trkpt lat="43.65815" lon="2.34538">
        <ele>508</ele>
        <time>2015-11-11T12:27:23.673Z</time>
      </trkpt>
      <trkpt lat="43.65816" lon="2.34528">
        <ele>507.2</ele>
        <time>2015-11-11T12:27:24.674Z</time>
      </trkpt>
      <trkpt lat="43.65815" lon="2.3452">
        <ele>506.5</ele>
        <time>2015-11-11T12:27:26.037Z</time>
      </trkpt>
      <trkpt lat="43.65816" lon="2.34511">
        <ele>505.8</ele>
        <time>2015-11-11T12:27:26.654Z</time>
      </trkpt>
      <trkpt lat="43.65816" lon="2.34503">
        <ele>505.1</ele>
        <time>2015-11-11T12:27:27.680Z</time>
      </trkpt>
      <trkpt lat="43.65816" lon="2.34495">
        <ele>504.3</ele>
        <time>2015-11-11T12:27:28.653Z</time>
      </trkpt>
      <trkpt lat="43.65818" lon="2.34487">
        <ele>503.5</ele>
        <time>2015-11-11T12:27:29.682Z</time>
      </trkpt>
      <trkpt lat="43.65819" lon="2.3448">
        <ele>502.8</ele>
        <time>2015-11-11T12:27:30.659Z</time>
      </trkpt>
      <trkpt lat="43.6582" lon="2.34473">
        <ele>501.9</ele>
        <time>2015-11-11T12:27:31.807Z</time>
      </trkpt>
      <trkpt lat="43.6582" lon="2.34466">
        <ele>501</ele>
        <time>2015-11-11T12:27:32.672Z</time>
      </trkpt>
      <trkpt lat="43.65818" lon="2.34459">
        <ele>500.4</ele>
        <time>2015-11-11T12:27:33.700Z</time>
      </trkpt>
      <trkpt lat="43.65815" lon="2.3445">
        <ele>500.1</ele>
        <time>2015-11-11T12:27:34.675Z</time>
      </trkpt>
      <trkpt lat="43.65813" lon="2.34442">
        <ele>499.7</ele>
        <time>2015-11-11T12:27:35.677Z</time>
      </trkpt>
      <trkpt lat="43.65813" lon="2.34434">
        <ele>499.2</ele>
        <time>2015-11-11T12:27:36.657Z</time>
      </trkpt>
      <trkpt lat="43.65814" lon="2.34425">
        <ele>498.7</ele>
        <time>2015-11-11T12:27:38.050Z</time>
      </trkpt>
      <trkpt lat="43.65815" lon="2.34417">
        <ele>498.1</ele>
        <time>2015-11-11T12:27:38.654Z</time>
      </trkpt>
      <trkpt lat="43.65817" lon="2.34409">
        <ele>497.6</ele>
        <time>2015-11-11T12:27:39.679Z</time>
      </trkpt>
      <trkpt lat="43.6582" lon="2.34402">
        <ele>496.8</ele>
        <time>2015-11-11T12:27:40.658Z</time>
      </trkpt>
      <trkpt lat="43.65825" lon="2.34396">
        <ele>496.1</ele>
        <time>2015-11-11T12:27:41.727Z</time>
      </trkpt>
      <trkpt lat="43.6583" lon="2.34391">
        <ele>495.5</ele>
        <time>2015-11-11T12:27:42.675Z</time>
      </trkpt>
      <trkpt lat="43.65835" lon="2.34386">
        <ele>494.9</ele>
        <time>2015-11-11T12:27:43.703Z</time>
      </trkpt>
      <trkpt lat="43.6584" lon="2.3438">
        <ele>494.3</ele>
        <time>2015-11-11T12:27:44.678Z</time>
      </trkpt>
      <trkpt lat="43.65844" lon="2.34374">
        <ele>493.7</ele>
        <time>2015-11-11T12:27:45.718Z</time>
      </trkpt>
      <trkpt lat="43.65847" lon="2.34367">
        <ele>493</ele>
        <time>2015-11-11T12:27:46.676Z</time>
      </trkpt>
      <trkpt lat="43.65849" lon="2.3436">
        <ele>492.2</ele>
        <time>2015-11-11T12:27:47.702Z</time>
      </trkpt>
      <trkpt lat="43.65851" lon="2.34354">
        <ele>491.3</ele>
        <time>2015-11-11T12:27:48.675Z</time>
      </trkpt>
      <trkpt lat="43.6585" lon="2.34344">
        <ele>490.4</ele>
        <time>2015-11-11T12:27:50.690Z</time>
      </trkpt>
      <trkpt lat="43.65846" lon="2.34342">
        <ele>490</ele>
        <time>2015-11-11T12:27:51.652Z</time>
      </trkpt>
      <trkpt lat="43.6584" lon="2.34343">
        <ele>489.5</ele>
        <time>2015-11-11T12:27:52.690Z</time>
      </trkpt>
      <trkpt lat="43.65834" lon="2.34344">
        <ele>488.8</ele>
        <time>2015-11-11T12:27:53.653Z</time>
      </trkpt>
      <trkpt lat="43.65828" lon="2.34345">
        <ele>488.2</ele>
        <time>2015-11-11T12:27:54.687Z</time>
      </trkpt>
      <trkpt lat="43.65823" lon="2.34346">
        <ele>487.7</ele>
        <time>2015-11-11T12:27:55.662Z</time>
      </trkpt>
      <trkpt lat="43.65818" lon="2.34346">
        <ele>487.1</ele>
        <time>2015-11-11T12:27:56.702Z</time>
      </trkpt>
      <trkpt lat="43.65813" lon="2.34347">
        <ele>486.8</ele>
        <time>2015-11-11T12:27:57.662Z</time>
      </trkpt>
      <trkpt lat="43.65809" lon="2.34347">
        <ele>486.3</ele>
        <time>2015-11-11T12:27:58.703Z</time>
      </trkpt>
      <trkpt lat="43.65804" lon="2.34347">
        <ele>485.9</ele>
        <time>2015-11-11T12:27:59.662Z</time>
      </trkpt>
      <trkpt lat="43.65798" lon="2.34346">
        <ele>485.4</ele>
        <time>2015-11-11T12:28:00.676Z</time>
      </trkpt>
      <trkpt lat="43.65794" lon="2.34346">
        <ele>485</ele>
        <time>2015-11-11T12:28:01.652Z</time>
      </trkpt>
      <trkpt lat="43.65789" lon="2.34345">
        <ele>484.6</ele>
        <time>2015-11-11T12:28:02.676Z</time>
      </trkpt>
      <trkpt lat="43.65784" lon="2.34346">
        <ele>484.2</ele>
        <time>2015-11-11T12:28:03.653Z</time>
      </trkpt>
      <trkpt lat="43.6578" lon="2.34347">
        <ele>483.9</ele>
        <time>2015-11-11T12:28:04.679Z</time>
      </trkpt>
      <trkpt lat="43.65775" lon="2.34349">
        <ele>483.6</ele>
        <time>2015-11-11T12:28:05.652Z</time>
      </trkpt>
      <trkpt lat="43.65767" lon="2.34354">
        <ele>483.1</ele>
        <time>2015-11-11T12:28:07.678Z</time>
      </trkpt>
      <trkpt lat="43.65763" lon="2.34355">
        <ele>482.9</ele>
        <time>2015-11-11T12:28:08.655Z</time>
      </trkpt>
      <trkpt lat="43.65754" lon="2.34356">
        <ele>482.8</ele>
        <time>2015-11-11T12:28:10.689Z</time>
      </trkpt>
      <trkpt lat="43.6575" lon="2.34356">
        <ele>482.8</ele>
        <time>2015-11-11T12:28:11.651Z</time>
      </trkpt>
      <trkpt lat="43.65741" lon="2.34355">
        <ele>483.2</ele>
        <time>2015-11-11T12:28:13.700Z</time>
      </trkpt>
      <trkpt lat="43.65737" lon="2.34354">
        <ele>483.1</ele>
        <time>2015-11-11T12:28:14.674Z</time>
      </trkpt>
      <trkpt lat="43.6573" lon="2.34357">
        <ele>483.1</ele>
        <time>2015-11-11T12:28:16.738Z</time>
      </trkpt>
      <trkpt lat="43.65726" lon="2.34356">
        <ele>483.4</ele>
        <time>2015-11-11T12:28:17.663Z</time>
      </trkpt>
      <trkpt lat="43.65717" lon="2.34353">
        <ele>483.8</ele>
        <time>2015-11-11T12:28:19.704Z</time>
      </trkpt>
      <trkpt lat="43.65713" lon="2.3435">
        <ele>484</ele>
        <time>2015-11-11T12:28:20.656Z</time>
      </trkpt>
      <trkpt lat="43.65706" lon="2.34346">
        <ele>487.5</ele>
        <time>2015-11-11T12:28:22.684Z</time>
      </trkpt>
      <trkpt lat="43.65702" lon="2.34343">
        <ele>487.8</ele>
        <time>2015-11-11T12:28:23.655Z</time>
      </trkpt>
      <trkpt lat="43.65694" lon="2.34337">
        <ele>489</ele>
        <time>2015-11-11T12:28:25.682Z</time>
      </trkpt>
      <trkpt lat="43.65691" lon="2.34334">
        <ele>489.5</ele>
        <time>2015-11-11T12:28:26.658Z</time>
      </trkpt>
      <trkpt lat="43.65685" lon="2.34327">
        <ele>490.5</ele>
        <time>2015-11-11T12:28:28.723Z</time>
      </trkpt>
      <trkpt lat="43.65681" lon="2.34324">
        <ele>490.9</ele>
        <time>2015-11-11T12:28:29.662Z</time>
      </trkpt>
      <trkpt lat="43.65675" lon="2.34319">
        <ele>492.3</ele>
        <time>2015-11-11T12:28:31.703Z</time>
      </trkpt>
      <trkpt lat="43.65671" lon="2.34317">
        <ele>492.9</ele>
        <time>2015-11-11T12:28:32.690Z</time>
      </trkpt>
      <trkpt lat="43.65665" lon="2.34313">
        <ele>493.5</ele>
        <time>2015-11-11T12:28:34.689Z</time>
      </trkpt>
      <trkpt lat="43.65661" lon="2.34311">
        <ele>493.7</ele>
        <time>2015-11-11T12:28:35.653Z</time>
      </trkpt>
      <trkpt lat="43.65655" lon="2.34308">
        <ele>494.2</ele>
        <time>2015-11-11T12:28:37.681Z</time>
      </trkpt>
      <trkpt lat="43.65652" lon="2.34307">
        <ele>494.4</ele>
        <time>2015-11-11T12:28:38.657Z</time>
      </trkpt>
      <trkpt lat="43.65646" lon="2.34305">
        <ele>494.8</ele>
        <time>2015-11-11T12:28:40.716Z</time>
      </trkpt>
      <trkpt lat="43.65642" lon="2.34305">
        <ele>495</ele>
        <time>2015-11-11T12:28:41.661Z</time>
      </trkpt>
      <trkpt lat="43.65636" lon="2.34304">
        <ele>495.1</ele>
        <time>2015-11-11T12:28:43.702Z</time>
      </trkpt>
      <trkpt lat="43.65633" lon="2.34304">
        <ele>495.1</ele>
        <time>2015-11-11T12:28:44.661Z</time>
      </trkpt>
      <trkpt lat="43.65626" lon="2.34305">
        <ele>495.1</ele>
        <time>2015-11-11T12:28:46.683Z</time>
      </trkpt>
      <trkpt lat="43.65623" lon="2.34306">
        <ele>495.3</ele>
        <time>2015-11-11T12:28:47.653Z</time>
      </trkpt>
      <trkpt lat="43.65617" lon="2.34307">
        <ele>495.1</ele>
        <time>2015-11-11T12:28:49.677Z</time>
      </trkpt>
      <trkpt lat="43.65613" lon="2.34308">
        <ele>494.6</ele>
        <time>2015-11-11T12:28:50.655Z</time>
      </trkpt>
      <trkpt lat="43.65606" lon="2.34308">
        <ele>494.4</ele>
        <time>2015-11-11T12:28:52.715Z</time>
      </trkpt>
      <trkpt lat="43.65603" lon="2.34309">
        <ele>494.2</ele>
        <time>2015-11-11T12:28:53.661Z</time>
      </trkpt>
      <trkpt lat="43.65596" lon="2.34312">
        <ele>494.2</ele>
        <time>2015-11-11T12:28:55.700Z</time>
      </trkpt>
      <trkpt lat="43.65592" lon="2.34312">
        <ele>494.1</ele>
        <time>2015-11-11T12:28:56.673Z</time>
      </trkpt>
      <trkpt lat="43.65586" lon="2.34313">
        <ele>494.1</ele>
        <time>2015-11-11T12:28:59.104Z</time>
      </trkpt>
      <trkpt lat="43.65583" lon="2.34315">
        <ele>494.2</ele>
        <time>2015-11-11T12:28:59.652Z</time>
      </trkpt>
      <trkpt lat="43.65576" lon="2.34316">
        <ele>494.4</ele>
        <time>2015-11-11T12:29:01.681Z</time>
      </trkpt>
      <trkpt lat="43.65572" lon="2.34317">
        <ele>494.7</ele>
        <time>2015-11-11T12:29:02.656Z</time>
      </trkpt>
      <trkpt lat="43.65565" lon="2.34317">
        <ele>494.7</ele>
        <time>2015-11-11T12:29:04.682Z</time>
      </trkpt>
      <trkpt lat="43.65562" lon="2.34319">
        <ele>495</ele>
        <time>2015-11-11T12:29:05.661Z</time>
      </trkpt>
      <trkpt lat="43.65555" lon="2.34321">
        <ele>496</ele>
        <time>2015-11-11T12:29:07.701Z</time>
      </trkpt>
      <trkpt lat="43.65551" lon="2.34322">
        <ele>495.9</ele>
        <time>2015-11-11T12:29:08.662Z</time>
      </trkpt>
      <trkpt lat="43.65544" lon="2.34323">
        <ele>496</ele>
        <time>2015-11-11T12:29:10.714Z</time>
      </trkpt>
      <trkpt lat="43.6554" lon="2.34324">
        <ele>496.4</ele>
        <time>2015-11-11T12:29:11.653Z</time>
      </trkpt>
      <trkpt lat="43.65533" lon="2.34326">
        <ele>497.1</ele>
        <time>2015-11-11T12:29:13.687Z</time>
      </trkpt>
      <trkpt lat="43.65529" lon="2.34327">
        <ele>497</ele>
        <time>2015-11-11T12:29:14.656Z</time>
      </trkpt>
      <trkpt lat="43.65522" lon="2.34331">
        <ele>497.1</ele>
        <time>2015-11-11T12:29:16.682Z</time>
      </trkpt>
      <trkpt lat="43.65519" lon="2.34333">
        <ele>496.9</ele>
        <time>2015-11-11T12:29:17.662Z</time>
      </trkpt>
      <trkpt lat="43.65512" lon="2.34338">
        <ele>496.5</ele>
        <time>2015-11-11T12:29:20.042Z</time>
      </trkpt>
      <trkpt lat="43.65509" lon="2.34342">
        <ele>496.3</ele>
        <time>2015-11-11T12:29:20.653Z</time>
      </trkpt>
      <trkpt lat="43.65504" lon="2.3435">
        <ele>495.8</ele>
        <time>2015-11-11T12:29:22.689Z</time>
      </trkpt>
      <trkpt lat="43.65501" lon="2.34354">
        <ele>495.6</ele>
        <time>2015-11-11T12:29:23.651Z</time>
      </trkpt>
      <trkpt lat="43.65497" lon="2.34363">
        <ele>495.4</ele>
        <time>2015-11-11T12:29:25.682Z</time>
      </trkpt>
      <trkpt lat="43.65495" lon="2.34368">
        <ele>495.5</ele>
        <time>2015-11-11T12:29:26.673Z</time>
      </trkpt>
      <trkpt lat="43.65494" lon="2.34374">
        <ele>495.4</ele>
        <time>2015-11-11T12:29:27.701Z</time>
      </trkpt>
      <trkpt lat="43.65493" lon="2.34381">
        <ele>495.3</ele>
        <time>2015-11-11T12:29:28.675Z</time>
      </trkpt>
      <trkpt lat="43.65493" lon="2.34387">
        <ele>495.2</ele>
        <time>2015-11-11T12:29:29.701Z</time>
      </trkpt>
      <trkpt lat="43.65494" lon="2.34394">
        <ele>495.1</ele>
        <time>2015-11-11T12:29:30.701Z</time>
      </trkpt>
      <trkpt lat="43.65494" lon="2.34401">
        <ele>494.9</ele>
        <time>2015-11-11T12:29:31.676Z</time>
      </trkpt>
      <trkpt lat="43.65496" lon="2.34408">
        <ele>495</ele>
        <time>2015-11-11T12:29:32.654Z</time>
      </trkpt>
      <trkpt lat="43.65498" lon="2.34414">
        <ele>494.9</ele>
        <time>2015-11-11T12:29:33.681Z</time>
      </trkpt>
      <trkpt lat="43.65499" lon="2.34421">
        <ele>494.7</ele>
        <time>2015-11-11T12:29:34.652Z</time>
      </trkpt>
      <trkpt lat="43.65501" lon="2.34427">
        <ele>494.6</ele>
        <time>2015-11-11T12:29:35.682Z</time>
      </trkpt>
      <trkpt lat="43.65504" lon="2.34433">
        <ele>494.4</ele>
        <time>2015-11-11T12:29:36.652Z</time>
      </trkpt>
      <trkpt lat="43.65506" lon="2.34439">
        <ele>494.2</ele>
        <time>2015-11-11T12:29:37.705Z</time>
      </trkpt>
      <trkpt lat="43.65507" lon="2.34446">
        <ele>494</ele>
        <time>2015-11-11T12:29:38.675Z</time>
      </trkpt>
      <trkpt lat="43.65508" lon="2.34453">
        <ele>493.7</ele>
        <time>2015-11-11T12:29:39.680Z</time>
      </trkpt>
      <trkpt lat="43.65509" lon="2.34461">
        <ele>493.3</ele>
        <time>2015-11-11T12:29:40.659Z</time>
      </trkpt>
      <trkpt lat="43.65511" lon="2.3447">
        <ele>493.1</ele>
        <time>2015-11-11T12:29:41.689Z</time>
      </trkpt>
      <trkpt lat="43.65512" lon="2.34478">
        <ele>493.1</ele>
        <time>2015-11-11T12:29:42.655Z</time>
      </trkpt>
      <trkpt lat="43.65513" lon="2.34487">
        <ele>493.2</ele>
        <time>2015-11-11T12:29:43.678Z</time>
      </trkpt>
      <trkpt lat="43.65514" lon="2.34497">
        <ele>493.3</ele>
        <time>2015-11-11T12:29:44.651Z</time>
      </trkpt>
      <trkpt lat="43.65515" lon="2.34506">
        <ele>493.4</ele>
        <time>2015-11-11T12:29:45.702Z</time>
      </trkpt>
      <trkpt lat="43.65514" lon="2.34515">
        <ele>493.3</ele>
        <time>2015-11-11T12:29:46.676Z</time>
      </trkpt>
      <trkpt lat="43.65514" lon="2.34525">
        <ele>493.3</ele>
        <time>2015-11-11T12:29:47.682Z</time>
      </trkpt>
      <trkpt lat="43.65513" lon="2.34535">
        <ele>492.9</ele>
        <time>2015-11-11T12:29:48.652Z</time>
      </trkpt>
      <trkpt lat="43.65511" lon="2.34544">
        <ele>492.2</ele>
        <time>2015-11-11T12:29:49.680Z</time>
      </trkpt>
      <trkpt lat="43.65508" lon="2.34554">
        <ele>491.8</ele>
        <time>2015-11-11T12:29:50.651Z</time>
      </trkpt>
      <trkpt lat="43.65505" lon="2.34563">
        <ele>491.2</ele>
        <time>2015-11-11T12:29:51.680Z</time>
      </trkpt>
      <trkpt lat="43.65502" lon="2.34572">
        <ele>490.7</ele>
        <time>2015-11-11T12:29:52.658Z</time>
      </trkpt>
      <trkpt lat="43.65499" lon="2.34582">
        <ele>490.1</ele>
        <time>2015-11-11T12:29:53.680Z</time>
      </trkpt>
      <trkpt lat="43.65496" lon="2.34591">
        <ele>489.8</ele>
        <time>2015-11-11T12:29:54.674Z</time>
      </trkpt>
      <trkpt lat="43.65493" lon="2.34602">
        <ele>489.5</ele>
        <time>2015-11-11T12:29:55.679Z</time>
      </trkpt>
      <trkpt lat="43.6549" lon="2.34611">
        <ele>489</ele>
        <time>2015-11-11T12:29:56.653Z</time>
      </trkpt>
      <trkpt lat="43.65488" lon="2.34621">
        <ele>488.5</ele>
        <time>2015-11-11T12:29:57.687Z</time>
      </trkpt>
      <trkpt lat="43.65486" lon="2.34631">
        <ele>488</ele>
        <time>2015-11-11T12:29:58.657Z</time>
      </trkpt>
      <trkpt lat="43.65484" lon="2.34641">
        <ele>487.5</ele>
        <time>2015-11-11T12:29:59.679Z</time>
      </trkpt>
      <trkpt lat="43.65484" lon="2.34651">
        <ele>487.1</ele>
        <time>2015-11-11T12:30:00.657Z</time>
      </trkpt>
      <trkpt lat="43.65484" lon="2.34661">
        <ele>486.9</ele>
        <time>2015-11-11T12:30:01.703Z</time>
      </trkpt>
      <trkpt lat="43.65486" lon="2.34671">
        <ele>486.9</ele>
        <time>2015-11-11T12:30:02.673Z</time>
      </trkpt>
      <trkpt lat="43.65487" lon="2.34681">
        <ele>486.9</ele>
        <time>2015-11-11T12:30:03.701Z</time>
      </trkpt>
      <trkpt lat="43.65487" lon="2.34692">
        <ele>486.8</ele>
        <time>2015-11-11T12:30:04.675Z</time>
      </trkpt>
      <trkpt lat="43.65487" lon="2.34703">
        <ele>486.5</ele>
        <time>2015-11-11T12:30:06.074Z</time>
      </trkpt>
      <trkpt lat="43.65487" lon="2.34712">
        <ele>486.1</ele>
        <time>2015-11-11T12:30:06.651Z</time>
      </trkpt>
      <trkpt lat="43.65487" lon="2.34723">
        <ele>485.8</ele>
        <time>2015-11-11T12:30:07.678Z</time>
      </trkpt>
      <trkpt lat="43.65487" lon="2.34733">
        <ele>485.5</ele>
        <time>2015-11-11T12:30:08.655Z</time>
      </trkpt>
      <trkpt lat="43.65487" lon="2.34743">
        <ele>485.1</ele>
        <time>2015-11-11T12:30:09.680Z</time>
      </trkpt>
      <trkpt lat="43.65486" lon="2.34753">
        <ele>484.8</ele>
        <time>2015-11-11T12:30:10.659Z</time>
      </trkpt>
      <trkpt lat="43.65486" lon="2.34763">
        <ele>484.7</ele>
        <time>2015-11-11T12:30:11.678Z</time>
      </trkpt>
      <trkpt lat="43.65486" lon="2.34774">
        <ele>484.3</ele>
        <time>2015-11-11T12:30:12.655Z</time>
      </trkpt>
      <trkpt lat="43.65486" lon="2.34785">
        <ele>484.1</ele>
        <time>2015-11-11T12:30:13.718Z</time>
      </trkpt>
      <trkpt lat="43.65486" lon="2.34795">
        <ele>483.8</ele>
        <time>2015-11-11T12:30:14.673Z</time>
      </trkpt>
      <trkpt lat="43.65487" lon="2.34806">
        <ele>483.6</ele>
        <time>2015-11-11T12:30:15.681Z</time>
      </trkpt>
      <trkpt lat="43.65487" lon="2.34817">
        <ele>483.5</ele>
        <time>2015-11-11T12:30:16.659Z</time>
      </trkpt>
      <trkpt lat="43.65489" lon="2.34827">
        <ele>483.4</ele>
        <time>2015-11-11T12:30:17.680Z</time>
      </trkpt>
      <trkpt lat="43.6549" lon="2.34838">
        <ele>483.3</ele>
        <time>2015-11-11T12:30:18.652Z</time>
      </trkpt>
      <trkpt lat="43.6549" lon="2.34849">
        <ele>483.1</ele>
        <time>2015-11-11T12:30:19.677Z</time>
      </trkpt>
      <trkpt lat="43.6549" lon="2.34859">
        <ele>482.8</ele>
        <time>2015-11-11T12:30:20.657Z</time>
      </trkpt>
      <trkpt lat="43.65491" lon="2.3487">
        <ele>482.3</ele>
        <time>2015-11-11T12:30:21.699Z</time>
      </trkpt>
      <trkpt lat="43.6549" lon="2.3488">
        <ele>481.8</ele>
        <time>2015-11-11T12:30:22.675Z</time>
      </trkpt>
      <trkpt lat="43.65489" lon="2.34889">
        <ele>481.3</ele>
        <time>2015-11-11T12:30:23.704Z</time>
      </trkpt>
      <trkpt lat="43.65484" lon="2.34896">
        <ele>481.1</ele>
        <time>2015-11-11T12:30:24.675Z</time>
      </trkpt>
      <trkpt lat="43.65478" lon="2.34906">
        <ele>480.6</ele>
        <time>2015-11-11T12:30:25.679Z</time>
      </trkpt>
      <trkpt lat="43.6547" lon="2.34917">
        <ele>480.4</ele>
        <time>2015-11-11T12:30:26.651Z</time>
      </trkpt>
      <trkpt lat="43.6547" lon="2.34917">
        <ele>480.4</ele>
        <time>2015-11-11T12:30:26.683Z</time>
      </trkpt>
      <trkpt lat="43.65463" lon="2.34926">
        <ele>480.6</ele>
        <time>2015-11-11T12:30:27.653Z</time>
      </trkpt>
      <trkpt lat="43.65458" lon="2.34934">
        <ele>480.8</ele>
        <time>2015-11-11T12:30:28.698Z</time>
      </trkpt>
      <trkpt lat="43.65452" lon="2.34941">
        <ele>480.8</ele>
        <time>2015-11-11T12:30:29.654Z</time>
      </trkpt>
      <trkpt lat="43.65445" lon="2.34947">
        <ele>480.4</ele>
        <time>2015-11-11T12:30:30.688Z</time>
      </trkpt>
      <trkpt lat="43.65437" lon="2.34949">
        <ele>480.4</ele>
        <time>2015-11-11T12:30:31.661Z</time>
      </trkpt>
      <trkpt lat="43.6543" lon="2.34949">
        <ele>480.3</ele>
        <time>2015-11-11T12:30:32.718Z</time>
      </trkpt>
      <trkpt lat="43.65424" lon="2.34946">
        <ele>479.9</ele>
        <time>2015-11-11T12:30:33.661Z</time>
      </trkpt>
      <trkpt lat="43.65417" lon="2.34944">
        <ele>479.4</ele>
        <time>2015-11-11T12:30:34.741Z</time>
      </trkpt>
      <trkpt lat="43.65411" lon="2.34941">
        <ele>479.1</ele>
        <time>2015-11-11T12:30:35.661Z</time>
      </trkpt>
      <trkpt lat="43.65404" lon="2.34937">
        <ele>479</ele>
        <time>2015-11-11T12:30:36.687Z</time>
      </trkpt>
      <trkpt lat="43.654" lon="2.34931">
        <ele>478.9</ele>
        <time>2015-11-11T12:30:37.653Z</time>
      </trkpt>
      <trkpt lat="43.65396" lon="2.34923">
        <ele>479.1</ele>
        <time>2015-11-11T12:30:38.689Z</time>
      </trkpt>
      <trkpt lat="43.65395" lon="2.34914">
        <ele>479</ele>
        <time>2015-11-11T12:30:39.651Z</time>
      </trkpt>
      <trkpt lat="43.65396" lon="2.34906">
        <ele>478.7</ele>
        <time>2015-11-11T12:30:40.689Z</time>
      </trkpt>
      <trkpt lat="43.65398" lon="2.34902">
        <ele>479.1</ele>
        <time>2015-11-11T12:30:41.654Z</time>
      </trkpt>
      <trkpt lat="43.65404" lon="2.34894">
        <ele>479.4</ele>
        <time>2015-11-11T12:30:43.705Z</time>
      </trkpt>
      <trkpt lat="43.65406" lon="2.34889">
        <ele>479.4</ele>
        <time>2015-11-11T12:30:44.673Z</time>
      </trkpt>
      <trkpt lat="43.65408" lon="2.34883">
        <ele>479.4</ele>
        <time>2015-11-11T12:30:45.681Z</time>
      </trkpt>
      <trkpt lat="43.65408" lon="2.34876">
        <ele>479.5</ele>
        <time>2015-11-11T12:30:46.652Z</time>
      </trkpt>
      <trkpt lat="43.65403" lon="2.34866">
        <ele>479.5</ele>
        <time>2015-11-11T12:30:48.810Z</time>
      </trkpt>
      <trkpt lat="43.654" lon="2.34862">
        <ele>479.4</ele>
        <time>2015-11-11T12:30:49.653Z</time>
      </trkpt>
      <trkpt lat="43.65392" lon="2.34859">
        <ele>479.5</ele>
        <time>2015-11-11T12:30:51.699Z</time>
      </trkpt>
      <trkpt lat="43.65389" lon="2.34859">
        <ele>479.7</ele>
        <time>2015-11-11T12:30:52.675Z</time>
      </trkpt>
      <trkpt lat="43.6538" lon="2.34859">
        <ele>480.3</ele>
        <time>2015-11-11T12:30:55.723Z</time>
      </trkpt>
      <trkpt lat="43.65377" lon="2.3486">
        <ele>480.8</ele>
        <time>2015-11-11T12:30:56.673Z</time>
      </trkpt>
      <trkpt lat="43.65371" lon="2.34866">
        <ele>481.8</ele>
        <time>2015-11-11T12:30:59.700Z</time>
      </trkpt>
      <trkpt lat="43.6537" lon="2.34867">
        <ele>482</ele>
        <time>2015-11-11T12:31:00.673Z</time>
      </trkpt>
      <trkpt lat="43.65363" lon="2.34874">
        <ele>482.7</ele>
        <time>2015-11-11T12:31:04.686Z</time>
      </trkpt>
      <trkpt lat="43.65362" lon="2.34876">
        <ele>483.2</ele>
        <time>2015-11-11T12:31:05.652Z</time>
      </trkpt>
      <trkpt lat="43.65356" lon="2.34883">
        <ele>485</ele>
        <time>2015-11-11T12:31:08.700Z</time>
      </trkpt>
      <trkpt lat="43.65353" lon="2.34885">
        <ele>485.5</ele>
        <time>2015-11-11T12:31:09.660Z</time>
      </trkpt>
      <trkpt lat="43.65347" lon="2.34891">
        <ele>487.1</ele>
        <time>2015-11-11T12:31:12.679Z</time>
      </trkpt>
      <trkpt lat="43.65346" lon="2.34892">
        <ele>487.9</ele>
        <time>2015-11-11T12:31:13.653Z</time>
      </trkpt>
      <trkpt lat="43.6534" lon="2.34897">
        <ele>489.9</ele>
        <time>2015-11-11T12:31:16.689Z</time>
      </trkpt>
      <trkpt lat="43.65338" lon="2.349">
        <ele>490.5</ele>
        <time>2015-11-11T12:31:17.661Z</time>
      </trkpt>
      <trkpt lat="43.65332" lon="2.34905">
        <ele>492.1</ele>
        <time>2015-11-11T12:31:20.714Z</time>
      </trkpt>
      <trkpt lat="43.6533" lon="2.34906">
        <ele>492.5</ele>
        <time>2015-11-11T12:31:21.660Z</time>
      </trkpt>
      <trkpt lat="43.65322" lon="2.34911">
        <ele>493.6</ele>
        <time>2015-11-11T12:31:24.718Z</time>
      </trkpt>
      <trkpt lat="43.65319" lon="2.34912">
        <ele>493.8</ele>
        <time>2015-11-11T12:31:25.660Z</time>
      </trkpt>
      <trkpt lat="43.65313" lon="2.34914">
        <ele>494.6</ele>
        <time>2015-11-11T12:31:27.680Z</time>
      </trkpt>
      <trkpt lat="43.65309" lon="2.34916">
        <ele>494.5</ele>
        <time>2015-11-11T12:31:28.653Z</time>
      </trkpt>
      <trkpt lat="43.65302" lon="2.34922">
        <ele>494.9</ele>
        <time>2015-11-11T12:31:30.689Z</time>
      </trkpt>
      <trkpt lat="43.653" lon="2.34924">
        <ele>495.2</ele>
        <time>2015-11-11T12:31:31.650Z</time>
      </trkpt>
      <trkpt lat="43.65293" lon="2.34928">
        <ele>495.7</ele>
        <time>2015-11-11T12:31:34.720Z</time>
      </trkpt>
      <trkpt lat="43.6529" lon="2.34929">
        <ele>495.8</ele>
        <time>2015-11-11T12:31:35.660Z</time>
      </trkpt>
      <trkpt lat="43.65282" lon="2.34934">
        <ele>496.2</ele>
        <time>2015-11-11T12:31:38.717Z</time>
      </trkpt>
      <trkpt lat="43.65279" lon="2.34935">
        <ele>496.2</ele>
        <time>2015-11-11T12:31:40.062Z</time>
      </trkpt>
      <trkpt lat="43.65271" lon="2.3494">
        <ele>496.3</ele>
        <time>2015-11-11T12:31:42.687Z</time>
      </trkpt>
      <trkpt lat="43.65268" lon="2.34942">
        <ele>496.3</ele>
        <time>2015-11-11T12:31:43.664Z</time>
      </trkpt>
      <trkpt lat="43.65262" lon="2.34944">
        <ele>495.8</ele>
        <time>2015-11-11T12:31:45.678Z</time>
      </trkpt>
      <trkpt lat="43.65258" lon="2.34945">
        <ele>495.5</ele>
        <time>2015-11-11T12:31:46.675Z</time>
      </trkpt>
      <trkpt lat="43.65252" lon="2.34946">
        <ele>495.5</ele>
        <time>2015-11-11T12:31:48.714Z</time>
      </trkpt>
      <trkpt lat="43.65249" lon="2.34947">
        <ele>495.5</ele>
        <time>2015-11-11T12:31:49.652Z</time>
      </trkpt>
      <trkpt lat="43.6524" lon="2.34948">
        <ele>495</ele>
        <time>2015-11-11T12:31:52.692Z</time>
      </trkpt>
      <trkpt lat="43.65237" lon="2.34947">
        <ele>494.6</ele>
        <time>2015-11-11T12:31:53.653Z</time>
      </trkpt>
      <trkpt lat="43.6523" lon="2.34949">
        <ele>494</ele>
        <time>2015-11-11T12:31:56.689Z</time>
      </trkpt>
      <trkpt lat="43.65228" lon="2.3495">
        <ele>494.3</ele>
        <time>2015-11-11T12:31:57.661Z</time>
      </trkpt>
      <trkpt lat="43.6522" lon="2.34955">
        <ele>494.3</ele>
        <time>2015-11-11T12:32:01.692Z</time>
      </trkpt>
      <trkpt lat="43.65218" lon="2.34956">
        <ele>494.4</ele>
        <time>2015-11-11T12:32:02.659Z</time>
      </trkpt>
      <trkpt lat="43.6521" lon="2.34962">
        <ele>495.6</ele>
        <time>2015-11-11T12:32:09.701Z</time>
      </trkpt>
      <trkpt lat="43.65209" lon="2.34965">
        <ele>496.1</ele>
        <time>2015-11-11T12:32:10.675Z</time>
      </trkpt>
      <trkpt lat="43.65206" lon="2.34974">
        <ele>497.4</ele>
        <time>2015-11-11T12:32:14.677Z</time>
      </trkpt>
      <trkpt lat="43.65205" lon="2.34975">
        <ele>497.7</ele>
        <time>2015-11-11T12:32:15.653Z</time>
      </trkpt>
      <trkpt lat="43.65196" lon="2.34972">
        <ele>500.7</ele>
        <time>2015-11-11T12:32:22.715Z</time>
      </trkpt>
      <trkpt lat="43.65195" lon="2.34972">
        <ele>501</ele>
        <time>2015-11-11T12:32:23.652Z</time>
      </trkpt>
      <trkpt lat="43.65187" lon="2.34969">
        <ele>501.3</ele>
        <time>2015-11-11T12:32:28.688Z</time>
      </trkpt>
      <trkpt lat="43.65185" lon="2.34969">
        <ele>501.5</ele>
        <time>2015-11-11T12:32:29.652Z</time>
      </trkpt>
      <trkpt lat="43.65177" lon="2.34965">
        <ele>501.8</ele>
        <time>2015-11-11T12:32:33.701Z</time>
      </trkpt>
      <trkpt lat="43.65175" lon="2.34964">
        <ele>501.6</ele>
        <time>2015-11-11T12:32:34.675Z</time>
      </trkpt>
      <trkpt lat="43.65167" lon="2.34964">
        <ele>501.5</ele>
        <time>2015-11-11T12:32:39.681Z</time>
      </trkpt>
      <trkpt lat="43.65165" lon="2.34965">
        <ele>501.5</ele>
        <time>2015-11-11T12:32:40.657Z</time>
      </trkpt>
      <trkpt lat="43.65156" lon="2.34962">
        <ele>502.5</ele>
        <time>2015-11-11T12:32:46.717Z</time>
      </trkpt>
      <trkpt lat="43.65155" lon="2.34962">
        <ele>502.7</ele>
        <time>2015-11-11T12:32:47.677Z</time>
      </trkpt>
      <trkpt lat="43.65146" lon="2.34958">
        <ele>503.3</ele>
        <time>2015-11-11T12:32:52.680Z</time>
      </trkpt>
      <trkpt lat="43.65144" lon="2.34957">
        <ele>503.1</ele>
        <time>2015-11-11T12:32:53.654Z</time>
      </trkpt>
      <trkpt lat="43.65137" lon="2.34957">
        <ele>502.6</ele>
        <time>2015-11-11T12:32:57.702Z</time>
      </trkpt>
      <trkpt lat="43.65135" lon="2.34956">
        <ele>502.5</ele>
        <time>2015-11-11T12:32:58.692Z</time>
      </trkpt>
      <trkpt lat="43.65126" lon="2.34959">
        <ele>502.2</ele>
        <time>2015-11-11T12:33:03.680Z</time>
      </trkpt>
      <trkpt lat="43.65125" lon="2.3496">
        <ele>502.5</ele>
        <time>2015-11-11T12:33:04.654Z</time>
      </trkpt>
      <trkpt lat="43.65116" lon="2.34963">
        <ele>503.2</ele>
        <time>2015-11-11T12:33:09.700Z</time>
      </trkpt>
      <trkpt lat="43.65114" lon="2.34963">
        <ele>503.7</ele>
        <time>2015-11-11T12:33:10.675Z</time>
      </trkpt>
      <trkpt lat="43.65111" lon="2.34963">
        <ele>504.1</ele>
        <time>2015-11-11T12:33:13.079Z</time>
      </trkpt>
      <trkpt lat="43.6511" lon="2.34963">
        <ele>504.3</ele>
        <time>2015-11-11T12:33:13.654Z</time>
      </trkpt>
      <trkpt lat="43.65102" lon="2.34967">
        <ele>505.8</ele>
        <time>2015-11-11T12:33:20.701Z</time>
      </trkpt>
      <trkpt lat="43.65101" lon="2.34967">
        <ele>505.9</ele>
        <time>2015-11-11T12:33:21.660Z</time>
      </trkpt>
      <trkpt lat="43.65101" lon="2.34967">
        <ele>505.9</ele>
        <time>2015-11-11T12:33:21.716Z</time>
      </trkpt>
      <trkpt lat="43.651" lon="2.34968">
        <ele>506.1</ele>
        <time>2015-11-11T12:33:22.680Z</time>
      </trkpt>
      <trkpt lat="43.65098" lon="2.34967">
        <ele>506.3</ele>
        <time>2015-11-11T12:33:23.650Z</time>
      </trkpt>
      <trkpt lat="43.65092" lon="2.34972">
        <ele>507.2</ele>
        <time>2015-11-11T12:33:26.687Z</time>
      </trkpt>
      <trkpt lat="43.6509" lon="2.34973">
        <ele>507.3</ele>
        <time>2015-11-11T12:33:27.652Z</time>
      </trkpt>
      <trkpt lat="43.65083" lon="2.34975">
        <ele>508.5</ele>
        <time>2015-11-11T12:33:31.700Z</time>
      </trkpt>
      <trkpt lat="43.65079" lon="2.34976">
        <ele>508.4</ele>
        <time>2015-11-11T12:33:32.672Z</time>
      </trkpt>
      <trkpt lat="43.65072" lon="2.34979">
        <ele>508.4</ele>
        <time>2015-11-11T12:33:34.720Z</time>
      </trkpt>
      <trkpt lat="43.6507" lon="2.34979">
        <ele>508.3</ele>
        <time>2015-11-11T12:33:35.653Z</time>
      </trkpt>
      <trkpt lat="43.65063" lon="2.34978">
        <ele>508.3</ele>
        <time>2015-11-11T12:33:39.065Z</time>
      </trkpt>
      <trkpt lat="43.65061" lon="2.34978">
        <ele>508.2</ele>
        <time>2015-11-11T12:33:39.654Z</time>
      </trkpt>
      <trkpt lat="43.65052" lon="2.34975">
        <ele>508.5</ele>
        <time>2015-11-11T12:33:43.686Z</time>
      </trkpt>
      <trkpt lat="43.6505" lon="2.34974">
        <ele>508.4</ele>
        <time>2015-11-11T12:33:44.653Z</time>
      </trkpt>
      <trkpt lat="43.65041" lon="2.34972">
        <ele>507.5</ele>
        <time>2015-11-11T12:33:49.700Z</time>
      </trkpt>
      <trkpt lat="43.6504" lon="2.34971">
        <ele>507.4</ele>
        <time>2015-11-11T12:33:50.673Z</time>
      </trkpt>
      <trkpt lat="43.65032" lon="2.34967">
        <ele>507.5</ele>
        <time>2015-11-11T12:33:54.704Z</time>
      </trkpt>
      <trkpt lat="43.6503" lon="2.34966">
        <ele>507.9</ele>
        <time>2015-11-11T12:33:55.660Z</time>
      </trkpt>
      <trkpt lat="43.65022" lon="2.34967">
        <ele>508.5</ele>
        <time>2015-11-11T12:33:59.700Z</time>
      </trkpt>
      <trkpt lat="43.65021" lon="2.34969">
        <ele>508.6</ele>
        <time>2015-11-11T12:34:00.673Z</time>
      </trkpt>
      <trkpt lat="43.65017" lon="2.3497">
        <ele>509</ele>
        <time>2015-11-11T12:34:02.697Z</time>
      </trkpt>
      <trkpt lat="43.65012" lon="2.34977">
        <ele>509.5</ele>
        <time>2015-11-11T12:34:03.654Z</time>
      </trkpt>
      <trkpt lat="43.65003" lon="2.34981">
        <ele>510.2</ele>
        <time>2015-11-11T12:34:06.687Z</time>
      </trkpt>
      <trkpt lat="43.65" lon="2.34981">
        <ele>510.7</ele>
        <time>2015-11-11T12:34:07.652Z</time>
      </trkpt>
      <trkpt lat="43.64994" lon="2.34984">
        <ele>511.7</ele>
        <time>2015-11-11T12:34:11.717Z</time>
      </trkpt>
      <trkpt lat="43.64991" lon="2.34984">
        <ele>512</ele>
        <time>2015-11-11T12:34:12.660Z</time>
      </trkpt>
      <trkpt lat="43.64984" lon="2.34988">
        <ele>513.2</ele>
        <time>2015-11-11T12:34:16.688Z</time>
      </trkpt>
      <trkpt lat="43.64983" lon="2.34989">
        <ele>513.5</ele>
        <time>2015-11-11T12:34:17.659Z</time>
      </trkpt>
      <trkpt lat="43.64983" lon="2.34989">
        <ele>513.5</ele>
        <time>2015-11-11T12:34:17.692Z</time>
      </trkpt>
      <trkpt lat="43.64976" lon="2.34994">
        <ele>515</ele>
        <time>2015-11-11T12:34:23.701Z</time>
      </trkpt>
      <trkpt lat="43.64975" lon="2.34995">
        <ele>515.1</ele>
        <time>2015-11-11T12:34:24.660Z</time>
      </trkpt>
      <trkpt lat="43.64975" lon="2.34995">
        <ele>515.1</ele>
        <time>2015-11-11T12:34:24.715Z</time>
      </trkpt>
      <trkpt lat="43.64973" lon="2.34996">
        <ele>515.4</ele>
        <time>2015-11-11T12:34:26.679Z</time>
      </trkpt>
      <trkpt lat="43.64971" lon="2.34997">
        <ele>515.8</ele>
        <time>2015-11-11T12:34:27.654Z</time>
      </trkpt>
      <trkpt lat="43.64963" lon="2.34999">
        <ele>517.3</ele>
        <time>2015-11-11T12:34:33.700Z</time>
      </trkpt>
      <trkpt lat="43.64961" lon="2.35">
        <ele>517.5</ele>
        <time>2015-11-11T12:34:34.663Z</time>
      </trkpt>
      <trkpt lat="43.64954" lon="2.35001">
        <ele>517.7</ele>
        <time>2015-11-11T12:34:36.701Z</time>
      </trkpt>
      <trkpt lat="43.64952" lon="2.35003">
        <ele>517.8</ele>
        <time>2015-11-11T12:34:37.675Z</time>
      </trkpt>
      <trkpt lat="43.64945" lon="2.35003">
        <ele>518.5</ele>
        <time>2015-11-11T12:34:41.687Z</time>
      </trkpt>
      <trkpt lat="43.64943" lon="2.35004">
        <ele>518.8</ele>
        <time>2015-11-11T12:34:42.653Z</time>
      </trkpt>
      <trkpt lat="43.64935" lon="2.35006">
        <ele>520.2</ele>
        <time>2015-11-11T12:34:46.702Z</time>
      </trkpt>
      <trkpt lat="43.64933" lon="2.35007">
        <ele>520.8</ele>
        <time>2015-11-11T12:34:47.661Z</time>
      </trkpt>
      <trkpt lat="43.64926" lon="2.35004">
        <ele>522.4</ele>
        <time>2015-11-11T12:34:51.693Z</time>
      </trkpt>
      <trkpt lat="43.64924" lon="2.35005">
        <ele>523.1</ele>
        <time>2015-11-11T12:34:52.655Z</time>
      </trkpt>
      <trkpt lat="43.64916" lon="2.35007">
        <ele>524.6</ele>
        <time>2015-11-11T12:34:57.701Z</time>
      </trkpt>
      <trkpt lat="43.64915" lon="2.35008">
        <ele>525</ele>
        <time>2015-11-11T12:34:58.662Z</time>
      </trkpt>
      <trkpt lat="43.64907" lon="2.35014">
        <ele>526.8</ele>
        <time>2015-11-11T12:35:03.713Z</time>
      </trkpt>
      <trkpt lat="43.64906" lon="2.35016">
        <ele>527.2</ele>
        <time>2015-11-11T12:35:04.662Z</time>
      </trkpt>
      <trkpt lat="43.64898" lon="2.35018">
        <ele>527.9</ele>
        <time>2015-11-11T12:35:07.684Z</time>
      </trkpt>
      <trkpt lat="43.64895" lon="2.35018">
        <ele>528.2</ele>
        <time>2015-11-11T12:35:08.653Z</time>
      </trkpt>
      <trkpt lat="43.64888" lon="2.35021">
        <ele>529.3</ele>
        <time>2015-11-11T12:35:12.699Z</time>
      </trkpt>
      <trkpt lat="43.64886" lon="2.35021">
        <ele>529.5</ele>
        <time>2015-11-11T12:35:13.673Z</time>
      </trkpt>
      <trkpt lat="43.64878" lon="2.35026">
        <ele>530.2</ele>
        <time>2015-11-11T12:35:17.694Z</time>
      </trkpt>
      <trkpt lat="43.64877" lon="2.35027">
        <ele>530.4</ele>
        <time>2015-11-11T12:35:18.653Z</time>
      </trkpt>
      <trkpt lat="43.6487" lon="2.35034">
        <ele>532.1</ele>
        <time>2015-11-11T12:35:22.686Z</time>
      </trkpt>
      <trkpt lat="43.64868" lon="2.35037">
        <ele>532.5</ele>
        <time>2015-11-11T12:35:23.673Z</time>
      </trkpt>
      <trkpt lat="43.64863" lon="2.35044">
        <ele>534.4</ele>
        <time>2015-11-11T12:35:27.687Z</time>
      </trkpt>
      <trkpt lat="43.6486" lon="2.35045">
        <ele>534.9</ele>
        <time>2015-11-11T12:35:28.655Z</time>
      </trkpt>
      <trkpt lat="43.64853" lon="2.35046">
        <ele>535.6</ele>
        <time>2015-11-11T12:35:31.700Z</time>
      </trkpt>
      <trkpt lat="43.64851" lon="2.35048">
        <ele>535.8</ele>
        <time>2015-11-11T12:35:32.688Z</time>
      </trkpt>
      <trkpt lat="43.64844" lon="2.35052">
        <ele>536.7</ele>
        <time>2015-11-11T12:35:35.688Z</time>
      </trkpt>
      <trkpt lat="43.64842" lon="2.35054">
        <ele>537.2</ele>
        <time>2015-11-11T12:35:36.652Z</time>
      </trkpt>
      <trkpt lat="43.64836" lon="2.35061">
        <ele>538.6</ele>
        <time>2015-11-11T12:35:39.716Z</time>
      </trkpt>
      <trkpt lat="43.64834" lon="2.35064">
        <ele>539.1</ele>
        <time>2015-11-11T12:35:40.664Z</time>
      </trkpt>
      <trkpt lat="43.64829" lon="2.35073">
        <ele>540.1</ele>
        <time>2015-11-11T12:35:43.677Z</time>
      </trkpt>
      <trkpt lat="43.64828" lon="2.35075">
        <ele>540.6</ele>
        <time>2015-11-11T12:35:44.653Z</time>
      </trkpt>
      <trkpt lat="43.64823" lon="2.35085">
        <ele>542.9</ele>
        <time>2015-11-11T12:35:48.702Z</time>
      </trkpt>
      <trkpt lat="43.64821" lon="2.35087">
        <ele>543.6</ele>
        <time>2015-11-11T12:35:49.662Z</time>
      </trkpt>
      <trkpt lat="43.64814" lon="2.35095">
        <ele>545.7</ele>
        <time>2015-11-11T12:35:54.680Z</time>
      </trkpt>
      <trkpt lat="43.64813" lon="2.35097">
        <ele>546.2</ele>
        <time>2015-11-11T12:35:55.658Z</time>
      </trkpt>
      <trkpt lat="43.64809" lon="2.35104">
        <ele>547.4</ele>
        <time>2015-11-11T12:35:58.688Z</time>
      </trkpt>
      <trkpt lat="43.64807" lon="2.35107">
        <ele>547.8</ele>
        <time>2015-11-11T12:35:59.661Z</time>
      </trkpt>
      <trkpt lat="43.64801" lon="2.35113">
        <ele>549.5</ele>
        <time>2015-11-11T12:36:03.684Z</time>
      </trkpt>
      <trkpt lat="43.64799" lon="2.35116">
        <ele>549.4</ele>
        <time>2015-11-11T12:36:04.653Z</time>
      </trkpt>
      <trkpt lat="43.64794" lon="2.35124">
        <ele>550.1</ele>
        <time>2015-11-11T12:36:07.719Z</time>
      </trkpt>
      <trkpt lat="43.6479" lon="2.35126">
        <ele>550.2</ele>
        <time>2015-11-11T12:36:08.661Z</time>
      </trkpt>
      <trkpt lat="43.64784" lon="2.35135">
        <ele>550.5</ele>
        <time>2015-11-11T12:36:10.702Z</time>
      </trkpt>
      <trkpt lat="43.64782" lon="2.35138">
        <ele>551</ele>
        <time>2015-11-11T12:36:11.661Z</time>
      </trkpt>
      <trkpt lat="43.64778" lon="2.35147">
        <ele>551.7</ele>
        <time>2015-11-11T12:36:14.700Z</time>
      </trkpt>
      <trkpt lat="43.64776" lon="2.3515">
        <ele>551.6</ele>
        <time>2015-11-11T12:36:15.673Z</time>
      </trkpt>
      <trkpt lat="43.6477" lon="2.35158">
        <ele>551.6</ele>
        <time>2015-11-11T12:36:18.686Z</time>
      </trkpt>
      <trkpt lat="43.64768" lon="2.35161">
        <ele>551.9</ele>
        <time>2015-11-11T12:36:19.656Z</time>
      </trkpt>
      <trkpt lat="43.64764" lon="2.35169">
        <ele>551.6</ele>
        <time>2015-11-11T12:36:22.681Z</time>
      </trkpt>
      <trkpt lat="43.64762" lon="2.35172">
        <ele>551.6</ele>
        <time>2015-11-11T12:36:23.651Z</time>
      </trkpt>
      <trkpt lat="43.64758" lon="2.35179">
        <ele>551.4</ele>
        <time>2015-11-11T12:36:27.713Z</time>
      </trkpt>
      <trkpt lat="43.64756" lon="2.35182">
        <ele>551.5</ele>
        <time>2015-11-11T12:36:28.679Z</time>
      </trkpt>
      <trkpt lat="43.64751" lon="2.35191">
        <ele>551</ele>
        <time>2015-11-11T12:36:32.685Z</time>
      </trkpt>
      <trkpt lat="43.64749" lon="2.35193">
        <ele>551</ele>
        <time>2015-11-11T12:36:33.659Z</time>
      </trkpt>
      <trkpt lat="43.64745" lon="2.35202">
        <ele>550</ele>
        <time>2015-11-11T12:36:36.681Z</time>
      </trkpt>
      <trkpt lat="43.64744" lon="2.35204">
        <ele>549.6</ele>
        <time>2015-11-11T12:36:37.658Z</time>
      </trkpt>
      <trkpt lat="43.64739" lon="2.3521">
        <ele>549.5</ele>
        <time>2015-11-11T12:36:39.680Z</time>
      </trkpt>
      <trkpt lat="43.64737" lon="2.35212">
        <ele>548.6</ele>
        <time>2015-11-11T12:36:40.654Z</time>
      </trkpt>
      <trkpt lat="43.6473" lon="2.3522">
        <ele>545.8</ele>
        <time>2015-11-11T12:36:44.716Z</time>
      </trkpt>
      <trkpt lat="43.64729" lon="2.35222">
        <ele>545.4</ele>
        <time>2015-11-11T12:36:45.674Z</time>
      </trkpt>
      <trkpt lat="43.64725" lon="2.35231">
        <ele>544.9</ele>
        <time>2015-11-11T12:36:49.685Z</time>
      </trkpt>
      <trkpt lat="43.64724" lon="2.35233">
        <ele>544.9</ele>
        <time>2015-11-11T12:36:50.653Z</time>
      </trkpt>
      <trkpt lat="43.64721" lon="2.35242">
        <ele>545.2</ele>
        <time>2015-11-11T12:36:53.712Z</time>
      </trkpt>
      <trkpt lat="43.64719" lon="2.35244">
        <ele>545.3</ele>
        <time>2015-11-11T12:36:54.661Z</time>
      </trkpt>
      <trkpt lat="43.64713" lon="2.35252">
        <ele>544.3</ele>
        <time>2015-11-11T12:36:59.712Z</time>
      </trkpt>
      <trkpt lat="43.64712" lon="2.35254">
        <ele>544</ele>
        <time>2015-11-11T12:37:00.661Z</time>
      </trkpt>
      <trkpt lat="43.64707" lon="2.35263">
        <ele>542.8</ele>
        <time>2015-11-11T12:37:05.686Z</time>
      </trkpt>
      <trkpt lat="43.64706" lon="2.35265">
        <ele>542.7</ele>
        <time>2015-11-11T12:37:06.652Z</time>
      </trkpt>
      <trkpt lat="43.64703" lon="2.35271">
        <ele>542.2</ele>
        <time>2015-11-11T12:37:09.692Z</time>
      </trkpt>
      <trkpt lat="43.647" lon="2.35275">
        <ele>542.2</ele>
        <time>2015-11-11T12:37:10.656Z</time>
      </trkpt>
      <trkpt lat="43.64695" lon="2.35282">
        <ele>542</ele>
        <time>2015-11-11T12:37:13.713Z</time>
      </trkpt>
      <trkpt lat="43.64694" lon="2.35284">
        <ele>542</ele>
        <time>2015-11-11T12:37:14.660Z</time>
      </trkpt>
      <trkpt lat="43.64688" lon="2.35292">
        <ele>542.2</ele>
        <time>2015-11-11T12:37:18.680Z</time>
      </trkpt>
      <trkpt lat="43.64688" lon="2.35294">
        <ele>542.5</ele>
        <time>2015-11-11T12:37:19.656Z</time>
      </trkpt>
      <trkpt lat="43.64682" lon="2.35303">
        <ele>543.6</ele>
        <time>2015-11-11T12:37:24.700Z</time>
      </trkpt>
      <trkpt lat="43.6468" lon="2.35305">
        <ele>543.8</ele>
        <time>2015-11-11T12:37:25.658Z</time>
      </trkpt>
      <trkpt lat="43.64674" lon="2.35311">
        <ele>544.2</ele>
        <time>2015-11-11T12:37:29.684Z</time>
      </trkpt>
      <trkpt lat="43.64673" lon="2.35312">
        <ele>544.3</ele>
        <time>2015-11-11T12:37:30.654Z</time>
      </trkpt>
      <trkpt lat="43.64666" lon="2.35318">
        <ele>544.5</ele>
        <time>2015-11-11T12:37:34.710Z</time>
      </trkpt>
      <trkpt lat="43.64664" lon="2.35319">
        <ele>544.6</ele>
        <time>2015-11-11T12:37:35.673Z</time>
      </trkpt>
      <trkpt lat="43.64657" lon="2.35316">
        <ele>544.7</ele>
        <time>2015-11-11T12:37:39.682Z</time>
      </trkpt>
      <trkpt lat="43.64655" lon="2.35314">
        <ele>545.3</ele>
        <time>2015-11-11T12:37:40.654Z</time>
      </trkpt>
      <trkpt lat="43.64651" lon="2.35303">
        <ele>546</ele>
        <time>2015-11-11T12:37:44.679Z</time>
      </trkpt>
      <trkpt lat="43.64652" lon="2.353">
        <ele>545.9</ele>
        <time>2015-11-11T12:37:45.673Z</time>
      </trkpt>
      <trkpt lat="43.64656" lon="2.3529">
        <ele>543.7</ele>
        <time>2015-11-11T12:37:48.700Z</time>
      </trkpt>
      <trkpt lat="43.64657" lon="2.35287">
        <ele>542.7</ele>
        <time>2015-11-11T12:37:49.672Z</time>
      </trkpt>
      <trkpt lat="43.64655" lon="2.35279">
        <ele>541.2</ele>
        <time>2015-11-11T12:37:52.696Z</time>
      </trkpt>
      <trkpt lat="43.64653" lon="2.35276">
        <ele>541.4</ele>
        <time>2015-11-11T12:37:53.651Z</time>
      </trkpt>
      <trkpt lat="43.64646" lon="2.35271">
        <ele>541</ele>
        <time>2015-11-11T12:37:55.703Z</time>
      </trkpt>
      <trkpt lat="43.64643" lon="2.35271">
        <ele>540.6</ele>
        <time>2015-11-11T12:37:56.652Z</time>
      </trkpt>
      <trkpt lat="43.64634" lon="2.35272">
        <ele>539.9</ele>
        <time>2015-11-11T12:37:59.700Z</time>
      </trkpt>
      <trkpt lat="43.64631" lon="2.35274">
        <ele>539.7</ele>
        <time>2015-11-11T12:38:00.661Z</time>
      </trkpt>
      <trkpt lat="43.64624" lon="2.35279">
        <ele>539</ele>
        <time>2015-11-11T12:38:03.712Z</time>
      </trkpt>
      <trkpt lat="43.64621" lon="2.35281">
        <ele>538.8</ele>
        <time>2015-11-11T12:38:04.729Z</time>
      </trkpt>
      <trkpt lat="43.64615" lon="2.3529">
        <ele>538.5</ele>
        <time>2015-11-11T12:38:08.685Z</time>
      </trkpt>
      <trkpt lat="43.64614" lon="2.35293">
        <ele>538.4</ele>
        <time>2015-11-11T12:38:10.018Z</time>
      </trkpt>
      <trkpt lat="43.64609" lon="2.35303">
        <ele>537.9</ele>
        <time>2015-11-11T12:38:12.688Z</time>
      </trkpt>
      <trkpt lat="43.64607" lon="2.35306">
        <ele>537.7</ele>
        <time>2015-11-11T12:38:13.652Z</time>
      </trkpt>
      <trkpt lat="43.64601" lon="2.35312">
        <ele>536.8</ele>
        <time>2015-11-11T12:38:17.697Z</time>
      </trkpt>
      <trkpt lat="43.64599" lon="2.35317">
        <ele>536.6</ele>
        <time>2015-11-11T12:38:18.650Z</time>
      </trkpt>
      <trkpt lat="43.64598" lon="2.35319">
        <ele>536.4</ele>
        <time>2015-11-11T12:38:19.699Z</time>
      </trkpt>
      <trkpt lat="43.64597" lon="2.35319">
        <ele>536.2</ele>
        <time>2015-11-11T12:38:20.652Z</time>
      </trkpt>
      <trkpt lat="43.64593" lon="2.35328">
        <ele>532.5</ele>
        <time>2015-11-11T12:38:29.685Z</time>
      </trkpt>
      <trkpt lat="43.64593" lon="2.35327">
        <ele>531.9</ele>
        <time>2015-11-11T12:38:30.652Z</time>
      </trkpt>
      <trkpt lat="43.64591" lon="2.35339">
        <ele>529.3</ele>
        <time>2015-11-11T12:38:42.671Z</time>
      </trkpt>
      <trkpt lat="43.64586" lon="2.35339">
        <ele>530</ele>
        <time>2015-11-11T12:38:43.653Z</time>
      </trkpt>
      <trkpt lat="43.64581" lon="2.35347">
        <ele>530.6</ele>
        <time>2015-11-11T12:38:46.701Z</time>
      </trkpt>
      <trkpt lat="43.64577" lon="2.35351">
        <ele>530.5</ele>
        <time>2015-11-11T12:38:47.658Z</time>
      </trkpt>
      <trkpt lat="43.64573" lon="2.35357">
        <ele>530.3</ele>
        <time>2015-11-11T12:38:49.684Z</time>
      </trkpt>
      <trkpt lat="43.64571" lon="2.3536">
        <ele>530.2</ele>
        <time>2015-11-11T12:38:50.652Z</time>
      </trkpt>
      <trkpt lat="43.64564" lon="2.35369">
        <ele>530.2</ele>
        <time>2015-11-11T12:38:53.684Z</time>
      </trkpt>
      <trkpt lat="43.64566" lon="2.35373">
        <ele>531.8</ele>
        <time>2015-11-11T12:38:54.660Z</time>
      </trkpt>
      <trkpt lat="43.64562" lon="2.35384">
        <ele>535.6</ele>
        <time>2015-11-11T12:38:58.677Z</time>
      </trkpt>
      <trkpt lat="43.64562" lon="2.35387">
        <ele>537.2</ele>
        <time>2015-11-11T12:38:59.651Z</time>
      </trkpt>
      <trkpt lat="43.6456" lon="2.35396">
        <ele>539.6</ele>
        <time>2015-11-11T12:39:02.699Z</time>
      </trkpt>
      <trkpt lat="43.6456" lon="2.35399">
        <ele>540.7</ele>
        <time>2015-11-11T12:39:03.673Z</time>
      </trkpt>
      <trkpt lat="43.64557" lon="2.35408">
        <ele>544.7</ele>
        <time>2015-11-11T12:39:06.700Z</time>
      </trkpt>
      <trkpt lat="43.64557" lon="2.35411">
        <ele>545.5</ele>
        <time>2015-11-11T12:39:07.673Z</time>
      </trkpt>
      <trkpt lat="43.64554" lon="2.35419">
        <ele>548.1</ele>
        <time>2015-11-11T12:39:10.702Z</time>
      </trkpt>
      <trkpt lat="43.64553" lon="2.35423">
        <ele>548.6</ele>
        <time>2015-11-11T12:39:11.673Z</time>
      </trkpt>
      <trkpt lat="43.64551" lon="2.35433">
        <ele>550.7</ele>
        <time>2015-11-11T12:39:14.678Z</time>
      </trkpt>
      <trkpt lat="43.6455" lon="2.35436">
        <ele>551.2</ele>
        <time>2015-11-11T12:39:15.657Z</time>
      </trkpt>
      <trkpt lat="43.64547" lon="2.35448">
        <ele>554.5</ele>
        <time>2015-11-11T12:39:19.699Z</time>
      </trkpt>
      <trkpt lat="43.64546" lon="2.3545">
        <ele>555.3</ele>
        <time>2015-11-11T12:39:20.660Z</time>
      </trkpt>
      <trkpt lat="43.64543" lon="2.3546">
        <ele>558.5</ele>
        <time>2015-11-11T12:39:24.700Z</time>
      </trkpt>
      <trkpt lat="43.64542" lon="2.35463">
        <ele>559.7</ele>
        <time>2015-11-11T12:39:25.673Z</time>
      </trkpt>
      <trkpt lat="43.64539" lon="2.35474">
        <ele>564.1</ele>
        <time>2015-11-11T12:39:29.681Z</time>
      </trkpt>
      <trkpt lat="43.64538" lon="2.35476">
        <ele>565</ele>
        <time>2015-11-11T12:39:30.653Z</time>
      </trkpt>
      <trkpt lat="43.64533" lon="2.35484">
        <ele>568.9</ele>
        <time>2015-11-11T12:39:34.707Z</time>
      </trkpt>
      <trkpt lat="43.64531" lon="2.35486">
        <ele>569.7</ele>
        <time>2015-11-11T12:39:35.680Z</time>
      </trkpt>
      <trkpt lat="43.64526" lon="2.35496">
        <ele>573.1</ele>
        <time>2015-11-11T12:39:39.683Z</time>
      </trkpt>
      <trkpt lat="43.64524" lon="2.35499">
        <ele>573.7</ele>
        <time>2015-11-11T12:39:40.653Z</time>
      </trkpt>
      <trkpt lat="43.64519" lon="2.35507">
        <ele>576.1</ele>
        <time>2015-11-11T12:39:43.676Z</time>
      </trkpt>
      <trkpt lat="43.64518" lon="2.3551">
        <ele>577</ele>
        <time>2015-11-11T12:39:44.653Z</time>
      </trkpt>
      <trkpt lat="43.64512" lon="2.35517">
        <ele>578.4</ele>
        <time>2015-11-11T12:39:46.719Z</time>
      </trkpt>
      <trkpt lat="43.6451" lon="2.35521">
        <ele>578.9</ele>
        <time>2015-11-11T12:39:47.661Z</time>
      </trkpt>
      <trkpt lat="43.64504" lon="2.35529">
        <ele>581.2</ele>
        <time>2015-11-11T12:39:50.685Z</time>
      </trkpt>
      <trkpt lat="43.64504" lon="2.35531">
        <ele>581.9</ele>
        <time>2015-11-11T12:39:51.654Z</time>
      </trkpt>
      <trkpt lat="43.645" lon="2.3554">
        <ele>584.1</ele>
        <time>2015-11-11T12:39:54.682Z</time>
      </trkpt>
      <trkpt lat="43.64499" lon="2.35542">
        <ele>584.7</ele>
        <time>2015-11-11T12:39:55.691Z</time>
      </trkpt>
      <trkpt lat="43.64495" lon="2.35553">
        <ele>586.5</ele>
        <time>2015-11-11T12:39:59.712Z</time>
      </trkpt>
      <trkpt lat="43.64495" lon="2.35557">
        <ele>586.7</ele>
        <time>2015-11-11T12:40:00.661Z</time>
      </trkpt>
      <trkpt lat="43.64491" lon="2.35567">
        <ele>588.6</ele>
        <time>2015-11-11T12:40:04.680Z</time>
      </trkpt>
      <trkpt lat="43.6449" lon="2.3557">
        <ele>589.1</ele>
        <time>2015-11-11T12:40:05.653Z</time>
      </trkpt>
      <trkpt lat="43.64487" lon="2.3558">
        <ele>589.3</ele>
        <time>2015-11-11T12:40:08.670Z</time>
      </trkpt>
      <trkpt lat="43.64486" lon="2.35584">
        <ele>589.7</ele>
        <time>2015-11-11T12:40:09.650Z</time>
      </trkpt>
      <trkpt lat="43.64481" lon="2.35592">
        <ele>591.2</ele>
        <time>2015-11-11T12:40:12.675Z</time>
      </trkpt>
      <trkpt lat="43.6448" lon="2.35595">
        <ele>591.2</ele>
        <time>2015-11-11T12:40:13.672Z</time>
      </trkpt>
      <trkpt lat="43.64474" lon="2.35602">
        <ele>593.9</ele>
        <time>2015-11-11T12:40:16.689Z</time>
      </trkpt>
      <trkpt lat="43.64471" lon="2.35604">
        <ele>593.9</ele>
        <time>2015-11-11T12:40:17.657Z</time>
      </trkpt>
      <trkpt lat="43.64466" lon="2.35608">
        <ele>593.6</ele>
        <time>2015-11-11T12:40:19.676Z</time>
      </trkpt>
      <trkpt lat="43.64463" lon="2.35611">
        <ele>592.9</ele>
        <time>2015-11-11T12:40:20.660Z</time>
      </trkpt>
      <trkpt lat="43.64457" lon="2.35618">
        <ele>592.9</ele>
        <time>2015-11-11T12:40:23.710Z</time>
      </trkpt>
      <trkpt lat="43.64455" lon="2.3562">
        <ele>593.3</ele>
        <time>2015-11-11T12:40:24.660Z</time>
      </trkpt>
      <trkpt lat="43.64447" lon="2.35625">
        <ele>592.3</ele>
        <time>2015-11-11T12:40:28.082Z</time>
      </trkpt>
      <trkpt lat="43.64443" lon="2.35626">
        <ele>592.6</ele>
        <time>2015-11-11T12:40:28.654Z</time>
      </trkpt>
      <trkpt lat="43.64438" lon="2.3563">
        <ele>592.4</ele>
        <time>2015-11-11T12:40:30.679Z</time>
      </trkpt>
      <trkpt lat="43.64435" lon="2.35632">
        <ele>592</ele>
        <time>2015-11-11T12:40:31.656Z</time>
      </trkpt>
      <trkpt lat="43.64428" lon="2.35637">
        <ele>591.4</ele>
        <time>2015-11-11T12:40:34.678Z</time>
      </trkpt>
      <trkpt lat="43.64425" lon="2.35638">
        <ele>591.5</ele>
        <time>2015-11-11T12:40:35.673Z</time>
      </trkpt>
      <trkpt lat="43.6442" lon="2.35646">
        <ele>591</ele>
        <time>2015-11-11T12:40:39.687Z</time>
      </trkpt>
      <trkpt lat="43.64418" lon="2.35648">
        <ele>590.8</ele>
        <time>2015-11-11T12:40:40.655Z</time>
      </trkpt>
      <trkpt lat="43.64411" lon="2.35654">
        <ele>590.7</ele>
        <time>2015-11-11T12:40:44.700Z</time>
      </trkpt>
      <trkpt lat="43.64409" lon="2.35657">
        <ele>591</ele>
        <time>2015-11-11T12:40:45.661Z</time>
      </trkpt>
      <trkpt lat="43.64404" lon="2.35666">
        <ele>590.4</ele>
        <time>2015-11-11T12:40:48.699Z</time>
      </trkpt>
      <trkpt lat="43.64401" lon="2.35669">
        <ele>590.2</ele>
        <time>2015-11-11T12:40:49.660Z</time>
      </trkpt>
      <trkpt lat="43.64395" lon="2.35677">
        <ele>590.2</ele>
        <time>2015-11-11T12:40:52.679Z</time>
      </trkpt>
      <trkpt lat="43.64392" lon="2.35681">
        <ele>589.3</ele>
        <time>2015-11-11T12:40:53.654Z</time>
      </trkpt>
      <trkpt lat="43.64384" lon="2.35686">
        <ele>588.6</ele>
        <time>2015-11-11T12:40:56.699Z</time>
      </trkpt>
      <trkpt lat="43.64382" lon="2.35688">
        <ele>588.6</ele>
        <time>2015-11-11T12:40:57.672Z</time>
      </trkpt>
      <trkpt lat="43.64378" lon="2.35696">
        <ele>588.8</ele>
        <time>2015-11-11T12:41:00.700Z</time>
      </trkpt>
      <trkpt lat="43.64377" lon="2.357">
        <ele>588.7</ele>
        <time>2015-11-11T12:41:01.672Z</time>
      </trkpt>
      <trkpt lat="43.64374" lon="2.3571">
        <ele>587.9</ele>
        <time>2015-11-11T12:41:04.678Z</time>
      </trkpt>
      <trkpt lat="43.64374" lon="2.35713">
        <ele>587.8</ele>
        <time>2015-11-11T12:41:05.653Z</time>
      </trkpt>
      <trkpt lat="43.64372" lon="2.35722">
        <ele>586.9</ele>
        <time>2015-11-11T12:41:08.696Z</time>
      </trkpt>
      <trkpt lat="43.64372" lon="2.35726">
        <ele>586.5</ele>
        <time>2015-11-11T12:41:09.675Z</time>
      </trkpt>
      <trkpt lat="43.64372" lon="2.35736">
        <ele>585.2</ele>
        <time>2015-11-11T12:41:11.698Z</time>
      </trkpt>
      <trkpt lat="43.64372" lon="2.3574">
        <ele>584.4</ele>
        <time>2015-11-11T12:41:12.660Z</time>
      </trkpt>
      <trkpt lat="43.64372" lon="2.35752">
        <ele>583.1</ele>
        <time>2015-11-11T12:41:15.711Z</time>
      </trkpt>
      <trkpt lat="43.64373" lon="2.35756">
        <ele>582.7</ele>
        <time>2015-11-11T12:41:16.662Z</time>
      </trkpt>
      <trkpt lat="43.64374" lon="2.35765">
        <ele>582</ele>
        <time>2015-11-11T12:41:18.678Z</time>
      </trkpt>
      <trkpt lat="43.64374" lon="2.35769">
        <ele>581.7</ele>
        <time>2015-11-11T12:41:19.657Z</time>
      </trkpt>
      <trkpt lat="43.64374" lon="2.35778">
        <ele>580.7</ele>
        <time>2015-11-11T12:41:21.683Z</time>
      </trkpt>
      <trkpt lat="43.64375" lon="2.35782">
        <ele>580.4</ele>
        <time>2015-11-11T12:41:22.654Z</time>
      </trkpt>
      <trkpt lat="43.64374" lon="2.35793">
        <ele>578.8</ele>
        <time>2015-11-11T12:41:25.716Z</time>
      </trkpt>
      <trkpt lat="43.64374" lon="2.35797">
        <ele>578</ele>
        <time>2015-11-11T12:41:26.660Z</time>
      </trkpt>
      <trkpt lat="43.64376" lon="2.35808">
        <ele>576.2</ele>
        <time>2015-11-11T12:41:29.684Z</time>
      </trkpt>
      <trkpt lat="43.64378" lon="2.35811">
        <ele>575.3</ele>
        <time>2015-11-11T12:41:30.651Z</time>
      </trkpt>
      <trkpt lat="43.64384" lon="2.35819">
        <ele>573.3</ele>
        <time>2015-11-11T12:41:33.694Z</time>
      </trkpt>
      <trkpt lat="43.64384" lon="2.35822">
        <ele>572.7</ele>
        <time>2015-11-11T12:41:34.654Z</time>
      </trkpt>
      <trkpt lat="43.64389" lon="2.35831">
        <ele>570.3</ele>
        <time>2015-11-11T12:41:38.677Z</time>
      </trkpt>
      <trkpt lat="43.6439" lon="2.35835">
        <ele>569.2</ele>
        <time>2015-11-11T12:41:39.658Z</time>
      </trkpt>
      <trkpt lat="43.64395" lon="2.35845">
        <ele>566.7</ele>
        <time>2015-11-11T12:41:43.684Z</time>
      </trkpt>
      <trkpt lat="43.64397" lon="2.35848">
        <ele>565.9</ele>
        <time>2015-11-11T12:41:44.652Z</time>
      </trkpt>
      <trkpt lat="43.644" lon="2.35856">
        <ele>563.4</ele>
        <time>2015-11-11T12:41:48.700Z</time>
      </trkpt>
      <trkpt lat="43.64402" lon="2.35861">
        <ele>562.4</ele>
        <time>2015-11-11T12:41:49.672Z</time>
      </trkpt>
      <trkpt lat="43.64405" lon="2.35873">
        <ele>559.8</ele>
        <time>2015-11-11T12:41:52.958Z</time>
      </trkpt>
      <trkpt lat="43.64406" lon="2.35875">
        <ele>559</ele>
        <time>2015-11-11T12:41:53.651Z</time>
      </trkpt>
      <trkpt lat="43.64409" lon="2.35885">
        <ele>557.1</ele>
        <time>2015-11-11T12:41:56.676Z</time>
      </trkpt>
      <trkpt lat="43.6441" lon="2.35889">
        <ele>556.3</ele>
        <time>2015-11-11T12:41:57.651Z</time>
      </trkpt>
      <trkpt lat="43.64409" lon="2.35899">
        <ele>554.3</ele>
        <time>2015-11-11T12:42:00.699Z</time>
      </trkpt>
      <trkpt lat="43.64408" lon="2.35902">
        <ele>553.7</ele>
        <time>2015-11-11T12:42:01.672Z</time>
      </trkpt>
      <trkpt lat="43.64405" lon="2.35911">
        <ele>551.4</ele>
        <time>2015-11-11T12:42:05.684Z</time>
      </trkpt>
      <trkpt lat="43.64403" lon="2.35912">
        <ele>551</ele>
        <time>2015-11-11T12:42:06.652Z</time>
      </trkpt>
      <trkpt lat="43.64399" lon="2.35921">
        <ele>549.4</ele>
        <time>2015-11-11T12:42:09.687Z</time>
      </trkpt>
      <trkpt lat="43.64398" lon="2.35923">
        <ele>549.1</ele>
        <time>2015-11-11T12:42:10.652Z</time>
      </trkpt>
      <trkpt lat="43.6439" lon="2.35924">
        <ele>547.5</ele>
        <time>2015-11-11T12:42:14.700Z</time>
      </trkpt>
      <trkpt lat="43.64387" lon="2.35923">
        <ele>546.9</ele>
        <time>2015-11-11T12:42:15.661Z</time>
      </trkpt>
      <trkpt lat="43.6438" lon="2.3592">
        <ele>545.2</ele>
        <time>2015-11-11T12:42:17.727Z</time>
      </trkpt>
      <trkpt lat="43.64377" lon="2.35917">
        <ele>544.6</ele>
        <time>2015-11-11T12:42:18.660Z</time>
      </trkpt>
      <trkpt lat="43.64374" lon="2.35915">
        <ele>543.9</ele>
        <time>2015-11-11T12:42:19.682Z</time>
      </trkpt>
      <trkpt lat="43.64367" lon="2.35918">
        <ele>543.2</ele>
        <time>2015-11-11T12:42:20.652Z</time>
      </trkpt>
      <trkpt lat="43.6436" lon="2.35916">
        <ele>541.7</ele>
        <time>2015-11-11T12:42:22.679Z</time>
      </trkpt>
      <trkpt lat="43.64358" lon="2.35914">
        <ele>541.2</ele>
        <time>2015-11-11T12:42:23.650Z</time>
      </trkpt>
      <trkpt lat="43.64352" lon="2.35923">
        <ele>540.8</ele>
        <time>2015-11-11T12:42:26.699Z</time>
      </trkpt>
      <trkpt lat="43.64351" lon="2.35927">
        <ele>540.6</ele>
        <time>2015-11-11T12:42:27.672Z</time>
      </trkpt>
      <trkpt lat="43.64348" lon="2.35936">
        <ele>540.1</ele>
        <time>2015-11-11T12:42:30.698Z</time>
      </trkpt>
      <trkpt lat="43.64348" lon="2.3594">
        <ele>540.1</ele>
        <time>2015-11-11T12:42:31.653Z</time>
      </trkpt>
      <trkpt lat="43.64347" lon="2.35952">
        <ele>540.6</ele>
        <time>2015-11-11T12:42:34.675Z</time>
      </trkpt>
      <trkpt lat="43.64347" lon="2.35956">
        <ele>540.5</ele>
        <time>2015-11-11T12:42:35.658Z</time>
      </trkpt>
      <trkpt lat="43.64348" lon="2.35965">
        <ele>540.7</ele>
        <time>2015-11-11T12:42:37.703Z</time>
      </trkpt>
      <trkpt lat="43.64349" lon="2.35968">
        <ele>540.5</ele>
        <time>2015-11-11T12:42:38.652Z</time>
      </trkpt>
      <trkpt lat="43.64352" lon="2.35977">
        <ele>539.2</ele>
        <time>2015-11-11T12:42:40.681Z</time>
      </trkpt>
      <trkpt lat="43.64354" lon="2.3598">
        <ele>538.7</ele>
        <time>2015-11-11T12:42:41.655Z</time>
      </trkpt>
      <trkpt lat="43.6436" lon="2.35984">
        <ele>538</ele>
        <time>2015-11-11T12:42:43.688Z</time>
      </trkpt>
      <trkpt lat="43.64363" lon="2.35985">
        <ele>537.6</ele>
        <time>2015-11-11T12:42:44.676Z</time>
      </trkpt>
      <trkpt lat="43.6437" lon="2.3599">
        <ele>536.3</ele>
        <time>2015-11-11T12:42:47.726Z</time>
      </trkpt>
      <trkpt lat="43.64373" lon="2.3599">
        <ele>535.8</ele>
        <time>2015-11-11T12:42:48.652Z</time>
      </trkpt>
      <trkpt lat="43.6438" lon="2.3599">
        <ele>535.2</ele>
        <time>2015-11-11T12:42:50.677Z</time>
      </trkpt>
      <trkpt lat="43.64384" lon="2.3599">
        <ele>534.9</ele>
        <time>2015-11-11T12:42:51.652Z</time>
      </trkpt>
      <trkpt lat="43.6439" lon="2.35988">
        <ele>534.8</ele>
        <time>2015-11-11T12:42:53.675Z</time>
      </trkpt>
      <trkpt lat="43.64393" lon="2.35985">
        <ele>534.2</ele>
        <time>2015-11-11T12:42:54.660Z</time>
      </trkpt>
      <trkpt lat="43.644" lon="2.35981">
        <ele>532.8</ele>
        <time>2015-11-11T12:42:57.699Z</time>
      </trkpt>
      <trkpt lat="43.64403" lon="2.35981">
        <ele>532.1</ele>
        <time>2015-11-11T12:42:58.662Z</time>
      </trkpt>
      <trkpt lat="43.64411" lon="2.35981">
        <ele>531.4</ele>
        <time>2015-11-11T12:43:01.712Z</time>
      </trkpt>
      <trkpt lat="43.64415" lon="2.35981">
        <ele>530.9</ele>
        <time>2015-11-11T12:43:02.660Z</time>
      </trkpt>
      <trkpt lat="43.64423" lon="2.35982">
        <ele>530.5</ele>
        <time>2015-11-11T12:43:04.700Z</time>
      </trkpt>
      <trkpt lat="43.64427" lon="2.35981">
        <ele>530.2</ele>
        <time>2015-11-11T12:43:05.655Z</time>
      </trkpt>
      <trkpt lat="43.64434" lon="2.35976">
        <ele>528.7</ele>
        <time>2015-11-11T12:43:08.677Z</time>
      </trkpt>
      <trkpt lat="43.64436" lon="2.35973">
        <ele>527.9</ele>
        <time>2015-11-11T12:43:09.652Z</time>
      </trkpt>
      <trkpt lat="43.64441" lon="2.35966">
        <ele>526.3</ele>
        <time>2015-11-11T12:43:11.695Z</time>
      </trkpt>
      <trkpt lat="43.64443" lon="2.35962">
        <ele>525.8</ele>
        <time>2015-11-11T12:43:12.661Z</time>
      </trkpt>
      <trkpt lat="43.64447" lon="2.35956">
        <ele>524.6</ele>
        <time>2015-11-11T12:43:14.700Z</time>
      </trkpt>
      <trkpt lat="43.6445" lon="2.35954">
        <ele>523.5</ele>
        <time>2015-11-11T12:43:15.660Z</time>
      </trkpt>
      <trkpt lat="43.64456" lon="2.3595">
        <ele>520.9</ele>
        <time>2015-11-11T12:43:19.041Z</time>
      </trkpt>
      <trkpt lat="43.64459" lon="2.35949">
        <ele>520.1</ele>
        <time>2015-11-11T12:43:19.652Z</time>
      </trkpt>
      <trkpt lat="43.64464" lon="2.35949">
        <ele>518.4</ele>
        <time>2015-11-11T12:43:21.684Z</time>
      </trkpt>
      <trkpt lat="43.64468" lon="2.3595">
        <ele>517.2</ele>
        <time>2015-11-11T12:43:22.684Z</time>
      </trkpt>
      <trkpt lat="43.64472" lon="2.35952">
        <ele>516.3</ele>
        <time>2015-11-11T12:43:23.711Z</time>
      </trkpt>
      <trkpt lat="43.64477" lon="2.35954">
        <ele>515.6</ele>
        <time>2015-11-11T12:43:24.660Z</time>
      </trkpt>
      <trkpt lat="43.64483" lon="2.35957">
        <ele>513.7</ele>
        <time>2015-11-11T12:43:26.698Z</time>
      </trkpt>
      <trkpt lat="43.64486" lon="2.35958">
        <ele>512.9</ele>
        <time>2015-11-11T12:43:27.673Z</time>
      </trkpt>
      <trkpt lat="43.64492" lon="2.35963">
        <ele>510.5</ele>
        <time>2015-11-11T12:43:30.698Z</time>
      </trkpt>
      <trkpt lat="43.64495" lon="2.35965">
        <ele>510.4</ele>
        <time>2015-11-11T12:43:32.044Z</time>
      </trkpt>
      <trkpt lat="43.64502" lon="2.3597">
        <ele>509.2</ele>
        <time>2015-11-11T12:43:34.679Z</time>
      </trkpt>
      <trkpt lat="43.64504" lon="2.35971">
        <ele>509.1</ele>
        <time>2015-11-11T12:43:35.654Z</time>
      </trkpt>
      <trkpt lat="43.64513" lon="2.35974">
        <ele>507.1</ele>
        <time>2015-11-11T12:43:40.704Z</time>
      </trkpt>
      <trkpt lat="43.64515" lon="2.35973">
        <ele>507.1</ele>
        <time>2015-11-11T12:43:41.698Z</time>
      </trkpt>
      <trkpt lat="43.64523" lon="2.35975">
        <ele>507.4</ele>
        <time>2015-11-11T12:43:44.677Z</time>
      </trkpt>
      <trkpt lat="43.64526" lon="2.35975">
        <ele>507.1</ele>
        <time>2015-11-11T12:43:45.657Z</time>
      </trkpt>
      <trkpt lat="43.64535" lon="2.35976">
        <ele>505.9</ele>
        <time>2015-11-11T12:43:49.711Z</time>
      </trkpt>
      <trkpt lat="43.64536" lon="2.35976">
        <ele>505.2</ele>
        <time>2015-11-11T12:43:50.660Z</time>
      </trkpt>
      <trkpt lat="43.64544" lon="2.35978">
        <ele>504.9</ele>
        <time>2015-11-11T12:43:53.820Z</time>
      </trkpt>
      <trkpt lat="43.64546" lon="2.35979">
        <ele>504.3</ele>
        <time>2015-11-11T12:43:54.660Z</time>
      </trkpt>
      <trkpt lat="43.64551" lon="2.35981">
        <ele>502.2</ele>
        <time>2015-11-11T12:43:57.686Z</time>
      </trkpt>
      <trkpt lat="43.64554" lon="2.35984">
        <ele>502.3</ele>
        <time>2015-11-11T12:43:58.654Z</time>
      </trkpt>
      <trkpt lat="43.6456" lon="2.35989">
        <ele>501.7</ele>
        <time>2015-11-11T12:44:01.714Z</time>
      </trkpt>
      <trkpt lat="43.64563" lon="2.3599">
        <ele>502.5</ele>
        <time>2015-11-11T12:44:02.661Z</time>
      </trkpt>
      <trkpt lat="43.64572" lon="2.35992">
        <ele>504.9</ele>
        <time>2015-11-11T12:44:06.701Z</time>
      </trkpt>
      <trkpt lat="43.64574" lon="2.35992">
        <ele>505.6</ele>
        <time>2015-11-11T12:44:07.728Z</time>
      </trkpt>
      <trkpt lat="43.64581" lon="2.35994">
        <ele>504.8</ele>
        <time>2015-11-11T12:44:11.689Z</time>
      </trkpt>
      <trkpt lat="43.64584" lon="2.35993">
        <ele>504.7</ele>
        <time>2015-11-11T12:44:12.655Z</time>
      </trkpt>
      <trkpt lat="43.6459" lon="2.35992">
        <ele>504.7</ele>
        <time>2015-11-11T12:44:14.710Z</time>
      </trkpt>
      <trkpt lat="43.64593" lon="2.35994">
        <ele>505</ele>
        <time>2015-11-11T12:44:15.673Z</time>
      </trkpt>
      <trkpt lat="43.646" lon="2.35995">
        <ele>505.7</ele>
        <time>2015-11-11T12:44:18.702Z</time>
      </trkpt>
      <trkpt lat="43.64603" lon="2.35995">
        <ele>505.9</ele>
        <time>2015-11-11T12:44:19.673Z</time>
      </trkpt>
      <trkpt lat="43.64608" lon="2.35993">
        <ele>506.9</ele>
        <time>2015-11-11T12:44:21.689Z</time>
      </trkpt>
      <trkpt lat="43.64611" lon="2.35992">
        <ele>508</ele>
        <time>2015-11-11T12:44:22.655Z</time>
      </trkpt>
      <trkpt lat="43.64617" lon="2.35992">
        <ele>508.8</ele>
        <time>2015-11-11T12:44:24.676Z</time>
      </trkpt>
      <trkpt lat="43.6462" lon="2.3599">
        <ele>509.3</ele>
        <time>2015-11-11T12:44:25.654Z</time>
      </trkpt>
      <trkpt lat="43.64628" lon="2.35988">
        <ele>509.1</ele>
        <time>2015-11-11T12:44:30.717Z</time>
      </trkpt>
      <trkpt lat="43.6463" lon="2.35988">
        <ele>509.4</ele>
        <time>2015-11-11T12:44:31.673Z</time>
      </trkpt>
      <trkpt lat="43.64638" lon="2.35985">
        <ele>510.8</ele>
        <time>2015-11-11T12:44:36.679Z</time>
      </trkpt>
      <trkpt lat="43.6464" lon="2.35985">
        <ele>511</ele>
        <time>2015-11-11T12:44:37.652Z</time>
      </trkpt>
      <trkpt lat="43.64647" lon="2.35986">
        <ele>513.8</ele>
        <time>2015-11-11T12:44:41.866Z</time>
      </trkpt>
      <trkpt lat="43.64649" lon="2.35986">
        <ele>514.6</ele>
        <time>2015-11-11T12:44:42.661Z</time>
      </trkpt>
      <trkpt lat="43.64656" lon="2.35987">
        <ele>519.2</ele>
        <time>2015-11-11T12:44:47.689Z</time>
      </trkpt>
      <trkpt lat="43.64658" lon="2.35988">
        <ele>520</ele>
        <time>2015-11-11T12:44:48.652Z</time>
      </trkpt>
      <trkpt lat="43.64667" lon="2.35989">
        <ele>522.8</ele>
        <time>2015-11-11T12:44:53.700Z</time>
      </trkpt>
      <trkpt lat="43.64669" lon="2.35989">
        <ele>523.5</ele>
        <time>2015-11-11T12:44:54.661Z</time>
      </trkpt>
      <trkpt lat="43.64677" lon="2.35989">
        <ele>526</ele>
        <time>2015-11-11T12:45:00.678Z</time>
      </trkpt>
      <trkpt lat="43.64678" lon="2.35989">
        <ele>526.3</ele>
        <time>2015-11-11T12:45:01.657Z</time>
      </trkpt>
      <trkpt lat="43.64686" lon="2.35987">
        <ele>528.2</ele>
        <time>2015-11-11T12:45:06.701Z</time>
      </trkpt>
      <trkpt lat="43.64688" lon="2.35987">
        <ele>528.4</ele>
        <time>2015-11-11T12:45:07.678Z</time>
      </trkpt>
      <trkpt lat="43.64696" lon="2.35987">
        <ele>529.7</ele>
        <time>2015-11-11T12:45:12.689Z</time>
      </trkpt>
      <trkpt lat="43.64698" lon="2.35987">
        <ele>529.9</ele>
        <time>2015-11-11T12:45:13.652Z</time>
      </trkpt>
      <trkpt lat="43.64707" lon="2.35988">
        <ele>530.3</ele>
        <time>2015-11-11T12:45:17.701Z</time>
      </trkpt>
      <trkpt lat="43.64708" lon="2.35988">
        <ele>530.1</ele>
        <time>2015-11-11T12:45:18.661Z</time>
      </trkpt>
      <trkpt lat="43.64715" lon="2.35989">
        <ele>530.5</ele>
        <time>2015-11-11T12:45:23.077Z</time>
      </trkpt>
      <trkpt lat="43.64717" lon="2.3599">
        <ele>531.2</ele>
        <time>2015-11-11T12:45:23.653Z</time>
      </trkpt>
      <trkpt lat="43.64724" lon="2.35993">
        <ele>532</ele>
        <time>2015-11-11T12:45:26.680Z</time>
      </trkpt>
      <trkpt lat="43.64727" lon="2.35994">
        <ele>532.1</ele>
        <time>2015-11-11T12:45:27.652Z</time>
      </trkpt>
      <trkpt lat="43.64735" lon="2.35998">
        <ele>534.2</ele>
        <time>2015-11-11T12:45:32.700Z</time>
      </trkpt>
      <trkpt lat="43.64737" lon="2.35998">
        <ele>534.6</ele>
        <time>2015-11-11T12:45:33.689Z</time>
      </trkpt>
      <trkpt lat="43.64746" lon="2.35997">
        <ele>538.1</ele>
        <time>2015-11-11T12:45:38.677Z</time>
      </trkpt>
      <trkpt lat="43.64747" lon="2.35997">
        <ele>538.8</ele>
        <time>2015-11-11T12:45:39.656Z</time>
      </trkpt>
      <trkpt lat="43.64755" lon="2.35997">
        <ele>541.9</ele>
        <time>2015-11-11T12:45:44.717Z</time>
      </trkpt>
      <trkpt lat="43.64757" lon="2.35997">
        <ele>542.4</ele>
        <time>2015-11-11T12:45:45.674Z</time>
      </trkpt>
      <trkpt lat="43.64764" lon="2.36004">
        <ele>545.2</ele>
        <time>2015-11-11T12:45:50.677Z</time>
      </trkpt>
      <trkpt lat="43.64765" lon="2.36006">
        <ele>546.1</ele>
        <time>2015-11-11T12:45:51.652Z</time>
      </trkpt>
      <trkpt lat="43.64767" lon="2.36015">
        <ele>550</ele>
        <time>2015-11-11T12:45:57.729Z</time>
      </trkpt>
      <trkpt lat="43.64768" lon="2.36018">
        <ele>550.6</ele>
        <time>2015-11-11T12:45:58.663Z</time>
      </trkpt>
      <trkpt lat="43.64768" lon="2.36029">
        <ele>553.6</ele>
        <time>2015-11-11T12:46:03.686Z</time>
      </trkpt>
      <trkpt lat="43.64768" lon="2.36032">
        <ele>553.8</ele>
        <time>2015-11-11T12:46:04.665Z</time>
      </trkpt>
      <trkpt lat="43.6477" lon="2.36042">
        <ele>555.3</ele>
        <time>2015-11-11T12:46:08.810Z</time>
      </trkpt>
      <trkpt lat="43.64771" lon="2.36044">
        <ele>555.7</ele>
        <time>2015-11-11T12:46:09.661Z</time>
      </trkpt>
      <trkpt lat="43.64774" lon="2.36054">
        <ele>557.2</ele>
        <time>2015-11-11T12:46:13.685Z</time>
      </trkpt>
      <trkpt lat="43.64774" lon="2.36056">
        <ele>557.5</ele>
        <time>2015-11-11T12:46:14.653Z</time>
      </trkpt>
      <trkpt lat="43.64777" lon="2.36066">
        <ele>559.1</ele>
        <time>2015-11-11T12:46:19.714Z</time>
      </trkpt>
      <trkpt lat="43.64777" lon="2.36068">
        <ele>559.2</ele>
        <time>2015-11-11T12:46:20.661Z</time>
      </trkpt>
      <trkpt lat="43.64779" lon="2.36079">
        <ele>560.4</ele>
        <time>2015-11-11T12:46:25.679Z</time>
      </trkpt>
      <trkpt lat="43.64779" lon="2.36081">
        <ele>560.7</ele>
        <time>2015-11-11T12:46:26.652Z</time>
      </trkpt>
      <trkpt lat="43.64783" lon="2.36089">
        <ele>561.6</ele>
        <time>2015-11-11T12:46:29.701Z</time>
      </trkpt>
      <trkpt lat="43.64785" lon="2.36092">
        <ele>561.7</ele>
        <time>2015-11-11T12:46:30.661Z</time>
      </trkpt>
      <trkpt lat="43.64788" lon="2.361">
        <ele>562</ele>
        <time>2015-11-11T12:46:34.682Z</time>
      </trkpt>
      <trkpt lat="43.64789" lon="2.36102">
        <ele>562.2</ele>
        <time>2015-11-11T12:46:35.657Z</time>
      </trkpt>
      <trkpt lat="43.64795" lon="2.3611">
        <ele>562.5</ele>
        <time>2015-11-11T12:46:40.703Z</time>
      </trkpt>
      <trkpt lat="43.64796" lon="2.36113">
        <ele>562.2</ele>
        <time>2015-11-11T12:46:41.673Z</time>
      </trkpt>
      <trkpt lat="43.64802" lon="2.36121">
        <ele>561.8</ele>
        <time>2015-11-11T12:46:45.701Z</time>
      </trkpt>
      <trkpt lat="43.64803" lon="2.36122">
        <ele>561.9</ele>
        <time>2015-11-11T12:46:46.663Z</time>
      </trkpt>
      <trkpt lat="43.64806" lon="2.36131">
        <ele>562.4</ele>
        <time>2015-11-11T12:46:50.678Z</time>
      </trkpt>
      <trkpt lat="43.64805" lon="2.36131">
        <ele>563.7</ele>
        <time>2015-11-11T12:46:51.661Z</time>
      </trkpt>
      <trkpt lat="43.64805" lon="2.36131">
        <ele>564.6</ele>
        <time>2015-11-11T12:46:52.682Z</time>
      </trkpt>
      <trkpt lat="43.64805" lon="2.36133">
        <ele>564.6</ele>
        <time>2015-11-11T12:46:53.653Z</time>
      </trkpt>
      <trkpt lat="43.64801" lon="2.36144">
        <ele>565.7</ele>
        <time>2015-11-11T12:46:59.713Z</time>
      </trkpt>
      <trkpt lat="43.648" lon="2.36147">
        <ele>565.8</ele>
        <time>2015-11-11T12:47:00.661Z</time>
      </trkpt>
      <trkpt lat="43.64797" lon="2.36158">
        <ele>566.6</ele>
        <time>2015-11-11T12:47:05.676Z</time>
      </trkpt>
      <trkpt lat="43.64796" lon="2.36159">
        <ele>566.8</ele>
        <time>2015-11-11T12:47:06.655Z</time>
      </trkpt>
      <trkpt lat="43.64794" lon="2.3617">
        <ele>567.5</ele>
        <time>2015-11-11T12:47:10.684Z</time>
      </trkpt>
      <trkpt lat="43.64793" lon="2.36171">
        <ele>567.6</ele>
        <time>2015-11-11T12:47:11.652Z</time>
      </trkpt>
      <trkpt lat="43.64793" lon="2.36171">
        <ele>567.6</ele>
        <time>2015-11-11T12:47:11.692Z</time>
      </trkpt>
      <trkpt lat="43.64793" lon="2.36175">
        <ele>567.7</ele>
        <time>2015-11-11T12:47:12.652Z</time>
      </trkpt>
      <trkpt lat="43.64789" lon="2.36184">
        <ele>567.8</ele>
        <time>2015-11-11T12:47:16.702Z</time>
      </trkpt>
      <trkpt lat="43.64788" lon="2.36186">
        <ele>567.6</ele>
        <time>2015-11-11T12:47:17.661Z</time>
      </trkpt>
      <trkpt lat="43.64787" lon="2.36198">
        <ele>567.6</ele>
        <time>2015-11-11T12:47:22.680Z</time>
      </trkpt>
      <trkpt lat="43.64786" lon="2.36201">
        <ele>567.5</ele>
        <time>2015-11-11T12:47:23.650Z</time>
      </trkpt>
      <trkpt lat="43.64784" lon="2.3621">
        <ele>567.5</ele>
        <time>2015-11-11T12:47:26.700Z</time>
      </trkpt>
      <trkpt lat="43.64783" lon="2.36213">
        <ele>567.4</ele>
        <time>2015-11-11T12:47:27.673Z</time>
      </trkpt>
      <trkpt lat="43.6478" lon="2.36222">
        <ele>567.4</ele>
        <time>2015-11-11T12:47:30.701Z</time>
      </trkpt>
      <trkpt lat="43.64779" lon="2.36225">
        <ele>567.3</ele>
        <time>2015-11-11T12:47:31.673Z</time>
      </trkpt>
      <trkpt lat="43.64776" lon="2.36235">
        <ele>567.4</ele>
        <time>2015-11-11T12:47:36.682Z</time>
      </trkpt>
      <trkpt lat="43.64776" lon="2.36238">
        <ele>567.4</ele>
        <time>2015-11-11T12:47:37.654Z</time>
      </trkpt>
      <trkpt lat="43.64772" lon="2.36249">
        <ele>567.5</ele>
        <time>2015-11-11T12:47:40.718Z</time>
      </trkpt>
      <trkpt lat="43.64771" lon="2.36253">
        <ele>567.5</ele>
        <time>2015-11-11T12:47:41.674Z</time>
      </trkpt>
      <trkpt lat="43.64769" lon="2.36263">
        <ele>567.9</ele>
        <time>2015-11-11T12:47:44.700Z</time>
      </trkpt>
      <trkpt lat="43.64769" lon="2.36266">
        <ele>568.1</ele>
        <time>2015-11-11T12:47:45.673Z</time>
      </trkpt>
      <trkpt lat="43.64766" lon="2.36276">
        <ele>568.5</ele>
        <time>2015-11-11T12:47:49.686Z</time>
      </trkpt>
      <trkpt lat="43.64766" lon="2.36279">
        <ele>568.6</ele>
        <time>2015-11-11T12:47:50.653Z</time>
      </trkpt>
      <trkpt lat="43.64765" lon="2.36289">
        <ele>569.3</ele>
        <time>2015-11-11T12:47:53.701Z</time>
      </trkpt>
      <trkpt lat="43.64765" lon="2.36293">
        <ele>569.5</ele>
        <time>2015-11-11T12:47:54.661Z</time>
      </trkpt>
      <trkpt lat="43.64764" lon="2.36304">
        <ele>569.8</ele>
        <time>2015-11-11T12:47:57.712Z</time>
      </trkpt>
      <trkpt lat="43.64764" lon="2.36306">
        <ele>570.1</ele>
        <time>2015-11-11T12:47:58.663Z</time>
      </trkpt>
      <trkpt lat="43.64763" lon="2.36316">
        <ele>570.5</ele>
        <time>2015-11-11T12:48:01.689Z</time>
      </trkpt>
      <trkpt lat="43.64763" lon="2.36321">
        <ele>570.8</ele>
        <time>2015-11-11T12:48:02.652Z</time>
      </trkpt>
      <trkpt lat="43.64762" lon="2.36331">
        <ele>571.8</ele>
        <time>2015-11-11T12:48:06.674Z</time>
      </trkpt>
      <trkpt lat="43.64762" lon="2.36333">
        <ele>571.9</ele>
        <time>2015-11-11T12:48:07.650Z</time>
      </trkpt>
      <trkpt lat="43.64763" lon="2.36344">
        <ele>571.9</ele>
        <time>2015-11-11T12:48:12.717Z</time>
      </trkpt>
      <trkpt lat="43.64764" lon="2.36345">
        <ele>571.7</ele>
        <time>2015-11-11T12:48:13.674Z</time>
      </trkpt>
      <trkpt lat="43.64769" lon="2.36353">
        <ele>571.2</ele>
        <time>2015-11-11T12:48:18.700Z</time>
      </trkpt>
      <trkpt lat="43.6477" lon="2.36356">
        <ele>571</ele>
        <time>2015-11-11T12:48:19.661Z</time>
      </trkpt>
      <trkpt lat="43.64768" lon="2.36367">
        <ele>571.3</ele>
        <time>2015-11-11T12:48:25.685Z</time>
      </trkpt>
      <trkpt lat="43.64767" lon="2.36369">
        <ele>571.4</ele>
        <time>2015-11-11T12:48:26.661Z</time>
      </trkpt>
      <trkpt lat="43.64766" lon="2.36379">
        <ele>571.6</ele>
        <time>2015-11-11T12:48:31.712Z</time>
      </trkpt>
      <trkpt lat="43.64765" lon="2.36384">
        <ele>571.7</ele>
        <time>2015-11-11T12:48:32.661Z</time>
      </trkpt>
      <trkpt lat="43.6476" lon="2.36394">
        <ele>571.4</ele>
        <time>2015-11-11T12:48:36.680Z</time>
      </trkpt>
      <trkpt lat="43.64759" lon="2.36395">
        <ele>571.3</ele>
        <time>2015-11-11T12:48:37.654Z</time>
      </trkpt>
      <trkpt lat="43.64757" lon="2.36405">
        <ele>571</ele>
        <time>2015-11-11T12:48:42.701Z</time>
      </trkpt>
      <trkpt lat="43.64757" lon="2.36408">
        <ele>571.1</ele>
        <time>2015-11-11T12:48:43.662Z</time>
      </trkpt>
      <trkpt lat="43.64754" lon="2.36419">
        <ele>571.3</ele>
        <time>2015-11-11T12:48:49.091Z</time>
      </trkpt>
      <trkpt lat="43.64754" lon="2.36421">
        <ele>571.3</ele>
        <time>2015-11-11T12:48:49.655Z</time>
      </trkpt>
      <trkpt lat="43.64751" lon="2.36432">
        <ele>571.4</ele>
        <time>2015-11-11T12:48:53.686Z</time>
      </trkpt>
      <trkpt lat="43.6475" lon="2.36433">
        <ele>571.3</ele>
        <time>2015-11-11T12:48:54.652Z</time>
      </trkpt>
      <trkpt lat="43.64748" lon="2.36445">
        <ele>571.7</ele>
        <time>2015-11-11T12:48:59.713Z</time>
      </trkpt>
      <trkpt lat="43.64748" lon="2.36447">
        <ele>571.8</ele>
        <time>2015-11-11T12:49:00.661Z</time>
      </trkpt>
      <trkpt lat="43.64745" lon="2.36459">
        <ele>571.8</ele>
        <time>2015-11-11T12:49:04.681Z</time>
      </trkpt>
      <trkpt lat="43.64742" lon="2.36462">
        <ele>572.2</ele>
        <time>2015-11-11T12:49:05.653Z</time>
      </trkpt>
      <trkpt lat="43.6474" lon="2.36472">
        <ele>572.5</ele>
        <time>2015-11-11T12:49:07.715Z</time>
      </trkpt>
      <trkpt lat="43.64739" lon="2.36474">
        <ele>573</ele>
        <time>2015-11-11T12:49:08.661Z</time>
      </trkpt>
      <trkpt lat="43.64735" lon="2.36485">
        <ele>574.7</ele>
        <time>2015-11-11T12:49:12.679Z</time>
      </trkpt>
      <trkpt lat="43.64734" lon="2.36488">
        <ele>574.8</ele>
        <time>2015-11-11T12:49:13.653Z</time>
      </trkpt>
      <trkpt lat="43.6473" lon="2.36495">
        <ele>576.8</ele>
        <time>2015-11-11T12:49:17.678Z</time>
      </trkpt>
      <trkpt lat="43.64728" lon="2.36497">
        <ele>577.1</ele>
        <time>2015-11-11T12:49:18.661Z</time>
      </trkpt>
      <trkpt lat="43.64724" lon="2.36506">
        <ele>578.3</ele>
        <time>2015-11-11T12:49:21.700Z</time>
      </trkpt>
      <trkpt lat="43.64722" lon="2.3651">
        <ele>578.7</ele>
        <time>2015-11-11T12:49:22.663Z</time>
      </trkpt>
      <trkpt lat="43.64718" lon="2.3652">
        <ele>580.8</ele>
        <time>2015-11-11T12:49:25.680Z</time>
      </trkpt>
      <trkpt lat="43.64716" lon="2.36525">
        <ele>581.2</ele>
        <time>2015-11-11T12:49:26.653Z</time>
      </trkpt>
      <trkpt lat="43.64713" lon="2.36534">
        <ele>581.5</ele>
        <time>2015-11-11T12:49:28.680Z</time>
      </trkpt>
      <trkpt lat="43.64711" lon="2.36538">
        <ele>581.5</ele>
        <time>2015-11-11T12:49:29.661Z</time>
      </trkpt>
      <trkpt lat="43.64707" lon="2.36547">
        <ele>581.8</ele>
        <time>2015-11-11T12:49:33.730Z</time>
      </trkpt>
      <trkpt lat="43.64706" lon="2.3655">
        <ele>581.8</ele>
        <time>2015-11-11T12:49:34.663Z</time>
      </trkpt>
      <trkpt lat="43.64702" lon="2.36559">
        <ele>582.3</ele>
        <time>2015-11-11T12:49:37.684Z</time>
      </trkpt>
      <trkpt lat="43.647" lon="2.36563">
        <ele>582.5</ele>
        <time>2015-11-11T12:49:38.652Z</time>
      </trkpt>
      <trkpt lat="43.64695" lon="2.36572">
        <ele>583</ele>
        <time>2015-11-11T12:49:41.685Z</time>
      </trkpt>
      <trkpt lat="43.64692" lon="2.36575">
        <ele>582.9</ele>
        <time>2015-11-11T12:49:42.652Z</time>
      </trkpt>
      <trkpt lat="43.64687" lon="2.3658">
        <ele>583.3</ele>
        <time>2015-11-11T12:49:44.700Z</time>
      </trkpt>
      <trkpt lat="43.64685" lon="2.36584">
        <ele>583.7</ele>
        <time>2015-11-11T12:49:45.675Z</time>
      </trkpt>
      <trkpt lat="43.64679" lon="2.3659">
        <ele>584.4</ele>
        <time>2015-11-11T12:49:48.701Z</time>
      </trkpt>
      <trkpt lat="43.64678" lon="2.36592">
        <ele>584.5</ele>
        <time>2015-11-11T12:49:49.673Z</time>
      </trkpt>
      <trkpt lat="43.64671" lon="2.36597">
        <ele>585.3</ele>
        <time>2015-11-11T12:49:52.684Z</time>
      </trkpt>
      <trkpt lat="43.64669" lon="2.36599">
        <ele>585.4</ele>
        <time>2015-11-11T12:49:53.652Z</time>
      </trkpt>
      <trkpt lat="43.64662" lon="2.36605">
        <ele>586.1</ele>
        <time>2015-11-11T12:49:57.713Z</time>
      </trkpt>
      <trkpt lat="43.6466" lon="2.36607">
        <ele>586.3</ele>
        <time>2015-11-11T12:49:58.679Z</time>
      </trkpt>
      <trkpt lat="43.64653" lon="2.36613">
        <ele>586.8</ele>
        <time>2015-11-11T12:50:01.688Z</time>
      </trkpt>
      <trkpt lat="43.64652" lon="2.36616">
        <ele>587</ele>
        <time>2015-11-11T12:50:02.653Z</time>
      </trkpt>
      <trkpt lat="43.64645" lon="2.36623">
        <ele>587.7</ele>
        <time>2015-11-11T12:50:05.685Z</time>
      </trkpt>
      <trkpt lat="43.64642" lon="2.36626">
        <ele>587.8</ele>
        <time>2015-11-11T12:50:06.653Z</time>
      </trkpt>
      <trkpt lat="43.64635" lon="2.36632">
        <ele>588.6</ele>
        <time>2015-11-11T12:50:09.687Z</time>
      </trkpt>
      <trkpt lat="43.64632" lon="2.36634">
        <ele>588.8</ele>
        <time>2015-11-11T12:50:10.652Z</time>
      </trkpt>
      <trkpt lat="43.64625" lon="2.36639">
        <ele>589.3</ele>
        <time>2015-11-11T12:50:14.678Z</time>
      </trkpt>
      <trkpt lat="43.64623" lon="2.36641">
        <ele>589.7</ele>
        <time>2015-11-11T12:50:15.652Z</time>
      </trkpt>
      <trkpt lat="43.64617" lon="2.36647">
        <ele>591.2</ele>
        <time>2015-11-11T12:50:19.718Z</time>
      </trkpt>
      <trkpt lat="43.64615" lon="2.36649">
        <ele>591.5</ele>
        <time>2015-11-11T12:50:20.661Z</time>
      </trkpt>
      <trkpt lat="43.64611" lon="2.36657">
        <ele>592.5</ele>
        <time>2015-11-11T12:50:23.713Z</time>
      </trkpt>
      <trkpt lat="43.64609" lon="2.36659">
        <ele>592.8</ele>
        <time>2015-11-11T12:50:24.661Z</time>
      </trkpt>
      <trkpt lat="43.64604" lon="2.36668">
        <ele>594.1</ele>
        <time>2015-11-11T12:50:30.680Z</time>
      </trkpt>
      <trkpt lat="43.64603" lon="2.36669">
        <ele>594.3</ele>
        <time>2015-11-11T12:50:31.652Z</time>
      </trkpt>
      <trkpt lat="43.64597" lon="2.36676">
        <ele>595.6</ele>
        <time>2015-11-11T12:50:37.702Z</time>
      </trkpt>
      <trkpt lat="43.64596" lon="2.36677">
        <ele>595.9</ele>
        <time>2015-11-11T12:50:38.660Z</time>
      </trkpt>
      <trkpt lat="43.6459" lon="2.36685">
        <ele>596.6</ele>
        <time>2015-11-11T12:50:44.679Z</time>
      </trkpt>
      <trkpt lat="43.64589" lon="2.36686">
        <ele>596.8</ele>
        <time>2015-11-11T12:50:45.653Z</time>
      </trkpt>
      <trkpt lat="43.64583" lon="2.36694">
        <ele>599.6</ele>
        <time>2015-11-11T12:50:57.685Z</time>
      </trkpt>
      <trkpt lat="43.64582" lon="2.36695">
        <ele>599.9</ele>
        <time>2015-11-11T12:50:58.653Z</time>
      </trkpt>
      <trkpt lat="43.64583" lon="2.36708">
        <ele>602.3</ele>
        <time>2015-11-11T12:51:08.681Z</time>
      </trkpt>
      <trkpt lat="43.64582" lon="2.36708">
        <ele>602.5</ele>
        <time>2015-11-11T12:51:09.653Z</time>
      </trkpt>
      <trkpt lat="43.64579" lon="2.3672">
        <ele>604</ele>
        <time>2015-11-11T12:51:17.696Z</time>
      </trkpt>
      <trkpt lat="43.64578" lon="2.36721">
        <ele>604.2</ele>
        <time>2015-11-11T12:51:18.653Z</time>
      </trkpt>
      <trkpt lat="43.64575" lon="2.36731">
        <ele>606</ele>
        <time>2015-11-11T12:51:28.717Z</time>
      </trkpt>
      <trkpt lat="43.64575" lon="2.36732">
        <ele>606.2</ele>
        <time>2015-11-11T12:51:29.661Z</time>
      </trkpt>
      <trkpt lat="43.64574" lon="2.36743">
        <ele>607.4</ele>
        <time>2015-11-11T12:51:36.678Z</time>
      </trkpt>
      <trkpt lat="43.64573" lon="2.36745">
        <ele>607.6</ele>
        <time>2015-11-11T12:51:37.653Z</time>
      </trkpt>
      <trkpt lat="43.64571" lon="2.36756">
        <ele>609.1</ele>
        <time>2015-11-11T12:51:45.681Z</time>
      </trkpt>
      <trkpt lat="43.64571" lon="2.36757">
        <ele>609.3</ele>
        <time>2015-11-11T12:51:46.656Z</time>
      </trkpt>
      <trkpt lat="43.64567" lon="2.36768">
        <ele>610.7</ele>
        <time>2015-11-11T12:51:55.715Z</time>
      </trkpt>
      <trkpt lat="43.64566" lon="2.3677">
        <ele>611</ele>
        <time>2015-11-11T12:51:56.661Z</time>
      </trkpt>
      <trkpt lat="43.6456" lon="2.36779">
        <ele>612.4</ele>
        <time>2015-11-11T12:52:03.680Z</time>
      </trkpt>
      <trkpt lat="43.6456" lon="2.3678">
        <ele>612.5</ele>
        <time>2015-11-11T12:52:04.695Z</time>
      </trkpt>
      <trkpt lat="43.64557" lon="2.36791">
        <ele>612.9</ele>
        <time>2015-11-11T12:52:11.727Z</time>
      </trkpt>
      <trkpt lat="43.64557" lon="2.36792">
        <ele>613</ele>
        <time>2015-11-11T12:52:12.661Z</time>
      </trkpt>
      <trkpt lat="43.64557" lon="2.36804">
        <ele>614.4</ele>
        <time>2015-11-11T12:52:22.701Z</time>
      </trkpt>
      <trkpt lat="43.64557" lon="2.36805">
        <ele>614.6</ele>
        <time>2015-11-11T12:52:23.652Z</time>
      </trkpt>
      <trkpt lat="43.64554" lon="2.36815">
        <ele>615.1</ele>
        <time>2015-11-11T12:52:33.719Z</time>
      </trkpt>
      <trkpt lat="43.64553" lon="2.36816">
        <ele>614.9</ele>
        <time>2015-11-11T12:52:34.663Z</time>
      </trkpt>
      <trkpt lat="43.6455" lon="2.36827">
        <ele>614.8</ele>
        <time>2015-11-11T12:52:40.682Z</time>
      </trkpt>
      <trkpt lat="43.6455" lon="2.36828">
        <ele>614.8</ele>
        <time>2015-11-11T12:52:41.652Z</time>
      </trkpt>
      <trkpt lat="43.64548" lon="2.3684">
        <ele>615.3</ele>
        <time>2015-11-11T12:53:01.679Z</time>
      </trkpt>
      <trkpt lat="43.64548" lon="2.3685">
        <ele>612.4</ele>
        <time>2015-11-11T12:53:02.654Z</time>
      </trkpt>
      <trkpt lat="43.64545" lon="2.36861">
        <ele>611.6</ele>
        <time>2015-11-11T12:53:07.701Z</time>
      </trkpt>
      <trkpt lat="43.64545" lon="2.36864">
        <ele>611.2</ele>
        <time>2015-11-11T12:53:08.673Z</time>
      </trkpt>
      <trkpt lat="43.64544" lon="2.36876">
        <ele>610.4</ele>
        <time>2015-11-11T12:53:12.713Z</time>
      </trkpt>
      <trkpt lat="43.64544" lon="2.36879">
        <ele>610.2</ele>
        <time>2015-11-11T12:53:13.661Z</time>
      </trkpt>
      <trkpt lat="43.64542" lon="2.3689">
        <ele>609.4</ele>
        <time>2015-11-11T12:53:17.679Z</time>
      </trkpt>
      <trkpt lat="43.64542" lon="2.36893">
        <ele>609.3</ele>
        <time>2015-11-11T12:53:18.653Z</time>
      </trkpt>
      <trkpt lat="43.6454" lon="2.36904">
        <ele>608.3</ele>
        <time>2015-11-11T12:53:22.703Z</time>
      </trkpt>
      <trkpt lat="43.64539" lon="2.36906">
        <ele>608</ele>
        <time>2015-11-11T12:53:23.661Z</time>
      </trkpt>
      <trkpt lat="43.64531" lon="2.36906">
        <ele>607.4</ele>
        <time>2015-11-11T12:53:28.689Z</time>
      </trkpt>
      <trkpt lat="43.64529" lon="2.36906">
        <ele>607.3</ele>
        <time>2015-11-11T12:53:29.653Z</time>
      </trkpt>
      <trkpt lat="43.64522" lon="2.36901">
        <ele>606.9</ele>
        <time>2015-11-11T12:53:33.679Z</time>
      </trkpt>
      <trkpt lat="43.6452" lon="2.36901">
        <ele>606.7</ele>
        <time>2015-11-11T12:53:34.664Z</time>
      </trkpt>
      <trkpt lat="43.64511" lon="2.36901">
        <ele>605.9</ele>
        <time>2015-11-11T12:53:37.677Z</time>
      </trkpt>
      <trkpt lat="43.64508" lon="2.36901">
        <ele>605.7</ele>
        <time>2015-11-11T12:53:38.654Z</time>
      </trkpt>
      <trkpt lat="43.64502" lon="2.369">
        <ele>605.2</ele>
        <time>2015-11-11T12:53:40.677Z</time>
      </trkpt>
      <trkpt lat="43.64497" lon="2.36899">
        <ele>604.8</ele>
        <time>2015-11-11T12:53:41.652Z</time>
      </trkpt>
      <trkpt lat="43.64489" lon="2.36895">
        <ele>604.3</ele>
        <time>2015-11-11T12:53:43.671Z</time>
      </trkpt>
      <trkpt lat="43.64485" lon="2.36895">
        <ele>604.1</ele>
        <time>2015-11-11T12:53:44.651Z</time>
      </trkpt>
      <trkpt lat="43.64477" lon="2.36898">
        <ele>603.6</ele>
        <time>2015-11-11T12:53:47.718Z</time>
      </trkpt>
      <trkpt lat="43.64475" lon="2.369">
        <ele>603.5</ele>
        <time>2015-11-11T12:53:48.673Z</time>
      </trkpt>
      <trkpt lat="43.64467" lon="2.36902">
        <ele>603.4</ele>
        <time>2015-11-11T12:53:53.053Z</time>
      </trkpt>
      <trkpt lat="43.64465" lon="2.36902">
        <ele>603.2</ele>
        <time>2015-11-11T12:53:53.652Z</time>
      </trkpt>
      <trkpt lat="43.6446" lon="2.36909">
        <ele>602.9</ele>
        <time>2015-11-11T12:53:56.703Z</time>
      </trkpt>
      <trkpt lat="43.64458" lon="2.36911">
        <ele>602.7</ele>
        <time>2015-11-11T12:53:57.662Z</time>
      </trkpt>
      <trkpt lat="43.64451" lon="2.36915">
        <ele>602.4</ele>
        <time>2015-11-11T12:53:59.702Z</time>
      </trkpt>
      <trkpt lat="43.64447" lon="2.36915">
        <ele>602.2</ele>
        <time>2015-11-11T12:54:00.675Z</time>
      </trkpt>
      <trkpt lat="43.6444" lon="2.36912">
        <ele>602</ele>
        <time>2015-11-11T12:54:02.677Z</time>
      </trkpt>
      <trkpt lat="43.64437" lon="2.36911">
        <ele>601.7</ele>
        <time>2015-11-11T12:54:03.653Z</time>
      </trkpt>
      <trkpt lat="43.64432" lon="2.36905">
        <ele>601.4</ele>
        <time>2015-11-11T12:54:05.672Z</time>
      </trkpt>
      <trkpt lat="43.6443" lon="2.369">
        <ele>601.5</ele>
        <time>2015-11-11T12:54:06.652Z</time>
      </trkpt>
      <trkpt lat="43.64428" lon="2.36891">
        <ele>601.3</ele>
        <time>2015-11-11T12:54:08.676Z</time>
      </trkpt>
      <trkpt lat="43.64427" lon="2.36885">
        <ele>601.2</ele>
        <time>2015-11-11T12:54:09.651Z</time>
      </trkpt>
      <trkpt lat="43.64425" lon="2.36879">
        <ele>601</ele>
        <time>2015-11-11T12:54:10.679Z</time>
      </trkpt>
      <trkpt lat="43.64424" lon="2.36872">
        <ele>601</ele>
        <time>2015-11-11T12:54:11.651Z</time>
      </trkpt>
      <trkpt lat="43.64423" lon="2.36864">
        <ele>601.1</ele>
        <time>2015-11-11T12:54:12.713Z</time>
      </trkpt>
      <trkpt lat="43.64421" lon="2.36857">
        <ele>601.1</ele>
        <time>2015-11-11T12:54:13.661Z</time>
      </trkpt>
      <trkpt lat="43.64419" lon="2.3685">
        <ele>601.1</ele>
        <time>2015-11-11T12:54:14.730Z</time>
      </trkpt>
      <trkpt lat="43.64417" lon="2.36844">
        <ele>601.1</ele>
        <time>2015-11-11T12:54:15.661Z</time>
      </trkpt>
      <trkpt lat="43.64415" lon="2.36833">
        <ele>601</ele>
        <time>2015-11-11T12:54:17.681Z</time>
      </trkpt>
      <trkpt lat="43.64414" lon="2.36827">
        <ele>600.9</ele>
        <time>2015-11-11T12:54:18.652Z</time>
      </trkpt>
      <trkpt lat="43.64411" lon="2.36816">
        <ele>600.7</ele>
        <time>2015-11-11T12:54:20.687Z</time>
      </trkpt>
      <trkpt lat="43.64408" lon="2.36812">
        <ele>600.8</ele>
        <time>2015-11-11T12:54:21.650Z</time>
      </trkpt>
      <trkpt lat="43.64402" lon="2.36803">
        <ele>601</ele>
        <time>2015-11-11T12:54:23.700Z</time>
      </trkpt>
      <trkpt lat="43.64401" lon="2.368">
        <ele>601.4</ele>
        <time>2015-11-11T12:54:24.674Z</time>
      </trkpt>
      <trkpt lat="43.64394" lon="2.36792">
        <ele>602.2</ele>
        <time>2015-11-11T12:54:27.820Z</time>
      </trkpt>
      <trkpt lat="43.64393" lon="2.36794">
        <ele>602.1</ele>
        <time>2015-11-11T12:54:28.676Z</time>
      </trkpt>
      <trkpt lat="43.64387" lon="2.36801">
        <ele>601.8</ele>
        <time>2015-11-11T12:54:31.678Z</time>
      </trkpt>
      <trkpt lat="43.64386" lon="2.36803">
        <ele>601.6</ele>
        <time>2015-11-11T12:54:32.657Z</time>
      </trkpt>
      <trkpt lat="43.64379" lon="2.3681">
        <ele>601.3</ele>
        <time>2015-11-11T12:54:35.680Z</time>
      </trkpt>
      <trkpt lat="43.64377" lon="2.36813">
        <ele>601.2</ele>
        <time>2015-11-11T12:54:36.661Z</time>
      </trkpt>
      <trkpt lat="43.64371" lon="2.36818">
        <ele>600.8</ele>
        <time>2015-11-11T12:54:38.713Z</time>
      </trkpt>
      <trkpt lat="43.64368" lon="2.36821">
        <ele>600.6</ele>
        <time>2015-11-11T12:54:39.661Z</time>
      </trkpt>
      <trkpt lat="43.6436" lon="2.36825">
        <ele>599.9</ele>
        <time>2015-11-11T12:54:41.700Z</time>
      </trkpt>
      <trkpt lat="43.64356" lon="2.36825">
        <ele>599.7</ele>
        <time>2015-11-11T12:54:42.653Z</time>
      </trkpt>
      <trkpt lat="43.64351" lon="2.36821">
        <ele>599.3</ele>
        <time>2015-11-11T12:54:43.679Z</time>
      </trkpt>
      <trkpt lat="43.64346" lon="2.36819">
        <ele>598.8</ele>
        <time>2015-11-11T12:54:44.655Z</time>
      </trkpt>
      <trkpt lat="43.64338" lon="2.36818">
        <ele>598.2</ele>
        <time>2015-11-11T12:54:46.688Z</time>
      </trkpt>
      <trkpt lat="43.64336" lon="2.36815">
        <ele>598.6</ele>
        <time>2015-11-11T12:54:47.654Z</time>
      </trkpt>
      <trkpt lat="43.64332" lon="2.36804">
        <ele>598.2</ele>
        <time>2015-11-11T12:54:50.747Z</time>
      </trkpt>
      <trkpt lat="43.64331" lon="2.368">
        <ele>598.1</ele>
        <time>2015-11-11T12:54:51.661Z</time>
      </trkpt>
      <trkpt lat="43.64327" lon="2.36791">
        <ele>598.3</ele>
        <time>2015-11-11T12:54:53.908Z</time>
      </trkpt>
      <trkpt lat="43.64325" lon="2.36787">
        <ele>598.3</ele>
        <time>2015-11-11T12:54:54.653Z</time>
      </trkpt>
      <trkpt lat="43.64321" lon="2.36777">
        <ele>599</ele>
        <time>2015-11-11T12:54:57.680Z</time>
      </trkpt>
      <trkpt lat="43.64319" lon="2.36773">
        <ele>599.1</ele>
        <time>2015-11-11T12:54:58.661Z</time>
      </trkpt>
      <trkpt lat="43.64315" lon="2.36766">
        <ele>599.8</ele>
        <time>2015-11-11T12:55:00.692Z</time>
      </trkpt>
      <trkpt lat="43.64313" lon="2.36763">
        <ele>600.2</ele>
        <time>2015-11-11T12:55:01.660Z</time>
      </trkpt>
      <trkpt lat="43.64308" lon="2.36756">
        <ele>600.7</ele>
        <time>2015-11-11T12:55:03.680Z</time>
      </trkpt>
      <trkpt lat="43.64306" lon="2.36754">
        <ele>601.1</ele>
        <time>2015-11-11T12:55:05.015Z</time>
      </trkpt>
      <trkpt lat="43.643" lon="2.36748">
        <ele>601.6</ele>
        <time>2015-11-11T12:55:06.729Z</time>
      </trkpt>
      <trkpt lat="43.64296" lon="2.36745">
        <ele>601.7</ele>
        <time>2015-11-11T12:55:07.661Z</time>
      </trkpt>
      <trkpt lat="43.64293" lon="2.36742">
        <ele>601.8</ele>
        <time>2015-11-11T12:55:08.713Z</time>
      </trkpt>
      <trkpt lat="43.6429" lon="2.36736">
        <ele>602</ele>
        <time>2015-11-11T12:55:09.661Z</time>
      </trkpt>
      <trkpt lat="43.64287" lon="2.3673">
        <ele>602</ele>
        <time>2015-11-11T12:55:10.716Z</time>
      </trkpt>
      <trkpt lat="43.64285" lon="2.36725">
        <ele>602.2</ele>
        <time>2015-11-11T12:55:11.738Z</time>
      </trkpt>
      <trkpt lat="43.64281" lon="2.36718">
        <ele>601.9</ele>
        <time>2015-11-11T12:55:13.679Z</time>
      </trkpt>
      <trkpt lat="43.64279" lon="2.36711">
        <ele>601.8</ele>
        <time>2015-11-11T12:55:14.656Z</time>
      </trkpt>
      <trkpt lat="43.64275" lon="2.36703">
        <ele>601.8</ele>
        <time>2015-11-11T12:55:16.687Z</time>
      </trkpt>
      <trkpt lat="43.64274" lon="2.36697">
        <ele>601.3</ele>
        <time>2015-11-11T12:55:17.653Z</time>
      </trkpt>
      <trkpt lat="43.64273" lon="2.3669">
        <ele>600.9</ele>
        <time>2015-11-11T12:55:18.713Z</time>
      </trkpt>
      <trkpt lat="43.64272" lon="2.36683">
        <ele>600.7</ele>
        <time>2015-11-11T12:55:19.661Z</time>
      </trkpt>
      <trkpt lat="43.64272" lon="2.36676">
        <ele>600.2</ele>
        <time>2015-11-11T12:55:20.713Z</time>
      </trkpt>
      <trkpt lat="43.64272" lon="2.36668">
        <ele>599.8</ele>
        <time>2015-11-11T12:55:21.661Z</time>
      </trkpt>
      <trkpt lat="43.64271" lon="2.36659">
        <ele>599.3</ele>
        <time>2015-11-11T12:55:22.731Z</time>
      </trkpt>
      <trkpt lat="43.64272" lon="2.36651">
        <ele>598.8</ele>
        <time>2015-11-11T12:55:23.661Z</time>
      </trkpt>
      <trkpt lat="43.64271" lon="2.36643">
        <ele>598.5</ele>
        <time>2015-11-11T12:55:24.685Z</time>
      </trkpt>
      <trkpt lat="43.64272" lon="2.36635">
        <ele>598.1</ele>
        <time>2015-11-11T12:55:25.653Z</time>
      </trkpt>
      <trkpt lat="43.64272" lon="2.36628">
        <ele>597.7</ele>
        <time>2015-11-11T12:55:26.687Z</time>
      </trkpt>
      <trkpt lat="43.64272" lon="2.36622">
        <ele>597.3</ele>
        <time>2015-11-11T12:55:27.653Z</time>
      </trkpt>
      <trkpt lat="43.64272" lon="2.3661">
        <ele>596.9</ele>
        <time>2015-11-11T12:55:29.681Z</time>
      </trkpt>
      <trkpt lat="43.64273" lon="2.36603">
        <ele>596.5</ele>
        <time>2015-11-11T12:55:30.674Z</time>
      </trkpt>
      <trkpt lat="43.64273" lon="2.36597">
        <ele>596.3</ele>
        <time>2015-11-11T12:55:31.700Z</time>
      </trkpt>
      <trkpt lat="43.64274" lon="2.3659">
        <ele>595.5</ele>
        <time>2015-11-11T12:55:32.673Z</time>
      </trkpt>
      <trkpt lat="43.64276" lon="2.36581">
        <ele>595</ele>
        <time>2015-11-11T12:55:33.679Z</time>
      </trkpt>
      <trkpt lat="43.64277" lon="2.36573">
        <ele>594.7</ele>
        <time>2015-11-11T12:55:34.656Z</time>
      </trkpt>
      <trkpt lat="43.64279" lon="2.36564">
        <ele>594.2</ele>
        <time>2015-11-11T12:55:35.678Z</time>
      </trkpt>
      <trkpt lat="43.64281" lon="2.36554">
        <ele>593.1</ele>
        <time>2015-11-11T12:55:36.656Z</time>
      </trkpt>
      <trkpt lat="43.64283" lon="2.36545">
        <ele>592.2</ele>
        <time>2015-11-11T12:55:37.687Z</time>
      </trkpt>
      <trkpt lat="43.64285" lon="2.36538">
        <ele>591.3</ele>
        <time>2015-11-11T12:55:38.677Z</time>
      </trkpt>
      <trkpt lat="43.64287" lon="2.36529">
        <ele>590</ele>
        <time>2015-11-11T12:55:40.715Z</time>
      </trkpt>
      <trkpt lat="43.64288" lon="2.36523">
        <ele>589.2</ele>
        <time>2015-11-11T12:55:41.661Z</time>
      </trkpt>
      <trkpt lat="43.6429" lon="2.36517">
        <ele>588.6</ele>
        <time>2015-11-11T12:55:42.713Z</time>
      </trkpt>
      <trkpt lat="43.64291" lon="2.3651">
        <ele>587.7</ele>
        <time>2015-11-11T12:55:43.661Z</time>
      </trkpt>
      <trkpt lat="43.64292" lon="2.36505">
        <ele>586.7</ele>
        <time>2015-11-11T12:55:44.713Z</time>
      </trkpt>
      <trkpt lat="43.64294" lon="2.36495">
        <ele>585.8</ele>
        <time>2015-11-11T12:55:45.661Z</time>
      </trkpt>
      <trkpt lat="43.64292" lon="2.36486">
        <ele>584.2</ele>
        <time>2015-11-11T12:55:47.683Z</time>
      </trkpt>
      <trkpt lat="43.6429" lon="2.36484">
        <ele>583.3</ele>
        <time>2015-11-11T12:55:48.653Z</time>
      </trkpt>
      <trkpt lat="43.64283" lon="2.36482">
        <ele>581.2</ele>
        <time>2015-11-11T12:55:51.687Z</time>
      </trkpt>
      <trkpt lat="43.6428" lon="2.36481">
        <ele>580.6</ele>
        <time>2015-11-11T12:55:52.655Z</time>
      </trkpt>
      <trkpt lat="43.64273" lon="2.36481">
        <ele>579.4</ele>
        <time>2015-11-11T12:55:55.702Z</time>
      </trkpt>
      <trkpt lat="43.6427" lon="2.36481">
        <ele>579.1</ele>
        <time>2015-11-11T12:55:56.661Z</time>
      </trkpt>
      <trkpt lat="43.64264" lon="2.3648">
        <ele>577.5</ele>
        <time>2015-11-11T12:55:58.703Z</time>
      </trkpt>
      <trkpt lat="43.6426" lon="2.3648">
        <ele>576.5</ele>
        <time>2015-11-11T12:55:59.674Z</time>
      </trkpt>
      <trkpt lat="43.64253" lon="2.3648">
        <ele>575.2</ele>
        <time>2015-11-11T12:56:02.055Z</time>
      </trkpt>
      <trkpt lat="43.64251" lon="2.36478">
        <ele>575.3</ele>
        <time>2015-11-11T12:56:02.652Z</time>
      </trkpt>
      <trkpt lat="43.64245" lon="2.36469">
        <ele>574.5</ele>
        <time>2015-11-11T12:56:05.686Z</time>
      </trkpt>
      <trkpt lat="43.64242" lon="2.36467">
        <ele>574.3</ele>
        <time>2015-11-11T12:56:06.661Z</time>
      </trkpt>
      <trkpt lat="43.64235" lon="2.36466">
        <ele>573.4</ele>
        <time>2015-11-11T12:56:09.686Z</time>
      </trkpt>
      <trkpt lat="43.64232" lon="2.36467">
        <ele>573.1</ele>
        <time>2015-11-11T12:56:10.655Z</time>
      </trkpt>
      <trkpt lat="43.64224" lon="2.36469">
        <ele>572.1</ele>
        <time>2015-11-11T12:56:13.705Z</time>
      </trkpt>
      <trkpt lat="43.6422" lon="2.3647">
        <ele>571.7</ele>
        <time>2015-11-11T12:56:14.678Z</time>
      </trkpt>
      <trkpt lat="43.64213" lon="2.36468">
        <ele>570.8</ele>
        <time>2015-11-11T12:56:16.702Z</time>
      </trkpt>
      <trkpt lat="43.64209" lon="2.36465">
        <ele>570</ele>
        <time>2015-11-11T12:56:17.663Z</time>
      </trkpt>
      <trkpt lat="43.64202" lon="2.36463">
        <ele>569.3</ele>
        <time>2015-11-11T12:56:19.728Z</time>
      </trkpt>
      <trkpt lat="43.64199" lon="2.36462">
        <ele>569.7</ele>
        <time>2015-11-11T12:56:20.661Z</time>
      </trkpt>
      <trkpt lat="43.64191" lon="2.3646">
        <ele>569</ele>
        <time>2015-11-11T12:56:23.688Z</time>
      </trkpt>
      <trkpt lat="43.64188" lon="2.36461">
        <ele>568.9</ele>
        <time>2015-11-11T12:56:24.652Z</time>
      </trkpt>
      <trkpt lat="43.6418" lon="2.36466">
        <ele>569.2</ele>
        <time>2015-11-11T12:56:27.708Z</time>
      </trkpt>
      <trkpt lat="43.64177" lon="2.36468">
        <ele>568.9</ele>
        <time>2015-11-11T12:56:28.663Z</time>
      </trkpt>
      <trkpt lat="43.64171" lon="2.36471">
        <ele>569.2</ele>
        <time>2015-11-11T12:56:30.701Z</time>
      </trkpt>
      <trkpt lat="43.64169" lon="2.36472">
        <ele>569</ele>
        <time>2015-11-11T12:56:31.673Z</time>
      </trkpt>
      <trkpt lat="43.64163" lon="2.36473">
        <ele>568.4</ele>
        <time>2015-11-11T12:56:33.701Z</time>
      </trkpt>
      <trkpt lat="43.6416" lon="2.36474">
        <ele>568.3</ele>
        <time>2015-11-11T12:56:34.663Z</time>
      </trkpt>
      <trkpt lat="43.64154" lon="2.36475">
        <ele>568.2</ele>
        <time>2015-11-11T12:56:36.685Z</time>
      </trkpt>
      <trkpt lat="43.6415" lon="2.36476">
        <ele>568.6</ele>
        <time>2015-11-11T12:56:37.654Z</time>
      </trkpt>
      <trkpt lat="43.64144" lon="2.36479">
        <ele>568.6</ele>
        <time>2015-11-11T12:56:39.688Z</time>
      </trkpt>
      <trkpt lat="43.6414" lon="2.3648">
        <ele>568.4</ele>
        <time>2015-11-11T12:56:40.656Z</time>
      </trkpt>
      <trkpt lat="43.64136" lon="2.36479">
        <ele>568.5</ele>
        <time>2015-11-11T12:56:41.686Z</time>
      </trkpt>
      <trkpt lat="43.64131" lon="2.36477">
        <ele>568.3</ele>
        <time>2015-11-11T12:56:42.654Z</time>
      </trkpt>
      <trkpt lat="43.64126" lon="2.36475">
        <ele>567.9</ele>
        <time>2015-11-11T12:56:43.714Z</time>
      </trkpt>
      <trkpt lat="43.6412" lon="2.36473">
        <ele>567.5</ele>
        <time>2015-11-11T12:56:44.661Z</time>
      </trkpt>
      <trkpt lat="43.64115" lon="2.3647">
        <ele>567.2</ele>
        <time>2015-11-11T12:56:45.712Z</time>
      </trkpt>
      <trkpt lat="43.64109" lon="2.36467">
        <ele>566.9</ele>
        <time>2015-11-11T12:56:46.663Z</time>
      </trkpt>
      <trkpt lat="43.64104" lon="2.36465">
        <ele>566.5</ele>
        <time>2015-11-11T12:56:47.713Z</time>
      </trkpt>
      <trkpt lat="43.64099" lon="2.36463">
        <ele>566.1</ele>
        <time>2015-11-11T12:56:49.035Z</time>
      </trkpt>
      <trkpt lat="43.64094" lon="2.3646">
        <ele>565.8</ele>
        <time>2015-11-11T12:56:49.685Z</time>
      </trkpt>
      <trkpt lat="43.64088" lon="2.36457">
        <ele>565.4</ele>
        <time>2015-11-11T12:56:50.652Z</time>
      </trkpt>
      <trkpt lat="43.6408" lon="2.36455">
        <ele>565</ele>
        <time>2015-11-11T12:56:52.681Z</time>
      </trkpt>
      <trkpt lat="43.64076" lon="2.36454">
        <ele>564.9</ele>
        <time>2015-11-11T12:56:53.653Z</time>
      </trkpt>
      <trkpt lat="43.64069" lon="2.36452">
        <ele>564.5</ele>
        <time>2015-11-11T12:56:55.713Z</time>
      </trkpt>
      <trkpt lat="43.64066" lon="2.36452">
        <ele>564.3</ele>
        <time>2015-11-11T12:56:56.678Z</time>
      </trkpt>
      <trkpt lat="43.64059" lon="2.36452">
        <ele>564</ele>
        <time>2015-11-11T12:56:58.703Z</time>
      </trkpt>
      <trkpt lat="43.64056" lon="2.36454">
        <ele>563.9</ele>
        <time>2015-11-11T12:56:59.673Z</time>
      </trkpt>
      <trkpt lat="43.64049" lon="2.3646">
        <ele>563.3</ele>
        <time>2015-11-11T12:57:02.672Z</time>
      </trkpt>
      <trkpt lat="43.64046" lon="2.36463">
        <ele>563.1</ele>
        <time>2015-11-11T12:57:03.650Z</time>
      </trkpt>
      <trkpt lat="43.6404" lon="2.36469">
        <ele>562.9</ele>
        <time>2015-11-11T12:57:06.684Z</time>
      </trkpt>
      <trkpt lat="43.64039" lon="2.36471">
        <ele>562.9</ele>
        <time>2015-11-11T12:57:07.674Z</time>
      </trkpt>
      <trkpt lat="43.64033" lon="2.36474">
        <ele>562.4</ele>
        <time>2015-11-11T12:57:10.686Z</time>
      </trkpt>
      <trkpt lat="43.6403" lon="2.36474">
        <ele>562.2</ele>
        <time>2015-11-11T12:57:11.652Z</time>
      </trkpt>
      <trkpt lat="43.64022" lon="2.36474">
        <ele>561.4</ele>
        <time>2015-11-11T12:57:13.684Z</time>
      </trkpt>
      <trkpt lat="43.64018" lon="2.36473">
        <ele>561.1</ele>
        <time>2015-11-11T12:57:14.652Z</time>
      </trkpt>
      <trkpt lat="43.64013" lon="2.36472">
        <ele>560.8</ele>
        <time>2015-11-11T12:57:15.716Z</time>
      </trkpt>
      <trkpt lat="43.64008" lon="2.36472">
        <ele>560.6</ele>
        <time>2015-11-11T12:57:16.662Z</time>
      </trkpt>
      <trkpt lat="43.64002" lon="2.36474">
        <ele>560.3</ele>
        <time>2015-11-11T12:57:18.701Z</time>
      </trkpt>
      <trkpt lat="43.63999" lon="2.36477">
        <ele>560.2</ele>
        <time>2015-11-11T12:57:19.673Z</time>
      </trkpt>
      <trkpt lat="43.63996" lon="2.36487">
        <ele>560</ele>
        <time>2015-11-11T12:57:21.712Z</time>
      </trkpt>
      <trkpt lat="43.63996" lon="2.3649">
        <ele>559.8</ele>
        <time>2015-11-11T12:57:22.655Z</time>
      </trkpt>
      <trkpt lat="43.63996" lon="2.36501">
        <ele>559.5</ele>
        <time>2015-11-11T12:57:24.688Z</time>
      </trkpt>
      <trkpt lat="43.63995" lon="2.36506">
        <ele>559.3</ele>
        <time>2015-11-11T12:57:25.653Z</time>
      </trkpt>
      <trkpt lat="43.63995" lon="2.36515">
        <ele>559</ele>
        <time>2015-11-11T12:57:27.695Z</time>
      </trkpt>
      <trkpt lat="43.63995" lon="2.3652">
        <ele>559</ele>
        <time>2015-11-11T12:57:28.656Z</time>
      </trkpt>
      <trkpt lat="43.63994" lon="2.3653">
        <ele>558.6</ele>
        <time>2015-11-11T12:57:30.701Z</time>
      </trkpt>
      <trkpt lat="43.63994" lon="2.36534">
        <ele>558.4</ele>
        <time>2015-11-11T12:57:31.661Z</time>
      </trkpt>
      <trkpt lat="43.63993" lon="2.36545">
        <ele>557.9</ele>
        <time>2015-11-11T12:57:34.684Z</time>
      </trkpt>
      <trkpt lat="43.63994" lon="2.36549">
        <ele>557.8</ele>
        <time>2015-11-11T12:57:35.654Z</time>
      </trkpt>
      <trkpt lat="43.63995" lon="2.36561">
        <ele>557</ele>
        <time>2015-11-11T12:57:38.687Z</time>
      </trkpt>
      <trkpt lat="43.63995" lon="2.36565">
        <ele>556.8</ele>
        <time>2015-11-11T12:57:39.655Z</time>
      </trkpt>
      <trkpt lat="43.64" lon="2.36572">
        <ele>555.9</ele>
        <time>2015-11-11T12:57:42.700Z</time>
      </trkpt>
      <trkpt lat="43.64001" lon="2.36575">
        <ele>555.8</ele>
        <time>2015-11-11T12:57:43.673Z</time>
      </trkpt>
      <trkpt lat="43.64003" lon="2.36586">
        <ele>555</ele>
        <time>2015-11-11T12:57:47.868Z</time>
      </trkpt>
      <trkpt lat="43.64004" lon="2.36589">
        <ele>554.9</ele>
        <time>2015-11-11T12:57:48.655Z</time>
      </trkpt>
      <trkpt lat="43.64004" lon="2.366">
        <ele>554.6</ele>
        <time>2015-11-11T12:57:52.689Z</time>
      </trkpt>
      <trkpt lat="43.64003" lon="2.36603">
        <ele>554.6</ele>
        <time>2015-11-11T12:57:53.660Z</time>
      </trkpt>
      <trkpt lat="43.63999" lon="2.36612">
        <ele>555</ele>
        <time>2015-11-11T12:57:57.701Z</time>
      </trkpt>
      <trkpt lat="43.63999" lon="2.36615">
        <ele>554.9</ele>
        <time>2015-11-11T12:57:58.663Z</time>
      </trkpt>
      <trkpt lat="43.63996" lon="2.36625">
        <ele>554.3</ele>
        <time>2015-11-11T12:58:02.681Z</time>
      </trkpt>
      <trkpt lat="43.63995" lon="2.36627">
        <ele>554.2</ele>
        <time>2015-11-11T12:58:03.655Z</time>
      </trkpt>
      <trkpt lat="43.63992" lon="2.36637">
        <ele>553.5</ele>
        <time>2015-11-11T12:58:08.700Z</time>
      </trkpt>
      <trkpt lat="43.6399" lon="2.36639">
        <ele>553.3</ele>
        <time>2015-11-11T12:58:09.674Z</time>
      </trkpt>
      <trkpt lat="43.63986" lon="2.36647">
        <ele>552.9</ele>
        <time>2015-11-11T12:58:12.685Z</time>
      </trkpt>
      <trkpt lat="43.63985" lon="2.3665">
        <ele>552.9</ele>
        <time>2015-11-11T12:58:13.661Z</time>
      </trkpt>
      <trkpt lat="43.63981" lon="2.3666">
        <ele>553.1</ele>
        <time>2015-11-11T12:58:17.713Z</time>
      </trkpt>
      <trkpt lat="43.6398" lon="2.36662">
        <ele>553</ele>
        <time>2015-11-11T12:58:18.661Z</time>
      </trkpt>
      <trkpt lat="43.63974" lon="2.36668">
        <ele>552.8</ele>
        <time>2015-11-11T12:58:21.713Z</time>
      </trkpt>
      <trkpt lat="43.63972" lon="2.36669">
        <ele>552.9</ele>
        <time>2015-11-11T12:58:22.663Z</time>
      </trkpt>
      <trkpt lat="43.63964" lon="2.36675">
        <ele>553.6</ele>
        <time>2015-11-11T12:58:26.677Z</time>
      </trkpt>
      <trkpt lat="43.63962" lon="2.36676">
        <ele>553.6</ele>
        <time>2015-11-11T12:58:27.657Z</time>
      </trkpt>
      <trkpt lat="43.63956" lon="2.36685">
        <ele>557.9</ele>
        <time>2015-11-11T12:58:33.700Z</time>
      </trkpt>
      <trkpt lat="43.63956" lon="2.36686">
        <ele>558.8</ele>
        <time>2015-11-11T12:58:34.663Z</time>
      </trkpt>
      <trkpt lat="43.63947" lon="2.3669">
        <ele>562.3</ele>
        <time>2015-11-11T12:58:40.689Z</time>
      </trkpt>
      <trkpt lat="43.63946" lon="2.36691">
        <ele>562.8</ele>
        <time>2015-11-11T12:58:41.654Z</time>
      </trkpt>
      <trkpt lat="43.63939" lon="2.36693">
        <ele>564.7</ele>
        <time>2015-11-11T12:58:45.689Z</time>
      </trkpt>
      <trkpt lat="43.63937" lon="2.36694">
        <ele>564.9</ele>
        <time>2015-11-11T12:58:46.656Z</time>
      </trkpt>
      <trkpt lat="43.63928" lon="2.36696">
        <ele>565.6</ele>
        <time>2015-11-11T12:58:50.685Z</time>
      </trkpt>
      <trkpt lat="43.63925" lon="2.36698">
        <ele>565.8</ele>
        <time>2015-11-11T12:58:51.657Z</time>
      </trkpt>
      <trkpt lat="43.63918" lon="2.36704">
        <ele>566.9</ele>
        <time>2015-11-11T12:58:54.700Z</time>
      </trkpt>
      <trkpt lat="43.63916" lon="2.36704">
        <ele>567</ele>
        <time>2015-11-11T12:58:55.661Z</time>
      </trkpt>
      <trkpt lat="43.6391" lon="2.36712">
        <ele>567.4</ele>
        <time>2015-11-11T12:58:59.684Z</time>
      </trkpt>
      <trkpt lat="43.63908" lon="2.36714">
        <ele>567.5</ele>
        <time>2015-11-11T12:59:00.654Z</time>
      </trkpt>
      <trkpt lat="43.63906" lon="2.36724">
        <ele>567.9</ele>
        <time>2015-11-11T12:59:04.682Z</time>
      </trkpt>
      <trkpt lat="43.63906" lon="2.36726">
        <ele>568</ele>
        <time>2015-11-11T12:59:05.657Z</time>
      </trkpt>
      <trkpt lat="43.63907" lon="2.36738">
        <ele>568</ele>
        <time>2015-11-11T12:59:10.702Z</time>
      </trkpt>
      <trkpt lat="43.63907" lon="2.3674">
        <ele>568</ele>
        <time>2015-11-11T12:59:11.673Z</time>
      </trkpt>
      <trkpt lat="43.63913" lon="2.36748">
        <ele>567.9</ele>
        <time>2015-11-11T12:59:18.680Z</time>
      </trkpt>
      <trkpt lat="43.63913" lon="2.3675">
        <ele>567.9</ele>
        <time>2015-11-11T12:59:19.658Z</time>
      </trkpt>
      <trkpt lat="43.63913" lon="2.3675">
        <ele>567.9</ele>
        <time>2015-11-11T12:59:19.696Z</time>
      </trkpt>
      <trkpt lat="43.6392" lon="2.36756">
        <ele>567.4</ele>
        <time>2015-11-11T12:59:25.699Z</time>
      </trkpt>
      <trkpt lat="43.63922" lon="2.36757">
        <ele>567</ele>
        <time>2015-11-11T12:59:26.661Z</time>
      </trkpt>
      <trkpt lat="43.63922" lon="2.36757">
        <ele>567</ele>
        <time>2015-11-11T12:59:27.071Z</time>
      </trkpt>
      <trkpt lat="43.63924" lon="2.3676">
        <ele>567</ele>
        <time>2015-11-11T12:59:28.681Z</time>
      </trkpt>
      <trkpt lat="43.63925" lon="2.36761">
        <ele>567.2</ele>
        <time>2015-11-11T12:59:29.655Z</time>
      </trkpt>
      <trkpt lat="43.63933" lon="2.36765">
        <ele>568.1</ele>
        <time>2015-11-11T12:59:35.888Z</time>
      </trkpt>
      <trkpt lat="43.63934" lon="2.36766">
        <ele>568.2</ele>
        <time>2015-11-11T12:59:36.654Z</time>
      </trkpt>
      <trkpt lat="43.63941" lon="2.36772">
        <ele>568.2</ele>
        <time>2015-11-11T12:59:42.684Z</time>
      </trkpt>
      <trkpt lat="43.63942" lon="2.36773">
        <ele>568.2</ele>
        <time>2015-11-11T12:59:43.661Z</time>
      </trkpt>
      <trkpt lat="43.63949" lon="2.36779">
        <ele>568.4</ele>
        <time>2015-11-11T12:59:49.686Z</time>
      </trkpt>
      <trkpt lat="43.6395" lon="2.36779">
        <ele>568.5</ele>
        <time>2015-11-11T12:59:50.652Z</time>
      </trkpt>
      <trkpt lat="43.63958" lon="2.36783">
        <ele>569</ele>
        <time>2015-11-11T12:59:55.700Z</time>
      </trkpt>
      <trkpt lat="43.6396" lon="2.36784">
        <ele>569.1</ele>
        <time>2015-11-11T12:59:56.661Z</time>
      </trkpt>
      <trkpt lat="43.63968" lon="2.36786">
        <ele>569.6</ele>
        <time>2015-11-11T13:00:02.690Z</time>
      </trkpt>
      <trkpt lat="43.63969" lon="2.36786">
        <ele>569.8</ele>
        <time>2015-11-11T13:00:03.653Z</time>
      </trkpt>
      <trkpt lat="43.63973" lon="2.36786">
        <ele>569.6</ele>
        <time>2015-11-11T13:00:06.695Z</time>
      </trkpt>
      <trkpt lat="43.63974" lon="2.36785">
        <ele>569.5</ele>
        <time>2015-11-11T13:00:07.656Z</time>
      </trkpt>
      <trkpt lat="43.63982" lon="2.36783">
        <ele>569.6</ele>
        <time>2015-11-11T13:00:14.687Z</time>
      </trkpt>
      <trkpt lat="43.63984" lon="2.36782">
        <ele>569.5</ele>
        <time>2015-11-11T13:00:15.654Z</time>
      </trkpt>
      <trkpt lat="43.63984" lon="2.36782">
        <ele>569.5</ele>
        <time>2015-11-11T13:00:15.688Z</time>
      </trkpt>
      <trkpt lat="43.63985" lon="2.36782">
        <ele>569.5</ele>
        <time>2015-11-11T13:00:16.688Z</time>
      </trkpt>
      <trkpt lat="43.63987" lon="2.36781">
        <ele>569.5</ele>
        <time>2015-11-11T13:00:17.662Z</time>
      </trkpt>
      <trkpt lat="43.63994" lon="2.36777">
        <ele>572.4</ele>
        <time>2015-11-11T13:00:22.702Z</time>
      </trkpt>
      <trkpt lat="43.63995" lon="2.36776">
        <ele>573.1</ele>
        <time>2015-11-11T13:00:23.674Z</time>
      </trkpt>
      <trkpt lat="43.64004" lon="2.36775">
        <ele>573.5</ele>
        <time>2015-11-11T13:00:29.678Z</time>
      </trkpt>
      <trkpt lat="43.64006" lon="2.36774">
        <ele>574.1</ele>
        <time>2015-11-11T13:00:30.653Z</time>
      </trkpt>
      <trkpt lat="43.64014" lon="2.36773">
        <ele>575.4</ele>
        <time>2015-11-11T13:00:35.691Z</time>
      </trkpt>
      <trkpt lat="43.64015" lon="2.36773">
        <ele>575.8</ele>
        <time>2015-11-11T13:00:36.652Z</time>
      </trkpt>
      <trkpt lat="43.64022" lon="2.36777">
        <ele>577.8</ele>
        <time>2015-11-11T13:00:40.685Z</time>
      </trkpt>
      <trkpt lat="43.64023" lon="2.36777">
        <ele>578.2</ele>
        <time>2015-11-11T13:00:41.673Z</time>
      </trkpt>
      <trkpt lat="43.64027" lon="2.3678">
        <ele>579.1</ele>
        <time>2015-11-11T13:00:44.678Z</time>
      </trkpt>
      <trkpt lat="43.64028" lon="2.36781">
        <ele>579.3</ele>
        <time>2015-11-11T13:00:45.655Z</time>
      </trkpt>
      <trkpt lat="43.64036" lon="2.36787">
        <ele>579.2</ele>
        <time>2015-11-11T13:00:50.701Z</time>
      </trkpt>
      <trkpt lat="43.64037" lon="2.36789">
        <ele>579.1</ele>
        <time>2015-11-11T13:00:51.673Z</time>
      </trkpt>
      <trkpt lat="43.64038" lon="2.36801">
        <ele>578.3</ele>
        <time>2015-11-11T13:00:56.681Z</time>
      </trkpt>
      <trkpt lat="43.64041" lon="2.36806">
        <ele>578.1</ele>
        <time>2015-11-11T13:00:57.659Z</time>
      </trkpt>
      <trkpt lat="43.64042" lon="2.36815">
        <ele>577.8</ele>
        <time>2015-11-11T13:01:01.693Z</time>
      </trkpt>
      <trkpt lat="43.64042" lon="2.36818">
        <ele>577.9</ele>
        <time>2015-11-11T13:01:02.654Z</time>
      </trkpt>
      <trkpt lat="43.64041" lon="2.36829">
        <ele>577.8</ele>
        <time>2015-11-11T13:01:06.702Z</time>
      </trkpt>
      <trkpt lat="43.64041" lon="2.36832">
        <ele>577.9</ele>
        <time>2015-11-11T13:01:07.661Z</time>
      </trkpt>
      <trkpt lat="43.64041" lon="2.36842">
        <ele>578</ele>
        <time>2015-11-11T13:01:11.713Z</time>
      </trkpt>
      <trkpt lat="43.6404" lon="2.36845">
        <ele>578</ele>
        <time>2015-11-11T13:01:12.661Z</time>
      </trkpt>
      <trkpt lat="43.64037" lon="2.36855">
        <ele>578.7</ele>
        <time>2015-11-11T13:01:17.690Z</time>
      </trkpt>
      <trkpt lat="43.64036" lon="2.36858">
        <ele>578.8</ele>
        <time>2015-11-11T13:01:18.653Z</time>
      </trkpt>
      <trkpt lat="43.6403" lon="2.36865">
        <ele>580</ele>
        <time>2015-11-11T13:01:23.712Z</time>
      </trkpt>
      <trkpt lat="43.64028" lon="2.36866">
        <ele>580.4</ele>
        <time>2015-11-11T13:01:24.661Z</time>
      </trkpt>
      <trkpt lat="43.64021" lon="2.36869">
        <ele>584.1</ele>
        <time>2015-11-11T13:01:28.688Z</time>
      </trkpt>
      <trkpt lat="43.64018" lon="2.36871">
        <ele>584.5</ele>
        <time>2015-11-11T13:01:29.654Z</time>
      </trkpt>
      <trkpt lat="43.64014" lon="2.36881">
        <ele>588.8</ele>
        <time>2015-11-11T13:01:34.711Z</time>
      </trkpt>
      <trkpt lat="43.64013" lon="2.36882">
        <ele>589.3</ele>
        <time>2015-11-11T13:01:35.689Z</time>
      </trkpt>
      <trkpt lat="43.6401" lon="2.36893">
        <ele>591</ele>
        <time>2015-11-11T13:01:43.709Z</time>
      </trkpt>
      <trkpt lat="43.6401" lon="2.36895">
        <ele>591.3</ele>
        <time>2015-11-11T13:01:44.661Z</time>
      </trkpt>
      <trkpt lat="43.64012" lon="2.36906">
        <ele>592.9</ele>
        <time>2015-11-11T13:01:51.714Z</time>
      </trkpt>
      <trkpt lat="43.64011" lon="2.36908">
        <ele>593.1</ele>
        <time>2015-11-11T13:01:52.663Z</time>
      </trkpt>
      <trkpt lat="43.64009" lon="2.36919">
        <ele>594.4</ele>
        <time>2015-11-11T13:01:57.688Z</time>
      </trkpt>
      <trkpt lat="43.64008" lon="2.36921">
        <ele>594.5</ele>
        <time>2015-11-11T13:01:58.652Z</time>
      </trkpt>
      <trkpt lat="43.64005" lon="2.36932">
        <ele>595.4</ele>
        <time>2015-11-11T13:02:02.703Z</time>
      </trkpt>
      <trkpt lat="43.64004" lon="2.36935">
        <ele>595.7</ele>
        <time>2015-11-11T13:02:03.675Z</time>
      </trkpt>
      <trkpt lat="43.64002" lon="2.36945">
        <ele>596.4</ele>
        <time>2015-11-11T13:02:07.685Z</time>
      </trkpt>
      <trkpt lat="43.64001" lon="2.36948">
        <ele>596.5</ele>
        <time>2015-11-11T13:02:08.653Z</time>
      </trkpt>
      <trkpt lat="43.63998" lon="2.36959">
        <ele>597.3</ele>
        <time>2015-11-11T13:02:14.699Z</time>
      </trkpt>
      <trkpt lat="43.63998" lon="2.36961">
        <ele>597.5</ele>
        <time>2015-11-11T13:02:15.673Z</time>
      </trkpt>
      <trkpt lat="43.63996" lon="2.36971">
        <ele>598.2</ele>
        <time>2015-11-11T13:02:19.679Z</time>
      </trkpt>
      <trkpt lat="43.63995" lon="2.36975">
        <ele>598.3</ele>
        <time>2015-11-11T13:02:20.653Z</time>
      </trkpt>
      <trkpt lat="43.63996" lon="2.36987">
        <ele>598.6</ele>
        <time>2015-11-11T13:02:24.680Z</time>
      </trkpt>
      <trkpt lat="43.63996" lon="2.36989">
        <ele>598.7</ele>
        <time>2015-11-11T13:02:25.659Z</time>
      </trkpt>
      <trkpt lat="43.63995" lon="2.37001">
        <ele>598.8</ele>
        <time>2015-11-11T13:02:28.718Z</time>
      </trkpt>
      <trkpt lat="43.63994" lon="2.37006">
        <ele>598.8</ele>
        <time>2015-11-11T13:02:29.661Z</time>
      </trkpt>
      <trkpt lat="43.63993" lon="2.37015">
        <ele>598.8</ele>
        <time>2015-11-11T13:02:31.689Z</time>
      </trkpt>
      <trkpt lat="43.63993" lon="2.37018">
        <ele>599</ele>
        <time>2015-11-11T13:02:32.652Z</time>
      </trkpt>
      <trkpt lat="43.63992" lon="2.37027">
        <ele>599.4</ele>
        <time>2015-11-11T13:02:34.685Z</time>
      </trkpt>
      <trkpt lat="43.63991" lon="2.37031">
        <ele>599.7</ele>
        <time>2015-11-11T13:02:35.652Z</time>
      </trkpt>
      <trkpt lat="43.6399" lon="2.37042">
        <ele>600.4</ele>
        <time>2015-11-11T13:02:38.701Z</time>
      </trkpt>
      <trkpt lat="43.6399" lon="2.37046">
        <ele>600.4</ele>
        <time>2015-11-11T13:02:39.674Z</time>
      </trkpt>
      <trkpt lat="43.63991" lon="2.37056">
        <ele>600.5</ele>
        <time>2015-11-11T13:02:42.701Z</time>
      </trkpt>
      <trkpt lat="43.63992" lon="2.37059">
        <ele>600.5</ele>
        <time>2015-11-11T13:02:43.656Z</time>
      </trkpt>
      <trkpt lat="43.63991" lon="2.3707">
        <ele>600.8</ele>
        <time>2015-11-11T13:02:48.685Z</time>
      </trkpt>
      <trkpt lat="43.63991" lon="2.37073">
        <ele>600.9</ele>
        <time>2015-11-11T13:02:49.690Z</time>
      </trkpt>
      <trkpt lat="43.6399" lon="2.37082">
        <ele>601</ele>
        <time>2015-11-11T13:02:52.702Z</time>
      </trkpt>
      <trkpt lat="43.6399" lon="2.37086">
        <ele>600.9</ele>
        <time>2015-11-11T13:02:53.661Z</time>
      </trkpt>
      <trkpt lat="43.63992" lon="2.37095">
        <ele>600.9</ele>
        <time>2015-11-11T13:02:55.713Z</time>
      </trkpt>
      <trkpt lat="43.63993" lon="2.37098">
        <ele>600.9</ele>
        <time>2015-11-11T13:02:56.661Z</time>
      </trkpt>
      <trkpt lat="43.63996" lon="2.3711">
        <ele>600.7</ele>
        <time>2015-11-11T13:02:59.693Z</time>
      </trkpt>
      <trkpt lat="43.63996" lon="2.37113">
        <ele>600.5</ele>
        <time>2015-11-11T13:03:00.653Z</time>
      </trkpt>
      <trkpt lat="43.63996" lon="2.37125">
        <ele>600.2</ele>
        <time>2015-11-11T13:03:03.716Z</time>
      </trkpt>
      <trkpt lat="43.63996" lon="2.37129">
        <ele>600.1</ele>
        <time>2015-11-11T13:03:04.690Z</time>
      </trkpt>
      <trkpt lat="43.63998" lon="2.3714">
        <ele>600.1</ele>
        <time>2015-11-11T13:03:06.697Z</time>
      </trkpt>
      <trkpt lat="43.63999" lon="2.37145">
        <ele>600.1</ele>
        <time>2015-11-11T13:03:07.653Z</time>
      </trkpt>
      <trkpt lat="43.64001" lon="2.37153">
        <ele>599.7</ele>
        <time>2015-11-11T13:03:09.686Z</time>
      </trkpt>
      <trkpt lat="43.64002" lon="2.37157">
        <ele>599.4</ele>
        <time>2015-11-11T13:03:10.653Z</time>
      </trkpt>
      <trkpt lat="43.64003" lon="2.37167">
        <ele>599.5</ele>
        <time>2015-11-11T13:03:12.700Z</time>
      </trkpt>
      <trkpt lat="43.64003" lon="2.37172">
        <ele>599.3</ele>
        <time>2015-11-11T13:03:13.661Z</time>
      </trkpt>
      <trkpt lat="43.64003" lon="2.3718">
        <ele>599.1</ele>
        <time>2015-11-11T13:03:15.843Z</time>
      </trkpt>
      <trkpt lat="43.64003" lon="2.37184">
        <ele>598.9</ele>
        <time>2015-11-11T13:03:16.652Z</time>
      </trkpt>
      <trkpt lat="43.64002" lon="2.37193">
        <ele>598.5</ele>
        <time>2015-11-11T13:03:18.685Z</time>
      </trkpt>
      <trkpt lat="43.64001" lon="2.37198">
        <ele>598.4</ele>
        <time>2015-11-11T13:03:19.659Z</time>
      </trkpt>
      <trkpt lat="43.64" lon="2.37209">
        <ele>597.8</ele>
        <time>2015-11-11T13:03:21.699Z</time>
      </trkpt>
      <trkpt lat="43.64" lon="2.37215">
        <ele>597.5</ele>
        <time>2015-11-11T13:03:22.663Z</time>
      </trkpt>
      <trkpt lat="43.64002" lon="2.37221">
        <ele>597.2</ele>
        <time>2015-11-11T13:03:23.714Z</time>
      </trkpt>
      <trkpt lat="43.64006" lon="2.37226">
        <ele>596.8</ele>
        <time>2015-11-11T13:03:24.661Z</time>
      </trkpt>
      <trkpt lat="43.6401" lon="2.37229">
        <ele>596.5</ele>
        <time>2015-11-11T13:03:25.693Z</time>
      </trkpt>
      <trkpt lat="43.64014" lon="2.37233">
        <ele>597</ele>
        <time>2015-11-11T13:03:26.653Z</time>
      </trkpt>
      <trkpt lat="43.64018" lon="2.37236">
        <ele>597.6</ele>
        <time>2015-11-11T13:03:27.686Z</time>
      </trkpt>
      <trkpt lat="43.64022" lon="2.37239">
        <ele>598.1</ele>
        <time>2015-11-11T13:03:28.652Z</time>
      </trkpt>
      <trkpt lat="43.64029" lon="2.37243">
        <ele>598.8</ele>
        <time>2015-11-11T13:03:30.689Z</time>
      </trkpt>
      <trkpt lat="43.64032" lon="2.37246">
        <ele>599.6</ele>
        <time>2015-11-11T13:03:31.673Z</time>
      </trkpt>
      <trkpt lat="43.64037" lon="2.37251">
        <ele>600.1</ele>
        <time>2015-11-11T13:03:33.714Z</time>
      </trkpt>
      <trkpt lat="43.64039" lon="2.37253">
        <ele>600.1</ele>
        <time>2015-11-11T13:03:34.663Z</time>
      </trkpt>
      <trkpt lat="43.64046" lon="2.3726">
        <ele>599.5</ele>
        <time>2015-11-11T13:03:37.694Z</time>
      </trkpt>
      <trkpt lat="43.64048" lon="2.37263">
        <ele>599.3</ele>
        <time>2015-11-11T13:03:38.653Z</time>
      </trkpt>
      <trkpt lat="43.64052" lon="2.37269">
        <ele>599.1</ele>
        <time>2015-11-11T13:03:40.681Z</time>
      </trkpt>
      <trkpt lat="43.64055" lon="2.37272">
        <ele>599.6</ele>
        <time>2015-11-11T13:03:41.651Z</time>
      </trkpt>
      <trkpt lat="43.64061" lon="2.3728">
        <ele>600.3</ele>
        <time>2015-11-11T13:03:44.700Z</time>
      </trkpt>
      <trkpt lat="43.64063" lon="2.37283">
        <ele>600.2</ele>
        <time>2015-11-11T13:03:45.661Z</time>
      </trkpt>
      <trkpt lat="43.64068" lon="2.37291">
        <ele>599.6</ele>
        <time>2015-11-11T13:03:48.700Z</time>
      </trkpt>
      <trkpt lat="43.64069" lon="2.37294">
        <ele>599.3</ele>
        <time>2015-11-11T13:03:49.674Z</time>
      </trkpt>
      <trkpt lat="43.64073" lon="2.373">
        <ele>598.4</ele>
        <time>2015-11-11T13:03:51.718Z</time>
      </trkpt>
      <trkpt lat="43.64075" lon="2.37303">
        <ele>597.7</ele>
        <time>2015-11-11T13:03:52.663Z</time>
      </trkpt>
      <trkpt lat="43.64079" lon="2.3731">
        <ele>596.7</ele>
        <time>2015-11-11T13:03:54.681Z</time>
      </trkpt>
      <trkpt lat="43.64081" lon="2.37313">
        <ele>595.6</ele>
        <time>2015-11-11T13:03:55.652Z</time>
      </trkpt>
      <trkpt lat="43.64085" lon="2.37319">
        <ele>594.4</ele>
        <time>2015-11-11T13:03:57.686Z</time>
      </trkpt>
      <trkpt lat="43.64087" lon="2.37322">
        <ele>593.8</ele>
        <time>2015-11-11T13:03:58.655Z</time>
      </trkpt>
      <trkpt lat="43.64091" lon="2.37333">
        <ele>592.3</ele>
        <time>2015-11-11T13:04:01.687Z</time>
      </trkpt>
      <trkpt lat="43.64092" lon="2.37337">
        <ele>593</ele>
        <time>2015-11-11T13:04:02.654Z</time>
      </trkpt>
      <trkpt lat="43.64094" lon="2.37345">
        <ele>593.3</ele>
        <time>2015-11-11T13:04:04.712Z</time>
      </trkpt>
      <trkpt lat="43.64094" lon="2.37349">
        <ele>592.9</ele>
        <time>2015-11-11T13:04:05.657Z</time>
      </trkpt>
      <trkpt lat="43.64094" lon="2.3736">
        <ele>591.6</ele>
        <time>2015-11-11T13:04:08.736Z</time>
      </trkpt>
      <trkpt lat="43.64096" lon="2.37364">
        <ele>592.7</ele>
        <time>2015-11-11T13:04:09.674Z</time>
      </trkpt>
      <trkpt lat="43.64099" lon="2.37374">
        <ele>596.7</ele>
        <time>2015-11-11T13:04:13.700Z</time>
      </trkpt>
      <trkpt lat="43.641" lon="2.37378">
        <ele>596.7</ele>
        <time>2015-11-11T13:04:14.661Z</time>
      </trkpt>
      <trkpt lat="43.64102" lon="2.37389">
        <ele>597</ele>
        <time>2015-11-11T13:04:17.898Z</time>
      </trkpt>
      <trkpt lat="43.64103" lon="2.37392">
        <ele>597.5</ele>
        <time>2015-11-11T13:04:18.654Z</time>
      </trkpt>
      <trkpt lat="43.64103" lon="2.37403">
        <ele>597.1</ele>
        <time>2015-11-11T13:04:21.688Z</time>
      </trkpt>
      <trkpt lat="43.64104" lon="2.37407">
        <ele>596.9</ele>
        <time>2015-11-11T13:04:22.656Z</time>
      </trkpt>
      <trkpt lat="43.64104" lon="2.37418">
        <ele>596.4</ele>
        <time>2015-11-11T13:04:25.701Z</time>
      </trkpt>
      <trkpt lat="43.64105" lon="2.37422">
        <ele>596.1</ele>
        <time>2015-11-11T13:04:26.661Z</time>
      </trkpt>
      <trkpt lat="43.64107" lon="2.3743">
        <ele>595.7</ele>
        <time>2015-11-11T13:04:28.703Z</time>
      </trkpt>
      <trkpt lat="43.64108" lon="2.37434">
        <ele>596.2</ele>
        <time>2015-11-11T13:04:29.661Z</time>
      </trkpt>
      <trkpt lat="43.64109" lon="2.37443">
        <ele>595.5</ele>
        <time>2015-11-11T13:04:31.686Z</time>
      </trkpt>
      <trkpt lat="43.6411" lon="2.37447">
        <ele>595.1</ele>
        <time>2015-11-11T13:04:32.651Z</time>
      </trkpt>
      <trkpt lat="43.64112" lon="2.37458">
        <ele>594.2</ele>
        <time>2015-11-11T13:04:34.681Z</time>
      </trkpt>
      <trkpt lat="43.64114" lon="2.37464">
        <ele>594.3</ele>
        <time>2015-11-11T13:04:35.656Z</time>
      </trkpt>
      <trkpt lat="43.64116" lon="2.3747">
        <ele>594.2</ele>
        <time>2015-11-11T13:04:36.725Z</time>
      </trkpt>
      <trkpt lat="43.64118" lon="2.37476">
        <ele>594</ele>
        <time>2015-11-11T13:04:37.673Z</time>
      </trkpt>
      <trkpt lat="43.6412" lon="2.37482">
        <ele>593.6</ele>
        <time>2015-11-11T13:04:38.700Z</time>
      </trkpt>
      <trkpt lat="43.64123" lon="2.37489">
        <ele>593.5</ele>
        <time>2015-11-11T13:04:39.673Z</time>
      </trkpt>
      <trkpt lat="43.64126" lon="2.37495">
        <ele>593.1</ele>
        <time>2015-11-11T13:04:40.703Z</time>
      </trkpt>
      <trkpt lat="43.64128" lon="2.37502">
        <ele>592.8</ele>
        <time>2015-11-11T13:04:41.673Z</time>
      </trkpt>
      <trkpt lat="43.64131" lon="2.37508">
        <ele>592.8</ele>
        <time>2015-11-11T13:04:42.679Z</time>
      </trkpt>
      <trkpt lat="43.64133" lon="2.37514">
        <ele>592.7</ele>
        <time>2015-11-11T13:04:43.654Z</time>
      </trkpt>
      <trkpt lat="43.64134" lon="2.37521">
        <ele>592.6</ele>
        <time>2015-11-11T13:04:44.680Z</time>
      </trkpt>
      <trkpt lat="43.64134" lon="2.37527">
        <ele>592.4</ele>
        <time>2015-11-11T13:04:45.658Z</time>
      </trkpt>
      <trkpt lat="43.64132" lon="2.37536">
        <ele>592.4</ele>
        <time>2015-11-11T13:04:47.687Z</time>
      </trkpt>
      <trkpt lat="43.64131" lon="2.37539">
        <ele>592.6</ele>
        <time>2015-11-11T13:04:48.662Z</time>
      </trkpt>
      <trkpt lat="43.64126" lon="2.3755">
        <ele>592.8</ele>
        <time>2015-11-11T13:04:51.688Z</time>
      </trkpt>
      <trkpt lat="43.64125" lon="2.37552">
        <ele>593</ele>
        <time>2015-11-11T13:04:52.655Z</time>
      </trkpt>
      <trkpt lat="43.6412" lon="2.37558">
        <ele>593.3</ele>
        <time>2015-11-11T13:04:54.678Z</time>
      </trkpt>
      <trkpt lat="43.64117" lon="2.37561">
        <ele>593.4</ele>
        <time>2015-11-11T13:04:55.655Z</time>
      </trkpt>
      <trkpt lat="43.64112" lon="2.37566">
        <ele>594.6</ele>
        <time>2015-11-11T13:04:57.700Z</time>
      </trkpt>
      <trkpt lat="43.6411" lon="2.37568">
        <ele>595.7</ele>
        <time>2015-11-11T13:04:58.663Z</time>
      </trkpt>
      <trkpt lat="43.64104" lon="2.37575">
        <ele>596.4</ele>
        <time>2015-11-11T13:05:00.769Z</time>
      </trkpt>
      <trkpt lat="43.64102" lon="2.37577">
        <ele>597.7</ele>
        <time>2015-11-11T13:05:01.657Z</time>
      </trkpt>
      <trkpt lat="43.64097" lon="2.37583">
        <ele>599.3</ele>
        <time>2015-11-11T13:05:03.683Z</time>
      </trkpt>
      <trkpt lat="43.64094" lon="2.37586">
        <ele>600.4</ele>
        <time>2015-11-11T13:05:04.657Z</time>
      </trkpt>
      <trkpt lat="43.64092" lon="2.37592">
        <ele>601.2</ele>
        <time>2015-11-11T13:05:05.687Z</time>
      </trkpt>
      <trkpt lat="43.64089" lon="2.37597">
        <ele>601.2</ele>
        <time>2015-11-11T13:05:06.654Z</time>
      </trkpt>
      <trkpt lat="43.64085" lon="2.37606">
        <ele>601.1</ele>
        <time>2015-11-11T13:05:08.701Z</time>
      </trkpt>
      <trkpt lat="43.64084" lon="2.37611">
        <ele>601.2</ele>
        <time>2015-11-11T13:05:09.673Z</time>
      </trkpt>
      <trkpt lat="43.64083" lon="2.37621">
        <ele>600.2</ele>
        <time>2015-11-11T13:05:11.878Z</time>
      </trkpt>
      <trkpt lat="43.64083" lon="2.37625">
        <ele>600.1</ele>
        <time>2015-11-11T13:05:12.661Z</time>
      </trkpt>
      <trkpt lat="43.64084" lon="2.37635">
        <ele>599.7</ele>
        <time>2015-11-11T13:05:14.701Z</time>
      </trkpt>
      <trkpt lat="43.64084" lon="2.37639">
        <ele>599.3</ele>
        <time>2015-11-11T13:05:15.674Z</time>
      </trkpt>
      <trkpt lat="43.64087" lon="2.37648">
        <ele>599</ele>
        <time>2015-11-11T13:05:17.686Z</time>
      </trkpt>
      <trkpt lat="43.64088" lon="2.37652">
        <ele>598.7</ele>
        <time>2015-11-11T13:05:18.652Z</time>
      </trkpt>
      <trkpt lat="43.64091" lon="2.3766">
        <ele>598.6</ele>
        <time>2015-11-11T13:05:20.678Z</time>
      </trkpt>
      <trkpt lat="43.64093" lon="2.37664">
        <ele>598.5</ele>
        <time>2015-11-11T13:05:21.653Z</time>
      </trkpt>
      <trkpt lat="43.64097" lon="2.37672">
        <ele>598.6</ele>
        <time>2015-11-11T13:05:23.712Z</time>
      </trkpt>
      <trkpt lat="43.64099" lon="2.37675">
        <ele>598.5</ele>
        <time>2015-11-11T13:05:24.661Z</time>
      </trkpt>
      <trkpt lat="43.64102" lon="2.37682">
        <ele>598.4</ele>
        <time>2015-11-11T13:05:26.700Z</time>
      </trkpt>
      <trkpt lat="43.64104" lon="2.37686">
        <ele>598.2</ele>
        <time>2015-11-11T13:05:27.673Z</time>
      </trkpt>
      <trkpt lat="43.64108" lon="2.37693">
        <ele>598.1</ele>
        <time>2015-11-11T13:05:29.686Z</time>
      </trkpt>
      <trkpt lat="43.64109" lon="2.37697">
        <ele>597.5</ele>
        <time>2015-11-11T13:05:30.653Z</time>
      </trkpt>
      <trkpt lat="43.64112" lon="2.37705">
        <ele>597</ele>
        <time>2015-11-11T13:05:32.687Z</time>
      </trkpt>
      <trkpt lat="43.64113" lon="2.37709">
        <ele>596.8</ele>
        <time>2015-11-11T13:05:33.652Z</time>
      </trkpt>
      <trkpt lat="43.64115" lon="2.37719">
        <ele>596.6</ele>
        <time>2015-11-11T13:05:35.713Z</time>
      </trkpt>
      <trkpt lat="43.64117" lon="2.37724">
        <ele>596.7</ele>
        <time>2015-11-11T13:05:36.661Z</time>
      </trkpt>
      <trkpt lat="43.64119" lon="2.37734">
        <ele>596.7</ele>
        <time>2015-11-11T13:05:38.700Z</time>
      </trkpt>
      <trkpt lat="43.64121" lon="2.3774">
        <ele>596.7</ele>
        <time>2015-11-11T13:05:39.673Z</time>
      </trkpt>
      <trkpt lat="43.64122" lon="2.3775">
        <ele>596.5</ele>
        <time>2015-11-11T13:05:42.079Z</time>
      </trkpt>
      <trkpt lat="43.64123" lon="2.37755">
        <ele>596.6</ele>
        <time>2015-11-11T13:05:42.652Z</time>
      </trkpt>
      <trkpt lat="43.64125" lon="2.37766">
        <ele>596.7</ele>
        <time>2015-11-11T13:05:44.678Z</time>
      </trkpt>
      <trkpt lat="43.64126" lon="2.37771">
        <ele>596.8</ele>
        <time>2015-11-11T13:05:45.653Z</time>
      </trkpt>
      <trkpt lat="43.64128" lon="2.37781">
        <ele>597.1</ele>
        <time>2015-11-11T13:05:47.687Z</time>
      </trkpt>
      <trkpt lat="43.64129" lon="2.37785">
        <ele>597.2</ele>
        <time>2015-11-11T13:05:48.677Z</time>
      </trkpt>
      <trkpt lat="43.6413" lon="2.37794">
        <ele>597.4</ele>
        <time>2015-11-11T13:05:50.701Z</time>
      </trkpt>
      <trkpt lat="43.6413" lon="2.37798">
        <ele>597.4</ele>
        <time>2015-11-11T13:05:51.673Z</time>
      </trkpt>
      <trkpt lat="43.6413" lon="2.37808">
        <ele>597.3</ele>
        <time>2015-11-11T13:05:53.728Z</time>
      </trkpt>
      <trkpt lat="43.6413" lon="2.37813">
        <ele>597.2</ele>
        <time>2015-11-11T13:05:54.661Z</time>
      </trkpt>
      <trkpt lat="43.64129" lon="2.37823">
        <ele>597.2</ele>
        <time>2015-11-11T13:05:56.680Z</time>
      </trkpt>
      <trkpt lat="43.64129" lon="2.37826">
        <ele>597.6</ele>
        <time>2015-11-11T13:05:57.653Z</time>
      </trkpt>
      <trkpt lat="43.64126" lon="2.37835">
        <ele>597.9</ele>
        <time>2015-11-11T13:05:59.686Z</time>
      </trkpt>
      <trkpt lat="43.64124" lon="2.37838">
        <ele>597.8</ele>
        <time>2015-11-11T13:06:00.654Z</time>
      </trkpt>
      <trkpt lat="43.64116" lon="2.37842">
        <ele>598.2</ele>
        <time>2015-11-11T13:06:03.679Z</time>
      </trkpt>
      <trkpt lat="43.64113" lon="2.37841">
        <ele>598.2</ele>
        <time>2015-11-11T13:06:04.995Z</time>
      </trkpt>
      <trkpt lat="43.64106" lon="2.37839">
        <ele>599.3</ele>
        <time>2015-11-11T13:06:07.715Z</time>
      </trkpt>
      <trkpt lat="43.64103" lon="2.37837">
        <ele>600.3</ele>
        <time>2015-11-11T13:06:08.661Z</time>
      </trkpt>
      <trkpt lat="43.64097" lon="2.3784">
        <ele>602.2</ele>
        <time>2015-11-11T13:06:10.683Z</time>
      </trkpt>
      <trkpt lat="43.64094" lon="2.37842">
        <ele>602.8</ele>
        <time>2015-11-11T13:06:11.658Z</time>
      </trkpt>
      <trkpt lat="43.64088" lon="2.37849">
        <ele>603.9</ele>
        <time>2015-11-11T13:06:14.681Z</time>
      </trkpt>
      <trkpt lat="43.64086" lon="2.37852">
        <ele>604</ele>
        <time>2015-11-11T13:06:15.651Z</time>
      </trkpt>
      <trkpt lat="43.64082" lon="2.37861">
        <ele>604.7</ele>
        <time>2015-11-11T13:06:18.678Z</time>
      </trkpt>
      <trkpt lat="43.6408" lon="2.37864">
        <ele>604.9</ele>
        <time>2015-11-11T13:06:19.658Z</time>
      </trkpt>
      <trkpt lat="43.64076" lon="2.37874">
        <ele>605.2</ele>
        <time>2015-11-11T13:06:22.702Z</time>
      </trkpt>
      <trkpt lat="43.64075" lon="2.37877">
        <ele>605.4</ele>
        <time>2015-11-11T13:06:23.661Z</time>
      </trkpt>
      <trkpt lat="43.64071" lon="2.37888">
        <ele>605.8</ele>
        <time>2015-11-11T13:06:26.700Z</time>
      </trkpt>
      <trkpt lat="43.6407" lon="2.37891">
        <ele>606</ele>
        <time>2015-11-11T13:06:27.672Z</time>
      </trkpt>
      <trkpt lat="43.64069" lon="2.379">
        <ele>607.2</ele>
        <time>2015-11-11T13:06:30.677Z</time>
      </trkpt>
      <trkpt lat="43.64068" lon="2.37904">
        <ele>607.8</ele>
        <time>2015-11-11T13:06:31.654Z</time>
      </trkpt>
      <trkpt lat="43.64065" lon="2.37914">
        <ele>609.1</ele>
        <time>2015-11-11T13:06:34.682Z</time>
      </trkpt>
      <trkpt lat="43.64064" lon="2.37916">
        <ele>609.2</ele>
        <time>2015-11-11T13:06:35.673Z</time>
      </trkpt>
      <trkpt lat="43.64062" lon="2.37927">
        <ele>609.4</ele>
        <time>2015-11-11T13:06:38.699Z</time>
      </trkpt>
      <trkpt lat="43.64061" lon="2.37932">
        <ele>609.4</ele>
        <time>2015-11-11T13:06:39.674Z</time>
      </trkpt>
      <trkpt lat="43.64058" lon="2.37943">
        <ele>609.8</ele>
        <time>2015-11-11T13:06:42.681Z</time>
      </trkpt>
      <trkpt lat="43.64057" lon="2.37949">
        <ele>610.1</ele>
        <time>2015-11-11T13:06:43.658Z</time>
      </trkpt>
      <trkpt lat="43.64055" lon="2.37955">
        <ele>610.5</ele>
        <time>2015-11-11T13:06:44.678Z</time>
      </trkpt>
      <trkpt lat="43.64053" lon="2.3796">
        <ele>610.5</ele>
        <time>2015-11-11T13:06:45.657Z</time>
      </trkpt>
      <trkpt lat="43.6405" lon="2.3797">
        <ele>610.7</ele>
        <time>2015-11-11T13:06:47.681Z</time>
      </trkpt>
      <trkpt lat="43.64048" lon="2.37976">
        <ele>610.8</ele>
        <time>2015-11-11T13:06:48.653Z</time>
      </trkpt>
      <trkpt lat="43.64045" lon="2.37985">
        <ele>610.8</ele>
        <time>2015-11-11T13:06:50.701Z</time>
      </trkpt>
      <trkpt lat="43.64043" lon="2.3799">
        <ele>610.7</ele>
        <time>2015-11-11T13:06:51.677Z</time>
      </trkpt>
      <trkpt lat="43.64042" lon="2.37998">
        <ele>610.6</ele>
        <time>2015-11-11T13:06:53.686Z</time>
      </trkpt>
      <trkpt lat="43.64041" lon="2.38002">
        <ele>610.6</ele>
        <time>2015-11-11T13:06:54.654Z</time>
      </trkpt>
      <trkpt lat="43.64038" lon="2.38012">
        <ele>610.8</ele>
        <time>2015-11-11T13:06:56.679Z</time>
      </trkpt>
      <trkpt lat="43.64037" lon="2.38017">
        <ele>610.9</ele>
        <time>2015-11-11T13:06:57.656Z</time>
      </trkpt>
      <trkpt lat="43.64033" lon="2.38028">
        <ele>610.9</ele>
        <time>2015-11-11T13:06:59.700Z</time>
      </trkpt>
      <trkpt lat="43.64032" lon="2.38034">
        <ele>611.1</ele>
        <time>2015-11-11T13:07:00.661Z</time>
      </trkpt>
      <trkpt lat="43.64029" lon="2.38045">
        <ele>611.3</ele>
        <time>2015-11-11T13:07:02.680Z</time>
      </trkpt>
      <trkpt lat="43.64028" lon="2.38051">
        <ele>611.3</ele>
        <time>2015-11-11T13:07:03.652Z</time>
      </trkpt>
      <trkpt lat="43.64026" lon="2.38062">
        <ele>611.5</ele>
        <time>2015-11-11T13:07:05.687Z</time>
      </trkpt>
      <trkpt lat="43.64025" lon="2.38067">
        <ele>611.5</ele>
        <time>2015-11-11T13:07:06.652Z</time>
      </trkpt>
      <trkpt lat="43.64022" lon="2.38078">
        <ele>611.7</ele>
        <time>2015-11-11T13:07:08.700Z</time>
      </trkpt>
      <trkpt lat="43.64021" lon="2.38085">
        <ele>611.7</ele>
        <time>2015-11-11T13:07:09.692Z</time>
      </trkpt>
      <trkpt lat="43.64019" lon="2.38091">
        <ele>611.7</ele>
        <time>2015-11-11T13:07:10.707Z</time>
      </trkpt>
      <trkpt lat="43.64019" lon="2.38098">
        <ele>611.8</ele>
        <time>2015-11-11T13:07:11.675Z</time>
      </trkpt>
      <trkpt lat="43.64017" lon="2.38109">
        <ele>611.9</ele>
        <time>2015-11-11T13:07:13.701Z</time>
      </trkpt>
      <trkpt lat="43.64017" lon="2.38114">
        <ele>611.8</ele>
        <time>2015-11-11T13:07:14.660Z</time>
      </trkpt>
      <trkpt lat="43.64015" lon="2.38123">
        <ele>611.7</ele>
        <time>2015-11-11T13:07:17.074Z</time>
      </trkpt>
      <trkpt lat="43.64014" lon="2.38127">
        <ele>611.8</ele>
        <time>2015-11-11T13:07:17.657Z</time>
      </trkpt>
      <trkpt lat="43.64011" lon="2.38137">
        <ele>611.9</ele>
        <time>2015-11-11T13:07:19.688Z</time>
      </trkpt>
      <trkpt lat="43.64009" lon="2.38142">
        <ele>611.9</ele>
        <time>2015-11-11T13:07:20.652Z</time>
      </trkpt>
      <trkpt lat="43.64005" lon="2.3815">
        <ele>611.9</ele>
        <time>2015-11-11T13:07:22.681Z</time>
      </trkpt>
      <trkpt lat="43.64003" lon="2.38153">
        <ele>611.9</ele>
        <time>2015-11-11T13:07:23.673Z</time>
      </trkpt>
      <trkpt lat="43.63999" lon="2.38162">
        <ele>612</ele>
        <time>2015-11-11T13:07:26.699Z</time>
      </trkpt>
      <trkpt lat="43.63998" lon="2.38165">
        <ele>612.2</ele>
        <time>2015-11-11T13:07:27.675Z</time>
      </trkpt>
      <trkpt lat="43.63992" lon="2.38173">
        <ele>612.5</ele>
        <time>2015-11-11T13:07:30.679Z</time>
      </trkpt>
      <trkpt lat="43.6399" lon="2.38176">
        <ele>612.7</ele>
        <time>2015-11-11T13:07:31.652Z</time>
      </trkpt>
      <trkpt lat="43.63986" lon="2.38185">
        <ele>613.8</ele>
        <time>2015-11-11T13:07:36.730Z</time>
      </trkpt>
      <trkpt lat="43.63985" lon="2.38187">
        <ele>614.1</ele>
        <time>2015-11-11T13:07:37.674Z</time>
      </trkpt>
      <trkpt lat="43.6398" lon="2.38196">
        <ele>614.6</ele>
        <time>2015-11-11T13:07:40.682Z</time>
      </trkpt>
      <trkpt lat="43.63977" lon="2.38198">
        <ele>614.8</ele>
        <time>2015-11-11T13:07:41.653Z</time>
      </trkpt>
      <trkpt lat="43.63971" lon="2.38206">
        <ele>615.1</ele>
        <time>2015-11-11T13:07:45.713Z</time>
      </trkpt>
      <trkpt lat="43.6397" lon="2.38207">
        <ele>615.1</ele>
        <time>2015-11-11T13:07:46.663Z</time>
      </trkpt>
      <trkpt lat="43.63964" lon="2.38216">
        <ele>615.4</ele>
        <time>2015-11-11T13:07:50.699Z</time>
      </trkpt>
      <trkpt lat="43.63963" lon="2.38218">
        <ele>615.6</ele>
        <time>2015-11-11T13:07:51.654Z</time>
      </trkpt>
      <trkpt lat="43.63958" lon="2.38226">
        <ele>616.2</ele>
        <time>2015-11-11T13:07:55.681Z</time>
      </trkpt>
      <trkpt lat="43.63956" lon="2.38228">
        <ele>616.5</ele>
        <time>2015-11-11T13:07:56.654Z</time>
      </trkpt>
      <trkpt lat="43.63951" lon="2.38235">
        <ele>617.2</ele>
        <time>2015-11-11T13:08:01.714Z</time>
      </trkpt>
      <trkpt lat="43.6395" lon="2.38237">
        <ele>617.4</ele>
        <time>2015-11-11T13:08:02.661Z</time>
      </trkpt>
      <trkpt lat="43.63943" lon="2.38243">
        <ele>618.5</ele>
        <time>2015-11-11T13:08:07.684Z</time>
      </trkpt>
      <trkpt lat="43.63942" lon="2.38246">
        <ele>618.7</ele>
        <time>2015-11-11T13:08:08.653Z</time>
      </trkpt>
      <trkpt lat="43.63935" lon="2.38254">
        <ele>619.6</ele>
        <time>2015-11-11T13:08:12.701Z</time>
      </trkpt>
      <trkpt lat="43.63934" lon="2.38256">
        <ele>619.9</ele>
        <time>2015-11-11T13:08:13.673Z</time>
      </trkpt>
      <trkpt lat="43.63929" lon="2.38265">
        <ele>621.1</ele>
        <time>2015-11-11T13:08:17.700Z</time>
      </trkpt>
      <trkpt lat="43.63927" lon="2.38268">
        <ele>621.3</ele>
        <time>2015-11-11T13:08:18.652Z</time>
      </trkpt>
      <trkpt lat="43.63921" lon="2.38277">
        <ele>622.7</ele>
        <time>2015-11-11T13:08:23.678Z</time>
      </trkpt>
      <trkpt lat="43.6392" lon="2.38278">
        <ele>622.8</ele>
        <time>2015-11-11T13:08:24.662Z</time>
      </trkpt>
      <trkpt lat="43.63914" lon="2.38287">
        <ele>624.7</ele>
        <time>2015-11-11T13:08:30.993Z</time>
      </trkpt>
      <trkpt lat="43.63913" lon="2.38288">
        <ele>624.9</ele>
        <time>2015-11-11T13:08:31.652Z</time>
      </trkpt>
      <trkpt lat="43.63907" lon="2.38296">
        <ele>627.4</ele>
        <time>2015-11-11T13:08:37.700Z</time>
      </trkpt>
      <trkpt lat="43.63906" lon="2.38298">
        <ele>627.6</ele>
        <time>2015-11-11T13:08:38.661Z</time>
      </trkpt>
      <trkpt lat="43.63899" lon="2.38306">
        <ele>628.5</ele>
        <time>2015-11-11T13:08:44.680Z</time>
      </trkpt>
      <trkpt lat="43.63898" lon="2.38308">
        <ele>628.5</ele>
        <time>2015-11-11T13:08:45.673Z</time>
      </trkpt>
      <trkpt lat="43.63895" lon="2.38318">
        <ele>628.2</ele>
        <time>2015-11-11T13:08:50.679Z</time>
      </trkpt>
      <trkpt lat="43.63895" lon="2.3832">
        <ele>628.2</ele>
        <time>2015-11-11T13:08:51.662Z</time>
      </trkpt>
      <trkpt lat="43.63902" lon="2.38325">
        <ele>623.4</ele>
        <time>2015-11-11T13:09:48.700Z</time>
      </trkpt>
      <trkpt lat="43.63904" lon="2.38325">
        <ele>623.2</ele>
        <time>2015-11-11T13:09:49.673Z</time>
      </trkpt>
      <trkpt lat="43.63909" lon="2.38317">
        <ele>622.7</ele>
        <time>2015-11-11T13:09:54.687Z</time>
      </trkpt>
      <trkpt lat="43.63911" lon="2.38314">
        <ele>623.1</ele>
        <time>2015-11-11T13:09:55.653Z</time>
      </trkpt>
      <trkpt lat="43.63916" lon="2.38304">
        <ele>623.8</ele>
        <time>2015-11-11T13:09:59.703Z</time>
      </trkpt>
      <trkpt lat="43.63917" lon="2.38302">
        <ele>623.9</ele>
        <time>2015-11-11T13:10:00.662Z</time>
      </trkpt>
      <trkpt lat="43.63924" lon="2.38296">
        <ele>624.1</ele>
        <time>2015-11-11T13:10:05.687Z</time>
      </trkpt>
      <trkpt lat="43.63926" lon="2.38296">
        <ele>624.1</ele>
        <time>2015-11-11T13:10:06.653Z</time>
      </trkpt>
      <trkpt lat="43.63933" lon="2.38293">
        <ele>623.7</ele>
        <time>2015-11-11T13:10:10.722Z</time>
      </trkpt>
      <trkpt lat="43.63935" lon="2.38293">
        <ele>623.6</ele>
        <time>2015-11-11T13:10:11.659Z</time>
      </trkpt>
      <trkpt lat="43.63941" lon="2.38293">
        <ele>623.3</ele>
        <time>2015-11-11T13:10:14.678Z</time>
      </trkpt>
      <trkpt lat="43.63944" lon="2.38293">
        <ele>623.5</ele>
        <time>2015-11-11T13:10:15.658Z</time>
      </trkpt>
      <trkpt lat="43.63951" lon="2.38293">
        <ele>624.5</ele>
        <time>2015-11-11T13:10:18.700Z</time>
      </trkpt>
      <trkpt lat="43.63954" lon="2.38293">
        <ele>624.5</ele>
        <time>2015-11-11T13:10:19.672Z</time>
      </trkpt>
      <trkpt lat="43.63961" lon="2.38295">
        <ele>624.8</ele>
        <time>2015-11-11T13:10:21.713Z</time>
      </trkpt>
      <trkpt lat="43.63964" lon="2.38294">
        <ele>625</ele>
        <time>2015-11-11T13:10:22.662Z</time>
      </trkpt>
      <trkpt lat="43.63971" lon="2.38292">
        <ele>624.3</ele>
        <time>2015-11-11T13:10:25.712Z</time>
      </trkpt>
      <trkpt lat="43.63974" lon="2.38292">
        <ele>625.6</ele>
        <time>2015-11-11T13:10:26.654Z</time>
      </trkpt>
      <trkpt lat="43.6398" lon="2.38292">
        <ele>627.9</ele>
        <time>2015-11-11T13:10:28.680Z</time>
      </trkpt>
      <trkpt lat="43.63984" lon="2.38292">
        <ele>628.7</ele>
        <time>2015-11-11T13:10:29.654Z</time>
      </trkpt>
      <trkpt lat="43.63991" lon="2.38289">
        <ele>630.3</ele>
        <time>2015-11-11T13:10:32.696Z</time>
      </trkpt>
      <trkpt lat="43.63993" lon="2.38288">
        <ele>630.6</ele>
        <time>2015-11-11T13:10:33.673Z</time>
      </trkpt>
      <trkpt lat="43.64" lon="2.38287">
        <ele>630.5</ele>
        <time>2015-11-11T13:10:35.820Z</time>
      </trkpt>
      <trkpt lat="43.64003" lon="2.38285">
        <ele>630.1</ele>
        <time>2015-11-11T13:10:36.661Z</time>
      </trkpt>
      <trkpt lat="43.64009" lon="2.38283">
        <ele>630.1</ele>
        <time>2015-11-11T13:10:38.700Z</time>
      </trkpt>
      <trkpt lat="43.64012" lon="2.38282">
        <ele>630.2</ele>
        <time>2015-11-11T13:10:39.654Z</time>
      </trkpt>
      <trkpt lat="43.6402" lon="2.38279">
        <ele>630.2</ele>
        <time>2015-11-11T13:10:42.680Z</time>
      </trkpt>
      <trkpt lat="43.64023" lon="2.38278">
        <ele>630.1</ele>
        <time>2015-11-11T13:10:43.654Z</time>
      </trkpt>
      <trkpt lat="43.6403" lon="2.38274">
        <ele>629.8</ele>
        <time>2015-11-11T13:10:45.729Z</time>
      </trkpt>
      <trkpt lat="43.64034" lon="2.38273">
        <ele>629.4</ele>
        <time>2015-11-11T13:10:46.663Z</time>
      </trkpt>
      <trkpt lat="43.6404" lon="2.38268">
        <ele>629.5</ele>
        <time>2015-11-11T13:10:48.700Z</time>
      </trkpt>
      <trkpt lat="43.64043" lon="2.38266">
        <ele>629.5</ele>
        <time>2015-11-11T13:10:49.672Z</time>
      </trkpt>
      <trkpt lat="43.64051" lon="2.38262">
        <ele>629</ele>
        <time>2015-11-11T13:10:51.686Z</time>
      </trkpt>
      <trkpt lat="43.64054" lon="2.3826">
        <ele>628.7</ele>
        <time>2015-11-11T13:10:52.655Z</time>
      </trkpt>
      <trkpt lat="43.64062" lon="2.38255">
        <ele>628.5</ele>
        <time>2015-11-11T13:10:55.685Z</time>
      </trkpt>
      <trkpt lat="43.64066" lon="2.38254">
        <ele>628.4</ele>
        <time>2015-11-11T13:10:56.654Z</time>
      </trkpt>
      <trkpt lat="43.64071" lon="2.38253">
        <ele>628.2</ele>
        <time>2015-11-11T13:10:57.688Z</time>
      </trkpt>
      <trkpt lat="43.64076" lon="2.38252">
        <ele>628.1</ele>
        <time>2015-11-11T13:10:58.655Z</time>
      </trkpt>
      <trkpt lat="43.64084" lon="2.38253">
        <ele>627.7</ele>
        <time>2015-11-11T13:11:00.678Z</time>
      </trkpt>
      <trkpt lat="43.64089" lon="2.38252">
        <ele>627.6</ele>
        <time>2015-11-11T13:11:01.655Z</time>
      </trkpt>
      <trkpt lat="43.64098" lon="2.38251">
        <ele>627.2</ele>
        <time>2015-11-11T13:11:04.086Z</time>
      </trkpt>
      <trkpt lat="43.64102" lon="2.3825">
        <ele>627.2</ele>
        <time>2015-11-11T13:11:04.656Z</time>
      </trkpt>
      <trkpt lat="43.64109" lon="2.38248">
        <ele>626.8</ele>
        <time>2015-11-11T13:11:06.682Z</time>
      </trkpt>
      <trkpt lat="43.64112" lon="2.38247">
        <ele>626.8</ele>
        <time>2015-11-11T13:11:07.656Z</time>
      </trkpt>
      <trkpt lat="43.64118" lon="2.38245">
        <ele>627.2</ele>
        <time>2015-11-11T13:11:09.692Z</time>
      </trkpt>
      <trkpt lat="43.64121" lon="2.38244">
        <ele>627.3</ele>
        <time>2015-11-11T13:11:10.679Z</time>
      </trkpt>
      <trkpt lat="43.64128" lon="2.3824">
        <ele>627.2</ele>
        <time>2015-11-11T13:11:12.677Z</time>
      </trkpt>
      <trkpt lat="43.64132" lon="2.38238">
        <ele>626.9</ele>
        <time>2015-11-11T13:11:13.653Z</time>
      </trkpt>
      <trkpt lat="43.64139" lon="2.38235">
        <ele>627</ele>
        <time>2015-11-11T13:11:15.678Z</time>
      </trkpt>
      <trkpt lat="43.64142" lon="2.38233">
        <ele>627</ele>
        <time>2015-11-11T13:11:16.655Z</time>
      </trkpt>
      <trkpt lat="43.64149" lon="2.38231">
        <ele>626.4</ele>
        <time>2015-11-11T13:11:18.701Z</time>
      </trkpt>
      <trkpt lat="43.64152" lon="2.38228">
        <ele>626.1</ele>
        <time>2015-11-11T13:11:19.672Z</time>
      </trkpt>
      <trkpt lat="43.64157" lon="2.38224">
        <ele>625.9</ele>
        <time>2015-11-11T13:11:21.728Z</time>
      </trkpt>
      <trkpt lat="43.64161" lon="2.38223">
        <ele>625.7</ele>
        <time>2015-11-11T13:11:22.663Z</time>
      </trkpt>
      <trkpt lat="43.64169" lon="2.3822">
        <ele>625.2</ele>
        <time>2015-11-11T13:11:25.713Z</time>
      </trkpt>
      <trkpt lat="43.64172" lon="2.38219">
        <ele>625.1</ele>
        <time>2015-11-11T13:11:26.661Z</time>
      </trkpt>
      <trkpt lat="43.64178" lon="2.38218">
        <ele>625.7</ele>
        <time>2015-11-11T13:11:28.682Z</time>
      </trkpt>
      <trkpt lat="43.64182" lon="2.38218">
        <ele>626.5</ele>
        <time>2015-11-11T13:11:29.650Z</time>
      </trkpt>
      <trkpt lat="43.64188" lon="2.38218">
        <ele>627.2</ele>
        <time>2015-11-11T13:11:31.678Z</time>
      </trkpt>
      <trkpt lat="43.64191" lon="2.38219">
        <ele>627.7</ele>
        <time>2015-11-11T13:11:32.652Z</time>
      </trkpt>
      <trkpt lat="43.642" lon="2.3822">
        <ele>628.8</ele>
        <time>2015-11-11T13:11:35.713Z</time>
      </trkpt>
      <trkpt lat="43.64203" lon="2.38221">
        <ele>628.7</ele>
        <time>2015-11-11T13:11:36.660Z</time>
      </trkpt>
      <trkpt lat="43.64209" lon="2.38223">
        <ele>628.8</ele>
        <time>2015-11-11T13:11:38.678Z</time>
      </trkpt>
      <trkpt lat="43.64212" lon="2.38223">
        <ele>628.7</ele>
        <time>2015-11-11T13:11:39.655Z</time>
      </trkpt>
      <trkpt lat="43.6422" lon="2.38224">
        <ele>628.3</ele>
        <time>2015-11-11T13:11:41.679Z</time>
      </trkpt>
      <trkpt lat="43.64224" lon="2.38224">
        <ele>628.4</ele>
        <time>2015-11-11T13:11:42.650Z</time>
      </trkpt>
      <trkpt lat="43.64231" lon="2.38226">
        <ele>627.8</ele>
        <time>2015-11-11T13:11:44.699Z</time>
      </trkpt>
      <trkpt lat="43.64235" lon="2.38226">
        <ele>627.5</ele>
        <time>2015-11-11T13:11:45.662Z</time>
      </trkpt>
      <trkpt lat="43.64243" lon="2.38226">
        <ele>626.2</ele>
        <time>2015-11-11T13:11:47.712Z</time>
      </trkpt>
      <trkpt lat="43.64246" lon="2.38225">
        <ele>625.6</ele>
        <time>2015-11-11T13:11:48.677Z</time>
      </trkpt>
      <trkpt lat="43.64252" lon="2.38223">
        <ele>624.3</ele>
        <time>2015-11-11T13:11:50.848Z</time>
      </trkpt>
      <trkpt lat="43.64256" lon="2.38221">
        <ele>623.8</ele>
        <time>2015-11-11T13:11:51.661Z</time>
      </trkpt>
      <trkpt lat="43.64263" lon="2.38215">
        <ele>622.6</ele>
        <time>2015-11-11T13:11:53.687Z</time>
      </trkpt>
      <trkpt lat="43.64267" lon="2.38211">
        <ele>622.1</ele>
        <time>2015-11-11T13:11:54.653Z</time>
      </trkpt>
      <trkpt lat="43.6427" lon="2.38207">
        <ele>621.6</ele>
        <time>2015-11-11T13:11:55.686Z</time>
      </trkpt>
      <trkpt lat="43.64274" lon="2.38204">
        <ele>621.2</ele>
        <time>2015-11-11T13:11:56.655Z</time>
      </trkpt>
      <trkpt lat="43.64279" lon="2.38197">
        <ele>620.4</ele>
        <time>2015-11-11T13:11:58.682Z</time>
      </trkpt>
      <trkpt lat="43.64282" lon="2.38195">
        <ele>620.1</ele>
        <time>2015-11-11T13:11:59.673Z</time>
      </trkpt>
      <trkpt lat="43.64288" lon="2.38188">
        <ele>619.1</ele>
        <time>2015-11-11T13:12:01.712Z</time>
      </trkpt>
      <trkpt lat="43.64291" lon="2.38184">
        <ele>618.7</ele>
        <time>2015-11-11T13:12:02.661Z</time>
      </trkpt>
      <trkpt lat="43.64294" lon="2.38179">
        <ele>618.4</ele>
        <time>2015-11-11T13:12:03.713Z</time>
      </trkpt>
      <trkpt lat="43.64298" lon="2.38175">
        <ele>618.1</ele>
        <time>2015-11-11T13:12:04.678Z</time>
      </trkpt>
      <trkpt lat="43.643" lon="2.3817">
        <ele>617.6</ele>
        <time>2015-11-11T13:12:05.680Z</time>
      </trkpt>
      <trkpt lat="43.64304" lon="2.38166">
        <ele>618.1</ele>
        <time>2015-11-11T13:12:06.654Z</time>
      </trkpt>
      <trkpt lat="43.64308" lon="2.38161">
        <ele>617.8</ele>
        <time>2015-11-11T13:12:07.686Z</time>
      </trkpt>
      <trkpt lat="43.64311" lon="2.38157">
        <ele>617.5</ele>
        <time>2015-11-11T13:12:08.652Z</time>
      </trkpt>
      <trkpt lat="43.64318" lon="2.38151">
        <ele>617.1</ele>
        <time>2015-11-11T13:12:10.750Z</time>
      </trkpt>
      <trkpt lat="43.64323" lon="2.38149">
        <ele>616.7</ele>
        <time>2015-11-11T13:12:11.673Z</time>
      </trkpt>
      <trkpt lat="43.6433" lon="2.38145">
        <ele>615.9</ele>
        <time>2015-11-11T13:12:13.686Z</time>
      </trkpt>
      <trkpt lat="43.64334" lon="2.38142">
        <ele>615.5</ele>
        <time>2015-11-11T13:12:14.653Z</time>
      </trkpt>
      <trkpt lat="43.64339" lon="2.38139">
        <ele>615.1</ele>
        <time>2015-11-11T13:12:15.685Z</time>
      </trkpt>
      <trkpt lat="43.64344" lon="2.38136">
        <ele>614.8</ele>
        <time>2015-11-11T13:12:16.656Z</time>
      </trkpt>
      <trkpt lat="43.64349" lon="2.38132">
        <ele>614.4</ele>
        <time>2015-11-11T13:12:17.687Z</time>
      </trkpt>
      <trkpt lat="43.64354" lon="2.38127">
        <ele>613.9</ele>
        <time>2015-11-11T13:12:18.661Z</time>
      </trkpt>
      <trkpt lat="43.64358" lon="2.38121">
        <ele>613.5</ele>
        <time>2015-11-11T13:12:19.712Z</time>
      </trkpt>
      <trkpt lat="43.64362" lon="2.38115">
        <ele>613</ele>
        <time>2015-11-11T13:12:20.660Z</time>
      </trkpt>
      <trkpt lat="43.64366" lon="2.3811">
        <ele>612.4</ele>
        <time>2015-11-11T13:12:21.712Z</time>
      </trkpt>
      <trkpt lat="43.6437" lon="2.38105">
        <ele>611.9</ele>
        <time>2015-11-11T13:12:22.662Z</time>
      </trkpt>
      <trkpt lat="43.64377" lon="2.38103">
        <ele>610.5</ele>
        <time>2015-11-11T13:12:24.679Z</time>
      </trkpt>
      <trkpt lat="43.6438" lon="2.38103">
        <ele>610</ele>
        <time>2015-11-11T13:12:25.655Z</time>
      </trkpt>
      <trkpt lat="43.64387" lon="2.3811">
        <ele>608.2</ele>
        <time>2015-11-11T13:12:28.681Z</time>
      </trkpt>
      <trkpt lat="43.64389" lon="2.38114">
        <ele>607.8</ele>
        <time>2015-11-11T13:12:29.651Z</time>
      </trkpt>
      <trkpt lat="43.64395" lon="2.38123">
        <ele>607</ele>
        <time>2015-11-11T13:12:31.713Z</time>
      </trkpt>
      <trkpt lat="43.64397" lon="2.38128">
        <ele>606.8</ele>
        <time>2015-11-11T13:12:32.660Z</time>
      </trkpt>
      <trkpt lat="43.644" lon="2.38132">
        <ele>606.5</ele>
        <time>2015-11-11T13:12:33.701Z</time>
      </trkpt>
      <trkpt lat="43.64404" lon="2.38137">
        <ele>606.3</ele>
        <time>2015-11-11T13:12:34.663Z</time>
      </trkpt>
      <trkpt lat="43.64407" lon="2.38142">
        <ele>606.1</ele>
        <time>2015-11-11T13:12:35.712Z</time>
      </trkpt>
      <trkpt lat="43.6441" lon="2.38147">
        <ele>605.9</ele>
        <time>2015-11-11T13:12:37.091Z</time>
      </trkpt>
      <trkpt lat="43.64416" lon="2.38155">
        <ele>605.4</ele>
        <time>2015-11-11T13:12:38.676Z</time>
      </trkpt>
      <trkpt lat="43.64419" lon="2.3816">
        <ele>605.2</ele>
        <time>2015-11-11T13:12:39.655Z</time>
      </trkpt>
      <trkpt lat="43.64422" lon="2.38165">
        <ele>605.1</ele>
        <time>2015-11-11T13:12:40.680Z</time>
      </trkpt>
      <trkpt lat="43.64425" lon="2.3817">
        <ele>604.9</ele>
        <time>2015-11-11T13:12:41.658Z</time>
      </trkpt>
      <trkpt lat="43.64428" lon="2.38175">
        <ele>604.7</ele>
        <time>2015-11-11T13:12:42.680Z</time>
      </trkpt>
      <trkpt lat="43.64431" lon="2.3818">
        <ele>604.5</ele>
        <time>2015-11-11T13:12:43.656Z</time>
      </trkpt>
      <trkpt lat="43.64437" lon="2.38188">
        <ele>604.1</ele>
        <time>2015-11-11T13:12:45.699Z</time>
      </trkpt>
      <trkpt lat="43.6444" lon="2.38193">
        <ele>604</ele>
        <time>2015-11-11T13:12:46.678Z</time>
      </trkpt>
      <trkpt lat="43.64446" lon="2.38201">
        <ele>603.6</ele>
        <time>2015-11-11T13:12:49.040Z</time>
      </trkpt>
      <trkpt lat="43.64449" lon="2.38205">
        <ele>603.3</ele>
        <time>2015-11-11T13:12:49.664Z</time>
      </trkpt>
      <trkpt lat="43.64453" lon="2.38209">
        <ele>603</ele>
        <time>2015-11-11T13:12:50.680Z</time>
      </trkpt>
      <trkpt lat="43.64457" lon="2.38212">
        <ele>602.7</ele>
        <time>2015-11-11T13:12:51.653Z</time>
      </trkpt>
      <trkpt lat="43.64461" lon="2.38216">
        <ele>602.3</ele>
        <time>2015-11-11T13:12:52.682Z</time>
      </trkpt>
      <trkpt lat="43.64466" lon="2.38221">
        <ele>602</ele>
        <time>2015-11-11T13:12:53.673Z</time>
      </trkpt>
      <trkpt lat="43.6447" lon="2.38224">
        <ele>601.7</ele>
        <time>2015-11-11T13:12:54.702Z</time>
      </trkpt>
      <trkpt lat="43.64474" lon="2.38228">
        <ele>601.3</ele>
        <time>2015-11-11T13:12:55.673Z</time>
      </trkpt>
      <trkpt lat="43.64477" lon="2.38234">
        <ele>601</ele>
        <time>2015-11-11T13:12:56.733Z</time>
      </trkpt>
      <trkpt lat="43.64481" lon="2.38239">
        <ele>600.7</ele>
        <time>2015-11-11T13:12:57.673Z</time>
      </trkpt>
      <trkpt lat="43.64485" lon="2.38245">
        <ele>600.3</ele>
        <time>2015-11-11T13:12:58.704Z</time>
      </trkpt>
      <trkpt lat="43.64489" lon="2.38252">
        <ele>600.1</ele>
        <time>2015-11-11T13:12:59.675Z</time>
      </trkpt>
      <trkpt lat="43.64492" lon="2.38259">
        <ele>599.7</ele>
        <time>2015-11-11T13:13:00.680Z</time>
      </trkpt>
      <trkpt lat="43.64496" lon="2.38267">
        <ele>599.4</ele>
        <time>2015-11-11T13:13:01.656Z</time>
      </trkpt>
      <trkpt lat="43.645" lon="2.38274">
        <ele>599.1</ele>
        <time>2015-11-11T13:13:02.681Z</time>
      </trkpt>
      <trkpt lat="43.64504" lon="2.38282">
        <ele>598.9</ele>
        <time>2015-11-11T13:13:03.657Z</time>
      </trkpt>
      <trkpt lat="43.64509" lon="2.38291">
        <ele>598.6</ele>
        <time>2015-11-11T13:13:04.682Z</time>
      </trkpt>
      <trkpt lat="43.64513" lon="2.383">
        <ele>598.3</ele>
        <time>2015-11-11T13:13:05.654Z</time>
      </trkpt>
      <trkpt lat="43.64518" lon="2.38308">
        <ele>598</ele>
        <time>2015-11-11T13:13:06.785Z</time>
      </trkpt>
      <trkpt lat="43.64523" lon="2.38316">
        <ele>597.6</ele>
        <time>2015-11-11T13:13:07.655Z</time>
      </trkpt>
      <trkpt lat="43.64529" lon="2.38325">
        <ele>597.2</ele>
        <time>2015-11-11T13:13:08.678Z</time>
      </trkpt>
      <trkpt lat="43.64534" lon="2.38334">
        <ele>596.9</ele>
        <time>2015-11-11T13:13:09.657Z</time>
      </trkpt>
      <trkpt lat="43.6454" lon="2.38343">
        <ele>596.5</ele>
        <time>2015-11-11T13:13:11.012Z</time>
      </trkpt>
      <trkpt lat="43.64546" lon="2.38351">
        <ele>596.2</ele>
        <time>2015-11-11T13:13:11.655Z</time>
      </trkpt>
      <trkpt lat="43.64552" lon="2.38359">
        <ele>595.7</ele>
        <time>2015-11-11T13:13:12.700Z</time>
      </trkpt>
      <trkpt lat="43.64559" lon="2.38367">
        <ele>595.4</ele>
        <time>2015-11-11T13:13:13.678Z</time>
      </trkpt>
      <trkpt lat="43.64566" lon="2.38374">
        <ele>595</ele>
        <time>2015-11-11T13:13:14.678Z</time>
      </trkpt>
      <trkpt lat="43.64574" lon="2.3838">
        <ele>594.6</ele>
        <time>2015-11-11T13:13:15.652Z</time>
      </trkpt>
      <trkpt lat="43.64574" lon="2.3838">
        <ele>594.6</ele>
        <time>2015-11-11T13:13:15.690Z</time>
      </trkpt>
      <trkpt lat="43.64583" lon="2.38386">
        <ele>594.2</ele>
        <time>2015-11-11T13:13:16.656Z</time>
      </trkpt>
      <trkpt lat="43.64583" lon="2.38386">
        <ele>594.2</ele>
        <time>2015-11-11T13:13:16.685Z</time>
      </trkpt>
      <trkpt lat="43.64591" lon="2.38391">
        <ele>593.9</ele>
        <time>2015-11-11T13:13:17.656Z</time>
      </trkpt>
      <trkpt lat="43.64591" lon="2.38391">
        <ele>593.9</ele>
        <time>2015-11-11T13:13:17.700Z</time>
      </trkpt>
      <trkpt lat="43.646" lon="2.38396">
        <ele>593.5</ele>
        <time>2015-11-11T13:13:18.653Z</time>
      </trkpt>
      <trkpt lat="43.646" lon="2.38396">
        <ele>593.5</ele>
        <time>2015-11-11T13:13:18.684Z</time>
      </trkpt>
      <trkpt lat="43.64609" lon="2.38401">
        <ele>593.2</ele>
        <time>2015-11-11T13:13:19.674Z</time>
      </trkpt>
      <trkpt lat="43.64609" lon="2.38401">
        <ele>593.2</ele>
        <time>2015-11-11T13:13:19.755Z</time>
      </trkpt>
      <trkpt lat="43.64618" lon="2.38405">
        <ele>592.9</ele>
        <time>2015-11-11T13:13:20.661Z</time>
      </trkpt>
      <trkpt lat="43.64618" lon="2.38405">
        <ele>592.9</ele>
        <time>2015-11-11T13:13:21.090Z</time>
      </trkpt>
      <trkpt lat="43.64627" lon="2.38408">
        <ele>592.5</ele>
        <time>2015-11-11T13:13:21.653Z</time>
      </trkpt>
      <trkpt lat="43.64627" lon="2.38408">
        <ele>592.5</ele>
        <time>2015-11-11T13:13:21.691Z</time>
      </trkpt>
      <trkpt lat="43.64636" lon="2.38411">
        <ele>592.1</ele>
        <time>2015-11-11T13:13:22.654Z</time>
      </trkpt>
      <trkpt lat="43.64644" lon="2.38411">
        <ele>591.8</ele>
        <time>2015-11-11T13:13:23.686Z</time>
      </trkpt>
      <trkpt lat="43.64653" lon="2.3841">
        <ele>591.5</ele>
        <time>2015-11-11T13:13:24.651Z</time>
      </trkpt>
      <trkpt lat="43.64661" lon="2.38409">
        <ele>591.3</ele>
        <time>2015-11-11T13:13:25.689Z</time>
      </trkpt>
      <trkpt lat="43.6467" lon="2.38406">
        <ele>591</ele>
        <time>2015-11-11T13:13:26.652Z</time>
      </trkpt>
      <trkpt lat="43.64678" lon="2.38403">
        <ele>590.6</ele>
        <time>2015-11-11T13:13:27.714Z</time>
      </trkpt>
      <trkpt lat="43.64685" lon="2.38398">
        <ele>590.1</ele>
        <time>2015-11-11T13:13:28.655Z</time>
      </trkpt>
      <trkpt lat="43.64694" lon="2.38394">
        <ele>589.6</ele>
        <time>2015-11-11T13:13:29.688Z</time>
      </trkpt>
      <trkpt lat="43.64702" lon="2.38389">
        <ele>589.2</ele>
        <time>2015-11-11T13:13:30.653Z</time>
      </trkpt>
      <trkpt lat="43.64702" lon="2.38389">
        <ele>589.2</ele>
        <time>2015-11-11T13:13:30.679Z</time>
      </trkpt>
      <trkpt lat="43.6471" lon="2.38384">
        <ele>588.8</ele>
        <time>2015-11-11T13:13:31.657Z</time>
      </trkpt>
      <trkpt lat="43.64718" lon="2.3838">
        <ele>588.4</ele>
        <time>2015-11-11T13:13:32.681Z</time>
      </trkpt>
      <trkpt lat="43.64727" lon="2.38374">
        <ele>587.9</ele>
        <time>2015-11-11T13:13:33.653Z</time>
      </trkpt>
      <trkpt lat="43.64727" lon="2.38374">
        <ele>587.9</ele>
        <time>2015-11-11T13:13:33.687Z</time>
      </trkpt>
      <trkpt lat="43.64736" lon="2.3837">
        <ele>587.2</ele>
        <time>2015-11-11T13:13:34.664Z</time>
      </trkpt>
      <trkpt lat="43.64736" lon="2.3837">
        <ele>587.2</ele>
        <time>2015-11-11T13:13:34.719Z</time>
      </trkpt>
      <trkpt lat="43.64744" lon="2.38364">
        <ele>586.6</ele>
        <time>2015-11-11T13:13:35.673Z</time>
      </trkpt>
      <trkpt lat="43.64744" lon="2.38364">
        <ele>586.6</ele>
        <time>2015-11-11T13:13:35.755Z</time>
      </trkpt>
      <trkpt lat="43.64752" lon="2.38359">
        <ele>586.1</ele>
        <time>2015-11-11T13:13:36.661Z</time>
      </trkpt>
      <trkpt lat="43.64752" lon="2.38359">
        <ele>586.1</ele>
        <time>2015-11-11T13:13:36.716Z</time>
      </trkpt>
      <trkpt lat="43.64761" lon="2.38354">
        <ele>585.2</ele>
        <time>2015-11-11T13:13:37.673Z</time>
      </trkpt>
      <trkpt lat="43.64761" lon="2.38354">
        <ele>585.2</ele>
        <time>2015-11-11T13:13:37.739Z</time>
      </trkpt>
      <trkpt lat="43.6477" lon="2.38351">
        <ele>584.6</ele>
        <time>2015-11-11T13:13:38.661Z</time>
      </trkpt>
      <trkpt lat="43.64779" lon="2.38349">
        <ele>583.9</ele>
        <time>2015-11-11T13:13:39.684Z</time>
      </trkpt>
      <trkpt lat="43.64787" lon="2.38347">
        <ele>583.1</ele>
        <time>2015-11-11T13:13:40.652Z</time>
      </trkpt>
      <trkpt lat="43.64796" lon="2.38349">
        <ele>582.4</ele>
        <time>2015-11-11T13:13:41.695Z</time>
      </trkpt>
      <trkpt lat="43.64805" lon="2.38353">
        <ele>581.8</ele>
        <time>2015-11-11T13:13:42.654Z</time>
      </trkpt>
      <trkpt lat="43.64805" lon="2.38353">
        <ele>581.8</ele>
        <time>2015-11-11T13:13:42.683Z</time>
      </trkpt>
      <trkpt lat="43.64814" lon="2.38359">
        <ele>581.1</ele>
        <time>2015-11-11T13:13:43.658Z</time>
      </trkpt>
      <trkpt lat="43.64814" lon="2.38359">
        <ele>581.1</ele>
        <time>2015-11-11T13:13:43.699Z</time>
      </trkpt>
      <trkpt lat="43.64821" lon="2.38367">
        <ele>580.3</ele>
        <time>2015-11-11T13:13:44.653Z</time>
      </trkpt>
      <trkpt lat="43.64821" lon="2.38367">
        <ele>580.3</ele>
        <time>2015-11-11T13:13:44.710Z</time>
      </trkpt>
      <trkpt lat="43.64828" lon="2.38376">
        <ele>579.5</ele>
        <time>2015-11-11T13:13:45.673Z</time>
      </trkpt>
      <trkpt lat="43.64828" lon="2.38376">
        <ele>579.5</ele>
        <time>2015-11-11T13:13:45.728Z</time>
      </trkpt>
      <trkpt lat="43.64834" lon="2.38386">
        <ele>578.9</ele>
        <time>2015-11-11T13:13:46.663Z</time>
      </trkpt>
      <trkpt lat="43.64838" lon="2.38397">
        <ele>578.3</ele>
        <time>2015-11-11T13:13:47.714Z</time>
      </trkpt>
      <trkpt lat="43.6484" lon="2.38409">
        <ele>577.7</ele>
        <time>2015-11-11T13:13:48.662Z</time>
      </trkpt>
      <trkpt lat="43.64843" lon="2.38421">
        <ele>577.4</ele>
        <time>2015-11-11T13:13:49.686Z</time>
      </trkpt>
      <trkpt lat="43.64844" lon="2.38432">
        <ele>577</ele>
        <time>2015-11-11T13:13:50.652Z</time>
      </trkpt>
      <trkpt lat="43.64844" lon="2.38442">
        <ele>576.6</ele>
        <time>2015-11-11T13:13:51.686Z</time>
      </trkpt>
      <trkpt lat="43.64848" lon="2.38452">
        <ele>576.4</ele>
        <time>2015-11-11T13:13:52.655Z</time>
      </trkpt>
      <trkpt lat="43.64848" lon="2.38463">
        <ele>575.7</ele>
        <time>2015-11-11T13:13:54.679Z</time>
      </trkpt>
      <trkpt lat="43.64847" lon="2.38468">
        <ele>575.5</ele>
        <time>2015-11-11T13:13:55.673Z</time>
      </trkpt>
      <trkpt lat="43.64841" lon="2.38475">
        <ele>574.9</ele>
        <time>2015-11-11T13:13:57.712Z</time>
      </trkpt>
      <trkpt lat="43.64838" lon="2.38478">
        <ele>574.4</ele>
        <time>2015-11-11T13:13:58.663Z</time>
      </trkpt>
      <trkpt lat="43.6483" lon="2.38481">
        <ele>573.1</ele>
        <time>2015-11-11T13:14:02.094Z</time>
      </trkpt>
      <trkpt lat="43.64828" lon="2.38482">
        <ele>572.6</ele>
        <time>2015-11-11T13:14:02.654Z</time>
      </trkpt>
      <trkpt lat="43.64824" lon="2.3849">
        <ele>571.3</ele>
        <time>2015-11-11T13:14:05.679Z</time>
      </trkpt>
      <trkpt lat="43.64824" lon="2.38493">
        <ele>570.8</ele>
        <time>2015-11-11T13:14:06.653Z</time>
      </trkpt>
      <trkpt lat="43.64821" lon="2.38501">
        <ele>569.9</ele>
        <time>2015-11-11T13:14:08.699Z</time>
      </trkpt>
      <trkpt lat="43.6482" lon="2.38505">
        <ele>569.5</ele>
        <time>2015-11-11T13:14:09.673Z</time>
      </trkpt>
      <trkpt lat="43.64816" lon="2.38513">
        <ele>568.6</ele>
        <time>2015-11-11T13:14:11.679Z</time>
      </trkpt>
      <trkpt lat="43.64814" lon="2.38516">
        <ele>568.2</ele>
        <time>2015-11-11T13:14:12.654Z</time>
      </trkpt>
      <trkpt lat="43.64807" lon="2.3852">
        <ele>567</ele>
        <time>2015-11-11T13:14:15.699Z</time>
      </trkpt>
      <trkpt lat="43.64804" lon="2.38522">
        <ele>566.7</ele>
        <time>2015-11-11T13:14:16.663Z</time>
      </trkpt>
      <trkpt lat="43.64798" lon="2.38524">
        <ele>565.9</ele>
        <time>2015-11-11T13:14:18.699Z</time>
      </trkpt>
      <trkpt lat="43.64795" lon="2.38526">
        <ele>565.7</ele>
        <time>2015-11-11T13:14:19.674Z</time>
      </trkpt>
      <trkpt lat="43.64788" lon="2.38529">
        <ele>564.9</ele>
        <time>2015-11-11T13:14:22.703Z</time>
      </trkpt>
      <trkpt lat="43.64784" lon="2.3853">
        <ele>564.6</ele>
        <time>2015-11-11T13:14:23.673Z</time>
      </trkpt>
      <trkpt lat="43.64778" lon="2.38532">
        <ele>563.8</ele>
        <time>2015-11-11T13:14:26.687Z</time>
      </trkpt>
      <trkpt lat="43.64775" lon="2.38535">
        <ele>563.5</ele>
        <time>2015-11-11T13:14:27.657Z</time>
      </trkpt>
      <trkpt lat="43.64768" lon="2.38541">
        <ele>562.3</ele>
        <time>2015-11-11T13:14:30.700Z</time>
      </trkpt>
      <trkpt lat="43.64767" lon="2.38543">
        <ele>561.8</ele>
        <time>2015-11-11T13:14:31.661Z</time>
      </trkpt>
      <trkpt lat="43.6476" lon="2.38548">
        <ele>560.1</ele>
        <time>2015-11-11T13:14:36.678Z</time>
      </trkpt>
      <trkpt lat="43.64758" lon="2.38548">
        <ele>559.7</ele>
        <time>2015-11-11T13:14:37.658Z</time>
      </trkpt>
      <trkpt lat="43.64758" lon="2.38548">
        <ele>559.7</ele>
        <time>2015-11-11T13:14:37.691Z</time>
      </trkpt>
      <trkpt lat="43.64758" lon="2.38549">
        <ele>559.3</ele>
        <time>2015-11-11T13:14:38.653Z</time>
      </trkpt>
      <trkpt lat="43.6475" lon="2.38554">
        <ele>557.1</ele>
        <time>2015-11-11T13:14:47.699Z</time>
      </trkpt>
      <trkpt lat="43.64749" lon="2.38554">
        <ele>557.5</ele>
        <time>2015-11-11T13:14:48.661Z</time>
      </trkpt>
      <trkpt lat="43.64749" lon="2.38554">
        <ele>557.5</ele>
        <time>2015-11-11T13:14:52.111Z</time>
      </trkpt>
      <trkpt lat="43.64746" lon="2.38557">
        <ele>558.5</ele>
        <time>2015-11-11T13:14:52.656Z</time>
      </trkpt>
      <trkpt lat="43.64742" lon="2.38558">
        <ele>558.6</ele>
        <time>2015-11-11T13:14:55.678Z</time>
      </trkpt>
      <trkpt lat="43.64741" lon="2.38558">
        <ele>558.6</ele>
        <time>2015-11-11T13:14:56.652Z</time>
      </trkpt>
      <trkpt lat="43.64732" lon="2.38558">
        <ele>564.6</ele>
        <time>2015-11-11T13:15:19.678Z</time>
      </trkpt>
      <trkpt lat="43.64731" lon="2.38558">
        <ele>564.6</ele>
        <time>2015-11-11T13:15:20.651Z</time>
      </trkpt>
      <trkpt lat="43.64723" lon="2.38553">
        <ele>566.4</ele>
        <time>2015-11-11T13:15:33.680Z</time>
      </trkpt>
      <trkpt lat="43.64723" lon="2.38553">
        <ele>566.5</ele>
        <time>2015-11-11T13:15:34.655Z</time>
      </trkpt>
      <trkpt lat="43.64716" lon="2.38545">
        <ele>569.5</ele>
        <time>2015-11-11T13:15:55.715Z</time>
      </trkpt>
      <trkpt lat="43.64715" lon="2.38546">
        <ele>569.6</ele>
        <time>2015-11-11T13:15:56.674Z</time>
      </trkpt>
      <trkpt lat="43.64707" lon="2.3855">
        <ele>569.3</ele>
        <time>2015-11-11T13:16:00.685Z</time>
      </trkpt>
      <trkpt lat="43.64704" lon="2.3855">
        <ele>569.1</ele>
        <time>2015-11-11T13:16:01.652Z</time>
      </trkpt>
      <trkpt lat="43.64696" lon="2.38554">
        <ele>568.9</ele>
        <time>2015-11-11T13:16:03.678Z</time>
      </trkpt>
      <trkpt lat="43.64693" lon="2.38556">
        <ele>568.9</ele>
        <time>2015-11-11T13:16:04.675Z</time>
      </trkpt>
      <trkpt lat="43.64686" lon="2.38562">
        <ele>568.8</ele>
        <time>2015-11-11T13:16:08.685Z</time>
      </trkpt>
      <trkpt lat="43.64685" lon="2.38564">
        <ele>569</ele>
        <time>2015-11-11T13:16:09.653Z</time>
      </trkpt>
      <trkpt lat="43.64678" lon="2.38562">
        <ele>569</ele>
        <time>2015-11-11T13:16:15.702Z</time>
      </trkpt>
      <trkpt lat="43.64677" lon="2.38562">
        <ele>569</ele>
        <time>2015-11-11T13:16:16.693Z</time>
      </trkpt>
      <trkpt lat="43.64674" lon="2.38561">
        <ele>569.2</ele>
        <time>2015-11-11T13:16:38.675Z</time>
      </trkpt>
      <trkpt lat="43.64679" lon="2.38556">
        <ele>569.8</ele>
        <time>2015-11-11T13:16:39.650Z</time>
      </trkpt>
      <trkpt lat="43.64671" lon="2.38554">
        <ele>569.7</ele>
        <time>2015-11-11T13:16:52.689Z</time>
      </trkpt>
      <trkpt lat="43.64668" lon="2.38555">
        <ele>569.5</ele>
        <time>2015-11-11T13:16:53.653Z</time>
      </trkpt>
      <trkpt lat="43.6466" lon="2.38559">
        <ele>569.7</ele>
        <time>2015-11-11T13:16:57.701Z</time>
      </trkpt>
      <trkpt lat="43.64657" lon="2.38561">
        <ele>569.9</ele>
        <time>2015-11-11T13:16:58.680Z</time>
      </trkpt>
      <trkpt lat="43.64652" lon="2.3857">
        <ele>570.6</ele>
        <time>2015-11-11T13:17:01.677Z</time>
      </trkpt>
      <trkpt lat="43.6465" lon="2.3857">
        <ele>570.7</ele>
        <time>2015-11-11T13:17:02.651Z</time>
      </trkpt>
      <trkpt lat="43.64644" lon="2.38569">
        <ele>571.6</ele>
        <time>2015-11-11T13:17:05.698Z</time>
      </trkpt>
      <trkpt lat="43.64643" lon="2.38568">
        <ele>571.9</ele>
        <time>2015-11-11T13:17:06.687Z</time>
      </trkpt>
      <trkpt lat="43.64636" lon="2.38561">
        <ele>573.3</ele>
        <time>2015-11-11T13:17:14.685Z</time>
      </trkpt>
      <trkpt lat="43.64635" lon="2.3856">
        <ele>573.2</ele>
        <time>2015-11-11T13:17:15.653Z</time>
      </trkpt>
      <trkpt lat="43.64628" lon="2.38556">
        <ele>572.7</ele>
        <time>2015-11-11T13:17:36.673Z</time>
      </trkpt>
      <trkpt lat="43.64625" lon="2.38559">
        <ele>572.8</ele>
        <time>2015-11-11T13:17:37.653Z</time>
      </trkpt>
      <trkpt lat="43.64617" lon="2.38565">
        <ele>572.5</ele>
        <time>2015-11-11T13:17:42.677Z</time>
      </trkpt>
      <trkpt lat="43.64615" lon="2.38564">
        <ele>572.5</ele>
        <time>2015-11-11T13:17:43.661Z</time>
      </trkpt>
      <trkpt lat="43.64613" lon="2.38564">
        <ele>572.5</ele>
        <time>2015-11-11T13:17:44.687Z</time>
      </trkpt>
      <trkpt lat="43.64612" lon="2.38564">
        <ele>572.4</ele>
        <time>2015-11-11T13:17:45.653Z</time>
      </trkpt>
      <trkpt lat="43.64606" lon="2.38563">
        <ele>571.7</ele>
        <time>2015-11-11T13:17:54.678Z</time>
      </trkpt>
      <trkpt lat="43.64605" lon="2.38563">
        <ele>571.8</ele>
        <time>2015-11-11T13:17:55.652Z</time>
      </trkpt>
      <trkpt lat="43.64598" lon="2.38557">
        <ele>573.2</ele>
        <time>2015-11-11T13:18:11.677Z</time>
      </trkpt>
      <trkpt lat="43.64597" lon="2.38557">
        <ele>573.3</ele>
        <time>2015-11-11T13:18:12.652Z</time>
      </trkpt>
      <trkpt lat="43.64589" lon="2.38557">
        <ele>573.8</ele>
        <time>2015-11-11T13:18:24.102Z</time>
      </trkpt>
      <trkpt lat="43.64588" lon="2.38556">
        <ele>573.7</ele>
        <time>2015-11-11T13:18:24.650Z</time>
      </trkpt>
      <trkpt lat="43.64582" lon="2.38547">
        <ele>574.5</ele>
        <time>2015-11-11T13:18:32.698Z</time>
      </trkpt>
      <trkpt lat="43.64581" lon="2.38546">
        <ele>574.7</ele>
        <time>2015-11-11T13:18:33.673Z</time>
      </trkpt>
      <trkpt lat="43.64579" lon="2.38535">
        <ele>575.4</ele>
        <time>2015-11-11T13:18:40.680Z</time>
      </trkpt>
      <trkpt lat="43.64578" lon="2.38534">
        <ele>575.4</ele>
        <time>2015-11-11T13:18:41.652Z</time>
      </trkpt>
      <trkpt lat="43.64578" lon="2.38532">
        <ele>575.5</ele>
        <time>2015-11-11T13:18:42.677Z</time>
      </trkpt>
      <trkpt lat="43.64577" lon="2.38531">
        <ele>575.4</ele>
        <time>2015-11-11T13:18:43.673Z</time>
      </trkpt>
      <trkpt lat="43.64571" lon="2.38523">
        <ele>575.3</ele>
        <time>2015-11-11T13:18:52.676Z</time>
      </trkpt>
      <trkpt lat="43.6457" lon="2.38523">
        <ele>575.2</ele>
        <time>2015-11-11T13:18:53.651Z</time>
      </trkpt>
      <trkpt lat="43.64571" lon="2.38535">
        <ele>575.5</ele>
        <time>2015-11-11T13:19:04.679Z</time>
      </trkpt>
      <trkpt lat="43.64571" lon="2.38536">
        <ele>575.6</ele>
        <time>2015-11-11T13:19:05.657Z</time>
      </trkpt>
      <trkpt lat="43.64575" lon="2.38547">
        <ele>577.2</ele>
        <time>2015-11-11T13:19:32.715Z</time>
      </trkpt>
      <trkpt lat="43.64575" lon="2.38553">
        <ele>577.2</ele>
        <time>2015-11-11T13:19:33.660Z</time>
      </trkpt>
      <trkpt lat="43.64575" lon="2.38562">
        <ele>577.1</ele>
        <time>2015-11-11T13:19:35.698Z</time>
      </trkpt>
      <trkpt lat="43.64575" lon="2.38566">
        <ele>577.2</ele>
        <time>2015-11-11T13:19:36.672Z</time>
      </trkpt>
      <trkpt lat="43.64574" lon="2.38578">
        <ele>577.5</ele>
        <time>2015-11-11T13:19:39.685Z</time>
      </trkpt>
      <trkpt lat="43.64574" lon="2.38582">
        <ele>577.7</ele>
        <time>2015-11-11T13:19:40.658Z</time>
      </trkpt>
      <trkpt lat="43.64575" lon="2.38594">
        <ele>578.1</ele>
        <time>2015-11-11T13:19:43.677Z</time>
      </trkpt>
      <trkpt lat="43.64575" lon="2.38598">
        <ele>578.2</ele>
        <time>2015-11-11T13:19:44.657Z</time>
      </trkpt>
      <trkpt lat="43.64575" lon="2.38606">
        <ele>578.5</ele>
        <time>2015-11-11T13:19:46.713Z</time>
      </trkpt>
      <trkpt lat="43.64575" lon="2.3861">
        <ele>578.7</ele>
        <time>2015-11-11T13:19:47.660Z</time>
      </trkpt>
      <trkpt lat="43.64574" lon="2.38618">
        <ele>578.9</ele>
        <time>2015-11-11T13:19:49.698Z</time>
      </trkpt>
      <trkpt lat="43.64574" lon="2.38622">
        <ele>579</ele>
        <time>2015-11-11T13:19:50.651Z</time>
      </trkpt>
      <trkpt lat="43.64573" lon="2.38632">
        <ele>579.6</ele>
        <time>2015-11-11T13:19:52.679Z</time>
      </trkpt>
      <trkpt lat="43.64573" lon="2.38637">
        <ele>579.9</ele>
        <time>2015-11-11T13:19:53.652Z</time>
      </trkpt>
      <trkpt lat="43.64573" lon="2.38645">
        <ele>580.4</ele>
        <time>2015-11-11T13:19:55.679Z</time>
      </trkpt>
      <trkpt lat="43.64572" lon="2.3865">
        <ele>580.7</ele>
        <time>2015-11-11T13:19:56.654Z</time>
      </trkpt>
      <trkpt lat="43.64571" lon="2.38659">
        <ele>581.2</ele>
        <time>2015-11-11T13:19:58.717Z</time>
      </trkpt>
      <trkpt lat="43.64571" lon="2.38665">
        <ele>581.5</ele>
        <time>2015-11-11T13:19:59.660Z</time>
      </trkpt>
      <trkpt lat="43.64572" lon="2.38675">
        <ele>582.1</ele>
        <time>2015-11-11T13:20:01.677Z</time>
      </trkpt>
      <trkpt lat="43.64573" lon="2.3868">
        <ele>582.4</ele>
        <time>2015-11-11T13:20:02.656Z</time>
      </trkpt>
      <trkpt lat="43.64576" lon="2.3869">
        <ele>583.3</ele>
        <time>2015-11-11T13:20:05.676Z</time>
      </trkpt>
      <trkpt lat="43.64576" lon="2.38693">
        <ele>583.5</ele>
        <time>2015-11-11T13:20:06.657Z</time>
      </trkpt>
      <trkpt lat="43.64575" lon="2.38706">
        <ele>584.4</ele>
        <time>2015-11-11T13:20:09.715Z</time>
      </trkpt>
      <trkpt lat="43.64575" lon="2.38709">
        <ele>584.9</ele>
        <time>2015-11-11T13:20:10.675Z</time>
      </trkpt>
      <trkpt lat="43.64573" lon="2.38721">
        <ele>586</ele>
        <time>2015-11-11T13:20:13.680Z</time>
      </trkpt>
      <trkpt lat="43.64572" lon="2.38724">
        <ele>586.4</ele>
        <time>2015-11-11T13:20:14.655Z</time>
      </trkpt>
      <trkpt lat="43.64569" lon="2.38731">
        <ele>587.6</ele>
        <time>2015-11-11T13:20:18.691Z</time>
      </trkpt>
      <trkpt lat="43.64566" lon="2.38733">
        <ele>587.6</ele>
        <time>2015-11-11T13:20:19.652Z</time>
      </trkpt>
      <trkpt lat="43.64562" lon="2.38743">
        <ele>587.8</ele>
        <time>2015-11-11T13:20:24.689Z</time>
      </trkpt>
      <trkpt lat="43.64562" lon="2.38744">
        <ele>588</ele>
        <time>2015-11-11T13:20:25.652Z</time>
      </trkpt>
      <trkpt lat="43.64561" lon="2.38756">
        <ele>589.1</ele>
        <time>2015-11-11T13:20:30.746Z</time>
      </trkpt>
      <trkpt lat="43.6456" lon="2.38759">
        <ele>589.3</ele>
        <time>2015-11-11T13:20:31.660Z</time>
      </trkpt>
      <trkpt lat="43.64554" lon="2.38768">
        <ele>589.7</ele>
        <time>2015-11-11T13:20:34.713Z</time>
      </trkpt>
      <trkpt lat="43.64552" lon="2.38771">
        <ele>589.9</ele>
        <time>2015-11-11T13:20:35.660Z</time>
      </trkpt>
      <trkpt lat="43.64548" lon="2.38781">
        <ele>590.7</ele>
        <time>2015-11-11T13:20:39.677Z</time>
      </trkpt>
      <trkpt lat="43.64548" lon="2.38783">
        <ele>590.8</ele>
        <time>2015-11-11T13:20:40.653Z</time>
      </trkpt>
      <trkpt lat="43.64545" lon="2.38787">
        <ele>590.9</ele>
        <time>2015-11-11T13:20:44.711Z</time>
      </trkpt>
      <trkpt lat="43.64544" lon="2.38788">
        <ele>591</ele>
        <time>2015-11-11T13:20:45.660Z</time>
      </trkpt>
      <trkpt lat="43.64538" lon="2.38794">
        <ele>591.3</ele>
        <time>2015-11-11T13:20:52.038Z</time>
      </trkpt>
      <trkpt lat="43.64538" lon="2.38795">
        <ele>591.2</ele>
        <time>2015-11-11T13:20:52.654Z</time>
      </trkpt>
      <trkpt lat="43.64536" lon="2.38806">
        <ele>591.9</ele>
        <time>2015-11-11T13:20:57.699Z</time>
      </trkpt>
      <trkpt lat="43.64535" lon="2.38809">
        <ele>592</ele>
        <time>2015-11-11T13:20:58.674Z</time>
      </trkpt>
      <trkpt lat="43.64532" lon="2.38821">
        <ele>592.7</ele>
        <time>2015-11-11T13:21:02.695Z</time>
      </trkpt>
      <trkpt lat="43.6453" lon="2.38823">
        <ele>592.8</ele>
        <time>2015-11-11T13:21:03.653Z</time>
      </trkpt>
      <trkpt lat="43.64526" lon="2.38832">
        <ele>593</ele>
        <time>2015-11-11T13:21:06.712Z</time>
      </trkpt>
      <trkpt lat="43.64525" lon="2.38834">
        <ele>593</ele>
        <time>2015-11-11T13:21:07.660Z</time>
      </trkpt>
      <trkpt lat="43.64518" lon="2.38842">
        <ele>593.5</ele>
        <time>2015-11-11T13:21:11.698Z</time>
      </trkpt>
      <trkpt lat="43.64517" lon="2.38844">
        <ele>593.6</ele>
        <time>2015-11-11T13:21:12.672Z</time>
      </trkpt>
      <trkpt lat="43.64517" lon="2.38854">
        <ele>594.1</ele>
        <time>2015-11-11T13:21:16.688Z</time>
      </trkpt>
      <trkpt lat="43.64515" lon="2.38857">
        <ele>594.1</ele>
        <time>2015-11-11T13:21:17.653Z</time>
      </trkpt>
      <trkpt lat="43.64509" lon="2.38865">
        <ele>594.1</ele>
        <time>2015-11-11T13:21:20.685Z</time>
      </trkpt>
      <trkpt lat="43.64508" lon="2.38867">
        <ele>594.1</ele>
        <time>2015-11-11T13:21:21.660Z</time>
      </trkpt>
      <trkpt lat="43.64504" lon="2.38874">
        <ele>593.7</ele>
        <time>2015-11-11T13:21:24.712Z</time>
      </trkpt>
      <trkpt lat="43.64501" lon="2.38877">
        <ele>593.6</ele>
        <time>2015-11-11T13:21:25.660Z</time>
      </trkpt>
      <trkpt lat="43.64496" lon="2.3888">
        <ele>593.6</ele>
        <time>2015-11-11T13:21:27.682Z</time>
      </trkpt>
      <trkpt lat="43.64493" lon="2.38884">
        <ele>593.5</ele>
        <time>2015-11-11T13:21:28.656Z</time>
      </trkpt>
      <trkpt lat="43.64486" lon="2.38889">
        <ele>593.2</ele>
        <time>2015-11-11T13:21:30.683Z</time>
      </trkpt>
      <trkpt lat="43.64483" lon="2.38892">
        <ele>593</ele>
        <time>2015-11-11T13:21:31.653Z</time>
      </trkpt>
      <trkpt lat="43.64479" lon="2.38898">
        <ele>592.5</ele>
        <time>2015-11-11T13:21:33.700Z</time>
      </trkpt>
      <trkpt lat="43.64477" lon="2.38901">
        <ele>592.4</ele>
        <time>2015-11-11T13:21:34.674Z</time>
      </trkpt>
      <trkpt lat="43.64471" lon="2.38905">
        <ele>591.8</ele>
        <time>2015-11-11T13:21:36.713Z</time>
      </trkpt>
      <trkpt lat="43.64469" lon="2.38908">
        <ele>591.6</ele>
        <time>2015-11-11T13:21:37.660Z</time>
      </trkpt>
      <trkpt lat="43.64468" lon="2.38919">
        <ele>590.9</ele>
        <time>2015-11-11T13:21:40.677Z</time>
      </trkpt>
      <trkpt lat="43.64467" lon="2.38923">
        <ele>590.7</ele>
        <time>2015-11-11T13:21:41.652Z</time>
      </trkpt>
      <trkpt lat="43.64462" lon="2.38927">
        <ele>590.4</ele>
        <time>2015-11-11T13:21:43.677Z</time>
      </trkpt>
      <trkpt lat="43.64458" lon="2.38928">
        <ele>590.3</ele>
        <time>2015-11-11T13:21:44.650Z</time>
      </trkpt>
      <trkpt lat="43.64452" lon="2.38929">
        <ele>590.2</ele>
        <time>2015-11-11T13:21:46.702Z</time>
      </trkpt>
      <trkpt lat="43.64449" lon="2.38931">
        <ele>590.2</ele>
        <time>2015-11-11T13:21:47.660Z</time>
      </trkpt>
      <trkpt lat="43.64443" lon="2.38935">
        <ele>590</ele>
        <time>2015-11-11T13:21:49.715Z</time>
      </trkpt>
      <trkpt lat="43.64439" lon="2.38937">
        <ele>589.9</ele>
        <time>2015-11-11T13:21:50.660Z</time>
      </trkpt>
      <trkpt lat="43.64433" lon="2.38941">
        <ele>589.9</ele>
        <time>2015-11-11T13:21:52.687Z</time>
      </trkpt>
      <trkpt lat="43.64431" lon="2.38943">
        <ele>590</ele>
        <time>2015-11-11T13:21:53.652Z</time>
      </trkpt>
      <trkpt lat="43.64423" lon="2.38941">
        <ele>590.1</ele>
        <time>2015-11-11T13:21:55.678Z</time>
      </trkpt>
      <trkpt lat="43.6442" lon="2.38939">
        <ele>590.2</ele>
        <time>2015-11-11T13:21:56.657Z</time>
      </trkpt>
      <trkpt lat="43.64411" lon="2.38937">
        <ele>590.4</ele>
        <time>2015-11-11T13:21:58.686Z</time>
      </trkpt>
      <trkpt lat="43.64407" lon="2.38938">
        <ele>590.3</ele>
        <time>2015-11-11T13:21:59.654Z</time>
      </trkpt>
      <trkpt lat="43.644" lon="2.38938">
        <ele>590.4</ele>
        <time>2015-11-11T13:22:01.678Z</time>
      </trkpt>
      <trkpt lat="43.64396" lon="2.38938">
        <ele>590.5</ele>
        <time>2015-11-11T13:22:02.653Z</time>
      </trkpt>
      <trkpt lat="43.64388" lon="2.3894">
        <ele>590.5</ele>
        <time>2015-11-11T13:22:05.700Z</time>
      </trkpt>
      <trkpt lat="43.64386" lon="2.38939">
        <ele>590.5</ele>
        <time>2015-11-11T13:22:06.658Z</time>
      </trkpt>
      <trkpt lat="43.64378" lon="2.38933">
        <ele>590.7</ele>
        <time>2015-11-11T13:22:08.685Z</time>
      </trkpt>
      <trkpt lat="43.64375" lon="2.38932">
        <ele>590.7</ele>
        <time>2015-11-11T13:22:09.651Z</time>
      </trkpt>
      <trkpt lat="43.64369" lon="2.38933">
        <ele>590.7</ele>
        <time>2015-11-11T13:22:11.680Z</time>
      </trkpt>
      <trkpt lat="43.64366" lon="2.38933">
        <ele>590.7</ele>
        <time>2015-11-11T13:22:12.649Z</time>
      </trkpt>
      <trkpt lat="43.64357" lon="2.38938">
        <ele>590.7</ele>
        <time>2015-11-11T13:22:14.687Z</time>
      </trkpt>
      <trkpt lat="43.64354" lon="2.38941">
        <ele>590.4</ele>
        <time>2015-11-11T13:22:15.652Z</time>
      </trkpt>
      <trkpt lat="43.64349" lon="2.38949">
        <ele>590.2</ele>
        <time>2015-11-11T13:22:17.678Z</time>
      </trkpt>
      <trkpt lat="43.64347" lon="2.38951">
        <ele>590.1</ele>
        <time>2015-11-11T13:22:18.656Z</time>
      </trkpt>
      <trkpt lat="43.64345" lon="2.38962">
        <ele>589.8</ele>
        <time>2015-11-11T13:22:24.711Z</time>
      </trkpt>
      <trkpt lat="43.64344" lon="2.38963">
        <ele>589.8</ele>
        <time>2015-11-11T13:22:25.660Z</time>
      </trkpt>
      <trkpt lat="43.64336" lon="2.38968">
        <ele>590.1</ele>
        <time>2015-11-11T13:23:04.676Z</time>
      </trkpt>
      <trkpt lat="43.64332" lon="2.38965">
        <ele>589.4</ele>
        <time>2015-11-11T13:23:05.649Z</time>
      </trkpt>
      <trkpt lat="43.64324" lon="2.3896">
        <ele>589.3</ele>
        <time>2015-11-11T13:23:09.681Z</time>
      </trkpt>
      <trkpt lat="43.64322" lon="2.38959">
        <ele>589.3</ele>
        <time>2015-11-11T13:23:10.656Z</time>
      </trkpt>
      <trkpt lat="43.64314" lon="2.38955">
        <ele>588.7</ele>
        <time>2015-11-11T13:23:16.716Z</time>
      </trkpt>
      <trkpt lat="43.64314" lon="2.38954">
        <ele>588.6</ele>
        <time>2015-11-11T13:23:17.672Z</time>
      </trkpt>
      <trkpt lat="43.64305" lon="2.38952">
        <ele>591.2</ele>
        <time>2015-11-11T13:23:32.698Z</time>
      </trkpt>
      <trkpt lat="43.64304" lon="2.38954">
        <ele>591.3</ele>
        <time>2015-11-11T13:23:33.658Z</time>
      </trkpt>
      <trkpt lat="43.64304" lon="2.38954">
        <ele>591.3</ele>
        <time>2015-11-11T13:23:33.687Z</time>
      </trkpt>
      <trkpt lat="43.643" lon="2.38956">
        <ele>591.2</ele>
        <time>2015-11-11T13:23:35.682Z</time>
      </trkpt>
      <trkpt lat="43.64298" lon="2.38956">
        <ele>591.1</ele>
        <time>2015-11-11T13:23:36.652Z</time>
      </trkpt>
      <trkpt lat="43.64291" lon="2.38959">
        <ele>590.8</ele>
        <time>2015-11-11T13:23:40.700Z</time>
      </trkpt>
      <trkpt lat="43.64289" lon="2.3896">
        <ele>590.8</ele>
        <time>2015-11-11T13:23:41.656Z</time>
      </trkpt>
      <trkpt lat="43.64282" lon="2.38961">
        <ele>590.2</ele>
        <time>2015-11-11T13:23:45.708Z</time>
      </trkpt>
      <trkpt lat="43.6428" lon="2.38961">
        <ele>590</ele>
        <time>2015-11-11T13:23:46.655Z</time>
      </trkpt>
      <trkpt lat="43.64273" lon="2.38962">
        <ele>589.1</ele>
        <time>2015-11-11T13:23:50.698Z</time>
      </trkpt>
      <trkpt lat="43.6427" lon="2.38961">
        <ele>588.8</ele>
        <time>2015-11-11T13:23:51.660Z</time>
      </trkpt>
      <trkpt lat="43.64264" lon="2.38969">
        <ele>588.2</ele>
        <time>2015-11-11T13:23:55.710Z</time>
      </trkpt>
      <trkpt lat="43.64262" lon="2.38972">
        <ele>588</ele>
        <time>2015-11-11T13:23:56.660Z</time>
      </trkpt>
      <trkpt lat="43.64258" lon="2.38982">
        <ele>587.2</ele>
        <time>2015-11-11T13:24:00.678Z</time>
      </trkpt>
      <trkpt lat="43.64256" lon="2.38985">
        <ele>587</ele>
        <time>2015-11-11T13:24:01.656Z</time>
      </trkpt>
      <trkpt lat="43.64249" lon="2.3899">
        <ele>586.6</ele>
        <time>2015-11-11T13:24:04.676Z</time>
      </trkpt>
      <trkpt lat="43.64247" lon="2.38992">
        <ele>586.5</ele>
        <time>2015-11-11T13:24:05.657Z</time>
      </trkpt>
      <trkpt lat="43.64242" lon="2.39001">
        <ele>585.7</ele>
        <time>2015-11-11T13:24:09.715Z</time>
      </trkpt>
      <trkpt lat="43.64241" lon="2.39002">
        <ele>585.5</ele>
        <time>2015-11-11T13:24:10.662Z</time>
      </trkpt>
      <trkpt lat="43.64237" lon="2.39011">
        <ele>585.2</ele>
        <time>2015-11-11T13:24:14.678Z</time>
      </trkpt>
      <trkpt lat="43.64236" lon="2.39013">
        <ele>585.1</ele>
        <time>2015-11-11T13:24:15.651Z</time>
      </trkpt>
      <trkpt lat="43.6423" lon="2.3902">
        <ele>584.6</ele>
        <time>2015-11-11T13:24:19.710Z</time>
      </trkpt>
      <trkpt lat="43.64229" lon="2.39022">
        <ele>584.5</ele>
        <time>2015-11-11T13:24:20.660Z</time>
      </trkpt>
      <trkpt lat="43.64228" lon="2.39033">
        <ele>584.2</ele>
        <time>2015-11-11T13:24:25.685Z</time>
      </trkpt>
      <trkpt lat="43.64227" lon="2.39036">
        <ele>584.3</ele>
        <time>2015-11-11T13:24:26.652Z</time>
      </trkpt>
      <trkpt lat="43.64227" lon="2.39047">
        <ele>584.4</ele>
        <time>2015-11-11T13:24:31.731Z</time>
      </trkpt>
      <trkpt lat="43.64226" lon="2.39049">
        <ele>584.4</ele>
        <time>2015-11-11T13:24:32.660Z</time>
      </trkpt>
      <trkpt lat="43.64224" lon="2.39059">
        <ele>584.6</ele>
        <time>2015-11-11T13:24:40.702Z</time>
      </trkpt>
      <trkpt lat="43.64222" lon="2.39061">
        <ele>584.7</ele>
        <time>2015-11-11T13:24:41.672Z</time>
      </trkpt>
      <trkpt lat="43.64222" lon="2.39072">
        <ele>585</ele>
        <time>2015-11-11T13:24:46.680Z</time>
      </trkpt>
      <trkpt lat="43.64223" lon="2.39073">
        <ele>585.1</ele>
        <time>2015-11-11T13:24:47.654Z</time>
      </trkpt>
      <trkpt lat="43.64225" lon="2.39084">
        <ele>585.8</ele>
        <time>2015-11-11T13:24:52.701Z</time>
      </trkpt>
      <trkpt lat="43.64225" lon="2.39085">
        <ele>586</ele>
        <time>2015-11-11T13:24:53.672Z</time>
      </trkpt>
      <trkpt lat="43.64225" lon="2.39097">
        <ele>587.5</ele>
        <time>2015-11-11T13:24:59.701Z</time>
      </trkpt>
      <trkpt lat="43.64225" lon="2.39099">
        <ele>587.8</ele>
        <time>2015-11-11T13:25:00.652Z</time>
      </trkpt>
      <trkpt lat="43.64223" lon="2.3911">
        <ele>589.4</ele>
        <time>2015-11-11T13:25:06.701Z</time>
      </trkpt>
      <trkpt lat="43.64223" lon="2.39112">
        <ele>589.5</ele>
        <time>2015-11-11T13:25:07.672Z</time>
      </trkpt>
      <trkpt lat="43.64222" lon="2.39123">
        <ele>590.4</ele>
        <time>2015-11-11T13:25:11.712Z</time>
      </trkpt>
      <trkpt lat="43.64223" lon="2.39125">
        <ele>590.7</ele>
        <time>2015-11-11T13:25:13.055Z</time>
      </trkpt>
      <trkpt lat="43.64222" lon="2.39137">
        <ele>592.5</ele>
        <time>2015-11-11T13:25:17.685Z</time>
      </trkpt>
      <trkpt lat="43.64222" lon="2.39139">
        <ele>592.8</ele>
        <time>2015-11-11T13:25:18.651Z</time>
      </trkpt>
      <trkpt lat="43.64219" lon="2.39151">
        <ele>594.7</ele>
        <time>2015-11-11T13:25:25.728Z</time>
      </trkpt>
      <trkpt lat="43.64219" lon="2.39152">
        <ele>594.9</ele>
        <time>2015-11-11T13:25:26.653Z</time>
      </trkpt>
      <trkpt lat="43.64218" lon="2.39156">
        <ele>595.5</ele>
        <time>2015-11-11T13:25:28.691Z</time>
      </trkpt>
      <trkpt lat="43.64218" lon="2.39157">
        <ele>595.7</ele>
        <time>2015-11-11T13:25:29.655Z</time>
      </trkpt>
      <trkpt lat="43.64216" lon="2.39161">
        <ele>596.3</ele>
        <time>2015-11-11T13:25:31.687Z</time>
      </trkpt>
      <trkpt lat="43.64216" lon="2.39164">
        <ele>596.6</ele>
        <time>2015-11-11T13:25:32.661Z</time>
      </trkpt>
      <trkpt lat="43.64214" lon="2.39174">
        <ele>598.8</ele>
        <time>2015-11-11T13:25:38.680Z</time>
      </trkpt>
      <trkpt lat="43.64214" lon="2.39176">
        <ele>599.2</ele>
        <time>2015-11-11T13:25:39.654Z</time>
      </trkpt>
      <trkpt lat="43.64215" lon="2.39187">
        <ele>601.5</ele>
        <time>2015-11-11T13:25:45.701Z</time>
      </trkpt>
      <trkpt lat="43.64215" lon="2.39189">
        <ele>601.9</ele>
        <time>2015-11-11T13:25:46.662Z</time>
      </trkpt>
      <trkpt lat="43.64211" lon="2.392">
        <ele>604.1</ele>
        <time>2015-11-11T13:25:52.680Z</time>
      </trkpt>
      <trkpt lat="43.64211" lon="2.39201">
        <ele>604.5</ele>
        <time>2015-11-11T13:25:53.652Z</time>
      </trkpt>
      <trkpt lat="43.64211" lon="2.39203">
        <ele>605.1</ele>
        <time>2015-11-11T13:25:54.700Z</time>
      </trkpt>
      <trkpt lat="43.64211" lon="2.39204">
        <ele>605.5</ele>
        <time>2015-11-11T13:25:55.673Z</time>
      </trkpt>
      <trkpt lat="43.64208" lon="2.39213">
        <ele>608.1</ele>
        <time>2015-11-11T13:26:01.679Z</time>
      </trkpt>
      <trkpt lat="43.64207" lon="2.39216">
        <ele>608.5</ele>
        <time>2015-11-11T13:26:02.653Z</time>
      </trkpt>
      <trkpt lat="43.64207" lon="2.39216">
        <ele>608.5</ele>
        <time>2015-11-11T13:26:02.695Z</time>
      </trkpt>
      <trkpt lat="43.64206" lon="2.3922">
        <ele>609.4</ele>
        <time>2015-11-11T13:26:04.684Z</time>
      </trkpt>
      <trkpt lat="43.64206" lon="2.39222">
        <ele>609.9</ele>
        <time>2015-11-11T13:26:05.653Z</time>
      </trkpt>
      <trkpt lat="43.64204" lon="2.39233">
        <ele>615.3</ele>
        <time>2015-11-11T13:26:14.989Z</time>
      </trkpt>
      <trkpt lat="43.64203" lon="2.39235">
        <ele>615.8</ele>
        <time>2015-11-11T13:26:15.652Z</time>
      </trkpt>
      <trkpt lat="43.64205" lon="2.39246">
        <ele>618.2</ele>
        <time>2015-11-11T13:26:21.713Z</time>
      </trkpt>
      <trkpt lat="43.64206" lon="2.39248">
        <ele>618.5</ele>
        <time>2015-11-11T13:26:22.662Z</time>
      </trkpt>
      <trkpt lat="43.64213" lon="2.39255">
        <ele>619.9</ele>
        <time>2015-11-11T13:26:29.687Z</time>
      </trkpt>
      <trkpt lat="43.64213" lon="2.39257">
        <ele>620.1</ele>
        <time>2015-11-11T13:26:30.654Z</time>
      </trkpt>
      <trkpt lat="43.64217" lon="2.39267">
        <ele>621.4</ele>
        <time>2015-11-11T13:26:37.713Z</time>
      </trkpt>
      <trkpt lat="43.64217" lon="2.39269">
        <ele>621.7</ele>
        <time>2015-11-11T13:26:38.653Z</time>
      </trkpt>
      <trkpt lat="43.64221" lon="2.3928">
        <ele>622.8</ele>
        <time>2015-11-11T13:26:45.713Z</time>
      </trkpt>
      <trkpt lat="43.64221" lon="2.39281">
        <ele>623.7</ele>
        <time>2015-11-11T13:26:46.663Z</time>
      </trkpt>
      <trkpt lat="43.64224" lon="2.39292">
        <ele>624.7</ele>
        <time>2015-11-11T13:26:51.686Z</time>
      </trkpt>
      <trkpt lat="43.64225" lon="2.39294">
        <ele>625</ele>
        <time>2015-11-11T13:26:52.655Z</time>
      </trkpt>
      <trkpt lat="43.64228" lon="2.39303">
        <ele>625.4</ele>
        <time>2015-11-11T13:26:57.712Z</time>
      </trkpt>
      <trkpt lat="43.64229" lon="2.39305">
        <ele>625.6</ele>
        <time>2015-11-11T13:26:58.663Z</time>
      </trkpt>
      <trkpt lat="43.64233" lon="2.39313">
        <ele>626.3</ele>
        <time>2015-11-11T13:27:01.686Z</time>
      </trkpt>
      <trkpt lat="43.64234" lon="2.39316">
        <ele>626.6</ele>
        <time>2015-11-11T13:27:02.652Z</time>
      </trkpt>
      <trkpt lat="43.64238" lon="2.39325">
        <ele>627.3</ele>
        <time>2015-11-11T13:27:05.688Z</time>
      </trkpt>
      <trkpt lat="43.64239" lon="2.39328">
        <ele>627.5</ele>
        <time>2015-11-11T13:27:06.661Z</time>
      </trkpt>
      <trkpt lat="43.64243" lon="2.39335">
        <ele>628.1</ele>
        <time>2015-11-11T13:27:09.814Z</time>
      </trkpt>
      <trkpt lat="43.64246" lon="2.39338">
        <ele>628.3</ele>
        <time>2015-11-11T13:27:10.663Z</time>
      </trkpt>
      <trkpt lat="43.64249" lon="2.39347">
        <ele>628.7</ele>
        <time>2015-11-11T13:27:13.713Z</time>
      </trkpt>
      <trkpt lat="43.64249" lon="2.39349">
        <ele>628.8</ele>
        <time>2015-11-11T13:27:14.661Z</time>
      </trkpt>
      <trkpt lat="43.64252" lon="2.3936">
        <ele>630</ele>
        <time>2015-11-11T13:27:19.685Z</time>
      </trkpt>
      <trkpt lat="43.64253" lon="2.39363">
        <ele>630.3</ele>
        <time>2015-11-11T13:27:20.651Z</time>
      </trkpt>
      <trkpt lat="43.64257" lon="2.39373">
        <ele>631.8</ele>
        <time>2015-11-11T13:27:26.703Z</time>
      </trkpt>
      <trkpt lat="43.64258" lon="2.39375">
        <ele>632</ele>
        <time>2015-11-11T13:27:27.679Z</time>
      </trkpt>
      <trkpt lat="43.64259" lon="2.39388">
        <ele>633.9</ele>
        <time>2015-11-11T13:27:33.688Z</time>
      </trkpt>
      <trkpt lat="43.64259" lon="2.3939">
        <ele>634.5</ele>
        <time>2015-11-11T13:27:34.662Z</time>
      </trkpt>
      <trkpt lat="43.64261" lon="2.394">
        <ele>636.9</ele>
        <time>2015-11-11T13:27:40.683Z</time>
      </trkpt>
      <trkpt lat="43.64261" lon="2.39402">
        <ele>636.9</ele>
        <time>2015-11-11T13:27:41.652Z</time>
      </trkpt>
      <trkpt lat="43.64262" lon="2.39412">
        <ele>637.3</ele>
        <time>2015-11-11T13:27:45.713Z</time>
      </trkpt>
      <trkpt lat="43.64261" lon="2.39415">
        <ele>637.6</ele>
        <time>2015-11-11T13:27:46.663Z</time>
      </trkpt>
      <trkpt lat="43.64262" lon="2.39425">
        <ele>638.7</ele>
        <time>2015-11-11T13:27:51.685Z</time>
      </trkpt>
      <trkpt lat="43.64262" lon="2.39428">
        <ele>638.7</ele>
        <time>2015-11-11T13:27:52.656Z</time>
      </trkpt>
      <trkpt lat="43.64262" lon="2.39439">
        <ele>640</ele>
        <time>2015-11-11T13:27:56.700Z</time>
      </trkpt>
      <trkpt lat="43.64261" lon="2.39442">
        <ele>640.7</ele>
        <time>2015-11-11T13:27:57.661Z</time>
      </trkpt>
      <trkpt lat="43.6426" lon="2.39454">
        <ele>641.7</ele>
        <time>2015-11-11T13:28:03.686Z</time>
      </trkpt>
      <trkpt lat="43.6426" lon="2.39456">
        <ele>642.1</ele>
        <time>2015-11-11T13:28:04.663Z</time>
      </trkpt>
      <trkpt lat="43.64258" lon="2.39467">
        <ele>643</ele>
        <time>2015-11-11T13:28:08.678Z</time>
      </trkpt>
      <trkpt lat="43.64258" lon="2.3947">
        <ele>643.3</ele>
        <time>2015-11-11T13:28:09.655Z</time>
      </trkpt>
      <trkpt lat="43.64257" lon="2.39481">
        <ele>644.6</ele>
        <time>2015-11-11T13:28:13.712Z</time>
      </trkpt>
      <trkpt lat="43.64257" lon="2.39483">
        <ele>644.7</ele>
        <time>2015-11-11T13:28:14.660Z</time>
      </trkpt>
      <trkpt lat="43.64256" lon="2.39493">
        <ele>645.8</ele>
        <time>2015-11-11T13:28:18.675Z</time>
      </trkpt>
      <trkpt lat="43.64256" lon="2.39495">
        <ele>646.1</ele>
        <time>2015-11-11T13:28:19.654Z</time>
      </trkpt>
      <trkpt lat="43.64253" lon="2.39506">
        <ele>647.8</ele>
        <time>2015-11-11T13:28:24.679Z</time>
      </trkpt>
      <trkpt lat="43.64251" lon="2.39507">
        <ele>647.9</ele>
        <time>2015-11-11T13:28:25.692Z</time>
      </trkpt>
      <trkpt lat="43.64249" lon="2.39517">
        <ele>649.2</ele>
        <time>2015-11-11T13:28:30.679Z</time>
      </trkpt>
      <trkpt lat="43.64248" lon="2.39519">
        <ele>649.5</ele>
        <time>2015-11-11T13:28:31.656Z</time>
      </trkpt>
      <trkpt lat="43.64244" lon="2.39529">
        <ele>649.8</ele>
        <time>2015-11-11T13:28:35.729Z</time>
      </trkpt>
      <trkpt lat="43.64243" lon="2.39531">
        <ele>650</ele>
        <time>2015-11-11T13:28:36.661Z</time>
      </trkpt>
      <trkpt lat="43.64242" lon="2.39541">
        <ele>650.4</ele>
        <time>2015-11-11T13:28:41.712Z</time>
      </trkpt>
      <trkpt lat="43.64241" lon="2.39543">
        <ele>650.7</ele>
        <time>2015-11-11T13:28:42.653Z</time>
      </trkpt>
      <trkpt lat="43.64239" lon="2.39554">
        <ele>651.1</ele>
        <time>2015-11-11T13:28:48.700Z</time>
      </trkpt>
      <trkpt lat="43.64237" lon="2.39557">
        <ele>651.1</ele>
        <time>2015-11-11T13:28:49.661Z</time>
      </trkpt>
      <trkpt lat="43.64234" lon="2.39567">
        <ele>651.4</ele>
        <time>2015-11-11T13:28:53.684Z</time>
      </trkpt>
      <trkpt lat="43.64232" lon="2.3957">
        <ele>651.5</ele>
        <time>2015-11-11T13:28:54.652Z</time>
      </trkpt>
      <trkpt lat="43.64226" lon="2.39578">
        <ele>652</ele>
        <time>2015-11-11T13:28:57.688Z</time>
      </trkpt>
      <trkpt lat="43.64225" lon="2.3958">
        <ele>652.1</ele>
        <time>2015-11-11T13:28:58.655Z</time>
      </trkpt>
      <trkpt lat="43.64221" lon="2.39588">
        <ele>652.3</ele>
        <time>2015-11-11T13:29:02.702Z</time>
      </trkpt>
      <trkpt lat="43.64218" lon="2.39592">
        <ele>652.3</ele>
        <time>2015-11-11T13:29:03.673Z</time>
      </trkpt>
      <trkpt lat="43.64213" lon="2.39601">
        <ele>652.5</ele>
        <time>2015-11-11T13:29:05.686Z</time>
      </trkpt>
      <trkpt lat="43.64209" lon="2.39605">
        <ele>652.5</ele>
        <time>2015-11-11T13:29:06.653Z</time>
      </trkpt>
      <trkpt lat="43.64204" lon="2.3961">
        <ele>652.7</ele>
        <time>2015-11-11T13:29:08.677Z</time>
      </trkpt>
      <trkpt lat="43.64201" lon="2.39612">
        <ele>652.6</ele>
        <time>2015-11-11T13:29:09.657Z</time>
      </trkpt>
      <trkpt lat="43.64197" lon="2.3962">
        <ele>652.9</ele>
        <time>2015-11-11T13:29:12.699Z</time>
      </trkpt>
      <trkpt lat="43.64196" lon="2.39623">
        <ele>653.1</ele>
        <time>2015-11-11T13:29:13.672Z</time>
      </trkpt>
      <trkpt lat="43.64194" lon="2.39631">
        <ele>653.1</ele>
        <time>2015-11-11T13:29:15.700Z</time>
      </trkpt>
      <trkpt lat="43.64193" lon="2.39635">
        <ele>653.2</ele>
        <time>2015-11-11T13:29:16.662Z</time>
      </trkpt>
      <trkpt lat="43.64192" lon="2.39647">
        <ele>652.9</ele>
        <time>2015-11-11T13:29:19.687Z</time>
      </trkpt>
      <trkpt lat="43.64192" lon="2.39649">
        <ele>652.9</ele>
        <time>2015-11-11T13:29:20.650Z</time>
      </trkpt>
      <trkpt lat="43.64193" lon="2.39661">
        <ele>653.2</ele>
        <time>2015-11-11T13:29:26.703Z</time>
      </trkpt>
      <trkpt lat="43.64193" lon="2.39664">
        <ele>653.4</ele>
        <time>2015-11-11T13:29:27.701Z</time>
      </trkpt>
      <trkpt lat="43.64193" lon="2.39673">
        <ele>653.8</ele>
        <time>2015-11-11T13:29:30.680Z</time>
      </trkpt>
      <trkpt lat="43.64192" lon="2.39677">
        <ele>653.9</ele>
        <time>2015-11-11T13:29:31.655Z</time>
      </trkpt>
      <trkpt lat="43.6419" lon="2.39689">
        <ele>654.3</ele>
        <time>2015-11-11T13:29:34.702Z</time>
      </trkpt>
      <trkpt lat="43.6419" lon="2.39694">
        <ele>654.4</ele>
        <time>2015-11-11T13:29:35.673Z</time>
      </trkpt>
      <trkpt lat="43.64189" lon="2.39702">
        <ele>655.2</ele>
        <time>2015-11-11T13:29:37.713Z</time>
      </trkpt>
      <trkpt lat="43.64188" lon="2.39707">
        <ele>655.6</ele>
        <time>2015-11-11T13:29:38.677Z</time>
      </trkpt>
      <trkpt lat="43.64187" lon="2.39717">
        <ele>656.5</ele>
        <time>2015-11-11T13:29:40.702Z</time>
      </trkpt>
      <trkpt lat="43.64187" lon="2.39721">
        <ele>657</ele>
        <time>2015-11-11T13:29:41.652Z</time>
      </trkpt>
      <trkpt lat="43.64184" lon="2.39733">
        <ele>657.5</ele>
        <time>2015-11-11T13:29:44.679Z</time>
      </trkpt>
      <trkpt lat="43.64184" lon="2.39737">
        <ele>657.9</ele>
        <time>2015-11-11T13:29:45.652Z</time>
      </trkpt>
      <trkpt lat="43.64182" lon="2.39745">
        <ele>658.5</ele>
        <time>2015-11-11T13:29:47.709Z</time>
      </trkpt>
      <trkpt lat="43.64181" lon="2.3975">
        <ele>658.7</ele>
        <time>2015-11-11T13:29:48.661Z</time>
      </trkpt>
      <trkpt lat="43.64179" lon="2.39758">
        <ele>658.3</ele>
        <time>2015-11-11T13:29:50.701Z</time>
      </trkpt>
      <trkpt lat="43.64178" lon="2.39762">
        <ele>657.8</ele>
        <time>2015-11-11T13:29:51.673Z</time>
      </trkpt>
      <trkpt lat="43.64175" lon="2.39771">
        <ele>657.5</ele>
        <time>2015-11-11T13:29:53.700Z</time>
      </trkpt>
      <trkpt lat="43.64175" lon="2.39774">
        <ele>657.4</ele>
        <time>2015-11-11T13:29:54.651Z</time>
      </trkpt>
      <trkpt lat="43.64175" lon="2.39783">
        <ele>656.8</ele>
        <time>2015-11-11T13:29:56.681Z</time>
      </trkpt>
      <trkpt lat="43.64176" lon="2.39788">
        <ele>656.6</ele>
        <time>2015-11-11T13:29:57.654Z</time>
      </trkpt>
      <trkpt lat="43.64178" lon="2.398">
        <ele>656.9</ele>
        <time>2015-11-11T13:30:00.700Z</time>
      </trkpt>
      <trkpt lat="43.64178" lon="2.39804">
        <ele>656.7</ele>
        <time>2015-11-11T13:30:01.661Z</time>
      </trkpt>
      <trkpt lat="43.64179" lon="2.39815">
        <ele>657.2</ele>
        <time>2015-11-11T13:30:04.717Z</time>
      </trkpt>
      <trkpt lat="43.64178" lon="2.39818">
        <ele>657.4</ele>
        <time>2015-11-11T13:30:05.672Z</time>
      </trkpt>
      <trkpt lat="43.64177" lon="2.39829">
        <ele>658.4</ele>
        <time>2015-11-11T13:30:09.685Z</time>
      </trkpt>
      <trkpt lat="43.64177" lon="2.39832">
        <ele>658.6</ele>
        <time>2015-11-11T13:30:10.655Z</time>
      </trkpt>
      <trkpt lat="43.64176" lon="2.39843">
        <ele>659.4</ele>
        <time>2015-11-11T13:30:15.712Z</time>
      </trkpt>
      <trkpt lat="43.64177" lon="2.39844">
        <ele>659.5</ele>
        <time>2015-11-11T13:30:16.654Z</time>
      </trkpt>
      <trkpt lat="43.64177" lon="2.39844">
        <ele>659.5</ele>
        <time>2015-11-11T13:30:16.681Z</time>
      </trkpt>
      <trkpt lat="43.64177" lon="2.39845">
        <ele>659.7</ele>
        <time>2015-11-11T13:30:17.652Z</time>
      </trkpt>
      <trkpt lat="43.64178" lon="2.39845">
        <ele>660.5</ele>
        <time>2015-11-11T13:31:32.676Z</time>
      </trkpt>
      <trkpt lat="43.64176" lon="2.39843">
        <ele>663.9</ele>
        <time>2015-11-11T13:31:33.655Z</time>
      </trkpt>
      <trkpt lat="43.64183" lon="2.39836">
        <ele>663.7</ele>
        <time>2015-11-11T13:31:38.699Z</time>
      </trkpt>
      <trkpt lat="43.64185" lon="2.39834">
        <ele>663.5</ele>
        <time>2015-11-11T13:31:39.673Z</time>
      </trkpt>
      <trkpt lat="43.64192" lon="2.39829">
        <ele>663</ele>
        <time>2015-11-11T13:31:43.679Z</time>
      </trkpt>
      <trkpt lat="43.64194" lon="2.39827">
        <ele>662.6</ele>
        <time>2015-11-11T13:31:44.652Z</time>
      </trkpt>
      <trkpt lat="43.64202" lon="2.39823">
        <ele>661.5</ele>
        <time>2015-11-11T13:31:48.716Z</time>
      </trkpt>
      <trkpt lat="43.64203" lon="2.39822">
        <ele>661.2</ele>
        <time>2015-11-11T13:31:49.653Z</time>
      </trkpt>
      <trkpt lat="43.64211" lon="2.39821">
        <ele>660</ele>
        <time>2015-11-11T13:31:53.679Z</time>
      </trkpt>
      <trkpt lat="43.64214" lon="2.3982">
        <ele>659.7</ele>
        <time>2015-11-11T13:31:54.662Z</time>
      </trkpt>
      <trkpt lat="43.64221" lon="2.39822">
        <ele>658.3</ele>
        <time>2015-11-11T13:31:57.683Z</time>
      </trkpt>
      <trkpt lat="43.64224" lon="2.39822">
        <ele>657.6</ele>
        <time>2015-11-11T13:31:58.655Z</time>
      </trkpt>
      <trkpt lat="43.64231" lon="2.39824">
        <ele>655.9</ele>
        <time>2015-11-11T13:32:01.708Z</time>
      </trkpt>
      <trkpt lat="43.64232" lon="2.39825">
        <ele>655.1</ele>
        <time>2015-11-11T13:32:02.662Z</time>
      </trkpt>
      <trkpt lat="43.64237" lon="2.39827">
        <ele>652.9</ele>
        <time>2015-11-11T13:32:06.689Z</time>
      </trkpt>
      <trkpt lat="43.64242" lon="2.39827">
        <ele>652.2</ele>
        <time>2015-11-11T13:32:07.657Z</time>
      </trkpt>
      <trkpt lat="43.64242" lon="2.39827">
        <ele>652.2</ele>
        <time>2015-11-11T13:32:07.690Z</time>
      </trkpt>
      <trkpt lat="43.64248" lon="2.39827">
        <ele>650.9</ele>
        <time>2015-11-11T13:32:09.676Z</time>
      </trkpt>
      <trkpt lat="43.64251" lon="2.39828">
        <ele>650</ele>
        <time>2015-11-11T13:32:10.652Z</time>
      </trkpt>
      <trkpt lat="43.64256" lon="2.3983">
        <ele>649.2</ele>
        <time>2015-11-11T13:32:11.682Z</time>
      </trkpt>
      <trkpt lat="43.6426" lon="2.39832">
        <ele>648.3</ele>
        <time>2015-11-11T13:32:12.652Z</time>
      </trkpt>
      <trkpt lat="43.64267" lon="2.39836">
        <ele>647.4</ele>
        <time>2015-11-11T13:32:14.683Z</time>
      </trkpt>
      <trkpt lat="43.64269" lon="2.39838">
        <ele>646.8</ele>
        <time>2015-11-11T13:32:15.655Z</time>
      </trkpt>
      <trkpt lat="43.64278" lon="2.39839">
        <ele>645.4</ele>
        <time>2015-11-11T13:32:18.687Z</time>
      </trkpt>
      <trkpt lat="43.64281" lon="2.3984">
        <ele>645</ele>
        <time>2015-11-11T13:32:19.657Z</time>
      </trkpt>
      <trkpt lat="43.64286" lon="2.39841">
        <ele>644.7</ele>
        <time>2015-11-11T13:32:21.952Z</time>
      </trkpt>
      <trkpt lat="43.64287" lon="2.39841">
        <ele>644.7</ele>
        <time>2015-11-11T13:32:22.656Z</time>
      </trkpt>
      <trkpt lat="43.64295" lon="2.39844">
        <ele>641.8</ele>
        <time>2015-11-11T13:32:27.681Z</time>
      </trkpt>
      <trkpt lat="43.64296" lon="2.39844">
        <ele>641.1</ele>
        <time>2015-11-11T13:32:28.656Z</time>
      </trkpt>
      <trkpt lat="43.64296" lon="2.39844">
        <ele>641.1</ele>
        <time>2015-11-11T13:32:28.688Z</time>
      </trkpt>
      <trkpt lat="43.64303" lon="2.39845">
        <ele>639.5</ele>
        <time>2015-11-11T13:32:30.704Z</time>
      </trkpt>
      <trkpt lat="43.64306" lon="2.39845">
        <ele>638.8</ele>
        <time>2015-11-11T13:32:31.662Z</time>
      </trkpt>
      <trkpt lat="43.64314" lon="2.39842">
        <ele>637.7</ele>
        <time>2015-11-11T13:32:34.685Z</time>
      </trkpt>
      <trkpt lat="43.64318" lon="2.39841">
        <ele>637.3</ele>
        <time>2015-11-11T13:32:35.656Z</time>
      </trkpt>
      <trkpt lat="43.64323" lon="2.39838">
        <ele>636.3</ele>
        <time>2015-11-11T13:32:37.688Z</time>
      </trkpt>
      <trkpt lat="43.64328" lon="2.39837">
        <ele>635.6</ele>
        <time>2015-11-11T13:32:38.663Z</time>
      </trkpt>
      <trkpt lat="43.64336" lon="2.39833">
        <ele>635.3</ele>
        <time>2015-11-11T13:32:40.724Z</time>
      </trkpt>
      <trkpt lat="43.64338" lon="2.39831">
        <ele>634.9</ele>
        <time>2015-11-11T13:32:41.675Z</time>
      </trkpt>
      <trkpt lat="43.64345" lon="2.39829">
        <ele>633.9</ele>
        <time>2015-11-11T13:32:44.680Z</time>
      </trkpt>
      <trkpt lat="43.64348" lon="2.39829">
        <ele>633.8</ele>
        <time>2015-11-11T13:32:45.657Z</time>
      </trkpt>
      <trkpt lat="43.64355" lon="2.39827">
        <ele>633.7</ele>
        <time>2015-11-11T13:32:48.681Z</time>
      </trkpt>
      <trkpt lat="43.64358" lon="2.39826">
        <ele>633.9</ele>
        <time>2015-11-11T13:32:49.656Z</time>
      </trkpt>
      <trkpt lat="43.64366" lon="2.39823">
        <ele>633.3</ele>
        <time>2015-11-11T13:32:53.749Z</time>
      </trkpt>
      <trkpt lat="43.64367" lon="2.39823">
        <ele>633.4</ele>
        <time>2015-11-11T13:32:54.653Z</time>
      </trkpt>
      <trkpt lat="43.64374" lon="2.39819">
        <ele>633</ele>
        <time>2015-11-11T13:32:57.679Z</time>
      </trkpt>
      <trkpt lat="43.64376" lon="2.39818">
        <ele>632.5</ele>
        <time>2015-11-11T13:32:58.657Z</time>
      </trkpt>
      <trkpt lat="43.64384" lon="2.39815">
        <ele>631.5</ele>
        <time>2015-11-11T13:33:01.716Z</time>
      </trkpt>
      <trkpt lat="43.64386" lon="2.39813">
        <ele>631</ele>
        <time>2015-11-11T13:33:02.661Z</time>
      </trkpt>
      <trkpt lat="43.64394" lon="2.39808">
        <ele>629.3</ele>
        <time>2015-11-11T13:33:06.682Z</time>
      </trkpt>
      <trkpt lat="43.64397" lon="2.39807">
        <ele>628.7</ele>
        <time>2015-11-11T13:33:07.654Z</time>
      </trkpt>
      <trkpt lat="43.64403" lon="2.39803">
        <ele>628</ele>
        <time>2015-11-11T13:33:09.689Z</time>
      </trkpt>
      <trkpt lat="43.64406" lon="2.39801">
        <ele>627.5</ele>
        <time>2015-11-11T13:33:10.664Z</time>
      </trkpt>
      <trkpt lat="43.64414" lon="2.39799">
        <ele>626.2</ele>
        <time>2015-11-11T13:33:13.706Z</time>
      </trkpt>
      <trkpt lat="43.64417" lon="2.39798">
        <ele>626.1</ele>
        <time>2015-11-11T13:33:14.662Z</time>
      </trkpt>
      <trkpt lat="43.64424" lon="2.39799">
        <ele>625.5</ele>
        <time>2015-11-11T13:33:16.704Z</time>
      </trkpt>
      <trkpt lat="43.64425" lon="2.39798">
        <ele>625.3</ele>
        <time>2015-11-11T13:33:17.673Z</time>
      </trkpt>
      <trkpt lat="43.64427" lon="2.39798">
        <ele>625.5</ele>
        <time>2015-11-11T13:35:00.701Z</time>
      </trkpt>
      <trkpt lat="43.64429" lon="2.39793">
        <ele>636.1</ele>
        <time>2015-11-11T13:35:01.661Z</time>
      </trkpt>
      <trkpt lat="43.64436" lon="2.39788">
        <ele>636.3</ele>
        <time>2015-11-11T13:35:06.681Z</time>
      </trkpt>
      <trkpt lat="43.64438" lon="2.39788">
        <ele>636.4</ele>
        <time>2015-11-11T13:35:07.651Z</time>
      </trkpt>
      <trkpt lat="43.64439" lon="2.39785">
        <ele>637</ele>
        <time>2015-11-11T13:35:13.675Z</time>
      </trkpt>
      <trkpt lat="43.64442" lon="2.39784">
        <ele>637.2</ele>
        <time>2015-11-11T13:35:14.651Z</time>
      </trkpt>
      <trkpt lat="43.64447" lon="2.39781">
        <ele>637.4</ele>
        <time>2015-11-11T13:35:18.701Z</time>
      </trkpt>
      <trkpt lat="43.64448" lon="2.39781">
        <ele>637.4</ele>
        <time>2015-11-11T13:35:19.660Z</time>
      </trkpt>
      <trkpt lat="43.64455" lon="2.39776">
        <ele>637.8</ele>
        <time>2015-11-11T13:35:23.700Z</time>
      </trkpt>
      <trkpt lat="43.64457" lon="2.39776">
        <ele>637.9</ele>
        <time>2015-11-11T13:35:24.652Z</time>
      </trkpt>
      <trkpt lat="43.64465" lon="2.39773">
        <ele>637.6</ele>
        <time>2015-11-11T13:35:28.689Z</time>
      </trkpt>
      <trkpt lat="43.64467" lon="2.39772">
        <ele>637.7</ele>
        <time>2015-11-11T13:35:29.653Z</time>
      </trkpt>
      <trkpt lat="43.64468" lon="2.39772">
        <ele>637.6</ele>
        <time>2015-11-11T13:35:30.686Z</time>
      </trkpt>
      <trkpt lat="43.6447" lon="2.39772">
        <ele>637.5</ele>
        <time>2015-11-11T13:35:31.658Z</time>
      </trkpt>
      <trkpt lat="43.64474" lon="2.39772">
        <ele>637.4</ele>
        <time>2015-11-11T13:35:33.699Z</time>
      </trkpt>
      <trkpt lat="43.64477" lon="2.39773">
        <ele>637.4</ele>
        <time>2015-11-11T13:35:34.663Z</time>
      </trkpt>
      <trkpt lat="43.64484" lon="2.39775">
        <ele>637.1</ele>
        <time>2015-11-11T13:35:36.714Z</time>
      </trkpt>
      <trkpt lat="43.64486" lon="2.39776">
        <ele>637</ele>
        <time>2015-11-11T13:35:37.652Z</time>
      </trkpt>
      <trkpt lat="43.64492" lon="2.39781">
        <ele>636.9</ele>
        <time>2015-11-11T13:35:40.688Z</time>
      </trkpt>
      <trkpt lat="43.64494" lon="2.39784">
        <ele>636.8</ele>
        <time>2015-11-11T13:35:41.652Z</time>
      </trkpt>
      <trkpt lat="43.64501" lon="2.39788">
        <ele>636.4</ele>
        <time>2015-11-11T13:35:44.731Z</time>
      </trkpt>
      <trkpt lat="43.64503" lon="2.39789">
        <ele>636.2</ele>
        <time>2015-11-11T13:35:45.660Z</time>
      </trkpt>
      <trkpt lat="43.64511" lon="2.3979">
        <ele>635.7</ele>
        <time>2015-11-11T13:35:49.701Z</time>
      </trkpt>
      <trkpt lat="43.64513" lon="2.3979">
        <ele>635.8</ele>
        <time>2015-11-11T13:35:50.673Z</time>
      </trkpt>
      <trkpt lat="43.64515" lon="2.3979">
        <ele>635.7</ele>
        <time>2015-11-11T13:35:51.681Z</time>
      </trkpt>
      <trkpt lat="43.64516" lon="2.39789">
        <ele>635.7</ele>
        <time>2015-11-11T13:35:52.658Z</time>
      </trkpt>
      <trkpt lat="43.64524" lon="2.3979">
        <ele>634.7</ele>
        <time>2015-11-11T13:35:57.699Z</time>
      </trkpt>
      <trkpt lat="43.64526" lon="2.39791">
        <ele>634.3</ele>
        <time>2015-11-11T13:35:58.681Z</time>
      </trkpt>
      <trkpt lat="43.64526" lon="2.39791">
        <ele>634.3</ele>
        <time>2015-11-11T13:35:58.736Z</time>
      </trkpt>
      <trkpt lat="43.64534" lon="2.39793">
        <ele>632.8</ele>
        <time>2015-11-11T13:36:02.670Z</time>
      </trkpt>
      <trkpt lat="43.64538" lon="2.39793">
        <ele>632.7</ele>
        <time>2015-11-11T13:36:03.651Z</time>
      </trkpt>
      <trkpt lat="43.64546" lon="2.39791">
        <ele>632.8</ele>
        <time>2015-11-11T13:36:06.672Z</time>
      </trkpt>
      <trkpt lat="43.6455" lon="2.39792">
        <ele>632.7</ele>
        <time>2015-11-11T13:36:07.652Z</time>
      </trkpt>
      <trkpt lat="43.64558" lon="2.39796">
        <ele>632</ele>
        <time>2015-11-11T13:36:09.737Z</time>
      </trkpt>
      <trkpt lat="43.64561" lon="2.39797">
        <ele>631.8</ele>
        <time>2015-11-11T13:36:10.663Z</time>
      </trkpt>
      <trkpt lat="43.64569" lon="2.39801">
        <ele>631</ele>
        <time>2015-11-11T13:36:13.715Z</time>
      </trkpt>
      <trkpt lat="43.64571" lon="2.39803">
        <ele>630.7</ele>
        <time>2015-11-11T13:36:14.998Z</time>
      </trkpt>
      <trkpt lat="43.64578" lon="2.39809">
        <ele>629.9</ele>
        <time>2015-11-11T13:36:18.678Z</time>
      </trkpt>
      <trkpt lat="43.64581" lon="2.39811">
        <ele>629.2</ele>
        <time>2015-11-11T13:36:19.657Z</time>
      </trkpt>
      <trkpt lat="43.64587" lon="2.39819">
        <ele>627.8</ele>
        <time>2015-11-11T13:36:21.685Z</time>
      </trkpt>
      <trkpt lat="43.64589" lon="2.39823">
        <ele>627.3</ele>
        <time>2015-11-11T13:36:22.664Z</time>
      </trkpt>
      <trkpt lat="43.64594" lon="2.39832">
        <ele>626.5</ele>
        <time>2015-11-11T13:36:24.679Z</time>
      </trkpt>
      <trkpt lat="43.64598" lon="2.39836">
        <ele>626.7</ele>
        <time>2015-11-11T13:36:25.656Z</time>
      </trkpt>
      <trkpt lat="43.64602" lon="2.39844">
        <ele>626.5</ele>
        <time>2015-11-11T13:36:27.687Z</time>
      </trkpt>
      <trkpt lat="43.64603" lon="2.39848">
        <ele>626.3</ele>
        <time>2015-11-11T13:36:28.656Z</time>
      </trkpt>
      <trkpt lat="43.64607" lon="2.39857">
        <ele>626.1</ele>
        <time>2015-11-11T13:36:30.682Z</time>
      </trkpt>
      <trkpt lat="43.64609" lon="2.39863">
        <ele>626</ele>
        <time>2015-11-11T13:36:31.674Z</time>
      </trkpt>
      <trkpt lat="43.64612" lon="2.39868">
        <ele>625.9</ele>
        <time>2015-11-11T13:36:32.682Z</time>
      </trkpt>
      <trkpt lat="43.64615" lon="2.39873">
        <ele>625.5</ele>
        <time>2015-11-11T13:36:33.653Z</time>
      </trkpt>
      <trkpt lat="43.6462" lon="2.39883">
        <ele>625.2</ele>
        <time>2015-11-11T13:36:35.688Z</time>
      </trkpt>
      <trkpt lat="43.64623" lon="2.39887">
        <ele>625.2</ele>
        <time>2015-11-11T13:36:36.651Z</time>
      </trkpt>
      <trkpt lat="43.64627" lon="2.3989">
        <ele>625.4</ele>
        <time>2015-11-11T13:36:37.676Z</time>
      </trkpt>
      <trkpt lat="43.64631" lon="2.39894">
        <ele>625.4</ele>
        <time>2015-11-11T13:36:38.660Z</time>
      </trkpt>
      <trkpt lat="43.64637" lon="2.39899">
        <ele>625.2</ele>
        <time>2015-11-11T13:36:40.723Z</time>
      </trkpt>
      <trkpt lat="43.6464" lon="2.39901">
        <ele>625.2</ele>
        <time>2015-11-11T13:36:41.656Z</time>
      </trkpt>
      <trkpt lat="43.64646" lon="2.39901">
        <ele>624.7</ele>
        <time>2015-11-11T13:36:43.687Z</time>
      </trkpt>
      <trkpt lat="43.6465" lon="2.39898">
        <ele>624.6</ele>
        <time>2015-11-11T13:36:44.652Z</time>
      </trkpt>
      <trkpt lat="43.64657" lon="2.39892">
        <ele>624.2</ele>
        <time>2015-11-11T13:36:46.682Z</time>
      </trkpt>
      <trkpt lat="43.6466" lon="2.39891">
        <ele>624.4</ele>
        <time>2015-11-11T13:36:47.674Z</time>
      </trkpt>
      <trkpt lat="43.64668" lon="2.3989">
        <ele>625.1</ele>
        <time>2015-11-11T13:36:50.676Z</time>
      </trkpt>
      <trkpt lat="43.64669" lon="2.3989">
        <ele>625.5</ele>
        <time>2015-11-11T13:36:51.658Z</time>
      </trkpt>
      <trkpt lat="43.64678" lon="2.3989">
        <ele>627.6</ele>
        <time>2015-11-11T13:36:55.713Z</time>
      </trkpt>
      <trkpt lat="43.6468" lon="2.3989">
        <ele>627.8</ele>
        <time>2015-11-11T13:36:56.659Z</time>
      </trkpt>
      <trkpt lat="43.64688" lon="2.39889">
        <ele>628.7</ele>
        <time>2015-11-11T13:36:59.679Z</time>
      </trkpt>
      <trkpt lat="43.6469" lon="2.39889">
        <ele>629</ele>
        <time>2015-11-11T13:37:00.653Z</time>
      </trkpt>
      <trkpt lat="43.64698" lon="2.3989">
        <ele>628.8</ele>
        <time>2015-11-11T13:37:03.730Z</time>
      </trkpt>
      <trkpt lat="43.64701" lon="2.39891">
        <ele>628.5</ele>
        <time>2015-11-11T13:37:04.663Z</time>
      </trkpt>
      <trkpt lat="43.64707" lon="2.39894">
        <ele>628.6</ele>
        <time>2015-11-11T13:37:06.701Z</time>
      </trkpt>
      <trkpt lat="43.64709" lon="2.39896">
        <ele>629</ele>
        <time>2015-11-11T13:37:07.678Z</time>
      </trkpt>
      <trkpt lat="43.64712" lon="2.39898">
        <ele>629.1</ele>
        <time>2015-11-11T13:37:08.699Z</time>
      </trkpt>
      <trkpt lat="43.64718" lon="2.39904">
        <ele>629.3</ele>
        <time>2015-11-11T13:37:09.672Z</time>
      </trkpt>
      <trkpt lat="43.64722" lon="2.39909">
        <ele>629.1</ele>
        <time>2015-11-11T13:37:10.702Z</time>
      </trkpt>
      <trkpt lat="43.64727" lon="2.39914">
        <ele>629.8</ele>
        <time>2015-11-11T13:37:11.672Z</time>
      </trkpt>
      <trkpt lat="43.64733" lon="2.3992">
        <ele>629.8</ele>
        <time>2015-11-11T13:37:13.678Z</time>
      </trkpt>
      <trkpt lat="43.64735" lon="2.39921">
        <ele>629.9</ele>
        <time>2015-11-11T13:37:14.652Z</time>
      </trkpt>
      <trkpt lat="43.64743" lon="2.39924">
        <ele>630.6</ele>
        <time>2015-11-11T13:37:17.686Z</time>
      </trkpt>
      <trkpt lat="43.64747" lon="2.39924">
        <ele>631.5</ele>
        <time>2015-11-11T13:37:18.650Z</time>
      </trkpt>
      <trkpt lat="43.64753" lon="2.39922">
        <ele>632.6</ele>
        <time>2015-11-11T13:37:20.703Z</time>
      </trkpt>
      <trkpt lat="43.64756" lon="2.39921">
        <ele>633</ele>
        <time>2015-11-11T13:37:21.661Z</time>
      </trkpt>
      <trkpt lat="43.64761" lon="2.39917">
        <ele>633.8</ele>
        <time>2015-11-11T13:37:23.703Z</time>
      </trkpt>
      <trkpt lat="43.64765" lon="2.39916">
        <ele>634</ele>
        <time>2015-11-11T13:37:24.653Z</time>
      </trkpt>
      <trkpt lat="43.64773" lon="2.39914">
        <ele>636.3</ele>
        <time>2015-11-11T13:37:27.687Z</time>
      </trkpt>
      <trkpt lat="43.64775" lon="2.39913">
        <ele>636.3</ele>
        <time>2015-11-11T13:37:28.656Z</time>
      </trkpt>
      <trkpt lat="43.64784" lon="2.3991">
        <ele>637</ele>
        <time>2015-11-11T13:37:32.778Z</time>
      </trkpt>
      <trkpt lat="43.64785" lon="2.3991">
        <ele>636.9</ele>
        <time>2015-11-11T13:37:33.655Z</time>
      </trkpt>
      <trkpt lat="43.64794" lon="2.39909">
        <ele>638</ele>
        <time>2015-11-11T13:37:37.686Z</time>
      </trkpt>
      <trkpt lat="43.64796" lon="2.3991">
        <ele>637.9</ele>
        <time>2015-11-11T13:37:38.652Z</time>
      </trkpt>
      <trkpt lat="43.64803" lon="2.3991">
        <ele>637.9</ele>
        <time>2015-11-11T13:37:40.701Z</time>
      </trkpt>
      <trkpt lat="43.64806" lon="2.3991">
        <ele>638.2</ele>
        <time>2015-11-11T13:37:41.661Z</time>
      </trkpt>
      <trkpt lat="43.64812" lon="2.39909">
        <ele>639.5</ele>
        <time>2015-11-11T13:37:43.712Z</time>
      </trkpt>
      <trkpt lat="43.64816" lon="2.39909">
        <ele>640.8</ele>
        <time>2015-11-11T13:37:44.660Z</time>
      </trkpt>
      <trkpt lat="43.64823" lon="2.39912">
        <ele>644</ele>
        <time>2015-11-11T13:37:47.713Z</time>
      </trkpt>
      <trkpt lat="43.64825" lon="2.39912">
        <ele>644.5</ele>
        <time>2015-11-11T13:37:48.660Z</time>
      </trkpt>
      <trkpt lat="43.64832" lon="2.39914">
        <ele>646.4</ele>
        <time>2015-11-11T13:37:53.680Z</time>
      </trkpt>
      <trkpt lat="43.64834" lon="2.39915">
        <ele>647</ele>
        <time>2015-11-11T13:37:54.651Z</time>
      </trkpt>
      <trkpt lat="43.64842" lon="2.3992">
        <ele>653.3</ele>
        <time>2015-11-11T13:38:01.712Z</time>
      </trkpt>
      <trkpt lat="43.64843" lon="2.3992">
        <ele>654</ele>
        <time>2015-11-11T13:38:02.660Z</time>
      </trkpt>
      <trkpt lat="43.64846" lon="2.39921">
        <ele>656</ele>
        <time>2015-11-11T13:38:04.680Z</time>
      </trkpt>
      <trkpt lat="43.64847" lon="2.39923">
        <ele>657.3</ele>
        <time>2015-11-11T13:38:05.656Z</time>
      </trkpt>
      <trkpt lat="43.64856" lon="2.39924">
        <ele>663.6</ele>
        <time>2015-11-11T13:38:14.675Z</time>
      </trkpt>
      <trkpt lat="43.64858" lon="2.39924">
        <ele>663.9</ele>
        <time>2015-11-11T13:38:15.653Z</time>
      </trkpt>
      <trkpt lat="43.64864" lon="2.39929">
        <ele>666</ele>
        <time>2015-11-11T13:38:20.702Z</time>
      </trkpt>
      <trkpt lat="43.64866" lon="2.39929">
        <ele>666.6</ele>
        <time>2015-11-11T13:38:21.661Z</time>
      </trkpt>
      <trkpt lat="43.64872" lon="2.39934">
        <ele>666.3</ele>
        <time>2015-11-11T13:38:23.678Z</time>
      </trkpt>
      <trkpt lat="43.64875" lon="2.39935">
        <ele>666</ele>
        <time>2015-11-11T13:38:24.652Z</time>
      </trkpt>
      <trkpt lat="43.64881" lon="2.39941">
        <ele>664.9</ele>
        <time>2015-11-11T13:38:28.701Z</time>
      </trkpt>
      <trkpt lat="43.64882" lon="2.39943">
        <ele>664.8</ele>
        <time>2015-11-11T13:38:29.672Z</time>
      </trkpt>
      <trkpt lat="43.64887" lon="2.39951">
        <ele>663</ele>
        <time>2015-11-11T13:38:34.702Z</time>
      </trkpt>
      <trkpt lat="43.64888" lon="2.39953">
        <ele>662.8</ele>
        <time>2015-11-11T13:38:35.688Z</time>
      </trkpt>
      <trkpt lat="43.64895" lon="2.39961">
        <ele>664.7</ele>
        <time>2015-11-11T13:38:45.699Z</time>
      </trkpt>
      <trkpt lat="43.64895" lon="2.39962">
        <ele>665</ele>
        <time>2015-11-11T13:38:46.663Z</time>
      </trkpt>
      <trkpt lat="43.64901" lon="2.39968">
        <ele>665.3</ele>
        <time>2015-11-11T13:39:42.680Z</time>
      </trkpt>
      <trkpt lat="43.64902" lon="2.3998">
        <ele>662.4</ele>
        <time>2015-11-11T13:39:43.657Z</time>
      </trkpt>
      <trkpt lat="43.64902" lon="2.3998">
        <ele>662.4</ele>
        <time>2015-11-11T13:39:43.707Z</time>
      </trkpt>
      <trkpt lat="43.6491" lon="2.39986">
        <ele>649.2</ele>
        <time>2015-11-11T13:44:06.697Z</time>
      </trkpt>
      <trkpt lat="43.6491" lon="2.39987">
        <ele>649.2</ele>
        <time>2015-11-11T13:44:07.660Z</time>
      </trkpt>
      <trkpt lat="43.6491" lon="2.39987">
        <ele>649.2</ele>
        <time>2015-11-11T13:44:37.690Z</time>
      </trkpt>
      <trkpt lat="43.64911" lon="2.40002">
        <ele>651.2</ele>
        <time>2015-11-11T13:44:38.651Z</time>
      </trkpt>
      <trkpt lat="43.64911" lon="2.40004">
        <ele>651.5</ele>
        <time>2015-11-11T13:45:36.705Z</time>
      </trkpt>
      <trkpt lat="43.64911" lon="2.39992">
        <ele>655.3</ele>
        <time>2015-11-11T13:45:37.660Z</time>
      </trkpt>
      <trkpt lat="43.64911" lon="2.3999">
        <ele>655.4</ele>
        <time>2015-11-11T13:45:45.698Z</time>
      </trkpt>
      <trkpt lat="43.64907" lon="2.39984">
        <ele>655.6</ele>
        <time>2015-11-11T13:45:46.664Z</time>
      </trkpt>
      <trkpt lat="43.64916" lon="2.39984">
        <ele>654.2</ele>
        <time>2015-11-11T13:46:36.686Z</time>
      </trkpt>
      <trkpt lat="43.64917" lon="2.39985">
        <ele>654.1</ele>
        <time>2015-11-11T13:46:37.651Z</time>
      </trkpt>
      <trkpt lat="43.64921" lon="2.39993">
        <ele>654</ele>
        <time>2015-11-11T13:46:40.684Z</time>
      </trkpt>
      <trkpt lat="43.64923" lon="2.39997">
        <ele>653.9</ele>
        <time>2015-11-11T13:46:41.654Z</time>
      </trkpt>
      <trkpt lat="43.64926" lon="2.40006">
        <ele>653.6</ele>
        <time>2015-11-11T13:46:43.675Z</time>
      </trkpt>
      <trkpt lat="43.64927" lon="2.4001">
        <ele>653.3</ele>
        <time>2015-11-11T13:46:44.655Z</time>
      </trkpt>
      <trkpt lat="43.64928" lon="2.40022">
        <ele>652.8</ele>
        <time>2015-11-11T13:46:47.682Z</time>
      </trkpt>
      <trkpt lat="43.64928" lon="2.40025">
        <ele>652.5</ele>
        <time>2015-11-11T13:46:48.652Z</time>
      </trkpt>
      <trkpt lat="43.64925" lon="2.40036">
        <ele>651.5</ele>
        <time>2015-11-11T13:46:54.700Z</time>
      </trkpt>
      <trkpt lat="43.64925" lon="2.40039">
        <ele>651.5</ele>
        <time>2015-11-11T13:46:55.651Z</time>
      </trkpt>
      <trkpt lat="43.64925" lon="2.40051">
        <ele>651</ele>
        <time>2015-11-11T13:46:59.685Z</time>
      </trkpt>
      <trkpt lat="43.64925" lon="2.40054">
        <ele>650.9</ele>
        <time>2015-11-11T13:47:00.653Z</time>
      </trkpt>
      <trkpt lat="43.64925" lon="2.40066">
        <ele>649.9</ele>
        <time>2015-11-11T13:47:05.699Z</time>
      </trkpt>
      <trkpt lat="43.64924" lon="2.40069">
        <ele>649.7</ele>
        <time>2015-11-11T13:47:06.672Z</time>
      </trkpt>
      <trkpt lat="43.6492" lon="2.40077">
        <ele>649.3</ele>
        <time>2015-11-11T13:47:09.687Z</time>
      </trkpt>
      <trkpt lat="43.64919" lon="2.4008">
        <ele>648.9</ele>
        <time>2015-11-11T13:47:10.652Z</time>
      </trkpt>
      <trkpt lat="43.64919" lon="2.40091">
        <ele>648.1</ele>
        <time>2015-11-11T13:47:14.691Z</time>
      </trkpt>
      <trkpt lat="43.64918" lon="2.40094">
        <ele>648</ele>
        <time>2015-11-11T13:47:15.651Z</time>
      </trkpt>
      <trkpt lat="43.64916" lon="2.40105">
        <ele>646.9</ele>
        <time>2015-11-11T13:47:19.676Z</time>
      </trkpt>
      <trkpt lat="43.64916" lon="2.40107">
        <ele>646.8</ele>
        <time>2015-11-11T13:47:20.651Z</time>
      </trkpt>
      <trkpt lat="43.64916" lon="2.40119">
        <ele>647.6</ele>
        <time>2015-11-11T13:47:26.712Z</time>
      </trkpt>
      <trkpt lat="43.64916" lon="2.40121">
        <ele>647.8</ele>
        <time>2015-11-11T13:47:27.659Z</time>
      </trkpt>
      <trkpt lat="43.64914" lon="2.4013">
        <ele>647.6</ele>
        <time>2015-11-11T13:47:31.677Z</time>
      </trkpt>
      <trkpt lat="43.64912" lon="2.40133">
        <ele>647.5</ele>
        <time>2015-11-11T13:47:32.653Z</time>
      </trkpt>
      <trkpt lat="43.64909" lon="2.40143">
        <ele>647.4</ele>
        <time>2015-11-11T13:47:37.700Z</time>
      </trkpt>
      <trkpt lat="43.64908" lon="2.40146">
        <ele>647.4</ele>
        <time>2015-11-11T13:47:38.676Z</time>
      </trkpt>
      <trkpt lat="43.64904" lon="2.40156">
        <ele>647.7</ele>
        <time>2015-11-11T13:47:42.683Z</time>
      </trkpt>
      <trkpt lat="43.64904" lon="2.40159">
        <ele>647.9</ele>
        <time>2015-11-11T13:47:43.651Z</time>
      </trkpt>
      <trkpt lat="43.64903" lon="2.40171">
        <ele>648.6</ele>
        <time>2015-11-11T13:47:48.714Z</time>
      </trkpt>
      <trkpt lat="43.64903" lon="2.40173">
        <ele>648.9</ele>
        <time>2015-11-11T13:47:49.660Z</time>
      </trkpt>
      <trkpt lat="43.649" lon="2.40183">
        <ele>649.4</ele>
        <time>2015-11-11T13:47:53.700Z</time>
      </trkpt>
      <trkpt lat="43.64899" lon="2.40186">
        <ele>649.2</ele>
        <time>2015-11-11T13:47:54.662Z</time>
      </trkpt>
      <trkpt lat="43.64895" lon="2.40197">
        <ele>649.7</ele>
        <time>2015-11-11T13:48:00.696Z</time>
      </trkpt>
      <trkpt lat="43.64895" lon="2.40199">
        <ele>649.9</ele>
        <time>2015-11-11T13:48:01.653Z</time>
      </trkpt>
      <trkpt lat="43.64897" lon="2.4021">
        <ele>651.6</ele>
        <time>2015-11-11T13:48:08.676Z</time>
      </trkpt>
      <trkpt lat="43.64898" lon="2.40211">
        <ele>651.8</ele>
        <time>2015-11-11T13:48:09.652Z</time>
      </trkpt>
      <trkpt lat="43.64902" lon="2.40221">
        <ele>652.3</ele>
        <time>2015-11-11T13:48:14.684Z</time>
      </trkpt>
      <trkpt lat="43.64903" lon="2.40222">
        <ele>652.4</ele>
        <time>2015-11-11T13:48:15.676Z</time>
      </trkpt>
      <trkpt lat="43.64904" lon="2.40233">
        <ele>652.5</ele>
        <time>2015-11-11T13:48:20.678Z</time>
      </trkpt>
      <trkpt lat="43.64904" lon="2.40235">
        <ele>652.7</ele>
        <time>2015-11-11T13:48:21.650Z</time>
      </trkpt>
      <trkpt lat="43.64904" lon="2.40246">
        <ele>653.6</ele>
        <time>2015-11-11T13:48:28.714Z</time>
      </trkpt>
      <trkpt lat="43.64904" lon="2.40247">
        <ele>653.7</ele>
        <time>2015-11-11T13:48:29.660Z</time>
      </trkpt>
      <trkpt lat="43.64904" lon="2.40257">
        <ele>654.3</ele>
        <time>2015-11-11T13:48:34.683Z</time>
      </trkpt>
      <trkpt lat="43.64903" lon="2.4026">
        <ele>654.5</ele>
        <time>2015-11-11T13:48:35.651Z</time>
      </trkpt>
      <trkpt lat="43.64905" lon="2.40271">
        <ele>654.7</ele>
        <time>2015-11-11T13:48:40.715Z</time>
      </trkpt>
      <trkpt lat="43.64907" lon="2.40275">
        <ele>654.7</ele>
        <time>2015-11-11T13:48:41.660Z</time>
      </trkpt>
      <trkpt lat="43.6491" lon="2.40286">
        <ele>654.7</ele>
        <time>2015-11-11T13:48:44.691Z</time>
      </trkpt>
      <trkpt lat="43.64912" lon="2.40289">
        <ele>654.7</ele>
        <time>2015-11-11T13:48:45.652Z</time>
      </trkpt>
      <trkpt lat="43.64915" lon="2.40298">
        <ele>654.7</ele>
        <time>2015-11-11T13:48:49.699Z</time>
      </trkpt>
      <trkpt lat="43.64916" lon="2.40301">
        <ele>654.8</ele>
        <time>2015-11-11T13:48:50.672Z</time>
      </trkpt>
      <trkpt lat="43.64919" lon="2.40312">
        <ele>655.2</ele>
        <time>2015-11-11T13:48:57.081Z</time>
      </trkpt>
      <trkpt lat="43.64921" lon="2.40313">
        <ele>655.3</ele>
        <time>2015-11-11T13:48:57.653Z</time>
      </trkpt>
      <trkpt lat="43.64924" lon="2.40323">
        <ele>655.6</ele>
        <time>2015-11-11T13:49:02.686Z</time>
      </trkpt>
      <trkpt lat="43.64924" lon="2.40326">
        <ele>655.7</ele>
        <time>2015-11-11T13:49:03.660Z</time>
      </trkpt>
      <trkpt lat="43.64925" lon="2.40337">
        <ele>655.9</ele>
        <time>2015-11-11T13:49:08.689Z</time>
      </trkpt>
      <trkpt lat="43.64926" lon="2.40338">
        <ele>656</ele>
        <time>2015-11-11T13:49:09.653Z</time>
      </trkpt>
      <trkpt lat="43.64929" lon="2.40348">
        <ele>657</ele>
        <time>2015-11-11T13:49:14.683Z</time>
      </trkpt>
      <trkpt lat="43.6493" lon="2.40353">
        <ele>657.1</ele>
        <time>2015-11-11T13:49:15.652Z</time>
      </trkpt>
      <trkpt lat="43.64935" lon="2.40362">
        <ele>657.5</ele>
        <time>2015-11-11T13:49:18.712Z</time>
      </trkpt>
      <trkpt lat="43.64936" lon="2.40365">
        <ele>657.6</ele>
        <time>2015-11-11T13:49:19.677Z</time>
      </trkpt>
      <trkpt lat="43.64936" lon="2.40375">
        <ele>658.2</ele>
        <time>2015-11-11T13:49:23.686Z</time>
      </trkpt>
      <trkpt lat="43.64935" lon="2.40377">
        <ele>658.8</ele>
        <time>2015-11-11T13:49:24.656Z</time>
      </trkpt>
      <trkpt lat="43.64937" lon="2.40387">
        <ele>660.5</ele>
        <time>2015-11-11T13:49:30.693Z</time>
      </trkpt>
      <trkpt lat="43.64937" lon="2.4039">
        <ele>660.8</ele>
        <time>2015-11-11T13:49:31.652Z</time>
      </trkpt>
      <trkpt lat="43.64937" lon="2.40402">
        <ele>662.5</ele>
        <time>2015-11-11T13:49:37.716Z</time>
      </trkpt>
      <trkpt lat="43.64936" lon="2.40404">
        <ele>662.7</ele>
        <time>2015-11-11T13:49:38.661Z</time>
      </trkpt>
      <trkpt lat="43.64937" lon="2.40414">
        <ele>663.8</ele>
        <time>2015-11-11T13:49:44.712Z</time>
      </trkpt>
      <trkpt lat="43.64937" lon="2.40417">
        <ele>663.9</ele>
        <time>2015-11-11T13:49:45.652Z</time>
      </trkpt>
      <trkpt lat="43.64943" lon="2.40424">
        <ele>664.3</ele>
        <time>2015-11-11T13:49:48.686Z</time>
      </trkpt>
      <trkpt lat="43.64944" lon="2.40426">
        <ele>664.4</ele>
        <time>2015-11-11T13:49:49.651Z</time>
      </trkpt>
      <trkpt lat="43.64944" lon="2.40437">
        <ele>663.8</ele>
        <time>2015-11-11T13:49:53.698Z</time>
      </trkpt>
      <trkpt lat="43.64945" lon="2.40439">
        <ele>663.7</ele>
        <time>2015-11-11T13:49:54.672Z</time>
      </trkpt>
      <trkpt lat="43.64952" lon="2.40446">
        <ele>665</ele>
        <time>2015-11-11T13:50:04.702Z</time>
      </trkpt>
      <trkpt lat="43.64953" lon="2.40445">
        <ele>665.3</ele>
        <time>2015-11-11T13:50:05.660Z</time>
      </trkpt>
      <trkpt lat="43.64958" lon="2.40436">
        <ele>666.1</ele>
        <time>2015-11-11T13:50:12.015Z</time>
      </trkpt>
      <trkpt lat="43.64959" lon="2.40433">
        <ele>666.2</ele>
        <time>2015-11-11T13:50:12.654Z</time>
      </trkpt>
      <trkpt lat="43.64962" lon="2.40422">
        <ele>666.8</ele>
        <time>2015-11-11T13:50:17.699Z</time>
      </trkpt>
      <trkpt lat="43.64962" lon="2.40419">
        <ele>666.8</ele>
        <time>2015-11-11T13:50:18.672Z</time>
      </trkpt>
      <trkpt lat="43.64966" lon="2.4041">
        <ele>667</ele>
        <time>2015-11-11T13:50:22.696Z</time>
      </trkpt>
      <trkpt lat="43.64967" lon="2.40408">
        <ele>667</ele>
        <time>2015-11-11T13:50:23.652Z</time>
      </trkpt>
      <trkpt lat="43.64971" lon="2.404">
        <ele>667.1</ele>
        <time>2015-11-11T13:50:27.677Z</time>
      </trkpt>
      <trkpt lat="43.64973" lon="2.40399">
        <ele>667.2</ele>
        <time>2015-11-11T13:50:28.674Z</time>
      </trkpt>
      <trkpt lat="43.64979" lon="2.40393">
        <ele>667.6</ele>
        <time>2015-11-11T13:50:32.712Z</time>
      </trkpt>
      <trkpt lat="43.6498" lon="2.40391">
        <ele>667.8</ele>
        <time>2015-11-11T13:50:33.675Z</time>
      </trkpt>
      <trkpt lat="43.64986" lon="2.40383">
        <ele>668.5</ele>
        <time>2015-11-11T13:50:39.681Z</time>
      </trkpt>
      <trkpt lat="43.64988" lon="2.40382">
        <ele>668.6</ele>
        <time>2015-11-11T13:50:40.655Z</time>
      </trkpt>
      <trkpt lat="43.64995" lon="2.40376">
        <ele>668.8</ele>
        <time>2015-11-11T13:50:45.699Z</time>
      </trkpt>
      <trkpt lat="43.64997" lon="2.40374">
        <ele>668.7</ele>
        <time>2015-11-11T13:50:46.674Z</time>
      </trkpt>
      <trkpt lat="43.65003" lon="2.40371">
        <ele>668.4</ele>
        <time>2015-11-11T13:50:49.045Z</time>
      </trkpt>
      <trkpt lat="43.65006" lon="2.40369">
        <ele>668.3</ele>
        <time>2015-11-11T13:50:49.654Z</time>
      </trkpt>
      <trkpt lat="43.65012" lon="2.40362">
        <ele>668.3</ele>
        <time>2015-11-11T13:50:53.702Z</time>
      </trkpt>
      <trkpt lat="43.65013" lon="2.4036">
        <ele>668.3</ele>
        <time>2015-11-11T13:50:54.672Z</time>
      </trkpt>
      <trkpt lat="43.65018" lon="2.40351">
        <ele>668.8</ele>
        <time>2015-11-11T13:50:59.688Z</time>
      </trkpt>
      <trkpt lat="43.6502" lon="2.4035">
        <ele>668.8</ele>
        <time>2015-11-11T13:51:00.653Z</time>
      </trkpt>
      <trkpt lat="43.65027" lon="2.40346">
        <ele>668.6</ele>
        <time>2015-11-11T13:51:04.730Z</time>
      </trkpt>
      <trkpt lat="43.65029" lon="2.40345">
        <ele>668.6</ele>
        <time>2015-11-11T13:51:05.661Z</time>
      </trkpt>
      <trkpt lat="43.65035" lon="2.40339">
        <ele>668.8</ele>
        <time>2015-11-11T13:51:10.688Z</time>
      </trkpt>
      <trkpt lat="43.65038" lon="2.40338">
        <ele>668.8</ele>
        <time>2015-11-11T13:51:11.654Z</time>
      </trkpt>
      <trkpt lat="43.65045" lon="2.40335">
        <ele>668.9</ele>
        <time>2015-11-11T13:51:14.702Z</time>
      </trkpt>
      <trkpt lat="43.65048" lon="2.40335">
        <ele>668.9</ele>
        <time>2015-11-11T13:51:15.676Z</time>
      </trkpt>
      <trkpt lat="43.65055" lon="2.40331">
        <ele>668.8</ele>
        <time>2015-11-11T13:51:17.699Z</time>
      </trkpt>
      <trkpt lat="43.65058" lon="2.4033">
        <ele>668.7</ele>
        <time>2015-11-11T13:51:18.660Z</time>
      </trkpt>
      <trkpt lat="43.65063" lon="2.40329">
        <ele>668.7</ele>
        <time>2015-11-11T13:51:19.699Z</time>
      </trkpt>
      <trkpt lat="43.65067" lon="2.40329">
        <ele>668.6</ele>
        <time>2015-11-11T13:51:20.710Z</time>
      </trkpt>
      <trkpt lat="43.65073" lon="2.40328">
        <ele>668.8</ele>
        <time>2015-11-11T13:51:22.682Z</time>
      </trkpt>
      <trkpt lat="43.65076" lon="2.40328">
        <ele>668.6</ele>
        <time>2015-11-11T13:51:23.652Z</time>
      </trkpt>
      <trkpt lat="43.65083" lon="2.40333">
        <ele>667.5</ele>
        <time>2015-11-11T13:51:26.688Z</time>
      </trkpt>
      <trkpt lat="43.65085" lon="2.40336">
        <ele>667</ele>
        <time>2015-11-11T13:51:27.661Z</time>
      </trkpt>
      <trkpt lat="43.65086" lon="2.40346">
        <ele>666</ele>
        <time>2015-11-11T13:51:30.685Z</time>
      </trkpt>
      <trkpt lat="43.65088" lon="2.4035">
        <ele>665.8</ele>
        <time>2015-11-11T13:51:31.654Z</time>
      </trkpt>
      <trkpt lat="43.65092" lon="2.40358">
        <ele>665.4</ele>
        <time>2015-11-11T13:51:33.678Z</time>
      </trkpt>
      <trkpt lat="43.65095" lon="2.40362">
        <ele>665.3</ele>
        <time>2015-11-11T13:51:34.675Z</time>
      </trkpt>
      <trkpt lat="43.651" lon="2.4037">
        <ele>665.5</ele>
        <time>2015-11-11T13:51:36.716Z</time>
      </trkpt>
      <trkpt lat="43.65103" lon="2.40371">
        <ele>665.5</ele>
        <time>2015-11-11T13:51:37.660Z</time>
      </trkpt>
      <trkpt lat="43.6511" lon="2.40374">
        <ele>666</ele>
        <time>2015-11-11T13:51:39.700Z</time>
      </trkpt>
      <trkpt lat="43.65114" lon="2.40375">
        <ele>666.4</ele>
        <time>2015-11-11T13:51:40.675Z</time>
      </trkpt>
      <trkpt lat="43.65121" lon="2.40377">
        <ele>667.1</ele>
        <time>2015-11-11T13:51:42.730Z</time>
      </trkpt>
      <trkpt lat="43.65126" lon="2.40377">
        <ele>667</ele>
        <time>2015-11-11T13:51:43.653Z</time>
      </trkpt>
      <trkpt lat="43.65133" lon="2.40375">
        <ele>667</ele>
        <time>2015-11-11T13:51:45.678Z</time>
      </trkpt>
      <trkpt lat="43.65138" lon="2.40374">
        <ele>667.1</ele>
        <time>2015-11-11T13:51:46.653Z</time>
      </trkpt>
      <trkpt lat="43.65145" lon="2.40372">
        <ele>667.2</ele>
        <time>2015-11-11T13:51:48.679Z</time>
      </trkpt>
      <trkpt lat="43.65149" lon="2.40371">
        <ele>667.6</ele>
        <time>2015-11-11T13:51:49.652Z</time>
      </trkpt>
      <trkpt lat="43.65154" lon="2.4037">
        <ele>667.4</ele>
        <time>2015-11-11T13:51:50.713Z</time>
      </trkpt>
      <trkpt lat="43.65158" lon="2.4037">
        <ele>667.4</ele>
        <time>2015-11-11T13:51:51.660Z</time>
      </trkpt>
      <trkpt lat="43.65164" lon="2.40365">
        <ele>666.8</ele>
        <time>2015-11-11T13:51:53.698Z</time>
      </trkpt>
      <trkpt lat="43.65166" lon="2.40361">
        <ele>666.4</ele>
        <time>2015-11-11T13:51:54.673Z</time>
      </trkpt>
      <trkpt lat="43.6517" lon="2.40353">
        <ele>665.8</ele>
        <time>2015-11-11T13:51:56.699Z</time>
      </trkpt>
      <trkpt lat="43.65173" lon="2.4035">
        <ele>665.5</ele>
        <time>2015-11-11T13:51:57.675Z</time>
      </trkpt>
      <trkpt lat="43.6518" lon="2.40346">
        <ele>664.6</ele>
        <time>2015-11-11T13:52:00.684Z</time>
      </trkpt>
      <trkpt lat="43.65182" lon="2.40345">
        <ele>664.3</ele>
        <time>2015-11-11T13:52:01.653Z</time>
      </trkpt>
      <trkpt lat="43.65189" lon="2.40344">
        <ele>663.7</ele>
        <time>2015-11-11T13:52:05.699Z</time>
      </trkpt>
      <trkpt lat="43.65191" lon="2.40343">
        <ele>663.5</ele>
        <time>2015-11-11T13:52:06.672Z</time>
      </trkpt>
      <trkpt lat="43.65199" lon="2.40339">
        <ele>662.8</ele>
        <time>2015-11-11T13:52:10.703Z</time>
      </trkpt>
      <trkpt lat="43.65202" lon="2.40339">
        <ele>662.7</ele>
        <time>2015-11-11T13:52:12.030Z</time>
      </trkpt>
      <trkpt lat="43.65209" lon="2.40337">
        <ele>662.1</ele>
        <time>2015-11-11T13:52:15.677Z</time>
      </trkpt>
      <trkpt lat="43.65211" lon="2.40336">
        <ele>662.1</ele>
        <time>2015-11-11T13:52:16.653Z</time>
      </trkpt>
      <trkpt lat="43.65218" lon="2.40333">
        <ele>661.6</ele>
        <time>2015-11-11T13:52:20.700Z</time>
      </trkpt>
      <trkpt lat="43.65223" lon="2.40332">
        <ele>661.4</ele>
        <time>2015-11-11T13:52:21.659Z</time>
      </trkpt>
      <trkpt lat="43.65229" lon="2.40327">
        <ele>660.8</ele>
        <time>2015-11-11T13:52:24.685Z</time>
      </trkpt>
      <trkpt lat="43.65231" lon="2.40326">
        <ele>660.7</ele>
        <time>2015-11-11T13:52:25.652Z</time>
      </trkpt>
      <trkpt lat="43.65238" lon="2.40323">
        <ele>660.3</ele>
        <time>2015-11-11T13:52:28.688Z</time>
      </trkpt>
      <trkpt lat="43.65241" lon="2.40322">
        <ele>660.3</ele>
        <time>2015-11-11T13:52:29.651Z</time>
      </trkpt>
      <trkpt lat="43.65249" lon="2.40317">
        <ele>659.9</ele>
        <time>2015-11-11T13:52:32.780Z</time>
      </trkpt>
      <trkpt lat="43.65252" lon="2.40317">
        <ele>659.8</ele>
        <time>2015-11-11T13:52:33.651Z</time>
      </trkpt>
      <trkpt lat="43.65259" lon="2.40313">
        <ele>660</ele>
        <time>2015-11-11T13:52:38.678Z</time>
      </trkpt>
      <trkpt lat="43.65262" lon="2.40312">
        <ele>660</ele>
        <time>2015-11-11T13:52:39.652Z</time>
      </trkpt>
      <trkpt lat="43.65268" lon="2.40307">
        <ele>660.1</ele>
        <time>2015-11-11T13:52:42.712Z</time>
      </trkpt>
      <trkpt lat="43.6527" lon="2.40306">
        <ele>660.1</ele>
        <time>2015-11-11T13:52:43.659Z</time>
      </trkpt>
      <trkpt lat="43.65276" lon="2.40298">
        <ele>661.1</ele>
        <time>2015-11-11T13:52:48.684Z</time>
      </trkpt>
      <trkpt lat="43.65278" lon="2.40296">
        <ele>661.1</ele>
        <time>2015-11-11T13:52:49.651Z</time>
      </trkpt>
      <trkpt lat="43.65283" lon="2.40293">
        <ele>660.9</ele>
        <time>2015-11-11T13:52:51.679Z</time>
      </trkpt>
      <trkpt lat="43.65287" lon="2.40291">
        <ele>660.8</ele>
        <time>2015-11-11T13:52:52.653Z</time>
      </trkpt>
      <trkpt lat="43.65293" lon="2.40288">
        <ele>660.7</ele>
        <time>2015-11-11T13:52:54.699Z</time>
      </trkpt>
      <trkpt lat="43.65296" lon="2.40286">
        <ele>660.6</ele>
        <time>2015-11-11T13:52:55.660Z</time>
      </trkpt>
      <trkpt lat="43.65302" lon="2.40279">
        <ele>660</ele>
        <time>2015-11-11T13:52:58.683Z</time>
      </trkpt>
      <trkpt lat="43.65304" lon="2.40277">
        <ele>659.9</ele>
        <time>2015-11-11T13:52:59.652Z</time>
      </trkpt>
      <trkpt lat="43.65303" lon="2.40265">
        <ele>659.2</ele>
        <time>2015-11-11T13:53:03.699Z</time>
      </trkpt>
      <trkpt lat="43.65302" lon="2.40264">
        <ele>658.8</ele>
        <time>2015-11-11T13:53:04.675Z</time>
      </trkpt>
      <trkpt lat="43.65297" lon="2.40257">
        <ele>658</ele>
        <time>2015-11-11T13:53:07.699Z</time>
      </trkpt>
      <trkpt lat="43.65297" lon="2.40254">
        <ele>657.7</ele>
        <time>2015-11-11T13:53:08.672Z</time>
      </trkpt>
      <trkpt lat="43.65301" lon="2.40245">
        <ele>656.3</ele>
        <time>2015-11-11T13:53:13.678Z</time>
      </trkpt>
      <trkpt lat="43.65304" lon="2.40244">
        <ele>656.2</ele>
        <time>2015-11-11T13:53:14.653Z</time>
      </trkpt>
      <trkpt lat="43.65311" lon="2.40238">
        <ele>655.2</ele>
        <time>2015-11-11T13:53:18.678Z</time>
      </trkpt>
      <trkpt lat="43.65313" lon="2.40235">
        <ele>654.8</ele>
        <time>2015-11-11T13:53:19.659Z</time>
      </trkpt>
      <trkpt lat="43.65319" lon="2.40229">
        <ele>653.9</ele>
        <time>2015-11-11T13:53:22.775Z</time>
      </trkpt>
      <trkpt lat="43.65322" lon="2.40225">
        <ele>653.4</ele>
        <time>2015-11-11T13:53:23.660Z</time>
      </trkpt>
      <trkpt lat="43.6533" lon="2.40225">
        <ele>651.4</ele>
        <time>2015-11-11T13:53:29.679Z</time>
      </trkpt>
      <trkpt lat="43.65332" lon="2.40223">
        <ele>650.9</ele>
        <time>2015-11-11T13:53:30.649Z</time>
      </trkpt>
      <trkpt lat="43.6534" lon="2.4022">
        <ele>650.2</ele>
        <time>2015-11-11T13:53:32.823Z</time>
      </trkpt>
      <trkpt lat="43.65344" lon="2.40219">
        <ele>650.2</ele>
        <time>2015-11-11T13:53:33.675Z</time>
      </trkpt>
      <trkpt lat="43.65351" lon="2.40217">
        <ele>649.1</ele>
        <time>2015-11-11T13:53:36.686Z</time>
      </trkpt>
      <trkpt lat="43.65353" lon="2.40216">
        <ele>648.7</ele>
        <time>2015-11-11T13:53:37.649Z</time>
      </trkpt>
      <trkpt lat="43.65361" lon="2.4021">
        <ele>647.2</ele>
        <time>2015-11-11T13:53:41.698Z</time>
      </trkpt>
      <trkpt lat="43.65363" lon="2.4021">
        <ele>647.1</ele>
        <time>2015-11-11T13:53:42.672Z</time>
      </trkpt>
      <trkpt lat="43.65371" lon="2.40208">
        <ele>645.6</ele>
        <time>2015-11-11T13:53:47.698Z</time>
      </trkpt>
      <trkpt lat="43.65373" lon="2.40207">
        <ele>645.9</ele>
        <time>2015-11-11T13:53:48.708Z</time>
      </trkpt>
      <trkpt lat="43.65373" lon="2.40207">
        <ele>645.9</ele>
        <time>2015-11-11T13:53:49.228Z</time>
      </trkpt>
      <trkpt lat="43.65374" lon="2.40207">
        <ele>645.9</ele>
        <time>2015-11-11T13:53:49.652Z</time>
      </trkpt>
      <trkpt lat="43.65383" lon="2.40202">
        <ele>645.7</ele>
        <time>2015-11-11T13:53:55.679Z</time>
      </trkpt>
      <trkpt lat="43.65384" lon="2.40203">
        <ele>645.6</ele>
        <time>2015-11-11T13:53:56.660Z</time>
      </trkpt>
      <trkpt lat="43.65384" lon="2.40203">
        <ele>645.6</ele>
        <time>2015-11-11T13:53:56.714Z</time>
      </trkpt>
      <trkpt lat="43.65385" lon="2.40203">
        <ele>645.6</ele>
        <time>2015-11-11T13:53:57.651Z</time>
      </trkpt>
      <trkpt lat="43.65392" lon="2.40208">
        <ele>647.4</ele>
        <time>2015-11-11T13:54:06.699Z</time>
      </trkpt>
      <trkpt lat="43.65394" lon="2.40208">
        <ele>647.6</ele>
        <time>2015-11-11T13:54:07.660Z</time>
      </trkpt>
      <trkpt lat="43.65403" lon="2.40208">
        <ele>649.3</ele>
        <time>2015-11-11T13:54:21.727Z</time>
      </trkpt>
      <trkpt lat="43.65403" lon="2.40206">
        <ele>649.1</ele>
        <time>2015-11-11T13:54:22.663Z</time>
      </trkpt>
      <trkpt lat="43.65406" lon="2.40195">
        <ele>648.7</ele>
        <time>2015-11-11T13:54:26.678Z</time>
      </trkpt>
      <trkpt lat="43.65407" lon="2.40193">
        <ele>648.6</ele>
        <time>2015-11-11T13:54:27.651Z</time>
      </trkpt>
      <trkpt lat="43.65411" lon="2.40183">
        <ele>648.3</ele>
        <time>2015-11-11T13:54:31.689Z</time>
      </trkpt>
      <trkpt lat="43.65412" lon="2.40181">
        <ele>648.1</ele>
        <time>2015-11-11T13:54:32.671Z</time>
      </trkpt>
      <trkpt lat="43.65415" lon="2.40171">
        <ele>647.3</ele>
        <time>2015-11-11T13:54:38.081Z</time>
      </trkpt>
      <trkpt lat="43.65416" lon="2.40169">
        <ele>647.2</ele>
        <time>2015-11-11T13:54:38.654Z</time>
      </trkpt>
      <trkpt lat="43.6542" lon="2.4016">
        <ele>646.9</ele>
        <time>2015-11-11T13:54:42.685Z</time>
      </trkpt>
      <trkpt lat="43.65421" lon="2.40158">
        <ele>646.8</ele>
        <time>2015-11-11T13:54:43.652Z</time>
      </trkpt>
      <trkpt lat="43.65426" lon="2.40149">
        <ele>646.4</ele>
        <time>2015-11-11T13:54:47.683Z</time>
      </trkpt>
      <trkpt lat="43.65427" lon="2.40147">
        <ele>646.6</ele>
        <time>2015-11-11T13:54:48.656Z</time>
      </trkpt>
      <trkpt lat="43.65431" lon="2.40139">
        <ele>646.4</ele>
        <time>2015-11-11T13:54:52.729Z</time>
      </trkpt>
      <trkpt lat="43.65432" lon="2.40137">
        <ele>646.4</ele>
        <time>2015-11-11T13:54:53.660Z</time>
      </trkpt>
      <trkpt lat="43.65432" lon="2.40137">
        <ele>646.4</ele>
        <time>2015-11-11T13:54:53.714Z</time>
      </trkpt>
      <trkpt lat="43.65432" lon="2.40136">
        <ele>646.3</ele>
        <time>2015-11-11T13:54:54.672Z</time>
      </trkpt>
      <trkpt lat="43.65436" lon="2.40126">
        <ele>645.7</ele>
        <time>2015-11-11T13:54:59.678Z</time>
      </trkpt>
      <trkpt lat="43.65437" lon="2.40122">
        <ele>645.5</ele>
        <time>2015-11-11T13:55:00.650Z</time>
      </trkpt>
      <trkpt lat="43.65438" lon="2.40113">
        <ele>645.3</ele>
        <time>2015-11-11T13:55:03.683Z</time>
      </trkpt>
      <trkpt lat="43.65439" lon="2.4011">
        <ele>645.3</ele>
        <time>2015-11-11T13:55:04.656Z</time>
      </trkpt>
      <trkpt lat="43.65439" lon="2.40099">
        <ele>645.2</ele>
        <time>2015-11-11T13:55:08.717Z</time>
      </trkpt>
      <trkpt lat="43.6544" lon="2.40096">
        <ele>645.2</ele>
        <time>2015-11-11T13:55:09.659Z</time>
      </trkpt>
      <trkpt lat="43.6544" lon="2.40086">
        <ele>645</ele>
        <time>2015-11-11T13:55:12.711Z</time>
      </trkpt>
      <trkpt lat="43.6544" lon="2.40084">
        <ele>644.9</ele>
        <time>2015-11-11T13:55:13.660Z</time>
      </trkpt>
      <trkpt lat="43.65438" lon="2.40073">
        <ele>644.4</ele>
        <time>2015-11-11T13:55:16.687Z</time>
      </trkpt>
      <trkpt lat="43.65438" lon="2.40071">
        <ele>644.1</ele>
        <time>2015-11-11T13:55:17.651Z</time>
      </trkpt>
      <trkpt lat="43.65439" lon="2.4006">
        <ele>643.1</ele>
        <time>2015-11-11T13:55:21.680Z</time>
      </trkpt>
      <trkpt lat="43.65439" lon="2.40058">
        <ele>643.1</ele>
        <time>2015-11-11T13:55:22.676Z</time>
      </trkpt>
      <trkpt lat="43.65439" lon="2.40046">
        <ele>642.3</ele>
        <time>2015-11-11T13:55:27.678Z</time>
      </trkpt>
      <trkpt lat="43.65441" lon="2.40043">
        <ele>642.1</ele>
        <time>2015-11-11T13:55:28.653Z</time>
      </trkpt>
      <trkpt lat="43.6544" lon="2.40034">
        <ele>641.5</ele>
        <time>2015-11-11T13:55:32.680Z</time>
      </trkpt>
      <trkpt lat="43.6544" lon="2.40032">
        <ele>641.3</ele>
        <time>2015-11-11T13:55:33.652Z</time>
      </trkpt>
      <trkpt lat="43.6544" lon="2.40029">
        <ele>641.2</ele>
        <time>2015-11-11T13:55:53.677Z</time>
      </trkpt>
      <trkpt lat="43.65443" lon="2.40017">
        <ele>644.7</ele>
        <time>2015-11-11T13:55:54.653Z</time>
      </trkpt>
      <trkpt lat="43.65449" lon="2.40008">
        <ele>645.9</ele>
        <time>2015-11-11T13:56:03.698Z</time>
      </trkpt>
      <trkpt lat="43.6545" lon="2.40008">
        <ele>646</ele>
        <time>2015-11-11T13:56:04.662Z</time>
      </trkpt>
      <trkpt lat="43.6545" lon="2.39995">
        <ele>647</ele>
        <time>2015-11-11T13:56:13.698Z</time>
      </trkpt>
      <trkpt lat="43.6545" lon="2.39993">
        <ele>647.2</ele>
        <time>2015-11-11T13:56:14.660Z</time>
      </trkpt>
      <trkpt lat="43.65453" lon="2.39982">
        <ele>648.3</ele>
        <time>2015-11-11T13:56:20.679Z</time>
      </trkpt>
      <trkpt lat="43.65455" lon="2.39981">
        <ele>648.4</ele>
        <time>2015-11-11T13:56:21.674Z</time>
      </trkpt>
      <trkpt lat="43.65458" lon="2.3997">
        <ele>648.9</ele>
        <time>2015-11-11T13:56:28.701Z</time>
      </trkpt>
      <trkpt lat="43.65457" lon="2.39967">
        <ele>648.9</ele>
        <time>2015-11-11T13:56:29.657Z</time>
      </trkpt>
      <trkpt lat="43.65456" lon="2.39955">
        <ele>649.2</ele>
        <time>2015-11-11T13:56:32.678Z</time>
      </trkpt>
      <trkpt lat="43.65455" lon="2.3995">
        <ele>649.3</ele>
        <time>2015-11-11T13:56:33.652Z</time>
      </trkpt>
      <trkpt lat="43.65451" lon="2.3994">
        <ele>649.4</ele>
        <time>2015-11-11T13:56:35.700Z</time>
      </trkpt>
      <trkpt lat="43.65448" lon="2.39935">
        <ele>649.6</ele>
        <time>2015-11-11T13:56:36.660Z</time>
      </trkpt>
      <trkpt lat="43.65443" lon="2.39926">
        <ele>649.8</ele>
        <time>2015-11-11T13:56:38.714Z</time>
      </trkpt>
      <trkpt lat="43.6544" lon="2.39922">
        <ele>649.7</ele>
        <time>2015-11-11T13:56:39.660Z</time>
      </trkpt>
      <trkpt lat="43.65436" lon="2.39914">
        <ele>649.8</ele>
        <time>2015-11-11T13:56:42.086Z</time>
      </trkpt>
      <trkpt lat="43.65434" lon="2.3991">
        <ele>649.8</ele>
        <time>2015-11-11T13:56:42.650Z</time>
      </trkpt>
      <trkpt lat="43.65431" lon="2.39902">
        <ele>649.3</ele>
        <time>2015-11-11T13:56:44.677Z</time>
      </trkpt>
      <trkpt lat="43.65431" lon="2.39897">
        <ele>648.8</ele>
        <time>2015-11-11T13:56:45.653Z</time>
      </trkpt>
      <trkpt lat="43.65432" lon="2.39888">
        <ele>648.3</ele>
        <time>2015-11-11T13:56:47.685Z</time>
      </trkpt>
      <trkpt lat="43.65434" lon="2.39884">
        <ele>648</ele>
        <time>2015-11-11T13:56:48.660Z</time>
      </trkpt>
      <trkpt lat="43.6544" lon="2.39877">
        <ele>646.9</ele>
        <time>2015-11-11T13:56:51.712Z</time>
      </trkpt>
      <trkpt lat="43.65443" lon="2.39876">
        <ele>647.1</ele>
        <time>2015-11-11T13:56:52.662Z</time>
      </trkpt>
      <trkpt lat="43.6545" lon="2.39875">
        <ele>648</ele>
        <time>2015-11-11T13:56:55.685Z</time>
      </trkpt>
      <trkpt lat="43.65453" lon="2.39874">
        <ele>648</ele>
        <time>2015-11-11T13:56:56.651Z</time>
      </trkpt>
      <trkpt lat="43.65461" lon="2.39871">
        <ele>648.5</ele>
        <time>2015-11-11T13:56:59.687Z</time>
      </trkpt>
      <trkpt lat="43.65464" lon="2.3987">
        <ele>648.6</ele>
        <time>2015-11-11T13:57:00.652Z</time>
      </trkpt>
      <trkpt lat="43.6547" lon="2.39869">
        <ele>648.3</ele>
        <time>2015-11-11T13:57:02.678Z</time>
      </trkpt>
      <trkpt lat="43.65472" lon="2.39866">
        <ele>649.1</ele>
        <time>2015-11-11T13:57:03.651Z</time>
      </trkpt>
      <trkpt lat="43.6548" lon="2.39862">
        <ele>649.1</ele>
        <time>2015-11-11T13:57:07.059Z</time>
      </trkpt>
      <trkpt lat="43.65482" lon="2.39861">
        <ele>649.2</ele>
        <time>2015-11-11T13:57:07.672Z</time>
      </trkpt>
      <trkpt lat="43.65491" lon="2.39859">
        <ele>650.4</ele>
        <time>2015-11-11T13:57:12.698Z</time>
      </trkpt>
      <trkpt lat="43.65493" lon="2.39859">
        <ele>650.5</ele>
        <time>2015-11-11T13:57:13.672Z</time>
      </trkpt>
      <trkpt lat="43.65499" lon="2.39854">
        <ele>650.8</ele>
        <time>2015-11-11T13:57:16.701Z</time>
      </trkpt>
      <trkpt lat="43.65501" lon="2.39853">
        <ele>650.7</ele>
        <time>2015-11-11T13:57:17.671Z</time>
      </trkpt>
      <trkpt lat="43.65509" lon="2.39848">
        <ele>651.5</ele>
        <time>2015-11-11T13:57:22.681Z</time>
      </trkpt>
      <trkpt lat="43.65511" lon="2.39847">
        <ele>651.8</ele>
        <time>2015-11-11T13:57:23.658Z</time>
      </trkpt>
      <trkpt lat="43.65517" lon="2.39842">
        <ele>652.2</ele>
        <time>2015-11-11T13:57:26.698Z</time>
      </trkpt>
      <trkpt lat="43.6552" lon="2.39841">
        <ele>652.5</ele>
        <time>2015-11-11T13:57:27.660Z</time>
      </trkpt>
      <trkpt lat="43.65526" lon="2.39838">
        <ele>654</ele>
        <time>2015-11-11T13:57:30.680Z</time>
      </trkpt>
      <trkpt lat="43.65529" lon="2.39837">
        <ele>655.2</ele>
        <time>2015-11-11T13:57:31.652Z</time>
      </trkpt>
      <trkpt lat="43.65536" lon="2.39837">
        <ele>655.7</ele>
        <time>2015-11-11T13:57:34.682Z</time>
      </trkpt>
      <trkpt lat="43.65538" lon="2.39836">
        <ele>656.3</ele>
        <time>2015-11-11T13:57:35.653Z</time>
      </trkpt>
      <trkpt lat="43.65547" lon="2.39837">
        <ele>657.2</ele>
        <time>2015-11-11T13:57:39.711Z</time>
      </trkpt>
      <trkpt lat="43.65549" lon="2.39837">
        <ele>657.7</ele>
        <time>2015-11-11T13:57:40.662Z</time>
      </trkpt>
      <trkpt lat="43.65557" lon="2.39836">
        <ele>659.9</ele>
        <time>2015-11-11T13:57:44.681Z</time>
      </trkpt>
      <trkpt lat="43.65559" lon="2.39836">
        <ele>660.4</ele>
        <time>2015-11-11T13:57:45.653Z</time>
      </trkpt>
      <trkpt lat="43.65568" lon="2.39837">
        <ele>662.8</ele>
        <time>2015-11-11T13:57:51.726Z</time>
      </trkpt>
      <trkpt lat="43.65568" lon="2.39838">
        <ele>663</ele>
        <time>2015-11-11T13:57:52.662Z</time>
      </trkpt>
      <trkpt lat="43.65572" lon="2.39848">
        <ele>663.6</ele>
        <time>2015-11-11T13:57:57.676Z</time>
      </trkpt>
      <trkpt lat="43.65574" lon="2.3985">
        <ele>664</ele>
        <time>2015-11-11T13:57:58.654Z</time>
      </trkpt>
      <trkpt lat="43.65581" lon="2.39858">
        <ele>664.4</ele>
        <time>2015-11-11T13:58:01.714Z</time>
      </trkpt>
      <trkpt lat="43.65582" lon="2.3986">
        <ele>664.9</ele>
        <time>2015-11-11T13:58:02.660Z</time>
      </trkpt>
      <trkpt lat="43.65587" lon="2.39866">
        <ele>665.7</ele>
        <time>2015-11-11T13:58:04.700Z</time>
      </trkpt>
      <trkpt lat="43.65593" lon="2.39868">
        <ele>665.9</ele>
        <time>2015-11-11T13:58:05.671Z</time>
      </trkpt>
      <trkpt lat="43.65601" lon="2.39872">
        <ele>666.4</ele>
        <time>2015-11-11T13:58:07.899Z</time>
      </trkpt>
      <trkpt lat="43.65604" lon="2.39873">
        <ele>666.4</ele>
        <time>2015-11-11T13:58:08.651Z</time>
      </trkpt>
      <trkpt lat="43.6561" lon="2.39879">
        <ele>666.4</ele>
        <time>2015-11-11T13:58:10.681Z</time>
      </trkpt>
      <trkpt lat="43.65612" lon="2.39882">
        <ele>666.7</ele>
        <time>2015-11-11T13:58:11.652Z</time>
      </trkpt>
      <trkpt lat="43.65617" lon="2.39886">
        <ele>666.7</ele>
        <time>2015-11-11T13:58:13.676Z</time>
      </trkpt>
      <trkpt lat="43.65621" lon="2.39889">
        <ele>666.3</ele>
        <time>2015-11-11T13:58:14.659Z</time>
      </trkpt>
      <trkpt lat="43.65625" lon="2.39895">
        <ele>666.5</ele>
        <time>2015-11-11T13:58:16.700Z</time>
      </trkpt>
      <trkpt lat="43.65628" lon="2.39901">
        <ele>664.5</ele>
        <time>2015-11-11T13:58:17.671Z</time>
      </trkpt>
      <trkpt lat="43.65634" lon="2.3991">
        <ele>662.3</ele>
        <time>2015-11-11T13:58:19.719Z</time>
      </trkpt>
      <trkpt lat="43.65637" lon="2.39914">
        <ele>660.6</ele>
        <time>2015-11-11T13:58:20.660Z</time>
      </trkpt>
      <trkpt lat="43.65644" lon="2.39918">
        <ele>661.2</ele>
        <time>2015-11-11T13:58:22.681Z</time>
      </trkpt>
      <trkpt lat="43.65648" lon="2.39918">
        <ele>661.3</ele>
        <time>2015-11-11T13:58:23.651Z</time>
      </trkpt>
      <trkpt lat="43.65657" lon="2.3992">
        <ele>661.1</ele>
        <time>2015-11-11T13:58:25.686Z</time>
      </trkpt>
      <trkpt lat="43.6566" lon="2.3992">
        <ele>660.9</ele>
        <time>2015-11-11T13:58:26.651Z</time>
      </trkpt>
      <trkpt lat="43.65669" lon="2.39919">
        <ele>659.8</ele>
        <time>2015-11-11T13:58:29.729Z</time>
      </trkpt>
      <trkpt lat="43.6567" lon="2.39919">
        <ele>660.2</ele>
        <time>2015-11-11T13:58:30.652Z</time>
      </trkpt>
      <trkpt lat="43.65677" lon="2.39918">
        <ele>660.5</ele>
        <time>2015-11-11T13:58:33.690Z</time>
      </trkpt>
      <trkpt lat="43.6568" lon="2.39918">
        <ele>661.1</ele>
        <time>2015-11-11T13:58:34.654Z</time>
      </trkpt>
      <trkpt lat="43.65688" lon="2.39919">
        <ele>661.2</ele>
        <time>2015-11-11T13:58:36.698Z</time>
      </trkpt>
      <trkpt lat="43.6569" lon="2.39917">
        <ele>661.2</ele>
        <time>2015-11-11T13:58:37.672Z</time>
      </trkpt>
      <trkpt lat="43.65696" lon="2.39911">
        <ele>661</ele>
        <time>2015-11-11T13:58:40.701Z</time>
      </trkpt>
      <trkpt lat="43.65697" lon="2.39909">
        <ele>660.8</ele>
        <time>2015-11-11T13:58:41.671Z</time>
      </trkpt>
      <trkpt lat="43.65703" lon="2.39902">
        <ele>660</ele>
        <time>2015-11-11T13:58:46.678Z</time>
      </trkpt>
      <trkpt lat="43.65705" lon="2.39901">
        <ele>659.8</ele>
        <time>2015-11-11T13:58:47.656Z</time>
      </trkpt>
      <trkpt lat="43.65705" lon="2.39901">
        <ele>659.8</ele>
        <time>2015-11-11T13:58:47.687Z</time>
      </trkpt>
      <trkpt lat="43.65706" lon="2.399">
        <ele>659.7</ele>
        <time>2015-11-11T13:58:48.660Z</time>
      </trkpt>
      <trkpt lat="43.65713" lon="2.39896">
        <ele>659.6</ele>
        <time>2015-11-11T13:58:56.194Z</time>
      </trkpt>
      <trkpt lat="43.65714" lon="2.39895">
        <ele>659.3</ele>
        <time>2015-11-11T13:58:56.655Z</time>
      </trkpt>
      <trkpt lat="43.65714" lon="2.39895">
        <ele>659.3</ele>
        <time>2015-11-11T13:58:56.700Z</time>
      </trkpt>
      <trkpt lat="43.65715" lon="2.39895">
        <ele>659.4</ele>
        <time>2015-11-11T13:58:57.671Z</time>
      </trkpt>
      <trkpt lat="43.65717" lon="2.39895">
        <ele>659.3</ele>
        <time>2015-11-11T13:58:58.653Z</time>
      </trkpt>
      <trkpt lat="43.65724" lon="2.39899">
        <ele>658.2</ele>
        <time>2015-11-11T13:59:04.673Z</time>
      </trkpt>
      <trkpt lat="43.65726" lon="2.399">
        <ele>657.8</ele>
        <time>2015-11-11T13:59:05.660Z</time>
      </trkpt>
      <trkpt lat="43.65731" lon="2.39905">
        <ele>657.2</ele>
        <time>2015-11-11T13:59:09.683Z</time>
      </trkpt>
      <trkpt lat="43.65732" lon="2.39906">
        <ele>657.2</ele>
        <time>2015-11-11T13:59:10.654Z</time>
      </trkpt>
      <trkpt lat="43.65733" lon="2.39906">
        <ele>657.2</ele>
        <time>2015-11-11T13:59:47.069Z</time>
      </trkpt>
      <trkpt lat="43.65735" lon="2.39909">
        <ele>656.4</ele>
        <time>2015-11-11T13:59:47.650Z</time>
      </trkpt>
      <trkpt lat="43.65743" lon="2.39911">
        <ele>654.9</ele>
        <time>2015-11-11T14:00:01.677Z</time>
      </trkpt>
      <trkpt lat="43.65745" lon="2.39912">
        <ele>654.5</ele>
        <time>2015-11-11T14:00:02.652Z</time>
      </trkpt>
      <trkpt lat="43.65751" lon="2.39912">
        <ele>654.5</ele>
        <time>2015-11-11T14:00:14.679Z</time>
      </trkpt>
      <trkpt lat="43.65753" lon="2.39912">
        <ele>654.7</ele>
        <time>2015-11-11T14:00:15.650Z</time>
      </trkpt>
      <trkpt lat="43.65758" lon="2.3991">
        <ele>654.9</ele>
        <time>2015-11-11T14:00:20.702Z</time>
      </trkpt>
      <trkpt lat="43.6576" lon="2.39908">
        <ele>655.1</ele>
        <time>2015-11-11T14:00:21.659Z</time>
      </trkpt>
      <trkpt lat="43.65767" lon="2.39903">
        <ele>655.5</ele>
        <time>2015-11-11T14:00:28.681Z</time>
      </trkpt>
      <trkpt lat="43.65769" lon="2.39903">
        <ele>655.5</ele>
        <time>2015-11-11T14:00:29.652Z</time>
      </trkpt>
      <trkpt lat="43.65776" lon="2.39898">
        <ele>656.3</ele>
        <time>2015-11-11T14:00:37.681Z</time>
      </trkpt>
      <trkpt lat="43.65777" lon="2.39897">
        <ele>656.4</ele>
        <time>2015-11-11T14:00:38.652Z</time>
      </trkpt>
      <trkpt lat="43.65785" lon="2.39895">
        <ele>657.6</ele>
        <time>2015-11-11T14:00:45.690Z</time>
      </trkpt>
      <trkpt lat="43.65787" lon="2.39894">
        <ele>657.8</ele>
        <time>2015-11-11T14:00:46.673Z</time>
      </trkpt>
      <trkpt lat="43.65792" lon="2.39888">
        <ele>658.6</ele>
        <time>2015-11-11T14:00:51.692Z</time>
      </trkpt>
      <trkpt lat="43.65795" lon="2.39886">
        <ele>658.7</ele>
        <time>2015-11-11T14:00:52.675Z</time>
      </trkpt>
      <trkpt lat="43.65801" lon="2.39878">
        <ele>659.2</ele>
        <time>2015-11-11T14:00:58.686Z</time>
      </trkpt>
      <trkpt lat="43.65802" lon="2.39877">
        <ele>659.3</ele>
        <time>2015-11-11T14:00:59.651Z</time>
      </trkpt>
      <trkpt lat="43.65808" lon="2.39868">
        <ele>659.8</ele>
        <time>2015-11-11T14:01:05.698Z</time>
      </trkpt>
      <trkpt lat="43.65809" lon="2.39866">
        <ele>659.8</ele>
        <time>2015-11-11T14:01:06.671Z</time>
      </trkpt>
      <trkpt lat="43.65815" lon="2.39858">
        <ele>659.7</ele>
        <time>2015-11-11T14:01:10.687Z</time>
      </trkpt>
      <trkpt lat="43.65816" lon="2.39856">
        <ele>659.6</ele>
        <time>2015-11-11T14:01:11.652Z</time>
      </trkpt>
      <trkpt lat="43.6582" lon="2.39849">
        <ele>659.2</ele>
        <time>2015-11-11T14:01:15.712Z</time>
      </trkpt>
      <trkpt lat="43.65822" lon="2.39847">
        <ele>659</ele>
        <time>2015-11-11T14:01:16.663Z</time>
      </trkpt>
      <trkpt lat="43.65827" lon="2.39838">
        <ele>658.9</ele>
        <time>2015-11-11T14:01:20.680Z</time>
      </trkpt>
      <trkpt lat="43.65829" lon="2.39837">
        <ele>658.6</ele>
        <time>2015-11-11T14:01:21.652Z</time>
      </trkpt>
      <trkpt lat="43.65835" lon="2.39832">
        <ele>658.3</ele>
        <time>2015-11-11T14:01:23.720Z</time>
      </trkpt>
      <trkpt lat="43.65837" lon="2.39829">
        <ele>658.3</ele>
        <time>2015-11-11T14:01:24.672Z</time>
      </trkpt>
      <trkpt lat="43.65843" lon="2.39822">
        <ele>658.3</ele>
        <time>2015-11-11T14:01:28.729Z</time>
      </trkpt>
      <trkpt lat="43.65844" lon="2.39819">
        <ele>658.4</ele>
        <time>2015-11-11T14:01:29.659Z</time>
      </trkpt>
      <trkpt lat="43.65844" lon="2.39808">
        <ele>657.3</ele>
        <time>2015-11-11T14:01:35.678Z</time>
      </trkpt>
      <trkpt lat="43.65843" lon="2.39806">
        <ele>657.2</ele>
        <time>2015-11-11T14:01:36.660Z</time>
      </trkpt>
      <trkpt lat="43.65841" lon="2.39796">
        <ele>656.2</ele>
        <time>2015-11-11T14:01:40.714Z</time>
      </trkpt>
      <trkpt lat="43.6584" lon="2.39794">
        <ele>655.9</ele>
        <time>2015-11-11T14:01:41.659Z</time>
      </trkpt>
      <trkpt lat="43.65836" lon="2.39785">
        <ele>654.8</ele>
        <time>2015-11-11T14:01:46.687Z</time>
      </trkpt>
      <trkpt lat="43.65835" lon="2.39782">
        <ele>655.1</ele>
        <time>2015-11-11T14:01:47.650Z</time>
      </trkpt>
      <trkpt lat="43.65831" lon="2.39774">
        <ele>655</ele>
        <time>2015-11-11T14:01:51.697Z</time>
      </trkpt>
      <trkpt lat="43.65829" lon="2.39772">
        <ele>654.8</ele>
        <time>2015-11-11T14:01:52.674Z</time>
      </trkpt>
      <trkpt lat="43.65824" lon="2.39764">
        <ele>654.8</ele>
        <time>2015-11-11T14:01:55.677Z</time>
      </trkpt>
      <trkpt lat="43.65823" lon="2.39761">
        <ele>654.9</ele>
        <time>2015-11-11T14:01:56.656Z</time>
      </trkpt>
      <trkpt lat="43.65819" lon="2.39751">
        <ele>654.2</ele>
        <time>2015-11-11T14:02:00.714Z</time>
      </trkpt>
      <trkpt lat="43.65819" lon="2.39747">
        <ele>654</ele>
        <time>2015-11-11T14:02:01.659Z</time>
      </trkpt>
      <trkpt lat="43.65818" lon="2.39738">
        <ele>653.4</ele>
        <time>2015-11-11T14:02:03.699Z</time>
      </trkpt>
      <trkpt lat="43.65817" lon="2.39734">
        <ele>653</ele>
        <time>2015-11-11T14:02:04.662Z</time>
      </trkpt>
      <trkpt lat="43.65817" lon="2.39723">
        <ele>652.1</ele>
        <time>2015-11-11T14:02:06.684Z</time>
      </trkpt>
      <trkpt lat="43.65816" lon="2.39718">
        <ele>651.9</ele>
        <time>2015-11-11T14:02:07.652Z</time>
      </trkpt>
      <trkpt lat="43.65816" lon="2.39709">
        <ele>651.2</ele>
        <time>2015-11-11T14:02:09.676Z</time>
      </trkpt>
      <trkpt lat="43.65817" lon="2.39705">
        <ele>650.9</ele>
        <time>2015-11-11T14:02:10.656Z</time>
      </trkpt>
      <trkpt lat="43.65817" lon="2.39695">
        <ele>649.6</ele>
        <time>2015-11-11T14:02:13.699Z</time>
      </trkpt>
      <trkpt lat="43.65818" lon="2.39692">
        <ele>649</ele>
        <time>2015-11-11T14:02:14.672Z</time>
      </trkpt>
      <trkpt lat="43.65818" lon="2.39683">
        <ele>648.2</ele>
        <time>2015-11-11T14:02:16.689Z</time>
      </trkpt>
      <trkpt lat="43.65819" lon="2.39678">
        <ele>647.8</ele>
        <time>2015-11-11T14:02:17.651Z</time>
      </trkpt>
      <trkpt lat="43.65821" lon="2.39668">
        <ele>646.9</ele>
        <time>2015-11-11T14:02:19.677Z</time>
      </trkpt>
      <trkpt lat="43.65823" lon="2.39662">
        <ele>646.6</ele>
        <time>2015-11-11T14:02:20.652Z</time>
      </trkpt>
      <trkpt lat="43.65827" lon="2.39652">
        <ele>645.5</ele>
        <time>2015-11-11T14:02:22.718Z</time>
      </trkpt>
      <trkpt lat="43.65829" lon="2.39646">
        <ele>645</ele>
        <time>2015-11-11T14:02:23.659Z</time>
      </trkpt>
      <trkpt lat="43.65831" lon="2.39641">
        <ele>644.4</ele>
        <time>2015-11-11T14:02:24.682Z</time>
      </trkpt>
      <trkpt lat="43.65834" lon="2.39634">
        <ele>643.9</ele>
        <time>2015-11-11T14:02:25.652Z</time>
      </trkpt>
      <trkpt lat="43.65837" lon="2.39628">
        <ele>643.4</ele>
        <time>2015-11-11T14:02:26.685Z</time>
      </trkpt>
      <trkpt lat="43.65838" lon="2.39621">
        <ele>642.9</ele>
        <time>2015-11-11T14:02:27.652Z</time>
      </trkpt>
      <trkpt lat="43.65841" lon="2.39611">
        <ele>641.9</ele>
        <time>2015-11-11T14:02:29.674Z</time>
      </trkpt>
      <trkpt lat="43.65842" lon="2.39607">
        <ele>641.4</ele>
        <time>2015-11-11T14:02:30.671Z</time>
      </trkpt>
      <trkpt lat="43.65844" lon="2.39598">
        <ele>640.5</ele>
        <time>2015-11-11T14:02:32.711Z</time>
      </trkpt>
      <trkpt lat="43.65846" lon="2.39593">
        <ele>640.1</ele>
        <time>2015-11-11T14:02:33.659Z</time>
      </trkpt>
      <trkpt lat="43.65846" lon="2.39583">
        <ele>639.2</ele>
        <time>2015-11-11T14:02:35.697Z</time>
      </trkpt>
      <trkpt lat="43.65846" lon="2.39578">
        <ele>638.9</ele>
        <time>2015-11-11T14:02:36.671Z</time>
      </trkpt>
      <trkpt lat="43.65847" lon="2.3957">
        <ele>638.1</ele>
        <time>2015-11-11T14:02:38.698Z</time>
      </trkpt>
      <trkpt lat="43.65848" lon="2.39565">
        <ele>637.7</ele>
        <time>2015-11-11T14:02:39.659Z</time>
      </trkpt>
      <trkpt lat="43.6585" lon="2.39556">
        <ele>636.9</ele>
        <time>2015-11-11T14:02:41.677Z</time>
      </trkpt>
      <trkpt lat="43.65851" lon="2.39551">
        <ele>636.5</ele>
        <time>2015-11-11T14:02:42.652Z</time>
      </trkpt>
      <trkpt lat="43.65854" lon="2.39543">
        <ele>635.9</ele>
        <time>2015-11-11T14:02:44.684Z</time>
      </trkpt>
      <trkpt lat="43.65854" lon="2.39538">
        <ele>635.5</ele>
        <time>2015-11-11T14:02:45.653Z</time>
      </trkpt>
      <trkpt lat="43.65856" lon="2.39528">
        <ele>634.1</ele>
        <time>2015-11-11T14:02:49.698Z</time>
      </trkpt>
      <trkpt lat="43.65857" lon="2.39523">
        <ele>633.7</ele>
        <time>2015-11-11T14:02:50.671Z</time>
      </trkpt>
      <trkpt lat="43.6586" lon="2.39513">
        <ele>632.5</ele>
        <time>2015-11-11T14:02:55.067Z</time>
      </trkpt>
      <trkpt lat="43.65861" lon="2.39509">
        <ele>632.9</ele>
        <time>2015-11-11T14:02:55.650Z</time>
      </trkpt>
      <trkpt lat="43.65865" lon="2.39501">
        <ele>632.3</ele>
        <time>2015-11-11T14:02:57.700Z</time>
      </trkpt>
      <trkpt lat="43.65868" lon="2.39496">
        <ele>631.9</ele>
        <time>2015-11-11T14:02:58.668Z</time>
      </trkpt>
      <trkpt lat="43.6587" lon="2.39488">
        <ele>631.7</ele>
        <time>2015-11-11T14:03:00.746Z</time>
      </trkpt>
      <trkpt lat="43.65872" lon="2.39484">
        <ele>631.7</ele>
        <time>2015-11-11T14:03:01.652Z</time>
      </trkpt>
      <trkpt lat="43.65875" lon="2.39476">
        <ele>631.4</ele>
        <time>2015-11-11T14:03:03.679Z</time>
      </trkpt>
      <trkpt lat="43.65876" lon="2.39472">
        <ele>631</ele>
        <time>2015-11-11T14:03:04.659Z</time>
      </trkpt>
      <trkpt lat="43.65878" lon="2.3946">
        <ele>630.5</ele>
        <time>2015-11-11T14:03:07.699Z</time>
      </trkpt>
      <trkpt lat="43.65879" lon="2.39457">
        <ele>630.5</ele>
        <time>2015-11-11T14:03:08.672Z</time>
      </trkpt>
      <trkpt lat="43.65881" lon="2.39446">
        <ele>629.6</ele>
        <time>2015-11-11T14:03:11.698Z</time>
      </trkpt>
      <trkpt lat="43.65882" lon="2.39443">
        <ele>629.4</ele>
        <time>2015-11-11T14:03:12.671Z</time>
      </trkpt>
      <trkpt lat="43.65884" lon="2.39432">
        <ele>628.9</ele>
        <time>2015-11-11T14:03:15.678Z</time>
      </trkpt>
      <trkpt lat="43.65885" lon="2.39429">
        <ele>628.5</ele>
        <time>2015-11-11T14:03:16.652Z</time>
      </trkpt>
      <trkpt lat="43.65886" lon="2.39417">
        <ele>629.2</ele>
        <time>2015-11-11T14:03:19.676Z</time>
      </trkpt>
      <trkpt lat="43.65887" lon="2.39414">
        <ele>628.8</ele>
        <time>2015-11-11T14:03:20.654Z</time>
      </trkpt>
      <trkpt lat="43.65889" lon="2.39405">
        <ele>627.8</ele>
        <time>2015-11-11T14:03:22.701Z</time>
      </trkpt>
      <trkpt lat="43.6589" lon="2.39402">
        <ele>627.5</ele>
        <time>2015-11-11T14:03:23.659Z</time>
      </trkpt>
      <trkpt lat="43.65893" lon="2.39393">
        <ele>629</ele>
        <time>2015-11-11T14:03:26.710Z</time>
      </trkpt>
      <trkpt lat="43.65894" lon="2.39389">
        <ele>629.7</ele>
        <time>2015-11-11T14:03:27.659Z</time>
      </trkpt>
      <trkpt lat="43.65897" lon="2.39377">
        <ele>630.8</ele>
        <time>2015-11-11T14:03:30.687Z</time>
      </trkpt>
      <trkpt lat="43.65897" lon="2.39375">
        <ele>630.7</ele>
        <time>2015-11-11T14:03:31.651Z</time>
      </trkpt>
      <trkpt lat="43.65899" lon="2.39365">
        <ele>630.3</ele>
        <time>2015-11-11T14:03:34.680Z</time>
      </trkpt>
      <trkpt lat="43.659" lon="2.39362">
        <ele>630.1</ele>
        <time>2015-11-11T14:03:35.659Z</time>
      </trkpt>
      <trkpt lat="43.65899" lon="2.39352">
        <ele>632.9</ele>
        <time>2015-11-11T14:03:39.699Z</time>
      </trkpt>
      <trkpt lat="43.65899" lon="2.3935">
        <ele>633.3</ele>
        <time>2015-11-11T14:03:40.673Z</time>
      </trkpt>
      <trkpt lat="43.65901" lon="2.39341">
        <ele>633.2</ele>
        <time>2015-11-11T14:03:43.676Z</time>
      </trkpt>
      <trkpt lat="43.65902" lon="2.39338">
        <ele>633.6</ele>
        <time>2015-11-11T14:03:44.653Z</time>
      </trkpt>
      <trkpt lat="43.65905" lon="2.39328">
        <ele>634.2</ele>
        <time>2015-11-11T14:03:47.700Z</time>
      </trkpt>
      <trkpt lat="43.65905" lon="2.39325">
        <ele>634.1</ele>
        <time>2015-11-11T14:03:48.671Z</time>
      </trkpt>
      <trkpt lat="43.65908" lon="2.39313">
        <ele>633.7</ele>
        <time>2015-11-11T14:03:53.078Z</time>
      </trkpt>
      <trkpt lat="43.65908" lon="2.3931">
        <ele>633.3</ele>
        <time>2015-11-11T14:03:53.652Z</time>
      </trkpt>
      <trkpt lat="43.65908" lon="2.393">
        <ele>632.9</ele>
        <time>2015-11-11T14:03:56.676Z</time>
      </trkpt>
      <trkpt lat="43.65907" lon="2.39297">
        <ele>632.6</ele>
        <time>2015-11-11T14:03:57.651Z</time>
      </trkpt>
      <trkpt lat="43.65906" lon="2.39286">
        <ele>632</ele>
        <time>2015-11-11T14:04:00.680Z</time>
      </trkpt>
      <trkpt lat="43.65905" lon="2.39283">
        <ele>632</ele>
        <time>2015-11-11T14:04:01.647Z</time>
      </trkpt>
      <trkpt lat="43.65902" lon="2.39276">
        <ele>632.8</ele>
        <time>2015-11-11T14:04:03.678Z</time>
      </trkpt>
      <trkpt lat="43.659" lon="2.39272">
        <ele>633.1</ele>
        <time>2015-11-11T14:04:04.657Z</time>
      </trkpt>
      <trkpt lat="43.65895" lon="2.39262">
        <ele>632.7</ele>
        <time>2015-11-11T14:04:07.714Z</time>
      </trkpt>
      <trkpt lat="43.65895" lon="2.39258">
        <ele>632.5</ele>
        <time>2015-11-11T14:04:08.671Z</time>
      </trkpt>
      <trkpt lat="43.65896" lon="2.39246">
        <ele>632</ele>
        <time>2015-11-11T14:04:11.676Z</time>
      </trkpt>
      <trkpt lat="43.65896" lon="2.3924">
        <ele>631.9</ele>
        <time>2015-11-11T14:04:12.655Z</time>
      </trkpt>
      <trkpt lat="43.65896" lon="2.39231">
        <ele>631.3</ele>
        <time>2015-11-11T14:04:14.679Z</time>
      </trkpt>
      <trkpt lat="43.65896" lon="2.39227">
        <ele>631</ele>
        <time>2015-11-11T14:04:15.652Z</time>
      </trkpt>
      <trkpt lat="43.65892" lon="2.39218">
        <ele>631.8</ele>
        <time>2015-11-11T14:04:18.711Z</time>
      </trkpt>
      <trkpt lat="43.65891" lon="2.39214">
        <ele>632.3</ele>
        <time>2015-11-11T14:04:19.659Z</time>
      </trkpt>
      <trkpt lat="43.65889" lon="2.39203">
        <ele>632.5</ele>
        <time>2015-11-11T14:04:23.698Z</time>
      </trkpt>
      <trkpt lat="43.65889" lon="2.392">
        <ele>632</ele>
        <time>2015-11-11T14:04:24.672Z</time>
      </trkpt>
      <trkpt lat="43.65891" lon="2.39189">
        <ele>630.8</ele>
        <time>2015-11-11T14:04:30.692Z</time>
      </trkpt>
      <trkpt lat="43.65891" lon="2.39186">
        <ele>630.6</ele>
        <time>2015-11-11T14:04:31.651Z</time>
      </trkpt>
      <trkpt lat="43.65889" lon="2.39174">
        <ele>630.3</ele>
        <time>2015-11-11T14:04:35.678Z</time>
      </trkpt>
      <trkpt lat="43.65889" lon="2.39172">
        <ele>630</ele>
        <time>2015-11-11T14:04:36.661Z</time>
      </trkpt>
      <trkpt lat="43.65893" lon="2.39162">
        <ele>629.5</ele>
        <time>2015-11-11T14:04:42.693Z</time>
      </trkpt>
      <trkpt lat="43.65895" lon="2.3916">
        <ele>629.3</ele>
        <time>2015-11-11T14:04:43.652Z</time>
      </trkpt>
      <trkpt lat="43.65901" lon="2.39152">
        <ele>628.8</ele>
        <time>2015-11-11T14:04:49.715Z</time>
      </trkpt>
      <trkpt lat="43.65903" lon="2.3915">
        <ele>628.8</ele>
        <time>2015-11-11T14:04:50.672Z</time>
      </trkpt>
      <trkpt lat="43.65907" lon="2.39144">
        <ele>628.3</ele>
        <time>2015-11-11T14:04:55.043Z</time>
      </trkpt>
      <trkpt lat="43.65907" lon="2.39143">
        <ele>628.1</ele>
        <time>2015-11-11T14:04:55.651Z</time>
      </trkpt>
      <trkpt lat="43.65909" lon="2.39139">
        <ele>627.7</ele>
        <time>2015-11-11T14:04:57.695Z</time>
      </trkpt>
      <trkpt lat="43.6591" lon="2.39136">
        <ele>627.7</ele>
        <time>2015-11-11T14:04:58.663Z</time>
      </trkpt>
      <trkpt lat="43.65912" lon="2.39129">
        <ele>627.8</ele>
        <time>2015-11-11T14:05:00.705Z</time>
      </trkpt>
      <trkpt lat="43.65917" lon="2.39125">
        <ele>627.7</ele>
        <time>2015-11-11T14:05:01.652Z</time>
      </trkpt>
      <trkpt lat="43.65919" lon="2.39114">
        <ele>627.7</ele>
        <time>2015-11-11T14:05:05.699Z</time>
      </trkpt>
      <trkpt lat="43.6592" lon="2.39112">
        <ele>627.6</ele>
        <time>2015-11-11T14:05:06.673Z</time>
      </trkpt>
      <trkpt lat="43.65924" lon="2.39102">
        <ele>628.5</ele>
        <time>2015-11-11T14:05:09.676Z</time>
      </trkpt>
      <trkpt lat="43.65925" lon="2.391">
        <ele>628.6</ele>
        <time>2015-11-11T14:05:10.653Z</time>
      </trkpt>
      <trkpt lat="43.65927" lon="2.39089">
        <ele>629.3</ele>
        <time>2015-11-11T14:05:14.711Z</time>
      </trkpt>
      <trkpt lat="43.65928" lon="2.39086">
        <ele>629.3</ele>
        <time>2015-11-11T14:05:15.660Z</time>
      </trkpt>
      <trkpt lat="43.6593" lon="2.39075">
        <ele>628.6</ele>
        <time>2015-11-11T14:05:19.683Z</time>
      </trkpt>
      <trkpt lat="43.6593" lon="2.39073">
        <ele>628.5</ele>
        <time>2015-11-11T14:05:20.656Z</time>
      </trkpt>
      <trkpt lat="43.65929" lon="2.39063">
        <ele>628.8</ele>
        <time>2015-11-11T14:05:24.683Z</time>
      </trkpt>
      <trkpt lat="43.6593" lon="2.3906">
        <ele>628.6</ele>
        <time>2015-11-11T14:05:25.660Z</time>
      </trkpt>
      <trkpt lat="43.6593" lon="2.3905">
        <ele>627.6</ele>
        <time>2015-11-11T14:05:29.699Z</time>
      </trkpt>
      <trkpt lat="43.65931" lon="2.39047">
        <ele>627.4</ele>
        <time>2015-11-11T14:05:30.653Z</time>
      </trkpt>
      <trkpt lat="43.65933" lon="2.39036">
        <ele>626.7</ele>
        <time>2015-11-11T14:05:33.678Z</time>
      </trkpt>
      <trkpt lat="43.65935" lon="2.39031">
        <ele>626.4</ele>
        <time>2015-11-11T14:05:34.661Z</time>
      </trkpt>
      <trkpt lat="43.65936" lon="2.39021">
        <ele>626</ele>
        <time>2015-11-11T14:05:37.701Z</time>
      </trkpt>
      <trkpt lat="43.65936" lon="2.39018">
        <ele>626.1</ele>
        <time>2015-11-11T14:05:38.673Z</time>
      </trkpt>
      <trkpt lat="43.65936" lon="2.39006">
        <ele>626.1</ele>
        <time>2015-11-11T14:05:43.868Z</time>
      </trkpt>
      <trkpt lat="43.65936" lon="2.39004">
        <ele>626.3</ele>
        <time>2015-11-11T14:05:44.655Z</time>
      </trkpt>
      <trkpt lat="43.65937" lon="2.38994">
        <ele>626.2</ele>
        <time>2015-11-11T14:05:48.678Z</time>
      </trkpt>
      <trkpt lat="43.65938" lon="2.38992">
        <ele>626.1</ele>
        <time>2015-11-11T14:05:49.652Z</time>
      </trkpt>
      <trkpt lat="43.6594" lon="2.38982">
        <ele>625.4</ele>
        <time>2015-11-11T14:05:53.698Z</time>
      </trkpt>
      <trkpt lat="43.65942" lon="2.38979">
        <ele>625.3</ele>
        <time>2015-11-11T14:05:54.660Z</time>
      </trkpt>
      <trkpt lat="43.65945" lon="2.38971">
        <ele>625.3</ele>
        <time>2015-11-11T14:05:57.685Z</time>
      </trkpt>
      <trkpt lat="43.65947" lon="2.38968">
        <ele>625.5</ele>
        <time>2015-11-11T14:05:58.652Z</time>
      </trkpt>
      <trkpt lat="43.6595" lon="2.3896">
        <ele>626.6</ele>
        <time>2015-11-11T14:06:00.688Z</time>
      </trkpt>
      <trkpt lat="43.65952" lon="2.38957">
        <ele>626.8</ele>
        <time>2015-11-11T14:06:01.654Z</time>
      </trkpt>
      <trkpt lat="43.65957" lon="2.38948">
        <ele>626.7</ele>
        <time>2015-11-11T14:06:03.717Z</time>
      </trkpt>
      <trkpt lat="43.6596" lon="2.38944">
        <ele>626.5</ele>
        <time>2015-11-11T14:06:04.658Z</time>
      </trkpt>
      <trkpt lat="43.65962" lon="2.38934">
        <ele>626.4</ele>
        <time>2015-11-11T14:06:07.675Z</time>
      </trkpt>
      <trkpt lat="43.65961" lon="2.38931">
        <ele>627.2</ele>
        <time>2015-11-11T14:06:08.654Z</time>
      </trkpt>
      <trkpt lat="43.65958" lon="2.38921">
        <ele>627.4</ele>
        <time>2015-11-11T14:06:12.712Z</time>
      </trkpt>
      <trkpt lat="43.65958" lon="2.38918">
        <ele>627.2</ele>
        <time>2015-11-11T14:06:13.660Z</time>
      </trkpt>
      <trkpt lat="43.65955" lon="2.38908">
        <ele>627.8</ele>
        <time>2015-11-11T14:06:18.089Z</time>
      </trkpt>
      <trkpt lat="43.65954" lon="2.38906">
        <ele>627.6</ele>
        <time>2015-11-11T14:06:18.659Z</time>
      </trkpt>
      <trkpt lat="43.65952" lon="2.38897">
        <ele>626.9</ele>
        <time>2015-11-11T14:06:22.679Z</time>
      </trkpt>
      <trkpt lat="43.65952" lon="2.38894">
        <ele>626.7</ele>
        <time>2015-11-11T14:06:23.652Z</time>
      </trkpt>
      <trkpt lat="43.65952" lon="2.38891">
        <ele>626.6</ele>
        <time>2015-11-11T14:06:24.683Z</time>
      </trkpt>
      <trkpt lat="43.65951" lon="2.3889">
        <ele>626.5</ele>
        <time>2015-11-11T14:06:25.660Z</time>
      </trkpt>
      <trkpt lat="43.65948" lon="2.3888">
        <ele>627.6</ele>
        <time>2015-11-11T14:06:29.698Z</time>
      </trkpt>
      <trkpt lat="43.65947" lon="2.38877">
        <ele>628</ele>
        <time>2015-11-11T14:06:30.660Z</time>
      </trkpt>
      <trkpt lat="43.65947" lon="2.38877">
        <ele>628</ele>
        <time>2015-11-11T14:06:30.808Z</time>
      </trkpt>
      <trkpt lat="43.65946" lon="2.38873">
        <ele>627.8</ele>
        <time>2015-11-11T14:06:32.687Z</time>
      </trkpt>
      <trkpt lat="43.65947" lon="2.3887">
        <ele>627.9</ele>
        <time>2015-11-11T14:06:33.653Z</time>
      </trkpt>
      <trkpt lat="43.65949" lon="2.38861">
        <ele>627.4</ele>
        <time>2015-11-11T14:06:36.685Z</time>
      </trkpt>
      <trkpt lat="43.65948" lon="2.38857">
        <ele>627.6</ele>
        <time>2015-11-11T14:06:37.660Z</time>
      </trkpt>
      <trkpt lat="43.65947" lon="2.38845">
        <ele>626.9</ele>
        <time>2015-11-11T14:06:40.714Z</time>
      </trkpt>
      <trkpt lat="43.65946" lon="2.38842">
        <ele>626.7</ele>
        <time>2015-11-11T14:06:41.660Z</time>
      </trkpt>
      <trkpt lat="43.65944" lon="2.3883">
        <ele>626.5</ele>
        <time>2015-11-11T14:06:44.688Z</time>
      </trkpt>
      <trkpt lat="43.65942" lon="2.38826">
        <ele>626.2</ele>
        <time>2015-11-11T14:06:45.652Z</time>
      </trkpt>
      <trkpt lat="43.65939" lon="2.38819">
        <ele>626.1</ele>
        <time>2015-11-11T14:06:47.679Z</time>
      </trkpt>
      <trkpt lat="43.65938" lon="2.38815">
        <ele>625.5</ele>
        <time>2015-11-11T14:06:48.654Z</time>
      </trkpt>
      <trkpt lat="43.65937" lon="2.38803">
        <ele>625</ele>
        <time>2015-11-11T14:06:51.699Z</time>
      </trkpt>
      <trkpt lat="43.65936" lon="2.388">
        <ele>624.6</ele>
        <time>2015-11-11T14:06:52.674Z</time>
      </trkpt>
      <trkpt lat="43.65935" lon="2.3879">
        <ele>623.2</ele>
        <time>2015-11-11T14:06:55.715Z</time>
      </trkpt>
      <trkpt lat="43.65935" lon="2.38786">
        <ele>623</ele>
        <time>2015-11-11T14:06:56.654Z</time>
      </trkpt>
      <trkpt lat="43.65936" lon="2.38775">
        <ele>621.7</ele>
        <time>2015-11-11T14:06:59.679Z</time>
      </trkpt>
      <trkpt lat="43.65936" lon="2.38771">
        <ele>621.3</ele>
        <time>2015-11-11T14:07:00.653Z</time>
      </trkpt>
      <trkpt lat="43.65935" lon="2.38762">
        <ele>620.5</ele>
        <time>2015-11-11T14:07:02.715Z</time>
      </trkpt>
      <trkpt lat="43.65935" lon="2.38756">
        <ele>619.8</ele>
        <time>2015-11-11T14:07:03.660Z</time>
      </trkpt>
      <trkpt lat="43.65935" lon="2.38745">
        <ele>618.7</ele>
        <time>2015-11-11T14:07:05.701Z</time>
      </trkpt>
      <trkpt lat="43.65935" lon="2.38739">
        <ele>618.7</ele>
        <time>2015-11-11T14:07:06.674Z</time>
      </trkpt>
      <trkpt lat="43.65934" lon="2.38728">
        <ele>617.8</ele>
        <time>2015-11-11T14:07:08.683Z</time>
      </trkpt>
      <trkpt lat="43.65934" lon="2.38723">
        <ele>617.3</ele>
        <time>2015-11-11T14:07:09.651Z</time>
      </trkpt>
      <trkpt lat="43.65933" lon="2.38712">
        <ele>616.4</ele>
        <time>2015-11-11T14:07:11.679Z</time>
      </trkpt>
      <trkpt lat="43.6593" lon="2.38707">
        <ele>616.6</ele>
        <time>2015-11-11T14:07:12.653Z</time>
      </trkpt>
      <trkpt lat="43.65927" lon="2.38696">
        <ele>616.2</ele>
        <time>2015-11-11T14:07:14.716Z</time>
      </trkpt>
      <trkpt lat="43.65925" lon="2.3869">
        <ele>615.9</ele>
        <time>2015-11-11T14:07:15.660Z</time>
      </trkpt>
      <trkpt lat="43.65923" lon="2.38684">
        <ele>616.1</ele>
        <time>2015-11-11T14:07:16.731Z</time>
      </trkpt>
      <trkpt lat="43.65922" lon="2.38678">
        <ele>615.8</ele>
        <time>2015-11-11T14:07:17.660Z</time>
      </trkpt>
      <trkpt lat="43.6592" lon="2.38667">
        <ele>615.7</ele>
        <time>2015-11-11T14:07:20.083Z</time>
      </trkpt>
      <trkpt lat="43.65919" lon="2.38662">
        <ele>615.7</ele>
        <time>2015-11-11T14:07:20.708Z</time>
      </trkpt>
      <trkpt lat="43.65917" lon="2.38652">
        <ele>615.6</ele>
        <time>2015-11-11T14:07:22.697Z</time>
      </trkpt>
      <trkpt lat="43.65914" lon="2.38648">
        <ele>616</ele>
        <time>2015-11-11T14:07:23.653Z</time>
      </trkpt>
      <trkpt lat="43.6591" lon="2.38638">
        <ele>614.4</ele>
        <time>2015-11-11T14:07:27.699Z</time>
      </trkpt>
      <trkpt lat="43.65909" lon="2.38635">
        <ele>613.6</ele>
        <time>2015-11-11T14:07:28.683Z</time>
      </trkpt>
      <trkpt lat="43.65908" lon="2.38626">
        <ele>612.1</ele>
        <time>2015-11-11T14:07:31.678Z</time>
      </trkpt>
      <trkpt lat="43.65908" lon="2.38622">
        <ele>611.8</ele>
        <time>2015-11-11T14:07:32.652Z</time>
      </trkpt>
      <trkpt lat="43.65903" lon="2.38613">
        <ele>611.4</ele>
        <time>2015-11-11T14:07:35.700Z</time>
      </trkpt>
      <trkpt lat="43.65902" lon="2.3861">
        <ele>610.6</ele>
        <time>2015-11-11T14:07:36.673Z</time>
      </trkpt>
      <trkpt lat="43.65896" lon="2.38604">
        <ele>610.1</ele>
        <time>2015-11-11T14:07:38.685Z</time>
      </trkpt>
      <trkpt lat="43.65894" lon="2.38601">
        <ele>609.6</ele>
        <time>2015-11-11T14:07:39.652Z</time>
      </trkpt>
      <trkpt lat="43.65893" lon="2.38594">
        <ele>608.5</ele>
        <time>2015-11-11T14:07:41.685Z</time>
      </trkpt>
      <trkpt lat="43.65892" lon="2.38589">
        <ele>607.9</ele>
        <time>2015-11-11T14:07:42.652Z</time>
      </trkpt>
      <trkpt lat="43.65889" lon="2.38579">
        <ele>606.8</ele>
        <time>2015-11-11T14:07:44.712Z</time>
      </trkpt>
      <trkpt lat="43.65887" lon="2.38575">
        <ele>606.7</ele>
        <time>2015-11-11T14:07:45.660Z</time>
      </trkpt>
      <trkpt lat="43.65885" lon="2.38567">
        <ele>605.5</ele>
        <time>2015-11-11T14:07:47.699Z</time>
      </trkpt>
      <trkpt lat="43.65884" lon="2.38563">
        <ele>605.2</ele>
        <time>2015-11-11T14:07:48.673Z</time>
      </trkpt>
      <trkpt lat="43.65879" lon="2.38553">
        <ele>606.3</ele>
        <time>2015-11-11T14:07:50.712Z</time>
      </trkpt>
      <trkpt lat="43.65877" lon="2.38549">
        <ele>606</ele>
        <time>2015-11-11T14:07:51.660Z</time>
      </trkpt>
      <trkpt lat="43.65874" lon="2.38538">
        <ele>605.6</ele>
        <time>2015-11-11T14:07:54.112Z</time>
      </trkpt>
      <trkpt lat="43.65873" lon="2.38533">
        <ele>605.6</ele>
        <time>2015-11-11T14:07:54.653Z</time>
      </trkpt>
      <trkpt lat="43.65869" lon="2.38525">
        <ele>605.1</ele>
        <time>2015-11-11T14:07:56.689Z</time>
      </trkpt>
      <trkpt lat="43.65867" lon="2.3852">
        <ele>605.3</ele>
        <time>2015-11-11T14:07:57.653Z</time>
      </trkpt>
      <trkpt lat="43.65862" lon="2.38512">
        <ele>604.3</ele>
        <time>2015-11-11T14:08:00.712Z</time>
      </trkpt>
      <trkpt lat="43.65861" lon="2.38508">
        <ele>603.3</ele>
        <time>2015-11-11T14:08:01.660Z</time>
      </trkpt>
      <trkpt lat="43.65857" lon="2.38499">
        <ele>602.6</ele>
        <time>2015-11-11T14:08:04.700Z</time>
      </trkpt>
      <trkpt lat="43.65855" lon="2.38495">
        <ele>602.2</ele>
        <time>2015-11-11T14:08:05.660Z</time>
      </trkpt>
      <trkpt lat="43.65851" lon="2.38486">
        <ele>600.6</ele>
        <time>2015-11-11T14:08:07.685Z</time>
      </trkpt>
      <trkpt lat="43.6585" lon="2.38478">
        <ele>600.4</ele>
        <time>2015-11-11T14:08:08.656Z</time>
      </trkpt>
      <trkpt lat="43.65849" lon="2.38467">
        <ele>599.1</ele>
        <time>2015-11-11T14:08:10.696Z</time>
      </trkpt>
      <trkpt lat="43.65847" lon="2.38463">
        <ele>598.5</ele>
        <time>2015-11-11T14:08:11.652Z</time>
      </trkpt>
      <trkpt lat="43.65845" lon="2.38451">
        <ele>596.6</ele>
        <time>2015-11-11T14:08:14.728Z</time>
      </trkpt>
      <trkpt lat="43.65845" lon="2.38448">
        <ele>595.7</ele>
        <time>2015-11-11T14:08:15.660Z</time>
      </trkpt>
      <trkpt lat="43.65845" lon="2.38438">
        <ele>593.8</ele>
        <time>2015-11-11T14:08:18.734Z</time>
      </trkpt>
      <trkpt lat="43.65845" lon="2.38435">
        <ele>593.7</ele>
        <time>2015-11-11T14:08:19.654Z</time>
      </trkpt>
      <trkpt lat="43.65845" lon="2.38423">
        <ele>592.3</ele>
        <time>2015-11-11T14:08:23.686Z</time>
      </trkpt>
      <trkpt lat="43.65845" lon="2.3842">
        <ele>591.7</ele>
        <time>2015-11-11T14:08:24.650Z</time>
      </trkpt>
      <trkpt lat="43.65846" lon="2.38408">
        <ele>589.3</ele>
        <time>2015-11-11T14:08:28.689Z</time>
      </trkpt>
      <trkpt lat="43.65846" lon="2.38405">
        <ele>588.6</ele>
        <time>2015-11-11T14:08:29.653Z</time>
      </trkpt>
      <trkpt lat="43.65846" lon="2.38396">
        <ele>586.6</ele>
        <time>2015-11-11T14:08:32.687Z</time>
      </trkpt>
      <trkpt lat="43.65847" lon="2.38392">
        <ele>586.1</ele>
        <time>2015-11-11T14:08:33.653Z</time>
      </trkpt>
      <trkpt lat="43.65849" lon="2.38381">
        <ele>585.7</ele>
        <time>2015-11-11T14:08:37.699Z</time>
      </trkpt>
      <trkpt lat="43.6585" lon="2.38377">
        <ele>585.3</ele>
        <time>2015-11-11T14:08:38.672Z</time>
      </trkpt>
      <trkpt lat="43.65852" lon="2.38367">
        <ele>586.9</ele>
        <time>2015-11-11T14:08:42.098Z</time>
      </trkpt>
      <trkpt lat="43.65853" lon="2.38363">
        <ele>586.6</ele>
        <time>2015-11-11T14:08:42.655Z</time>
      </trkpt>
      <trkpt lat="43.65856" lon="2.38353">
        <ele>587.3</ele>
        <time>2015-11-11T14:08:45.685Z</time>
      </trkpt>
      <trkpt lat="43.65856" lon="2.38349">
        <ele>587.4</ele>
        <time>2015-11-11T14:08:46.657Z</time>
      </trkpt>
      <trkpt lat="43.65858" lon="2.38339">
        <ele>588.5</ele>
        <time>2015-11-11T14:08:49.713Z</time>
      </trkpt>
      <trkpt lat="43.65858" lon="2.38337">
        <ele>588.2</ele>
        <time>2015-11-11T14:08:50.672Z</time>
      </trkpt>
      <trkpt lat="43.65857" lon="2.38326">
        <ele>587.6</ele>
        <time>2015-11-11T14:08:53.698Z</time>
      </trkpt>
      <trkpt lat="43.65856" lon="2.38323">
        <ele>588.2</ele>
        <time>2015-11-11T14:08:54.660Z</time>
      </trkpt>
      <trkpt lat="43.65853" lon="2.38314">
        <ele>591.6</ele>
        <time>2015-11-11T14:08:56.679Z</time>
      </trkpt>
      <trkpt lat="43.65852" lon="2.38309">
        <ele>593.7</ele>
        <time>2015-11-11T14:08:57.651Z</time>
      </trkpt>
      <trkpt lat="43.6585" lon="2.38299">
        <ele>595.8</ele>
        <time>2015-11-11T14:08:59.691Z</time>
      </trkpt>
      <trkpt lat="43.6585" lon="2.38296">
        <ele>595.5</ele>
        <time>2015-11-11T14:09:00.651Z</time>
      </trkpt>
      <trkpt lat="43.65849" lon="2.38285">
        <ele>595.1</ele>
        <time>2015-11-11T14:09:03.733Z</time>
      </trkpt>
      <trkpt lat="43.6585" lon="2.38281">
        <ele>594.6</ele>
        <time>2015-11-11T14:09:04.655Z</time>
      </trkpt>
      <trkpt lat="43.65851" lon="2.38269">
        <ele>594.9</ele>
        <time>2015-11-11T14:09:07.684Z</time>
      </trkpt>
      <trkpt lat="43.65852" lon="2.38264">
        <ele>594.4</ele>
        <time>2015-11-11T14:09:08.651Z</time>
      </trkpt>
      <trkpt lat="43.65854" lon="2.38255">
        <ele>594.7</ele>
        <time>2015-11-11T14:09:10.707Z</time>
      </trkpt>
      <trkpt lat="43.65855" lon="2.38251">
        <ele>594.9</ele>
        <time>2015-11-11T14:09:11.660Z</time>
      </trkpt>
      <trkpt lat="43.65859" lon="2.38241">
        <ele>594.7</ele>
        <time>2015-11-11T14:09:14.712Z</time>
      </trkpt>
      <trkpt lat="43.6586" lon="2.38238">
        <ele>595</ele>
        <time>2015-11-11T14:09:15.660Z</time>
      </trkpt>
      <trkpt lat="43.65865" lon="2.38231">
        <ele>594.6</ele>
        <time>2015-11-11T14:09:17.700Z</time>
      </trkpt>
      <trkpt lat="43.65867" lon="2.38227">
        <ele>594.3</ele>
        <time>2015-11-11T14:09:18.672Z</time>
      </trkpt>
      <trkpt lat="43.6587" lon="2.38219">
        <ele>594.4</ele>
        <time>2015-11-11T14:09:20.679Z</time>
      </trkpt>
      <trkpt lat="43.65871" lon="2.38215">
        <ele>594.5</ele>
        <time>2015-11-11T14:09:21.653Z</time>
      </trkpt>
      <trkpt lat="43.65873" lon="2.38204">
        <ele>594</ele>
        <time>2015-11-11T14:09:23.679Z</time>
      </trkpt>
      <trkpt lat="43.65874" lon="2.382">
        <ele>594</ele>
        <time>2015-11-11T14:09:24.652Z</time>
      </trkpt>
      <trkpt lat="43.65876" lon="2.38191">
        <ele>594.2</ele>
        <time>2015-11-11T14:09:26.711Z</time>
      </trkpt>
      <trkpt lat="43.65876" lon="2.38187">
        <ele>594.2</ele>
        <time>2015-11-11T14:09:27.660Z</time>
      </trkpt>
      <trkpt lat="43.65877" lon="2.38176">
        <ele>594.6</ele>
        <time>2015-11-11T14:09:30.687Z</time>
      </trkpt>
      <trkpt lat="43.65876" lon="2.38172">
        <ele>595.8</ele>
        <time>2015-11-11T14:09:31.652Z</time>
      </trkpt>
      <trkpt lat="43.65876" lon="2.38161">
        <ele>595.7</ele>
        <time>2015-11-11T14:09:35.701Z</time>
      </trkpt>
      <trkpt lat="43.65876" lon="2.38156">
        <ele>595.5</ele>
        <time>2015-11-11T14:09:36.672Z</time>
      </trkpt>
      <trkpt lat="43.65876" lon="2.38144">
        <ele>595.9</ele>
        <time>2015-11-11T14:09:41.684Z</time>
      </trkpt>
      <trkpt lat="43.65874" lon="2.38141">
        <ele>597.7</ele>
        <time>2015-11-11T14:09:42.653Z</time>
      </trkpt>
      <trkpt lat="43.65871" lon="2.38131">
        <ele>600.5</ele>
        <time>2015-11-11T14:09:48.749Z</time>
      </trkpt>
      <trkpt lat="43.65871" lon="2.38129">
        <ele>600.5</ele>
        <time>2015-11-11T14:09:49.660Z</time>
      </trkpt>
      <trkpt lat="43.65869" lon="2.38127">
        <ele>603.4</ele>
        <time>2015-11-11T14:09:58.680Z</time>
      </trkpt>
      <trkpt lat="43.65867" lon="2.38123">
        <ele>606.7</ele>
        <time>2015-11-11T14:09:59.656Z</time>
      </trkpt>
      <trkpt lat="43.65867" lon="2.38123">
        <ele>606.7</ele>
        <time>2015-11-11T14:09:59.695Z</time>
      </trkpt>
      <trkpt lat="43.65867" lon="2.38121">
        <ele>606.8</ele>
        <time>2015-11-11T14:10:00.652Z</time>
      </trkpt>
      <trkpt lat="43.6587" lon="2.38111">
        <ele>609.1</ele>
        <time>2015-11-11T14:10:09.097Z</time>
      </trkpt>
      <trkpt lat="43.6587" lon="2.38109">
        <ele>609.5</ele>
        <time>2015-11-11T14:10:09.653Z</time>
      </trkpt>
      <trkpt lat="43.65873" lon="2.38098">
        <ele>610</ele>
        <time>2015-11-11T14:10:13.685Z</time>
      </trkpt>
      <trkpt lat="43.65873" lon="2.38095">
        <ele>610.1</ele>
        <time>2015-11-11T14:10:14.652Z</time>
      </trkpt>
      <trkpt lat="43.65872" lon="2.38085">
        <ele>610.5</ele>
        <time>2015-11-11T14:10:18.708Z</time>
      </trkpt>
      <trkpt lat="43.65871" lon="2.38082">
        <ele>610.5</ele>
        <time>2015-11-11T14:10:19.674Z</time>
      </trkpt>
      <trkpt lat="43.65869" lon="2.38071">
        <ele>610.7</ele>
        <time>2015-11-11T14:10:26.685Z</time>
      </trkpt>
      <trkpt lat="43.65869" lon="2.3807">
        <ele>610.8</ele>
        <time>2015-11-11T14:10:27.672Z</time>
      </trkpt>
      <trkpt lat="43.65868" lon="2.3807">
        <ele>611.2</ele>
        <time>2015-11-11T14:10:30.698Z</time>
      </trkpt>
      <trkpt lat="43.65869" lon="2.38068">
        <ele>611.7</ele>
        <time>2015-11-11T14:10:31.660Z</time>
      </trkpt>
      <trkpt lat="43.65873" lon="2.38059">
        <ele>612</ele>
        <time>2015-11-11T14:10:36.681Z</time>
      </trkpt>
      <trkpt lat="43.65873" lon="2.38057">
        <ele>612</ele>
        <time>2015-11-11T14:10:37.653Z</time>
      </trkpt>
      <trkpt lat="43.65873" lon="2.38057">
        <ele>612</ele>
        <time>2015-11-11T14:10:37.680Z</time>
      </trkpt>
      <trkpt lat="43.65874" lon="2.38055">
        <ele>612</ele>
        <time>2015-11-11T14:10:38.700Z</time>
      </trkpt>
      <trkpt lat="43.65875" lon="2.38052">
        <ele>612.7</ele>
        <time>2015-11-11T14:10:39.660Z</time>
      </trkpt>
      <trkpt lat="43.65875" lon="2.38052">
        <ele>612.7</ele>
        <time>2015-11-11T14:10:39.716Z</time>
      </trkpt>
      <trkpt lat="43.65876" lon="2.38051">
        <ele>612.7</ele>
        <time>2015-11-11T14:10:40.654Z</time>
      </trkpt>
      <trkpt lat="43.65879" lon="2.38045">
        <ele>613.1</ele>
        <time>2015-11-11T14:10:43.680Z</time>
      </trkpt>
      <trkpt lat="43.65884" lon="2.38043">
        <ele>613</ele>
        <time>2015-11-11T14:10:44.652Z</time>
      </trkpt>
      <trkpt lat="43.65884" lon="2.38043">
        <ele>613</ele>
        <time>2015-11-11T14:10:44.688Z</time>
      </trkpt>
      <trkpt lat="43.65885" lon="2.38041">
        <ele>612.9</ele>
        <time>2015-11-11T14:10:45.686Z</time>
      </trkpt>
      <trkpt lat="43.65888" lon="2.3804">
        <ele>612.9</ele>
        <time>2015-11-11T14:10:46.662Z</time>
      </trkpt>
      <trkpt lat="43.65895" lon="2.38037">
        <ele>613.3</ele>
        <time>2015-11-11T14:10:50.699Z</time>
      </trkpt>
      <trkpt lat="43.65897" lon="2.38036">
        <ele>613.2</ele>
        <time>2015-11-11T14:10:51.687Z</time>
      </trkpt>
      <trkpt lat="43.65901" lon="2.38029">
        <ele>613.2</ele>
        <time>2015-11-11T14:10:53.711Z</time>
      </trkpt>
      <trkpt lat="43.65904" lon="2.38026">
        <ele>612.9</ele>
        <time>2015-11-11T14:10:54.660Z</time>
      </trkpt>
      <trkpt lat="43.65909" lon="2.38016">
        <ele>613.1</ele>
        <time>2015-11-11T14:10:58.681Z</time>
      </trkpt>
      <trkpt lat="43.65909" lon="2.38013">
        <ele>613</ele>
        <time>2015-11-11T14:10:59.652Z</time>
      </trkpt>
      <trkpt lat="43.65913" lon="2.38004">
        <ele>612.9</ele>
        <time>2015-11-11T14:11:03.794Z</time>
      </trkpt>
      <trkpt lat="43.65914" lon="2.38">
        <ele>612.7</ele>
        <time>2015-11-11T14:11:04.662Z</time>
      </trkpt>
      <trkpt lat="43.65917" lon="2.3799">
        <ele>611.6</ele>
        <time>2015-11-11T14:11:07.681Z</time>
      </trkpt>
      <trkpt lat="43.65918" lon="2.37986">
        <ele>611.3</ele>
        <time>2015-11-11T14:11:08.651Z</time>
      </trkpt>
      <trkpt lat="43.6592" lon="2.37975">
        <ele>609.3</ele>
        <time>2015-11-11T14:11:12.689Z</time>
      </trkpt>
      <trkpt lat="43.65921" lon="2.37972">
        <ele>608.9</ele>
        <time>2015-11-11T14:11:13.672Z</time>
      </trkpt>
      <trkpt lat="43.65925" lon="2.37964">
        <ele>607.7</ele>
        <time>2015-11-11T14:11:16.701Z</time>
      </trkpt>
      <trkpt lat="43.65926" lon="2.3796">
        <ele>607.1</ele>
        <time>2015-11-11T14:11:17.672Z</time>
      </trkpt>
      <trkpt lat="43.6593" lon="2.3795">
        <ele>606.2</ele>
        <time>2015-11-11T14:11:20.678Z</time>
      </trkpt>
      <trkpt lat="43.65931" lon="2.37947">
        <ele>605.9</ele>
        <time>2015-11-11T14:11:21.651Z</time>
      </trkpt>
      <trkpt lat="43.65937" lon="2.37938">
        <ele>605.3</ele>
        <time>2015-11-11T14:11:24.703Z</time>
      </trkpt>
      <trkpt lat="43.65939" lon="2.37935">
        <ele>604.9</ele>
        <time>2015-11-11T14:11:25.673Z</time>
      </trkpt>
      <trkpt lat="43.65942" lon="2.37926">
        <ele>603.3</ele>
        <time>2015-11-11T14:11:28.716Z</time>
      </trkpt>
      <trkpt lat="43.65943" lon="2.37922">
        <ele>603</ele>
        <time>2015-11-11T14:11:29.672Z</time>
      </trkpt>
      <trkpt lat="43.65945" lon="2.37912">
        <ele>601.1</ele>
        <time>2015-11-11T14:11:33.689Z</time>
      </trkpt>
      <trkpt lat="43.65947" lon="2.37909">
        <ele>600.7</ele>
        <time>2015-11-11T14:11:34.654Z</time>
      </trkpt>
      <trkpt lat="43.6595" lon="2.379">
        <ele>599.5</ele>
        <time>2015-11-11T14:11:36.686Z</time>
      </trkpt>
      <trkpt lat="43.65953" lon="2.37896">
        <ele>599.2</ele>
        <time>2015-11-11T14:11:37.652Z</time>
      </trkpt>
      <trkpt lat="43.65955" lon="2.37887">
        <ele>598</ele>
        <time>2015-11-11T14:11:39.714Z</time>
      </trkpt>
      <trkpt lat="43.65956" lon="2.37882">
        <ele>597.8</ele>
        <time>2015-11-11T14:11:40.662Z</time>
      </trkpt>
      <trkpt lat="43.65958" lon="2.37871">
        <ele>596.7</ele>
        <time>2015-11-11T14:11:42.684Z</time>
      </trkpt>
      <trkpt lat="43.6596" lon="2.37865">
        <ele>595.9</ele>
        <time>2015-11-11T14:11:43.653Z</time>
      </trkpt>
      <trkpt lat="43.65962" lon="2.37859">
        <ele>595.3</ele>
        <time>2015-11-11T14:11:44.678Z</time>
      </trkpt>
      <trkpt lat="43.65964" lon="2.37852">
        <ele>594.7</ele>
        <time>2015-11-11T14:11:45.655Z</time>
      </trkpt>
      <trkpt lat="43.65969" lon="2.37843">
        <ele>594.1</ele>
        <time>2015-11-11T14:11:46.687Z</time>
      </trkpt>
      <trkpt lat="43.65972" lon="2.37838">
        <ele>593.5</ele>
        <time>2015-11-11T14:11:47.659Z</time>
      </trkpt>
      <trkpt lat="43.65973" lon="2.37828">
        <ele>594.1</ele>
        <time>2015-11-11T14:11:59.676Z</time>
      </trkpt>
      <trkpt lat="43.65981" lon="2.3782">
        <ele>596.6</ele>
        <time>2015-11-11T14:12:00.654Z</time>
      </trkpt>
      <trkpt lat="43.65981" lon="2.3782">
        <ele>596.6</ele>
        <time>2015-11-11T14:12:00.687Z</time>
      </trkpt>
      <trkpt lat="43.65973" lon="2.37817">
        <ele>607.5</ele>
        <time>2015-11-11T14:12:59.701Z</time>
      </trkpt>
      <trkpt lat="43.65973" lon="2.37817">
        <ele>607.6</ele>
        <time>2015-11-11T14:13:00.661Z</time>
      </trkpt>
      <trkpt lat="43.65973" lon="2.37817">
        <ele>607.6</ele>
        <time>2015-11-11T14:13:35.938Z</time>
      </trkpt>
      <trkpt lat="43.65981" lon="2.37822">
        <ele>611</ele>
        <time>2015-11-11T14:13:36.660Z</time>
      </trkpt>
      <trkpt lat="43.65981" lon="2.37822">
        <ele>611</ele>
        <time>2015-11-11T14:13:36.688Z</time>
      </trkpt>
      <trkpt lat="43.6598" lon="2.37822">
        <ele>611.3</ele>
        <time>2015-11-11T14:14:17.679Z</time>
      </trkpt>
      <trkpt lat="43.65972" lon="2.37816">
        <ele>612.8</ele>
        <time>2015-11-11T14:14:18.652Z</time>
      </trkpt>
      <trkpt lat="43.65972" lon="2.37816">
        <ele>612.8</ele>
        <time>2015-11-11T14:14:18.685Z</time>
      </trkpt>
      <trkpt lat="43.6597" lon="2.37816">
        <ele>613.5</ele>
        <time>2015-11-11T14:15:45.697Z</time>
      </trkpt>
      <trkpt lat="43.65975" lon="2.3781">
        <ele>610.4</ele>
        <time>2015-11-11T14:15:46.655Z</time>
      </trkpt>
      <trkpt lat="43.65981" lon="2.37801">
        <ele>610.7</ele>
        <time>2015-11-11T14:16:04.681Z</time>
      </trkpt>
      <trkpt lat="43.65981" lon="2.378">
        <ele>610.8</ele>
        <time>2015-11-11T14:16:05.661Z</time>
      </trkpt>
      <trkpt lat="43.65984" lon="2.37789">
        <ele>611.7</ele>
        <time>2015-11-11T14:16:20.685Z</time>
      </trkpt>
      <trkpt lat="43.65985" lon="2.37789">
        <ele>611.7</ele>
        <time>2015-11-11T14:16:21.652Z</time>
      </trkpt>
      <trkpt lat="43.65987" lon="2.37779">
        <ele>611</ele>
        <time>2015-11-11T14:16:34.679Z</time>
      </trkpt>
      <trkpt lat="43.65988" lon="2.37777">
        <ele>610.9</ele>
        <time>2015-11-11T14:16:35.651Z</time>
      </trkpt>
      <trkpt lat="43.65987" lon="2.37768">
        <ele>610.8</ele>
        <time>2015-11-11T14:16:38.697Z</time>
      </trkpt>
      <trkpt lat="43.65988" lon="2.37763">
        <ele>610.7</ele>
        <time>2015-11-11T14:16:39.655Z</time>
      </trkpt>
      <trkpt lat="43.65989" lon="2.37754">
        <ele>610.2</ele>
        <time>2015-11-11T14:16:41.680Z</time>
      </trkpt>
      <trkpt lat="43.65989" lon="2.37748">
        <ele>609.8</ele>
        <time>2015-11-11T14:16:42.656Z</time>
      </trkpt>
      <trkpt lat="43.6599" lon="2.37738">
        <ele>609.1</ele>
        <time>2015-11-11T14:16:44.713Z</time>
      </trkpt>
      <trkpt lat="43.65991" lon="2.37732">
        <ele>608.8</ele>
        <time>2015-11-11T14:16:45.660Z</time>
      </trkpt>
      <trkpt lat="43.65992" lon="2.3772">
        <ele>607.9</ele>
        <time>2015-11-11T14:16:47.700Z</time>
      </trkpt>
      <trkpt lat="43.65992" lon="2.37716">
        <ele>607.5</ele>
        <time>2015-11-11T14:16:48.661Z</time>
      </trkpt>
      <trkpt lat="43.65992" lon="2.37705">
        <ele>606.9</ele>
        <time>2015-11-11T14:16:50.712Z</time>
      </trkpt>
      <trkpt lat="43.65992" lon="2.377">
        <ele>606.4</ele>
        <time>2015-11-11T14:16:51.660Z</time>
      </trkpt>
      <trkpt lat="43.6599" lon="2.37692">
        <ele>604.7</ele>
        <time>2015-11-11T14:16:53.699Z</time>
      </trkpt>
      <trkpt lat="43.65989" lon="2.37688">
        <ele>603.8</ele>
        <time>2015-11-11T14:16:54.672Z</time>
      </trkpt>
      <trkpt lat="43.65987" lon="2.37679">
        <ele>602.7</ele>
        <time>2015-11-11T14:16:56.684Z</time>
      </trkpt>
      <trkpt lat="43.65987" lon="2.37674">
        <ele>602</ele>
        <time>2015-11-11T14:16:57.651Z</time>
      </trkpt>
      <trkpt lat="43.6599" lon="2.37662">
        <ele>600.5</ele>
        <time>2015-11-11T14:17:00.687Z</time>
      </trkpt>
      <trkpt lat="43.65991" lon="2.3766">
        <ele>600.4</ele>
        <time>2015-11-11T14:17:01.653Z</time>
      </trkpt>
      <trkpt lat="43.65992" lon="2.37658">
        <ele>599.8</ele>
        <time>2015-11-11T14:17:02.713Z</time>
      </trkpt>
      <trkpt lat="43.65992" lon="2.37657">
        <ele>599.5</ele>
        <time>2015-11-11T14:17:03.660Z</time>
      </trkpt>
      <trkpt lat="43.65996" lon="2.37649">
        <ele>600.5</ele>
        <time>2015-11-11T14:17:35.672Z</time>
      </trkpt>
      <trkpt lat="43.65991" lon="2.37645">
        <ele>599.8</ele>
        <time>2015-11-11T14:17:36.651Z</time>
      </trkpt>
      <trkpt lat="43.65991" lon="2.37642">
        <ele>600.3</ele>
        <time>2015-11-11T14:17:38.677Z</time>
      </trkpt>
      <trkpt lat="43.65991" lon="2.3764">
        <ele>600.2</ele>
        <time>2015-11-11T14:17:39.660Z</time>
      </trkpt>
      <trkpt lat="43.65993" lon="2.37633">
        <ele>600</ele>
        <time>2015-11-11T14:17:42.715Z</time>
      </trkpt>
      <trkpt lat="43.65993" lon="2.37629">
        <ele>599.9</ele>
        <time>2015-11-11T14:17:43.660Z</time>
      </trkpt>
      <trkpt lat="43.65996" lon="2.37619">
        <ele>599.6</ele>
        <time>2015-11-11T14:17:46.681Z</time>
      </trkpt>
      <trkpt lat="43.65996" lon="2.37615">
        <ele>599.5</ele>
        <time>2015-11-11T14:17:47.652Z</time>
      </trkpt>
      <trkpt lat="43.65999" lon="2.37606">
        <ele>599.3</ele>
        <time>2015-11-11T14:17:50.698Z</time>
      </trkpt>
      <trkpt lat="43.65999" lon="2.37603">
        <ele>599.2</ele>
        <time>2015-11-11T14:17:51.661Z</time>
      </trkpt>
      <trkpt lat="43.66002" lon="2.37594">
        <ele>599.2</ele>
        <time>2015-11-11T14:17:54.819Z</time>
      </trkpt>
      <trkpt lat="43.66003" lon="2.37591">
        <ele>599.2</ele>
        <time>2015-11-11T14:17:55.660Z</time>
      </trkpt>
      <trkpt lat="43.66005" lon="2.3758">
        <ele>599.1</ele>
        <time>2015-11-11T14:17:59.677Z</time>
      </trkpt>
      <trkpt lat="43.66006" lon="2.37577">
        <ele>599.1</ele>
        <time>2015-11-11T14:18:00.653Z</time>
      </trkpt>
      <trkpt lat="43.66007" lon="2.37567">
        <ele>599</ele>
        <time>2015-11-11T14:18:03.895Z</time>
      </trkpt>
      <trkpt lat="43.66007" lon="2.37564">
        <ele>599</ele>
        <time>2015-11-11T14:18:04.654Z</time>
      </trkpt>
      <trkpt lat="43.66009" lon="2.37552">
        <ele>598.3</ele>
        <time>2015-11-11T14:18:07.675Z</time>
      </trkpt>
      <trkpt lat="43.6601" lon="2.37548">
        <ele>598.3</ele>
        <time>2015-11-11T14:18:08.657Z</time>
      </trkpt>
      <trkpt lat="43.66012" lon="2.37537">
        <ele>598.8</ele>
        <time>2015-11-11T14:18:11.699Z</time>
      </trkpt>
      <trkpt lat="43.66014" lon="2.37534">
        <ele>598.8</ele>
        <time>2015-11-11T14:18:12.673Z</time>
      </trkpt>
      <trkpt lat="43.66017" lon="2.37526">
        <ele>598.7</ele>
        <time>2015-11-11T14:18:14.700Z</time>
      </trkpt>
      <trkpt lat="43.66019" lon="2.37523">
        <ele>598.9</ele>
        <time>2015-11-11T14:18:15.660Z</time>
      </trkpt>
      <trkpt lat="43.66023" lon="2.37516">
        <ele>599.2</ele>
        <time>2015-11-11T14:18:17.700Z</time>
      </trkpt>
      <trkpt lat="43.66026" lon="2.37514">
        <ele>599.2</ele>
        <time>2015-11-11T14:18:18.660Z</time>
      </trkpt>
      <trkpt lat="43.66033" lon="2.37509">
        <ele>599.7</ele>
        <time>2015-11-11T14:18:20.683Z</time>
      </trkpt>
      <trkpt lat="43.66037" lon="2.37507">
        <ele>599.8</ele>
        <time>2015-11-11T14:18:21.649Z</time>
      </trkpt>
      <trkpt lat="43.66044" lon="2.37501">
        <ele>600.1</ele>
        <time>2015-11-11T14:18:23.677Z</time>
      </trkpt>
      <trkpt lat="43.66048" lon="2.37497">
        <ele>600.3</ele>
        <time>2015-11-11T14:18:24.653Z</time>
      </trkpt>
      <trkpt lat="43.66052" lon="2.37494">
        <ele>600.5</ele>
        <time>2015-11-11T14:18:25.679Z</time>
      </trkpt>
      <trkpt lat="43.66055" lon="2.37491">
        <ele>600.7</ele>
        <time>2015-11-11T14:18:26.654Z</time>
      </trkpt>
      <trkpt lat="43.66059" lon="2.37487">
        <ele>600.9</ele>
        <time>2015-11-11T14:18:27.701Z</time>
      </trkpt>
      <trkpt lat="43.66063" lon="2.37483">
        <ele>601.3</ele>
        <time>2015-11-11T14:18:28.674Z</time>
      </trkpt>
      <trkpt lat="43.66066" lon="2.37478">
        <ele>601.6</ele>
        <time>2015-11-11T14:18:29.687Z</time>
      </trkpt>
      <trkpt lat="43.6607" lon="2.37474">
        <ele>601.7</ele>
        <time>2015-11-11T14:18:30.660Z</time>
      </trkpt>
      <trkpt lat="43.66075" lon="2.37466">
        <ele>602.5</ele>
        <time>2015-11-11T14:18:32.685Z</time>
      </trkpt>
      <trkpt lat="43.66078" lon="2.37463">
        <ele>602.7</ele>
        <time>2015-11-11T14:18:33.651Z</time>
      </trkpt>
      <trkpt lat="43.66084" lon="2.37454">
        <ele>603</ele>
        <time>2015-11-11T14:18:35.700Z</time>
      </trkpt>
      <trkpt lat="43.66088" lon="2.37449">
        <ele>602.9</ele>
        <time>2015-11-11T14:18:36.672Z</time>
      </trkpt>
      <trkpt lat="43.66092" lon="2.37445">
        <ele>603</ele>
        <time>2015-11-11T14:18:37.680Z</time>
      </trkpt>
      <trkpt lat="43.66097" lon="2.37441">
        <ele>602.8</ele>
        <time>2015-11-11T14:18:38.651Z</time>
      </trkpt>
      <trkpt lat="43.66101" lon="2.37436">
        <ele>602.7</ele>
        <time>2015-11-11T14:18:39.680Z</time>
      </trkpt>
      <trkpt lat="43.66105" lon="2.3743">
        <ele>602.4</ele>
        <time>2015-11-11T14:18:40.657Z</time>
      </trkpt>
      <trkpt lat="43.66111" lon="2.37422">
        <ele>602.2</ele>
        <time>2015-11-11T14:18:41.679Z</time>
      </trkpt>
      <trkpt lat="43.66115" lon="2.37416">
        <ele>602</ele>
        <time>2015-11-11T14:18:42.656Z</time>
      </trkpt>
      <trkpt lat="43.6612" lon="2.3741">
        <ele>601.9</ele>
        <time>2015-11-11T14:18:43.693Z</time>
      </trkpt>
      <trkpt lat="43.66124" lon="2.37403">
        <ele>601.6</ele>
        <time>2015-11-11T14:18:44.654Z</time>
      </trkpt>
      <trkpt lat="43.66129" lon="2.37397">
        <ele>601.2</ele>
        <time>2015-11-11T14:18:45.681Z</time>
      </trkpt>
      <trkpt lat="43.66135" lon="2.3739">
        <ele>600.9</ele>
        <time>2015-11-11T14:18:46.654Z</time>
      </trkpt>
      <trkpt lat="43.66141" lon="2.37383">
        <ele>600.6</ele>
        <time>2015-11-11T14:18:47.677Z</time>
      </trkpt>
      <trkpt lat="43.66147" lon="2.37376">
        <ele>600.3</ele>
        <time>2015-11-11T14:18:48.655Z</time>
      </trkpt>
      <trkpt lat="43.66153" lon="2.37369">
        <ele>600</ele>
        <time>2015-11-11T14:18:49.680Z</time>
      </trkpt>
      <trkpt lat="43.66159" lon="2.37362">
        <ele>599.7</ele>
        <time>2015-11-11T14:18:50.653Z</time>
      </trkpt>
      <trkpt lat="43.66165" lon="2.37355">
        <ele>599.4</ele>
        <time>2015-11-11T14:18:51.672Z</time>
      </trkpt>
      <trkpt lat="43.66171" lon="2.37347">
        <ele>599</ele>
        <time>2015-11-11T14:18:52.654Z</time>
      </trkpt>
      <trkpt lat="43.66176" lon="2.3734">
        <ele>598.4</ele>
        <time>2015-11-11T14:18:53.677Z</time>
      </trkpt>
      <trkpt lat="43.66181" lon="2.37333">
        <ele>598</ele>
        <time>2015-11-11T14:18:54.657Z</time>
      </trkpt>
      <trkpt lat="43.66187" lon="2.37326">
        <ele>597.5</ele>
        <time>2015-11-11T14:18:55.679Z</time>
      </trkpt>
      <trkpt lat="43.66194" lon="2.37319">
        <ele>597</ele>
        <time>2015-11-11T14:18:56.655Z</time>
      </trkpt>
      <trkpt lat="43.66201" lon="2.37313">
        <ele>596.6</ele>
        <time>2015-11-11T14:18:57.678Z</time>
      </trkpt>
      <trkpt lat="43.66207" lon="2.37306">
        <ele>596.3</ele>
        <time>2015-11-11T14:18:58.657Z</time>
      </trkpt>
      <trkpt lat="43.66214" lon="2.37299">
        <ele>596</ele>
        <time>2015-11-11T14:18:59.701Z</time>
      </trkpt>
      <trkpt lat="43.6622" lon="2.37291">
        <ele>595.9</ele>
        <time>2015-11-11T14:19:00.672Z</time>
      </trkpt>
      <trkpt lat="43.66226" lon="2.37284">
        <ele>595.7</ele>
        <time>2015-11-11T14:19:01.717Z</time>
      </trkpt>
      <trkpt lat="43.66231" lon="2.37277">
        <ele>595.2</ele>
        <time>2015-11-11T14:19:02.672Z</time>
      </trkpt>
      <trkpt lat="43.66235" lon="2.37268">
        <ele>594.8</ele>
        <time>2015-11-11T14:19:03.700Z</time>
      </trkpt>
      <trkpt lat="43.66239" lon="2.3726">
        <ele>594.5</ele>
        <time>2015-11-11T14:19:04.658Z</time>
      </trkpt>
      <trkpt lat="43.66244" lon="2.37253">
        <ele>594.2</ele>
        <time>2015-11-11T14:19:05.677Z</time>
      </trkpt>
      <trkpt lat="43.66248" lon="2.37245">
        <ele>593.9</ele>
        <time>2015-11-11T14:19:06.657Z</time>
      </trkpt>
      <trkpt lat="43.66254" lon="2.37238">
        <ele>593.7</ele>
        <time>2015-11-11T14:19:07.680Z</time>
      </trkpt>
      <trkpt lat="43.66259" lon="2.37229">
        <ele>593.5</ele>
        <time>2015-11-11T14:19:08.654Z</time>
      </trkpt>
      <trkpt lat="43.66264" lon="2.3722">
        <ele>593.3</ele>
        <time>2015-11-11T14:19:09.678Z</time>
      </trkpt>
      <trkpt lat="43.66266" lon="2.3721">
        <ele>593</ele>
        <time>2015-11-11T14:19:10.675Z</time>
      </trkpt>
      <trkpt lat="43.6627" lon="2.37201">
        <ele>592.8</ele>
        <time>2015-11-11T14:19:11.700Z</time>
      </trkpt>
      <trkpt lat="43.66277" lon="2.37191">
        <ele>592.6</ele>
        <time>2015-11-11T14:19:12.673Z</time>
      </trkpt>
      <trkpt lat="43.66282" lon="2.37183">
        <ele>592.2</ele>
        <time>2015-11-11T14:19:13.701Z</time>
      </trkpt>
      <trkpt lat="43.66284" lon="2.37173">
        <ele>591.9</ele>
        <time>2015-11-11T14:19:14.672Z</time>
      </trkpt>
      <trkpt lat="43.66286" lon="2.37164">
        <ele>591.5</ele>
        <time>2015-11-11T14:19:15.701Z</time>
      </trkpt>
      <trkpt lat="43.66288" lon="2.37155">
        <ele>591.1</ele>
        <time>2015-11-11T14:19:16.654Z</time>
      </trkpt>
      <trkpt lat="43.6629" lon="2.37147">
        <ele>590.6</ele>
        <time>2015-11-11T14:19:17.677Z</time>
      </trkpt>
      <trkpt lat="43.66292" lon="2.37139">
        <ele>590.1</ele>
        <time>2015-11-11T14:19:18.654Z</time>
      </trkpt>
      <trkpt lat="43.66294" lon="2.37131">
        <ele>589.7</ele>
        <time>2015-11-11T14:19:19.679Z</time>
      </trkpt>
      <trkpt lat="43.66296" lon="2.37124">
        <ele>589.3</ele>
        <time>2015-11-11T14:19:20.652Z</time>
      </trkpt>
      <trkpt lat="43.66298" lon="2.37118">
        <ele>589</ele>
        <time>2015-11-11T14:19:21.678Z</time>
      </trkpt>
      <trkpt lat="43.663" lon="2.37111">
        <ele>588.4</ele>
        <time>2015-11-11T14:19:22.675Z</time>
      </trkpt>
      <trkpt lat="43.663" lon="2.37104">
        <ele>587.9</ele>
        <time>2015-11-11T14:19:23.700Z</time>
      </trkpt>
      <trkpt lat="43.663" lon="2.37097">
        <ele>587.4</ele>
        <time>2015-11-11T14:19:24.672Z</time>
      </trkpt>
      <trkpt lat="43.663" lon="2.3709">
        <ele>586.9</ele>
        <time>2015-11-11T14:19:25.701Z</time>
      </trkpt>
      <trkpt lat="43.66299" lon="2.37083">
        <ele>586.3</ele>
        <time>2015-11-11T14:19:26.672Z</time>
      </trkpt>
      <trkpt lat="43.66298" lon="2.37077">
        <ele>585.8</ele>
        <time>2015-11-11T14:19:27.977Z</time>
      </trkpt>
      <trkpt lat="43.66298" lon="2.37071">
        <ele>585.3</ele>
        <time>2015-11-11T14:19:28.660Z</time>
      </trkpt>
      <trkpt lat="43.66298" lon="2.37064">
        <ele>584.7</ele>
        <time>2015-11-11T14:19:29.677Z</time>
      </trkpt>
      <trkpt lat="43.66298" lon="2.37058">
        <ele>584.3</ele>
        <time>2015-11-11T14:19:30.655Z</time>
      </trkpt>
      <trkpt lat="43.66297" lon="2.37051">
        <ele>583.8</ele>
        <time>2015-11-11T14:19:31.679Z</time>
      </trkpt>
      <trkpt lat="43.66297" lon="2.37046">
        <ele>583.2</ele>
        <time>2015-11-11T14:19:32.658Z</time>
      </trkpt>
      <trkpt lat="43.66295" lon="2.37037">
        <ele>582.1</ele>
        <time>2015-11-11T14:19:34.742Z</time>
      </trkpt>
      <trkpt lat="43.66294" lon="2.37032">
        <ele>581.6</ele>
        <time>2015-11-11T14:19:35.652Z</time>
      </trkpt>
      <trkpt lat="43.66292" lon="2.37023">
        <ele>580.5</ele>
        <time>2015-11-11T14:19:37.679Z</time>
      </trkpt>
      <trkpt lat="43.6629" lon="2.37017">
        <ele>580</ele>
        <time>2015-11-11T14:19:38.654Z</time>
      </trkpt>
      <trkpt lat="43.66287" lon="2.37007">
        <ele>579.2</ele>
        <time>2015-11-11T14:19:40.702Z</time>
      </trkpt>
      <trkpt lat="43.66285" lon="2.37001">
        <ele>578.7</ele>
        <time>2015-11-11T14:19:41.660Z</time>
      </trkpt>
      <trkpt lat="43.66283" lon="2.3699">
        <ele>577.6</ele>
        <time>2015-11-11T14:19:43.716Z</time>
      </trkpt>
      <trkpt lat="43.66281" lon="2.36986">
        <ele>577.4</ele>
        <time>2015-11-11T14:19:44.673Z</time>
      </trkpt>
      <trkpt lat="43.66278" lon="2.3698">
        <ele>576.9</ele>
        <time>2015-11-11T14:19:45.701Z</time>
      </trkpt>
      <trkpt lat="43.66276" lon="2.36974">
        <ele>576.4</ele>
        <time>2015-11-11T14:19:46.675Z</time>
      </trkpt>
      <trkpt lat="43.66272" lon="2.3697">
        <ele>576.1</ele>
        <time>2015-11-11T14:19:47.680Z</time>
      </trkpt>
      <trkpt lat="43.6627" lon="2.36964">
        <ele>576</ele>
        <time>2015-11-11T14:19:48.653Z</time>
      </trkpt>
      <trkpt lat="43.66264" lon="2.36955">
        <ele>575.1</ele>
        <time>2015-11-11T14:19:50.678Z</time>
      </trkpt>
      <trkpt lat="43.66261" lon="2.36951">
        <ele>574.9</ele>
        <time>2015-11-11T14:19:51.653Z</time>
      </trkpt>
      <trkpt lat="43.66255" lon="2.36943">
        <ele>574.5</ele>
        <time>2015-11-11T14:19:53.679Z</time>
      </trkpt>
      <trkpt lat="43.66252" lon="2.3694">
        <ele>574.5</ele>
        <time>2015-11-11T14:19:54.656Z</time>
      </trkpt>
      <trkpt lat="43.66247" lon="2.36934">
        <ele>574.1</ele>
        <time>2015-11-11T14:19:56.686Z</time>
      </trkpt>
      <trkpt lat="43.66244" lon="2.36931">
        <ele>573.8</ele>
        <time>2015-11-11T14:19:57.652Z</time>
      </trkpt>
      <trkpt lat="43.66241" lon="2.36923">
        <ele>573.3</ele>
        <time>2015-11-11T14:19:59.823Z</time>
      </trkpt>
      <trkpt lat="43.66239" lon="2.3692">
        <ele>573.5</ele>
        <time>2015-11-11T14:20:01.059Z</time>
      </trkpt>
      <trkpt lat="43.66236" lon="2.36913">
        <ele>573.3</ele>
        <time>2015-11-11T14:20:02.687Z</time>
      </trkpt>
      <trkpt lat="43.66235" lon="2.36909">
        <ele>573</ele>
        <time>2015-11-11T14:20:03.652Z</time>
      </trkpt>
      <trkpt lat="43.66232" lon="2.36899">
        <ele>572.2</ele>
        <time>2015-11-11T14:20:06.688Z</time>
      </trkpt>
      <trkpt lat="43.66232" lon="2.36896">
        <ele>571.8</ele>
        <time>2015-11-11T14:20:07.660Z</time>
      </trkpt>
      <trkpt lat="43.66231" lon="2.36885">
        <ele>571.9</ele>
        <time>2015-11-11T14:20:11.698Z</time>
      </trkpt>
      <trkpt lat="43.66231" lon="2.3688">
        <ele>571.5</ele>
        <time>2015-11-11T14:20:12.661Z</time>
      </trkpt>
      <trkpt lat="43.66232" lon="2.36868">
        <ele>571.2</ele>
        <time>2015-11-11T14:20:14.687Z</time>
      </trkpt>
      <trkpt lat="43.66231" lon="2.36861">
        <ele>571.1</ele>
        <time>2015-11-11T14:20:15.653Z</time>
      </trkpt>
      <trkpt lat="43.6623" lon="2.36856">
        <ele>571.2</ele>
        <time>2015-11-11T14:20:16.686Z</time>
      </trkpt>
      <trkpt lat="43.66229" lon="2.36849">
        <ele>570.9</ele>
        <time>2015-11-11T14:20:17.652Z</time>
      </trkpt>
      <trkpt lat="43.66229" lon="2.36837">
        <ele>570.6</ele>
        <time>2015-11-11T14:20:19.701Z</time>
      </trkpt>
      <trkpt lat="43.66229" lon="2.36831">
        <ele>570.4</ele>
        <time>2015-11-11T14:20:20.707Z</time>
      </trkpt>
      <trkpt lat="43.66229" lon="2.3682">
        <ele>570.1</ele>
        <time>2015-11-11T14:20:22.687Z</time>
      </trkpt>
      <trkpt lat="43.6623" lon="2.36814">
        <ele>569.7</ele>
        <time>2015-11-11T14:20:23.653Z</time>
      </trkpt>
      <trkpt lat="43.6623" lon="2.36803">
        <ele>569.1</ele>
        <time>2015-11-11T14:20:25.678Z</time>
      </trkpt>
      <trkpt lat="43.66231" lon="2.36798">
        <ele>568.7</ele>
        <time>2015-11-11T14:20:26.658Z</time>
      </trkpt>
      <trkpt lat="43.66234" lon="2.36788">
        <ele>568.3</ele>
        <time>2015-11-11T14:20:28.867Z</time>
      </trkpt>
      <trkpt lat="43.66235" lon="2.36784">
        <ele>568</ele>
        <time>2015-11-11T14:20:29.660Z</time>
      </trkpt>
      <trkpt lat="43.66233" lon="2.36773">
        <ele>567.2</ele>
        <time>2015-11-11T14:20:33.700Z</time>
      </trkpt>
      <trkpt lat="43.66231" lon="2.36772">
        <ele>566.9</ele>
        <time>2015-11-11T14:20:34.675Z</time>
      </trkpt>
      <trkpt lat="43.66223" lon="2.36774">
        <ele>567.1</ele>
        <time>2015-11-11T14:20:38.679Z</time>
      </trkpt>
      <trkpt lat="43.6622" lon="2.36776">
        <ele>567.2</ele>
        <time>2015-11-11T14:20:39.650Z</time>
      </trkpt>
      <trkpt lat="43.66214" lon="2.36781">
        <ele>566.8</ele>
        <time>2015-11-11T14:20:42.712Z</time>
      </trkpt>
      <trkpt lat="43.66212" lon="2.36782">
        <ele>566.8</ele>
        <time>2015-11-11T14:20:43.660Z</time>
      </trkpt>
      <trkpt lat="43.66205" lon="2.36788">
        <ele>566.9</ele>
        <time>2015-11-11T14:20:47.716Z</time>
      </trkpt>
      <trkpt lat="43.66203" lon="2.36789">
        <ele>567.1</ele>
        <time>2015-11-11T14:20:48.673Z</time>
      </trkpt>
      <trkpt lat="43.66195" lon="2.3679">
        <ele>566.5</ele>
        <time>2015-11-11T14:20:51.680Z</time>
      </trkpt>
      <trkpt lat="43.66192" lon="2.36789">
        <ele>566.3</ele>
        <time>2015-11-11T14:20:52.655Z</time>
      </trkpt>
      <trkpt lat="43.66185" lon="2.36786">
        <ele>565.8</ele>
        <time>2015-11-11T14:20:55.702Z</time>
      </trkpt>
      <trkpt lat="43.66183" lon="2.36785">
        <ele>565.6</ele>
        <time>2015-11-11T14:20:56.672Z</time>
      </trkpt>
      <trkpt lat="43.66175" lon="2.36781">
        <ele>566</ele>
        <time>2015-11-11T14:21:00.043Z</time>
      </trkpt>
      <trkpt lat="43.66173" lon="2.3678">
        <ele>566.2</ele>
        <time>2015-11-11T14:21:00.652Z</time>
      </trkpt>
      <trkpt lat="43.66166" lon="2.36775">
        <ele>566.2</ele>
        <time>2015-11-11T14:21:04.691Z</time>
      </trkpt>
      <trkpt lat="43.66165" lon="2.36776">
        <ele>566.6</ele>
        <time>2015-11-11T14:21:05.660Z</time>
      </trkpt>
      <trkpt lat="43.66157" lon="2.3677">
        <ele>568.6</ele>
        <time>2015-11-11T14:21:11.680Z</time>
      </trkpt>
      <trkpt lat="43.66157" lon="2.36767">
        <ele>568.8</ele>
        <time>2015-11-11T14:21:12.656Z</time>
      </trkpt>
      <trkpt lat="43.66158" lon="2.36756">
        <ele>569.7</ele>
        <time>2015-11-11T14:21:17.699Z</time>
      </trkpt>
      <trkpt lat="43.66159" lon="2.36754">
        <ele>569.9</ele>
        <time>2015-11-11T14:21:18.672Z</time>
      </trkpt>
      <trkpt lat="43.66157" lon="2.36742">
        <ele>570.1</ele>
        <time>2015-11-11T14:21:25.040Z</time>
      </trkpt>
      <trkpt lat="43.66157" lon="2.3674">
        <ele>570.1</ele>
        <time>2015-11-11T14:21:25.652Z</time>
      </trkpt>
      <trkpt lat="43.66154" lon="2.3673">
        <ele>570.6</ele>
        <time>2015-11-11T14:21:30.712Z</time>
      </trkpt>
      <trkpt lat="43.66154" lon="2.36728">
        <ele>570.7</ele>
        <time>2015-11-11T14:21:31.660Z</time>
      </trkpt>
      <trkpt lat="43.66151" lon="2.36717">
        <ele>572.1</ele>
        <time>2015-11-11T14:21:37.869Z</time>
      </trkpt>
      <trkpt lat="43.66151" lon="2.36716">
        <ele>572.9</ele>
        <time>2015-11-11T14:21:38.656Z</time>
      </trkpt>
      <trkpt lat="43.66151" lon="2.36716">
        <ele>572.9</ele>
        <time>2015-11-11T14:21:38.690Z</time>
      </trkpt>
      <trkpt lat="43.66146" lon="2.36711">
        <ele>575.2</ele>
        <time>2015-11-11T14:21:49.679Z</time>
      </trkpt>
      <trkpt lat="43.66145" lon="2.36709">
        <ele>575.8</ele>
        <time>2015-11-11T14:21:50.652Z</time>
      </trkpt>
      <trkpt lat="43.66142" lon="2.36706">
        <ele>576.6</ele>
        <time>2015-11-11T14:21:54.699Z</time>
      </trkpt>
      <trkpt lat="43.66142" lon="2.36706">
        <ele>576.8</ele>
        <time>2015-11-11T14:21:55.660Z</time>
      </trkpt>
      <trkpt lat="43.6614" lon="2.36696">
        <ele>578.7</ele>
        <time>2015-11-11T14:22:03.676Z</time>
      </trkpt>
      <trkpt lat="43.6614" lon="2.36693">
        <ele>578.8</ele>
        <time>2015-11-11T14:22:04.655Z</time>
      </trkpt>
      <trkpt lat="43.6614" lon="2.36693">
        <ele>578.8</ele>
        <time>2015-11-11T14:22:04.685Z</time>
      </trkpt>
      <trkpt lat="43.66139" lon="2.3669">
        <ele>578.9</ele>
        <time>2015-11-11T14:22:05.653Z</time>
      </trkpt>
      <trkpt lat="43.66143" lon="2.3668">
        <ele>578.9</ele>
        <time>2015-11-11T14:22:15.024Z</time>
      </trkpt>
      <trkpt lat="43.66144" lon="2.36678">
        <ele>578.8</ele>
        <time>2015-11-11T14:22:15.652Z</time>
      </trkpt>
      <trkpt lat="43.66147" lon="2.36668">
        <ele>579.3</ele>
        <time>2015-11-11T14:22:21.678Z</time>
      </trkpt>
      <trkpt lat="43.66147" lon="2.36666">
        <ele>579.4</ele>
        <time>2015-11-11T14:22:22.691Z</time>
      </trkpt>
      <trkpt lat="43.6615" lon="2.36655">
        <ele>580.9</ele>
        <time>2015-11-11T14:22:30.713Z</time>
      </trkpt>
      <trkpt lat="43.66149" lon="2.36653">
        <ele>581.1</ele>
        <time>2015-11-11T14:22:31.660Z</time>
      </trkpt>
      <trkpt lat="43.66143" lon="2.36645">
        <ele>581.1</ele>
        <time>2015-11-11T14:22:35.719Z</time>
      </trkpt>
      <trkpt lat="43.66142" lon="2.36644">
        <ele>581.1</ele>
        <time>2015-11-11T14:22:36.658Z</time>
      </trkpt>
      <trkpt lat="43.66142" lon="2.36633">
        <ele>580.9</ele>
        <time>2015-11-11T14:22:41.679Z</time>
      </trkpt>
      <trkpt lat="43.66142" lon="2.36631">
        <ele>581</ele>
        <time>2015-11-11T14:22:42.654Z</time>
      </trkpt>
      <trkpt lat="43.66144" lon="2.36621">
        <ele>581.6</ele>
        <time>2015-11-11T14:22:46.702Z</time>
      </trkpt>
      <trkpt lat="43.66144" lon="2.36618">
        <ele>581.8</ele>
        <time>2015-11-11T14:22:47.660Z</time>
      </trkpt>
      <trkpt lat="43.66143" lon="2.36607">
        <ele>582.2</ele>
        <time>2015-11-11T14:22:51.679Z</time>
      </trkpt>
      <trkpt lat="43.66142" lon="2.36604">
        <ele>582.7</ele>
        <time>2015-11-11T14:22:52.658Z</time>
      </trkpt>
      <trkpt lat="43.66143" lon="2.36601">
        <ele>583.1</ele>
        <time>2015-11-11T14:22:53.680Z</time>
      </trkpt>
      <trkpt lat="43.66142" lon="2.36599">
        <ele>583.8</ele>
        <time>2015-11-11T14:22:54.653Z</time>
      </trkpt>
      <trkpt lat="43.66142" lon="2.36597">
        <ele>584.2</ele>
        <time>2015-11-11T14:22:55.702Z</time>
      </trkpt>
      <trkpt lat="43.66142" lon="2.36595">
        <ele>584.4</ele>
        <time>2015-11-11T14:22:56.672Z</time>
      </trkpt>
      <trkpt lat="43.66141" lon="2.36583">
        <ele>584.7</ele>
        <time>2015-11-11T14:22:59.715Z</time>
      </trkpt>
      <trkpt lat="43.66142" lon="2.36582">
        <ele>584.8</ele>
        <time>2015-11-11T14:23:00.672Z</time>
      </trkpt>
      <trkpt lat="43.66146" lon="2.36573">
        <ele>585</ele>
        <time>2015-11-11T14:23:04.690Z</time>
      </trkpt>
      <trkpt lat="43.66147" lon="2.36568">
        <ele>585.1</ele>
        <time>2015-11-11T14:23:05.653Z</time>
      </trkpt>
      <trkpt lat="43.66145" lon="2.36556">
        <ele>584.8</ele>
        <time>2015-11-11T14:23:10.715Z</time>
      </trkpt>
      <trkpt lat="43.66145" lon="2.36555">
        <ele>584.7</ele>
        <time>2015-11-11T14:23:11.660Z</time>
      </trkpt>
      <trkpt lat="43.66146" lon="2.36543">
        <ele>584.5</ele>
        <time>2015-11-11T14:23:17.680Z</time>
      </trkpt>
      <trkpt lat="43.66145" lon="2.36542">
        <ele>584.4</ele>
        <time>2015-11-11T14:23:18.652Z</time>
      </trkpt>
      <trkpt lat="43.66139" lon="2.36538">
        <ele>584.3</ele>
        <time>2015-11-11T14:23:35.678Z</time>
      </trkpt>
      <trkpt lat="43.66135" lon="2.36535">
        <ele>584.3</ele>
        <time>2015-11-11T14:23:36.676Z</time>
      </trkpt>
      <trkpt lat="43.66127" lon="2.36532">
        <ele>583.5</ele>
        <time>2015-11-11T14:23:44.087Z</time>
      </trkpt>
      <trkpt lat="43.66126" lon="2.36531">
        <ele>583.5</ele>
        <time>2015-11-11T14:23:44.656Z</time>
      </trkpt>
      <trkpt lat="43.66125" lon="2.36531">
        <ele>583.7</ele>
        <time>2015-11-11T14:23:46.687Z</time>
      </trkpt>
      <trkpt lat="43.66124" lon="2.36531">
        <ele>583.7</ele>
        <time>2015-11-11T14:23:47.652Z</time>
      </trkpt>
      <trkpt lat="43.66122" lon="2.3653">
        <ele>583.4</ele>
        <time>2015-11-11T14:23:50.703Z</time>
      </trkpt>
      <trkpt lat="43.66121" lon="2.36528">
        <ele>583.3</ele>
        <time>2015-11-11T14:23:51.660Z</time>
      </trkpt>
      <trkpt lat="43.6612" lon="2.36525">
        <ele>583.2</ele>
        <time>2015-11-11T14:23:53.702Z</time>
      </trkpt>
      <trkpt lat="43.66121" lon="2.36523">
        <ele>583.2</ele>
        <time>2015-11-11T14:23:54.661Z</time>
      </trkpt>
      <trkpt lat="43.66124" lon="2.36518">
        <ele>583.1</ele>
        <time>2015-11-11T14:23:58.682Z</time>
      </trkpt>
      <trkpt lat="43.66125" lon="2.36516">
        <ele>583.1</ele>
        <time>2015-11-11T14:23:59.652Z</time>
      </trkpt>
      <trkpt lat="43.6613" lon="2.36507">
        <ele>583.2</ele>
        <time>2015-11-11T14:24:03.702Z</time>
      </trkpt>
      <trkpt lat="43.66132" lon="2.36505">
        <ele>583.3</ele>
        <time>2015-11-11T14:24:04.698Z</time>
      </trkpt>
      <trkpt lat="43.66136" lon="2.36497">
        <ele>583.8</ele>
        <time>2015-11-11T14:24:08.685Z</time>
      </trkpt>
      <trkpt lat="43.66138" lon="2.36495">
        <ele>584.2</ele>
        <time>2015-11-11T14:24:09.651Z</time>
      </trkpt>
      <trkpt lat="43.66139" lon="2.36483">
        <ele>584.8</ele>
        <time>2015-11-11T14:24:13.702Z</time>
      </trkpt>
      <trkpt lat="43.66139" lon="2.3648">
        <ele>584.8</ele>
        <time>2015-11-11T14:24:14.672Z</time>
      </trkpt>
      <trkpt lat="43.66133" lon="2.36473">
        <ele>582.6</ele>
        <time>2015-11-11T14:24:18.685Z</time>
      </trkpt>
      <trkpt lat="43.66131" lon="2.36471">
        <ele>582.1</ele>
        <time>2015-11-11T14:24:19.652Z</time>
      </trkpt>
      <trkpt lat="43.66125" lon="2.36465">
        <ele>580.2</ele>
        <time>2015-11-11T14:24:23.715Z</time>
      </trkpt>
      <trkpt lat="43.66123" lon="2.36464">
        <ele>579.9</ele>
        <time>2015-11-11T14:24:24.672Z</time>
      </trkpt>
      <trkpt lat="43.6612" lon="2.36454">
        <ele>579.2</ele>
        <time>2015-11-11T14:24:28.718Z</time>
      </trkpt>
      <trkpt lat="43.66121" lon="2.36451">
        <ele>578.9</ele>
        <time>2015-11-11T14:24:29.652Z</time>
      </trkpt>
      <trkpt lat="43.6612" lon="2.36439">
        <ele>578.3</ele>
        <time>2015-11-11T14:24:34.688Z</time>
      </trkpt>
      <trkpt lat="43.66119" lon="2.36436">
        <ele>578.2</ele>
        <time>2015-11-11T14:24:35.653Z</time>
      </trkpt>
      <trkpt lat="43.66117" lon="2.36426">
        <ele>577.5</ele>
        <time>2015-11-11T14:24:39.732Z</time>
      </trkpt>
      <trkpt lat="43.66117" lon="2.36423">
        <ele>577.2</ele>
        <time>2015-11-11T14:24:40.662Z</time>
      </trkpt>
      <trkpt lat="43.66113" lon="2.36412">
        <ele>576.1</ele>
        <time>2015-11-11T14:24:46.687Z</time>
      </trkpt>
      <trkpt lat="43.66113" lon="2.36411">
        <ele>575.9</ele>
        <time>2015-11-11T14:24:47.653Z</time>
      </trkpt>
      <trkpt lat="43.66108" lon="2.36402">
        <ele>575.9</ele>
        <time>2015-11-11T14:24:53.699Z</time>
      </trkpt>
      <trkpt lat="43.66107" lon="2.36401">
        <ele>576.1</ele>
        <time>2015-11-11T14:24:54.660Z</time>
      </trkpt>
      <trkpt lat="43.66102" lon="2.36391">
        <ele>577.7</ele>
        <time>2015-11-11T14:25:00.688Z</time>
      </trkpt>
      <trkpt lat="43.66102" lon="2.3639">
        <ele>577.9</ele>
        <time>2015-11-11T14:25:01.653Z</time>
      </trkpt>
      <trkpt lat="43.66098" lon="2.3638">
        <ele>579.1</ele>
        <time>2015-11-11T14:25:07.700Z</time>
      </trkpt>
      <trkpt lat="43.66097" lon="2.36378">
        <ele>579.4</ele>
        <time>2015-11-11T14:25:08.660Z</time>
      </trkpt>
      <trkpt lat="43.66099" lon="2.36367">
        <ele>580.4</ele>
        <time>2015-11-11T14:25:13.685Z</time>
      </trkpt>
      <trkpt lat="43.66098" lon="2.36365">
        <ele>580.7</ele>
        <time>2015-11-11T14:25:14.656Z</time>
      </trkpt>
      <trkpt lat="43.66098" lon="2.36353">
        <ele>581.8</ele>
        <time>2015-11-11T14:25:20.684Z</time>
      </trkpt>
      <trkpt lat="43.66097" lon="2.36352">
        <ele>582.1</ele>
        <time>2015-11-11T14:25:21.650Z</time>
      </trkpt>
      <trkpt lat="43.66093" lon="2.36348">
        <ele>584.1</ele>
        <time>2015-11-11T14:25:31.697Z</time>
      </trkpt>
      <trkpt lat="43.66091" lon="2.36348">
        <ele>585.5</ele>
        <time>2015-11-11T14:25:32.660Z</time>
      </trkpt>
      <trkpt lat="43.66085" lon="2.36354">
        <ele>587.5</ele>
        <time>2015-11-11T14:25:45.677Z</time>
      </trkpt>
      <trkpt lat="43.66084" lon="2.36359">
        <ele>587.1</ele>
        <time>2015-11-11T14:25:46.655Z</time>
      </trkpt>
      <trkpt lat="43.66084" lon="2.36359">
        <ele>587.1</ele>
        <time>2015-11-11T14:25:46.686Z</time>
      </trkpt>
      <trkpt lat="43.66083" lon="2.3636">
        <ele>587.3</ele>
        <time>2015-11-11T14:25:48.679Z</time>
      </trkpt>
      <trkpt lat="43.66082" lon="2.36361">
        <ele>587.3</ele>
        <time>2015-11-11T14:25:49.653Z</time>
      </trkpt>
      <trkpt lat="43.66075" lon="2.36365">
        <ele>587.8</ele>
        <time>2015-11-11T14:25:55.698Z</time>
      </trkpt>
      <trkpt lat="43.66073" lon="2.36366">
        <ele>587.8</ele>
        <time>2015-11-11T14:25:56.672Z</time>
      </trkpt>
      <trkpt lat="43.66067" lon="2.36369">
        <ele>588.1</ele>
        <time>2015-11-11T14:25:59.678Z</time>
      </trkpt>
      <trkpt lat="43.66064" lon="2.3637">
        <ele>588.3</ele>
        <time>2015-11-11T14:26:00.658Z</time>
      </trkpt>
      <trkpt lat="43.66057" lon="2.36373">
        <ele>589.1</ele>
        <time>2015-11-11T14:26:04.715Z</time>
      </trkpt>
      <trkpt lat="43.66054" lon="2.36374">
        <ele>589.5</ele>
        <time>2015-11-11T14:26:05.660Z</time>
      </trkpt>
      <trkpt lat="43.66046" lon="2.36376">
        <ele>591.3</ele>
        <time>2015-11-11T14:26:10.686Z</time>
      </trkpt>
      <trkpt lat="43.66045" lon="2.36376">
        <ele>591.4</ele>
        <time>2015-11-11T14:26:11.648Z</time>
      </trkpt>
      <trkpt lat="43.66037" lon="2.36379">
        <ele>593.8</ele>
        <time>2015-11-11T14:26:17.698Z</time>
      </trkpt>
      <trkpt lat="43.66036" lon="2.3638">
        <ele>594.2</ele>
        <time>2015-11-11T14:26:18.698Z</time>
      </trkpt>
      <trkpt lat="43.66029" lon="2.36382">
        <ele>596.9</ele>
        <time>2015-11-11T14:26:22.695Z</time>
      </trkpt>
      <trkpt lat="43.66026" lon="2.36382">
        <ele>597.3</ele>
        <time>2015-11-11T14:26:23.651Z</time>
      </trkpt>
      <trkpt lat="43.66019" lon="2.36386">
        <ele>599.8</ele>
        <time>2015-11-11T14:26:27.700Z</time>
      </trkpt>
      <trkpt lat="43.66018" lon="2.36387">
        <ele>600.5</ele>
        <time>2015-11-11T14:26:28.675Z</time>
      </trkpt>
      <trkpt lat="43.66011" lon="2.36394">
        <ele>604.2</ele>
        <time>2015-11-11T14:26:36.685Z</time>
      </trkpt>
      <trkpt lat="43.66011" lon="2.36395">
        <ele>604.5</ele>
        <time>2015-11-11T14:26:37.650Z</time>
      </trkpt>
      <trkpt lat="43.66007" lon="2.36391">
        <ele>603.7</ele>
        <time>2015-11-11T14:27:15.684Z</time>
      </trkpt>
      <trkpt lat="43.66008" lon="2.36382">
        <ele>601.5</ele>
        <time>2015-11-11T14:27:16.650Z</time>
      </trkpt>
      <trkpt lat="43.66008" lon="2.36382">
        <ele>601.1</ele>
        <time>2015-11-11T14:27:46.705Z</time>
      </trkpt>
      <trkpt lat="43.66009" lon="2.36395">
        <ele>599.6</ele>
        <time>2015-11-11T14:27:47.660Z</time>
      </trkpt>
      <trkpt lat="43.66009" lon="2.36395">
        <ele>599.6</ele>
        <time>2015-11-11T14:27:47.714Z</time>
      </trkpt>
      <trkpt lat="43.6601" lon="2.36396">
        <ele>599.6</ele>
        <time>2015-11-11T14:28:10.680Z</time>
      </trkpt>
      <trkpt lat="43.66008" lon="2.36398">
        <ele>598.7</ele>
        <time>2015-11-11T14:28:11.652Z</time>
      </trkpt>
      <trkpt lat="43.66" lon="2.36395">
        <ele>599.1</ele>
        <time>2015-11-11T14:28:21.698Z</time>
      </trkpt>
      <trkpt lat="43.65998" lon="2.36395">
        <ele>599.3</ele>
        <time>2015-11-11T14:28:22.655Z</time>
      </trkpt>
      <trkpt lat="43.6599" lon="2.36397">
        <ele>600</ele>
        <time>2015-11-11T14:28:30.698Z</time>
      </trkpt>
      <trkpt lat="43.65989" lon="2.36397">
        <ele>600.1</ele>
        <time>2015-11-11T14:28:31.660Z</time>
      </trkpt>
      <trkpt lat="43.6598" lon="2.36397">
        <ele>600.6</ele>
        <time>2015-11-11T14:28:45.697Z</time>
      </trkpt>
      <trkpt lat="43.65979" lon="2.36398">
        <ele>600.7</ele>
        <time>2015-11-11T14:28:46.661Z</time>
      </trkpt>
      <trkpt lat="43.65971" lon="2.36397">
        <ele>600.8</ele>
        <time>2015-11-11T14:28:59.678Z</time>
      </trkpt>
      <trkpt lat="43.6597" lon="2.36397">
        <ele>600.8</ele>
        <time>2015-11-11T14:29:00.652Z</time>
      </trkpt>
      <trkpt lat="43.65967" lon="2.36386">
        <ele>600.8</ele>
        <time>2015-11-11T14:29:10.094Z</time>
      </trkpt>
      <trkpt lat="43.65967" lon="2.36384">
        <ele>600.7</ele>
        <time>2015-11-11T14:29:10.654Z</time>
      </trkpt>
      <trkpt lat="43.65962" lon="2.36374">
        <ele>600.6</ele>
        <time>2015-11-11T14:29:19.699Z</time>
      </trkpt>
      <trkpt lat="43.65961" lon="2.36373">
        <ele>600.7</ele>
        <time>2015-11-11T14:29:20.676Z</time>
      </trkpt>
      <trkpt lat="43.65956" lon="2.36363">
        <ele>600.6</ele>
        <time>2015-11-11T14:29:26.674Z</time>
      </trkpt>
      <trkpt lat="43.65954" lon="2.36363">
        <ele>600.8</ele>
        <time>2015-11-11T14:29:27.653Z</time>
      </trkpt>
      <trkpt lat="43.65952" lon="2.36364">
        <ele>601.3</ele>
        <time>2015-11-11T14:30:34.679Z</time>
      </trkpt>
      <trkpt lat="43.65949" lon="2.36374">
        <ele>604.2</ele>
        <time>2015-11-11T14:30:35.672Z</time>
      </trkpt>
      <trkpt lat="43.65943" lon="2.36368">
        <ele>603.5</ele>
        <time>2015-11-11T14:30:42.697Z</time>
      </trkpt>
      <trkpt lat="43.65943" lon="2.36365">
        <ele>603.4</ele>
        <time>2015-11-11T14:30:43.652Z</time>
      </trkpt>
      <trkpt lat="43.65939" lon="2.36355">
        <ele>603.2</ele>
        <time>2015-11-11T14:30:48.676Z</time>
      </trkpt>
      <trkpt lat="43.65939" lon="2.36352">
        <ele>603.2</ele>
        <time>2015-11-11T14:30:49.677Z</time>
      </trkpt>
      <trkpt lat="43.65938" lon="2.36341">
        <ele>602.2</ele>
        <time>2015-11-11T14:30:55.710Z</time>
      </trkpt>
      <trkpt lat="43.65939" lon="2.3634">
        <ele>602.2</ele>
        <time>2015-11-11T14:30:56.660Z</time>
      </trkpt>
      <trkpt lat="43.6594" lon="2.36328">
        <ele>601.7</ele>
        <time>2015-11-11T14:31:04.700Z</time>
      </trkpt>
      <trkpt lat="43.65941" lon="2.36325">
        <ele>601.6</ele>
        <time>2015-11-11T14:31:05.673Z</time>
      </trkpt>
      <trkpt lat="43.65941" lon="2.36313">
        <ele>601</ele>
        <time>2015-11-11T14:31:13.697Z</time>
      </trkpt>
      <trkpt lat="43.65941" lon="2.36312">
        <ele>601</ele>
        <time>2015-11-11T14:31:14.660Z</time>
      </trkpt>
      <trkpt lat="43.65936" lon="2.36304">
        <ele>599.4</ele>
        <time>2015-11-11T14:31:28.712Z</time>
      </trkpt>
      <trkpt lat="43.65935" lon="2.36303">
        <ele>599.3</ele>
        <time>2015-11-11T14:31:29.660Z</time>
      </trkpt>
      <trkpt lat="43.65936" lon="2.36291">
        <ele>599</ele>
        <time>2015-11-11T14:31:36.743Z</time>
      </trkpt>
      <trkpt lat="43.65936" lon="2.36287">
        <ele>598.9</ele>
        <time>2015-11-11T14:31:37.655Z</time>
      </trkpt>
      <trkpt lat="43.65937" lon="2.36276">
        <ele>598.6</ele>
        <time>2015-11-11T14:31:39.711Z</time>
      </trkpt>
      <trkpt lat="43.65937" lon="2.3627">
        <ele>598.4</ele>
        <time>2015-11-11T14:31:40.662Z</time>
      </trkpt>
      <trkpt lat="43.65938" lon="2.36264">
        <ele>598.3</ele>
        <time>2015-11-11T14:31:41.730Z</time>
      </trkpt>
      <trkpt lat="43.65939" lon="2.36257">
        <ele>598.2</ele>
        <time>2015-11-11T14:31:42.660Z</time>
      </trkpt>
      <trkpt lat="43.65939" lon="2.3625">
        <ele>598.1</ele>
        <time>2015-11-11T14:31:43.687Z</time>
      </trkpt>
      <trkpt lat="43.65939" lon="2.36244">
        <ele>598.1</ele>
        <time>2015-11-11T14:31:44.652Z</time>
      </trkpt>
      <trkpt lat="43.65939" lon="2.36237">
        <ele>598</ele>
        <time>2015-11-11T14:31:45.687Z</time>
      </trkpt>
      <trkpt lat="43.6594" lon="2.3623">
        <ele>597.9</ele>
        <time>2015-11-11T14:31:46.655Z</time>
      </trkpt>
      <trkpt lat="43.6594" lon="2.36223">
        <ele>597.7</ele>
        <time>2015-11-11T14:31:47.688Z</time>
      </trkpt>
      <trkpt lat="43.65941" lon="2.36215">
        <ele>597.6</ele>
        <time>2015-11-11T14:31:48.653Z</time>
      </trkpt>
      <trkpt lat="43.65941" lon="2.36207">
        <ele>597.5</ele>
        <time>2015-11-11T14:31:49.711Z</time>
      </trkpt>
      <trkpt lat="43.65942" lon="2.36199">
        <ele>597.7</ele>
        <time>2015-11-11T14:31:50.660Z</time>
      </trkpt>
      <trkpt lat="43.65944" lon="2.36192">
        <ele>597.6</ele>
        <time>2015-11-11T14:31:51.712Z</time>
      </trkpt>
      <trkpt lat="43.65946" lon="2.36185">
        <ele>597.5</ele>
        <time>2015-11-11T14:31:52.678Z</time>
      </trkpt>
      <trkpt lat="43.65948" lon="2.36179">
        <ele>597.6</ele>
        <time>2015-11-11T14:31:53.713Z</time>
      </trkpt>
      <trkpt lat="43.6595" lon="2.36173">
        <ele>597.5</ele>
        <time>2015-11-11T14:31:54.660Z</time>
      </trkpt>
      <trkpt lat="43.65951" lon="2.36166">
        <ele>597.5</ele>
        <time>2015-11-11T14:31:55.690Z</time>
      </trkpt>
      <trkpt lat="43.65952" lon="2.36159">
        <ele>597.5</ele>
        <time>2015-11-11T14:31:56.651Z</time>
      </trkpt>
      <trkpt lat="43.65954" lon="2.36152">
        <ele>596.5</ele>
        <time>2015-11-11T14:31:57.681Z</time>
      </trkpt>
      <trkpt lat="43.65956" lon="2.36144">
        <ele>596</ele>
        <time>2015-11-11T14:31:58.654Z</time>
      </trkpt>
      <trkpt lat="43.6596" lon="2.36137">
        <ele>595.6</ele>
        <time>2015-11-11T14:31:59.690Z</time>
      </trkpt>
      <trkpt lat="43.65962" lon="2.36128">
        <ele>595.2</ele>
        <time>2015-11-11T14:32:00.651Z</time>
      </trkpt>
      <trkpt lat="43.65965" lon="2.36119">
        <ele>594.5</ele>
        <time>2015-11-11T14:32:01.698Z</time>
      </trkpt>
      <trkpt lat="43.65967" lon="2.36111">
        <ele>594</ele>
        <time>2015-11-11T14:32:02.659Z</time>
      </trkpt>
      <trkpt lat="43.65969" lon="2.36103">
        <ele>593.4</ele>
        <time>2015-11-11T14:32:03.712Z</time>
      </trkpt>
      <trkpt lat="43.65972" lon="2.36095">
        <ele>593</ele>
        <time>2015-11-11T14:32:04.661Z</time>
      </trkpt>
      <trkpt lat="43.65975" lon="2.36088">
        <ele>592.7</ele>
        <time>2015-11-11T14:32:05.710Z</time>
      </trkpt>
      <trkpt lat="43.65978" lon="2.36081">
        <ele>592.2</ele>
        <time>2015-11-11T14:32:06.660Z</time>
      </trkpt>
      <trkpt lat="43.65981" lon="2.36073">
        <ele>591.5</ele>
        <time>2015-11-11T14:32:07.684Z</time>
      </trkpt>
      <trkpt lat="43.65983" lon="2.36065">
        <ele>591.1</ele>
        <time>2015-11-11T14:32:08.653Z</time>
      </trkpt>
      <trkpt lat="43.65987" lon="2.36057">
        <ele>590.8</ele>
        <time>2015-11-11T14:32:09.693Z</time>
      </trkpt>
      <trkpt lat="43.6599" lon="2.36049">
        <ele>590.5</ele>
        <time>2015-11-11T14:32:10.652Z</time>
      </trkpt>
      <trkpt lat="43.65992" lon="2.36041">
        <ele>590.1</ele>
        <time>2015-11-11T14:32:11.688Z</time>
      </trkpt>
      <trkpt lat="43.65995" lon="2.36033">
        <ele>590</ele>
        <time>2015-11-11T14:32:12.651Z</time>
      </trkpt>
      <trkpt lat="43.65998" lon="2.36026">
        <ele>589.6</ele>
        <time>2015-11-11T14:32:13.729Z</time>
      </trkpt>
      <trkpt lat="43.66001" lon="2.36019">
        <ele>589.3</ele>
        <time>2015-11-11T14:32:14.659Z</time>
      </trkpt>
      <trkpt lat="43.66003" lon="2.36014">
        <ele>588.9</ele>
        <time>2015-11-11T14:32:15.711Z</time>
      </trkpt>
      <trkpt lat="43.66007" lon="2.36009">
        <ele>588.5</ele>
        <time>2015-11-11T14:32:16.661Z</time>
      </trkpt>
      <trkpt lat="43.6601" lon="2.36004">
        <ele>588.1</ele>
        <time>2015-11-11T14:32:17.711Z</time>
      </trkpt>
      <trkpt lat="43.66014" lon="2.36">
        <ele>587.8</ele>
        <time>2015-11-11T14:32:18.660Z</time>
      </trkpt>
      <trkpt lat="43.66021" lon="2.35992">
        <ele>586.8</ele>
        <time>2015-11-11T14:32:20.676Z</time>
      </trkpt>
      <trkpt lat="43.66023" lon="2.35988">
        <ele>586.2</ele>
        <time>2015-11-11T14:32:21.655Z</time>
      </trkpt>
      <trkpt lat="43.66025" lon="2.35978">
        <ele>585</ele>
        <time>2015-11-11T14:32:23.684Z</time>
      </trkpt>
      <trkpt lat="43.66024" lon="2.35974">
        <ele>584</ele>
        <time>2015-11-11T14:32:24.652Z</time>
      </trkpt>
      <trkpt lat="43.66021" lon="2.35964">
        <ele>582.2</ele>
        <time>2015-11-11T14:32:26.733Z</time>
      </trkpt>
      <trkpt lat="43.66022" lon="2.35958">
        <ele>581.3</ele>
        <time>2015-11-11T14:32:27.652Z</time>
      </trkpt>
      <trkpt lat="43.66023" lon="2.3595">
        <ele>580.1</ele>
        <time>2015-11-11T14:32:28.678Z</time>
      </trkpt>
      <trkpt lat="43.66024" lon="2.35944">
        <ele>579.4</ele>
        <time>2015-11-11T14:32:29.651Z</time>
      </trkpt>
      <trkpt lat="43.66026" lon="2.35936">
        <ele>577.3</ele>
        <time>2015-11-11T14:32:31.693Z</time>
      </trkpt>
      <trkpt lat="43.66027" lon="2.35931">
        <ele>576.8</ele>
        <time>2015-11-11T14:32:32.653Z</time>
      </trkpt>
      <trkpt lat="43.66032" lon="2.35925">
        <ele>575.8</ele>
        <time>2015-11-11T14:32:34.683Z</time>
      </trkpt>
      <trkpt lat="43.66035" lon="2.35923">
        <ele>575</ele>
        <time>2015-11-11T14:32:35.653Z</time>
      </trkpt>
      <trkpt lat="43.6604" lon="2.35914">
        <ele>572.9</ele>
        <time>2015-11-11T14:32:38.685Z</time>
      </trkpt>
      <trkpt lat="43.66041" lon="2.3591">
        <ele>571.9</ele>
        <time>2015-11-11T14:32:39.655Z</time>
      </trkpt>
      <trkpt lat="43.66037" lon="2.35901">
        <ele>569.8</ele>
        <time>2015-11-11T14:32:43.711Z</time>
      </trkpt>
      <trkpt lat="43.66035" lon="2.35898">
        <ele>569.4</ele>
        <time>2015-11-11T14:32:44.660Z</time>
      </trkpt>
      <trkpt lat="43.66031" lon="2.35891">
        <ele>568.5</ele>
        <time>2015-11-11T14:32:46.677Z</time>
      </trkpt>
      <trkpt lat="43.66029" lon="2.35885">
        <ele>567.8</ele>
        <time>2015-11-11T14:32:47.652Z</time>
      </trkpt>
      <trkpt lat="43.66027" lon="2.35879">
        <ele>567.3</ele>
        <time>2015-11-11T14:32:48.678Z</time>
      </trkpt>
      <trkpt lat="43.66025" lon="2.35872">
        <ele>566.6</ele>
        <time>2015-11-11T14:32:49.652Z</time>
      </trkpt>
      <trkpt lat="43.66022" lon="2.35862">
        <ele>565.6</ele>
        <time>2015-11-11T14:32:51.730Z</time>
      </trkpt>
      <trkpt lat="43.6602" lon="2.35857">
        <ele>565.2</ele>
        <time>2015-11-11T14:32:52.662Z</time>
      </trkpt>
      <trkpt lat="43.66018" lon="2.35852">
        <ele>564.3</ele>
        <time>2015-11-11T14:32:53.711Z</time>
      </trkpt>
      <trkpt lat="43.66016" lon="2.35845">
        <ele>563.7</ele>
        <time>2015-11-11T14:32:54.659Z</time>
      </trkpt>
      <trkpt lat="43.66013" lon="2.35837">
        <ele>563.2</ele>
        <time>2015-11-11T14:32:55.737Z</time>
      </trkpt>
      <trkpt lat="43.66011" lon="2.35828">
        <ele>561.5</ele>
        <time>2015-11-11T14:32:56.659Z</time>
      </trkpt>
      <trkpt lat="43.66008" lon="2.35819">
        <ele>560.3</ele>
        <time>2015-11-11T14:32:57.832Z</time>
      </trkpt>
      <trkpt lat="43.66009" lon="2.3581">
        <ele>559.4</ele>
        <time>2015-11-11T14:32:58.662Z</time>
      </trkpt>
      <trkpt lat="43.6601" lon="2.35801">
        <ele>558.8</ele>
        <time>2015-11-11T14:32:59.711Z</time>
      </trkpt>
      <trkpt lat="43.66011" lon="2.35793">
        <ele>557.4</ele>
        <time>2015-11-11T14:33:00.660Z</time>
      </trkpt>
      <trkpt lat="43.66013" lon="2.35784">
        <ele>556.7</ele>
        <time>2015-11-11T14:33:01.712Z</time>
      </trkpt>
      <trkpt lat="43.66014" lon="2.35776">
        <ele>555.9</ele>
        <time>2015-11-11T14:33:02.651Z</time>
      </trkpt>
      <trkpt lat="43.66015" lon="2.35768">
        <ele>555.3</ele>
        <time>2015-11-11T14:33:03.689Z</time>
      </trkpt>
      <trkpt lat="43.66016" lon="2.35759">
        <ele>554.5</ele>
        <time>2015-11-11T14:33:04.652Z</time>
      </trkpt>
      <trkpt lat="43.66016" lon="2.35751">
        <ele>554.7</ele>
        <time>2015-11-11T14:33:05.692Z</time>
      </trkpt>
      <trkpt lat="43.66016" lon="2.35744">
        <ele>554.3</ele>
        <time>2015-11-11T14:33:06.654Z</time>
      </trkpt>
      <trkpt lat="43.66014" lon="2.35736">
        <ele>554.6</ele>
        <time>2015-11-11T14:33:07.692Z</time>
      </trkpt>
      <trkpt lat="43.66013" lon="2.3573">
        <ele>554.9</ele>
        <time>2015-11-11T14:33:08.660Z</time>
      </trkpt>
      <trkpt lat="43.66012" lon="2.35723">
        <ele>554.8</ele>
        <time>2015-11-11T14:33:09.712Z</time>
      </trkpt>
      <trkpt lat="43.66012" lon="2.35717">
        <ele>554.6</ele>
        <time>2015-11-11T14:33:10.661Z</time>
      </trkpt>
      <trkpt lat="43.6601" lon="2.35705">
        <ele>554.3</ele>
        <time>2015-11-11T14:33:12.684Z</time>
      </trkpt>
      <trkpt lat="43.66009" lon="2.35699">
        <ele>554.1</ele>
        <time>2015-11-11T14:33:13.655Z</time>
      </trkpt>
      <trkpt lat="43.66007" lon="2.35688">
        <ele>553.7</ele>
        <time>2015-11-11T14:33:15.685Z</time>
      </trkpt>
      <trkpt lat="43.66006" lon="2.35683">
        <ele>553.5</ele>
        <time>2015-11-11T14:33:16.653Z</time>
      </trkpt>
      <trkpt lat="43.66004" lon="2.35671">
        <ele>552.6</ele>
        <time>2015-11-11T14:33:18.698Z</time>
      </trkpt>
      <trkpt lat="43.66003" lon="2.35667">
        <ele>552.1</ele>
        <time>2015-11-11T14:33:19.672Z</time>
      </trkpt>
      <trkpt lat="43.66002" lon="2.35658">
        <ele>551</ele>
        <time>2015-11-11T14:33:21.711Z</time>
      </trkpt>
      <trkpt lat="43.66" lon="2.35652">
        <ele>550.6</ele>
        <time>2015-11-11T14:33:22.661Z</time>
      </trkpt>
      <trkpt lat="43.65999" lon="2.35645">
        <ele>549.9</ele>
        <time>2015-11-11T14:33:23.699Z</time>
      </trkpt>
      <trkpt lat="43.65998" lon="2.35638">
        <ele>549.3</ele>
        <time>2015-11-11T14:33:24.659Z</time>
      </trkpt>
      <trkpt lat="43.65996" lon="2.3563">
        <ele>548.9</ele>
        <time>2015-11-11T14:33:25.692Z</time>
      </trkpt>
      <trkpt lat="43.65994" lon="2.35621">
        <ele>548.4</ele>
        <time>2015-11-11T14:33:26.652Z</time>
      </trkpt>
      <trkpt lat="43.65992" lon="2.35612">
        <ele>548</ele>
        <time>2015-11-11T14:33:27.687Z</time>
      </trkpt>
      <trkpt lat="43.6599" lon="2.35602">
        <ele>547.5</ele>
        <time>2015-11-11T14:33:28.654Z</time>
      </trkpt>
      <trkpt lat="43.65988" lon="2.35591">
        <ele>546.9</ele>
        <time>2015-11-11T14:33:29.693Z</time>
      </trkpt>
      <trkpt lat="43.65986" lon="2.35579">
        <ele>546.3</ele>
        <time>2015-11-11T14:33:30.648Z</time>
      </trkpt>
      <trkpt lat="43.65986" lon="2.35579">
        <ele>546.3</ele>
        <time>2015-11-11T14:33:30.688Z</time>
      </trkpt>
      <trkpt lat="43.65983" lon="2.35567">
        <ele>545.8</ele>
        <time>2015-11-11T14:33:31.672Z</time>
      </trkpt>
      <trkpt lat="43.65983" lon="2.35567">
        <ele>545.8</ele>
        <time>2015-11-11T14:33:31.729Z</time>
      </trkpt>
      <trkpt lat="43.65981" lon="2.35554">
        <ele>545.3</ele>
        <time>2015-11-11T14:33:32.659Z</time>
      </trkpt>
      <trkpt lat="43.65981" lon="2.35554">
        <ele>545.3</ele>
        <time>2015-11-11T14:33:32.864Z</time>
      </trkpt>
      <trkpt lat="43.65979" lon="2.3554">
        <ele>544.6</ele>
        <time>2015-11-11T14:33:33.656Z</time>
      </trkpt>
      <trkpt lat="43.65979" lon="2.3554">
        <ele>544.6</ele>
        <time>2015-11-11T14:33:33.689Z</time>
      </trkpt>
      <trkpt lat="43.65978" lon="2.35526">
        <ele>544</ele>
        <time>2015-11-11T14:33:34.652Z</time>
      </trkpt>
      <trkpt lat="43.65978" lon="2.35526">
        <ele>544</ele>
        <time>2015-11-11T14:33:35.058Z</time>
      </trkpt>
      <trkpt lat="43.65976" lon="2.35511">
        <ele>543.4</ele>
        <time>2015-11-11T14:33:35.656Z</time>
      </trkpt>
      <trkpt lat="43.65976" lon="2.35511">
        <ele>543.4</ele>
        <time>2015-11-11T14:33:35.692Z</time>
      </trkpt>
      <trkpt lat="43.65975" lon="2.35496">
        <ele>542.7</ele>
        <time>2015-11-11T14:33:36.651Z</time>
      </trkpt>
      <trkpt lat="43.65975" lon="2.35496">
        <ele>542.7</ele>
        <time>2015-11-11T14:33:36.689Z</time>
      </trkpt>
      <trkpt lat="43.65973" lon="2.35482">
        <ele>541.9</ele>
        <time>2015-11-11T14:33:37.656Z</time>
      </trkpt>
      <trkpt lat="43.65973" lon="2.35482">
        <ele>541.9</ele>
        <time>2015-11-11T14:33:37.699Z</time>
      </trkpt>
      <trkpt lat="43.65972" lon="2.35467">
        <ele>541.2</ele>
        <time>2015-11-11T14:33:38.660Z</time>
      </trkpt>
      <trkpt lat="43.65972" lon="2.35467">
        <ele>541.2</ele>
        <time>2015-11-11T14:33:38.715Z</time>
      </trkpt>
      <trkpt lat="43.65971" lon="2.35453">
        <ele>540.4</ele>
        <time>2015-11-11T14:33:39.674Z</time>
      </trkpt>
      <trkpt lat="43.65971" lon="2.35453">
        <ele>540.4</ele>
        <time>2015-11-11T14:33:39.731Z</time>
      </trkpt>
      <trkpt lat="43.6597" lon="2.35438">
        <ele>539.8</ele>
        <time>2015-11-11T14:33:40.662Z</time>
      </trkpt>
      <trkpt lat="43.6597" lon="2.35438">
        <ele>539.8</ele>
        <time>2015-11-11T14:33:40.716Z</time>
      </trkpt>
      <trkpt lat="43.65969" lon="2.35423">
        <ele>539.1</ele>
        <time>2015-11-11T14:33:41.672Z</time>
      </trkpt>
      <trkpt lat="43.65969" lon="2.35423">
        <ele>539.1</ele>
        <time>2015-11-11T14:33:41.728Z</time>
      </trkpt>
      <trkpt lat="43.65968" lon="2.35409">
        <ele>538.5</ele>
        <time>2015-11-11T14:33:42.655Z</time>
      </trkpt>
      <trkpt lat="43.65968" lon="2.35409">
        <ele>538.5</ele>
        <time>2015-11-11T14:33:42.697Z</time>
      </trkpt>
      <trkpt lat="43.65967" lon="2.35395">
        <ele>538</ele>
        <time>2015-11-11T14:33:43.656Z</time>
      </trkpt>
      <trkpt lat="43.65967" lon="2.35395">
        <ele>538</ele>
        <time>2015-11-11T14:33:43.686Z</time>
      </trkpt>
      <trkpt lat="43.65966" lon="2.35382">
        <ele>537.5</ele>
        <time>2015-11-11T14:33:44.652Z</time>
      </trkpt>
      <trkpt lat="43.65966" lon="2.35382">
        <ele>537.5</ele>
        <time>2015-11-11T14:33:44.688Z</time>
      </trkpt>
      <trkpt lat="43.65965" lon="2.35369">
        <ele>537</ele>
        <time>2015-11-11T14:33:45.654Z</time>
      </trkpt>
      <trkpt lat="43.65965" lon="2.35369">
        <ele>537</ele>
        <time>2015-11-11T14:33:45.686Z</time>
      </trkpt>
      <trkpt lat="43.65964" lon="2.35356">
        <ele>536.5</ele>
        <time>2015-11-11T14:33:46.654Z</time>
      </trkpt>
      <trkpt lat="43.65961" lon="2.35344">
        <ele>536.3</ele>
        <time>2015-11-11T14:33:47.703Z</time>
      </trkpt>
      <trkpt lat="43.65959" lon="2.35333">
        <ele>536.7</ele>
        <time>2015-11-11T14:33:48.660Z</time>
      </trkpt>
      <trkpt lat="43.65956" lon="2.35322">
        <ele>536.6</ele>
        <time>2015-11-11T14:33:49.853Z</time>
      </trkpt>
      <trkpt lat="43.65954" lon="2.35311">
        <ele>536</ele>
        <time>2015-11-11T14:33:50.652Z</time>
      </trkpt>
      <trkpt lat="43.65952" lon="2.353">
        <ele>535.7</ele>
        <time>2015-11-11T14:33:51.692Z</time>
      </trkpt>
      <trkpt lat="43.6595" lon="2.3529">
        <ele>535</ele>
        <time>2015-11-11T14:33:52.654Z</time>
      </trkpt>
      <trkpt lat="43.65947" lon="2.3528">
        <ele>534.2</ele>
        <time>2015-11-11T14:33:53.693Z</time>
      </trkpt>
      <trkpt lat="43.65944" lon="2.3527">
        <ele>533.6</ele>
        <time>2015-11-11T14:33:54.649Z</time>
      </trkpt>
      <trkpt lat="43.65941" lon="2.35259">
        <ele>533.4</ele>
        <time>2015-11-11T14:33:55.713Z</time>
      </trkpt>
      <trkpt lat="43.65939" lon="2.35249">
        <ele>533</ele>
        <time>2015-11-11T14:33:56.659Z</time>
      </trkpt>
      <trkpt lat="43.65936" lon="2.35239">
        <ele>532.7</ele>
        <time>2015-11-11T14:33:57.693Z</time>
      </trkpt>
      <trkpt lat="43.65933" lon="2.35228">
        <ele>532.5</ele>
        <time>2015-11-11T14:33:58.653Z</time>
      </trkpt>
      <trkpt lat="43.6593" lon="2.35218">
        <ele>532.4</ele>
        <time>2015-11-11T14:33:59.692Z</time>
      </trkpt>
      <trkpt lat="43.65927" lon="2.35208">
        <ele>532.3</ele>
        <time>2015-11-11T14:34:00.653Z</time>
      </trkpt>
      <trkpt lat="43.65925" lon="2.35198">
        <ele>532.3</ele>
        <time>2015-11-11T14:34:01.691Z</time>
      </trkpt>
      <trkpt lat="43.65921" lon="2.35188">
        <ele>531.7</ele>
        <time>2015-11-11T14:34:02.653Z</time>
      </trkpt>
      <trkpt lat="43.65918" lon="2.35177">
        <ele>531.1</ele>
        <time>2015-11-11T14:34:03.733Z</time>
      </trkpt>
      <trkpt lat="43.65915" lon="2.35167">
        <ele>530.9</ele>
        <time>2015-11-11T14:34:04.662Z</time>
      </trkpt>
      <trkpt lat="43.65912" lon="2.35156">
        <ele>530.5</ele>
        <time>2015-11-11T14:34:05.712Z</time>
      </trkpt>
      <trkpt lat="43.65909" lon="2.35144">
        <ele>530</ele>
        <time>2015-11-11T14:34:06.660Z</time>
      </trkpt>
      <trkpt lat="43.65909" lon="2.35144">
        <ele>530</ele>
        <time>2015-11-11T14:34:06.784Z</time>
      </trkpt>
      <trkpt lat="43.65907" lon="2.35132">
        <ele>528.5</ele>
        <time>2015-11-11T14:34:07.652Z</time>
      </trkpt>
      <trkpt lat="43.65907" lon="2.35132">
        <ele>528.5</ele>
        <time>2015-11-11T14:34:07.695Z</time>
      </trkpt>
      <trkpt lat="43.65905" lon="2.35119">
        <ele>527.9</ele>
        <time>2015-11-11T14:34:08.654Z</time>
      </trkpt>
      <trkpt lat="43.65905" lon="2.35119">
        <ele>527.9</ele>
        <time>2015-11-11T14:34:08.695Z</time>
      </trkpt>
      <trkpt lat="43.65902" lon="2.35105">
        <ele>527</ele>
        <time>2015-11-11T14:34:09.653Z</time>
      </trkpt>
      <trkpt lat="43.65902" lon="2.35105">
        <ele>527</ele>
        <time>2015-11-11T14:34:09.698Z</time>
      </trkpt>
      <trkpt lat="43.659" lon="2.35091">
        <ele>526</ele>
        <time>2015-11-11T14:34:10.655Z</time>
      </trkpt>
      <trkpt lat="43.659" lon="2.35091">
        <ele>526</ele>
        <time>2015-11-11T14:34:10.691Z</time>
      </trkpt>
      <trkpt lat="43.65899" lon="2.35078">
        <ele>525.2</ele>
        <time>2015-11-11T14:34:11.656Z</time>
      </trkpt>
      <trkpt lat="43.65899" lon="2.35078">
        <ele>525.2</ele>
        <time>2015-11-11T14:34:11.687Z</time>
      </trkpt>
      <trkpt lat="43.65897" lon="2.35064">
        <ele>524.5</ele>
        <time>2015-11-11T14:34:12.652Z</time>
      </trkpt>
      <trkpt lat="43.65897" lon="2.35064">
        <ele>524.5</ele>
        <time>2015-11-11T14:34:12.685Z</time>
      </trkpt>
      <trkpt lat="43.65896" lon="2.35051">
        <ele>524.3</ele>
        <time>2015-11-11T14:34:14.069Z</time>
      </trkpt>
      <trkpt lat="43.65896" lon="2.35051">
        <ele>524.3</ele>
        <time>2015-11-11T14:34:14.096Z</time>
      </trkpt>
      <trkpt lat="43.65894" lon="2.35038">
        <ele>523.6</ele>
        <time>2015-11-11T14:34:14.651Z</time>
      </trkpt>
      <trkpt lat="43.65894" lon="2.35038">
        <ele>523.6</ele>
        <time>2015-11-11T14:34:14.690Z</time>
      </trkpt>
      <trkpt lat="43.65893" lon="2.35025">
        <ele>523</ele>
        <time>2015-11-11T14:34:15.657Z</time>
      </trkpt>
      <trkpt lat="43.65892" lon="2.35014">
        <ele>523.5</ele>
        <time>2015-11-11T14:34:16.686Z</time>
      </trkpt>
      <trkpt lat="43.6589" lon="2.35002">
        <ele>523.2</ele>
        <time>2015-11-11T14:34:17.657Z</time>
      </trkpt>
      <trkpt lat="43.65889" lon="2.34991">
        <ele>523.2</ele>
        <time>2015-11-11T14:34:18.686Z</time>
      </trkpt>
      <trkpt lat="43.65887" lon="2.3498">
        <ele>523</ele>
        <time>2015-11-11T14:34:19.657Z</time>
      </trkpt>
      <trkpt lat="43.65886" lon="2.34969">
        <ele>522.7</ele>
        <time>2015-11-11T14:34:20.699Z</time>
      </trkpt>
      <trkpt lat="43.65885" lon="2.34958">
        <ele>522.5</ele>
        <time>2015-11-11T14:34:21.672Z</time>
      </trkpt>
      <trkpt lat="43.65883" lon="2.34948">
        <ele>522.1</ele>
        <time>2015-11-11T14:34:22.701Z</time>
      </trkpt>
      <trkpt lat="43.65882" lon="2.34938">
        <ele>522.1</ele>
        <time>2015-11-11T14:34:23.671Z</time>
      </trkpt>
      <trkpt lat="43.65881" lon="2.34928">
        <ele>522</ele>
        <time>2015-11-11T14:34:25.098Z</time>
      </trkpt>
      <trkpt lat="43.65879" lon="2.34919">
        <ele>522</ele>
        <time>2015-11-11T14:34:25.652Z</time>
      </trkpt>
      <trkpt lat="43.65878" lon="2.34909">
        <ele>521.9</ele>
        <time>2015-11-11T14:34:26.679Z</time>
      </trkpt>
      <trkpt lat="43.65877" lon="2.349">
        <ele>521.8</ele>
        <time>2015-11-11T14:34:27.653Z</time>
      </trkpt>
      <trkpt lat="43.65876" lon="2.3489">
        <ele>521.7</ele>
        <time>2015-11-11T14:34:28.680Z</time>
      </trkpt>
      <trkpt lat="43.65875" lon="2.34881">
        <ele>521.7</ele>
        <time>2015-11-11T14:34:29.654Z</time>
      </trkpt>
      <trkpt lat="43.65874" lon="2.34872">
        <ele>521.9</ele>
        <time>2015-11-11T14:34:30.684Z</time>
      </trkpt>
      <trkpt lat="43.65873" lon="2.34863">
        <ele>522.4</ele>
        <time>2015-11-11T14:34:31.654Z</time>
      </trkpt>
      <trkpt lat="43.65872" lon="2.34854">
        <ele>522.6</ele>
        <time>2015-11-11T14:34:32.715Z</time>
      </trkpt>
      <trkpt lat="43.6587" lon="2.34845">
        <ele>522.9</ele>
        <time>2015-11-11T14:34:33.652Z</time>
      </trkpt>
      <trkpt lat="43.65869" lon="2.34835">
        <ele>523</ele>
        <time>2015-11-11T14:34:34.683Z</time>
      </trkpt>
      <trkpt lat="43.65868" lon="2.34825">
        <ele>522.9</ele>
        <time>2015-11-11T14:34:35.651Z</time>
      </trkpt>
      <trkpt lat="43.65867" lon="2.34815">
        <ele>522.8</ele>
        <time>2015-11-11T14:34:36.690Z</time>
      </trkpt>
      <trkpt lat="43.65866" lon="2.34805">
        <ele>522.7</ele>
        <time>2015-11-11T14:34:37.672Z</time>
      </trkpt>
      <trkpt lat="43.65864" lon="2.34795">
        <ele>522.6</ele>
        <time>2015-11-11T14:34:38.698Z</time>
      </trkpt>
      <trkpt lat="43.65863" lon="2.34784">
        <ele>522.3</ele>
        <time>2015-11-11T14:34:39.672Z</time>
      </trkpt>
      <trkpt lat="43.65861" lon="2.34773">
        <ele>522.2</ele>
        <time>2015-11-11T14:34:40.739Z</time>
      </trkpt>
      <trkpt lat="43.6586" lon="2.34763">
        <ele>522.1</ele>
        <time>2015-11-11T14:34:41.672Z</time>
      </trkpt>
      <trkpt lat="43.65858" lon="2.34753">
        <ele>521.9</ele>
        <time>2015-11-11T14:34:42.684Z</time>
      </trkpt>
      <trkpt lat="43.65856" lon="2.34745">
        <ele>521.8</ele>
        <time>2015-11-11T14:34:43.656Z</time>
      </trkpt>
      <trkpt lat="43.65856" lon="2.34738">
        <ele>521.6</ele>
        <time>2015-11-11T14:34:44.684Z</time>
      </trkpt>
      <trkpt lat="43.65856" lon="2.34732">
        <ele>521.3</ele>
        <time>2015-11-11T14:34:45.652Z</time>
      </trkpt>
      <trkpt lat="43.65858" lon="2.34722">
        <ele>520.3</ele>
        <time>2015-11-11T14:34:48.699Z</time>
      </trkpt>
      <trkpt lat="43.65861" lon="2.34721">
        <ele>520</ele>
        <time>2015-11-11T14:34:49.672Z</time>
      </trkpt>
      <trkpt lat="43.65866" lon="2.34722">
        <ele>519.1</ele>
        <time>2015-11-11T14:34:51.711Z</time>
      </trkpt>
      <trkpt lat="43.6587" lon="2.34724">
        <ele>518.5</ele>
        <time>2015-11-11T14:34:52.661Z</time>
      </trkpt>
      <trkpt lat="43.65878" lon="2.34727">
        <ele>517.4</ele>
        <time>2015-11-11T14:34:54.698Z</time>
      </trkpt>
      <trkpt lat="43.65883" lon="2.34728">
        <ele>516.7</ele>
        <time>2015-11-11T14:34:55.671Z</time>
      </trkpt>
      <trkpt lat="43.65888" lon="2.34729">
        <ele>516.1</ele>
        <time>2015-11-11T14:34:56.683Z</time>
      </trkpt>
      <trkpt lat="43.65892" lon="2.34731">
        <ele>515.3</ele>
        <time>2015-11-11T14:34:57.651Z</time>
      </trkpt>
      <trkpt lat="43.65897" lon="2.34733">
        <ele>514.4</ele>
        <time>2015-11-11T14:34:58.684Z</time>
      </trkpt>
      <trkpt lat="43.65902" lon="2.34734">
        <ele>513.6</ele>
        <time>2015-11-11T14:34:59.652Z</time>
      </trkpt>
      <trkpt lat="43.65907" lon="2.34736">
        <ele>512.9</ele>
        <time>2015-11-11T14:35:00.685Z</time>
      </trkpt>
      <trkpt lat="43.65911" lon="2.34737">
        <ele>512</ele>
        <time>2015-11-11T14:35:01.654Z</time>
      </trkpt>
      <trkpt lat="43.65915" lon="2.34739">
        <ele>510.8</ele>
        <time>2015-11-11T14:35:02.699Z</time>
      </trkpt>
      <trkpt lat="43.6592" lon="2.3474">
        <ele>509.3</ele>
        <time>2015-11-11T14:35:03.672Z</time>
      </trkpt>
      <trkpt lat="43.65925" lon="2.34742">
        <ele>508.3</ele>
        <time>2015-11-11T14:35:04.701Z</time>
      </trkpt>
      <trkpt lat="43.65931" lon="2.34743">
        <ele>506.9</ele>
        <time>2015-11-11T14:35:05.672Z</time>
      </trkpt>
      <trkpt lat="43.65937" lon="2.34744">
        <ele>504.9</ele>
        <time>2015-11-11T14:35:06.678Z</time>
      </trkpt>
      <trkpt lat="43.65943" lon="2.34745">
        <ele>503.5</ele>
        <time>2015-11-11T14:35:07.653Z</time>
      </trkpt>
      <trkpt lat="43.6595" lon="2.34746">
        <ele>501.1</ele>
        <time>2015-11-11T14:35:08.677Z</time>
      </trkpt>
      <trkpt lat="43.65956" lon="2.34746">
        <ele>500</ele>
        <time>2015-11-11T14:35:09.654Z</time>
      </trkpt>
      <trkpt lat="43.65961" lon="2.34747">
        <ele>498.9</ele>
        <time>2015-11-11T14:35:10.680Z</time>
      </trkpt>
      <trkpt lat="43.65966" lon="2.34748">
        <ele>497.8</ele>
        <time>2015-11-11T14:35:11.651Z</time>
      </trkpt>
      <trkpt lat="43.65973" lon="2.34747">
        <ele>495.4</ele>
        <time>2015-11-11T14:35:13.682Z</time>
      </trkpt>
      <trkpt lat="43.65977" lon="2.34747">
        <ele>494.7</ele>
        <time>2015-11-11T14:35:14.648Z</time>
      </trkpt>
      <trkpt lat="43.65984" lon="2.34746">
        <ele>492.7</ele>
        <time>2015-11-11T14:35:16.688Z</time>
      </trkpt>
      <trkpt lat="43.65986" lon="2.34744">
        <ele>491.8</ele>
        <time>2015-11-11T14:35:17.652Z</time>
      </trkpt>
      <trkpt lat="43.65982" lon="2.34735">
        <ele>490.3</ele>
        <time>2015-11-11T14:35:21.699Z</time>
      </trkpt>
      <trkpt lat="43.6598" lon="2.34734">
        <ele>490.4</ele>
        <time>2015-11-11T14:35:22.661Z</time>
      </trkpt>
      <trkpt lat="43.65971" lon="2.34731">
        <ele>488.8</ele>
        <time>2015-11-11T14:35:26.717Z</time>
      </trkpt>
      <trkpt lat="43.65969" lon="2.3473">
        <ele>488.2</ele>
        <time>2015-11-11T14:35:27.652Z</time>
      </trkpt>
      <trkpt lat="43.65961" lon="2.34724">
        <ele>486</ele>
        <time>2015-11-11T14:35:31.692Z</time>
      </trkpt>
      <trkpt lat="43.6596" lon="2.34722">
        <ele>485.4</ele>
        <time>2015-11-11T14:35:32.652Z</time>
      </trkpt>
      <trkpt lat="43.65954" lon="2.34715">
        <ele>484.3</ele>
        <time>2015-11-11T14:35:35.715Z</time>
      </trkpt>
      <trkpt lat="43.65952" lon="2.34712">
        <ele>483.8</ele>
        <time>2015-11-11T14:35:36.659Z</time>
      </trkpt>
      <trkpt lat="43.65951" lon="2.34701">
        <ele>482</ele>
        <time>2015-11-11T14:35:39.686Z</time>
      </trkpt>
      <trkpt lat="43.65953" lon="2.34697">
        <ele>481.7</ele>
        <time>2015-11-11T14:35:40.653Z</time>
      </trkpt>
      <trkpt lat="43.65957" lon="2.3469">
        <ele>481.6</ele>
        <time>2015-11-11T14:35:42.678Z</time>
      </trkpt>
      <trkpt lat="43.65959" lon="2.34687">
        <ele>481.3</ele>
        <time>2015-11-11T14:35:43.649Z</time>
      </trkpt>
      <trkpt lat="43.65966" lon="2.34688">
        <ele>481.2</ele>
        <time>2015-11-11T14:35:54.679Z</time>
      </trkpt>
      <trkpt lat="43.65967" lon="2.34691">
        <ele>482.9</ele>
        <time>2015-11-11T14:35:55.652Z</time>
      </trkpt>
      <trkpt lat="43.65969" lon="2.34694">
        <ele>486.9</ele>
        <time>2015-11-11T14:36:14.124Z</time>
      </trkpt>
    </trkseg>
  </trk>
</gpx>